# Wetter Temperatur Luftdruck Luftfeuchtigkeit Sichtweite Windgeschwindigkeit Windrichtung Zeit
1 Clouds 27 1008 83 10000 0.87 224 22:28 24.01.2020
2 Clouds 24 1008 100 10000 0.87 224 21:58 24.01.2020
3 Clouds 24 1008 100 10000 0.87 224 21:40 24.01.2020
4 Clouds 24 1008 100 10000 0.87 224 21:18 24.01.2020
5 Clouds 23 1007 100 10000 0.87 224 20:43 24.01.2020
6 Clouds 23 1007 100 10000 1.18 215 20:22 24.01.2020
7 Clouds 23 1007 100 10000 1 160 19:58 24.01.2020
8 Clouds 23 1007 100 10000 1 160 19:40 24.01.2020
9 Clouds 23 1007 100 10000 1 160 19:22 24.01.2020
10 Clouds 23 1007 100 10000 1 160 19:22 24.01.2020
11 Clouds 23 1006 100 10000 1.18 215 18:54 24.01.2020
12 Clouds 23 1006 100 10000 1.18 215 18:36 24.01.2020
13 Clouds 23 1006 100 10000 1.18 215 18:18 24.01.2020
14 Clouds 24 1007 100 10000 1 200 17:42 24.01.2020
15 Clouds 24 1007 100 10000 1 200 17:21 24.01.2020
16 Clouds 24 1007 100 10000 1 160 16:43 24.01.2020
17 Clouds 24 1007 100 10000 1 160 16:22 24.01.2020
18 Clouds 24 1007 100 10000 1 160 16:22 24.01.2020
19 Clouds 24 1008 100 10000 1 160 15:56 24.01.2020
20 Clouds 24 1008 100 10000 1 160 15:38 24.01.2020
21 Clouds 24 1008 100 10000 1 160 15:19 24.01.2020
22 Clouds 25 1008 94 10000 1 140 14:41 24.01.2020
23 Clouds 25 1008 94 10000 1 140 14:41 24.01.2020
24 Clouds 25 1008 94 10000 1 140 14:23 24.01.2020
25 Clouds 25 1008 94 10000 1 140 14:23 24.01.2020
26 Clouds 25 1009 94 10000 1.5 140 13:45 24.01.2020
27 Clouds 25 1009 94 10000 1.5 140 13:24 24.01.2020
28 Clouds 26 1009 94 10000 1.5 110 12:55 24.01.2020
29 Clouds 26 1009 94 10000 1.5 110 12:36 24.01.2020
30 Clouds 26 1009 94 10000 1.5 110 12:18 24.01.2020
31 Clouds 26 1008 94 10000 2.1 140 11:42 24.01.2020
32 Clouds 26 1008 94 10000 2.1 140 11:18 24.01.2020
33 Rain 27 1008 94 10000 2.1 140 10:43 24.01.2020
34 Rain 27 1008 94 10000 2.1 140 10:21 24.01.2020
35 Clouds 27 1007 88 10000 3.1 140 09:55 24.01.2020
36 Clouds 27 1007 88 10000 3.1 140 09:37 24.01.2020
37 Clouds 27 1007 88 10000 3.1 140 09:18 24.01.2020
38 Rain 31 1006 79 10000 2.1 140 08:40 24.01.2020
39 Rain 31 1006 79 10000 2.1 140 08:19 24.01.2020
40 Rain 30 1006 79 10000 3.6 320 07:49 24.01.2020
41 Rain 30 1006 79 10000 3.6 320 07:24 24.01.2020
42 Clouds 31 1006 74 10000 5.1 320 06:45 24.01.2020
43 Clouds 31 1006 74 10000 5.1 320 06:24 24.01.2020
44 Clouds 31 1006 74 10000 5.1 320 05:37 24.01.2020
45 Clouds 31 1007 74 10000 3.6 360 03:47 24.01.2020
46 Clouds 30 1008 74 10000 4.1 320 02:41 24.01.2020
47 Clouds 30 1008 74 10000 4.1 320 02:22 24.01.2020
48 Clouds 31 1009 66 10000 3.1 360 01:39 24.01.2020
49 Clouds 31 1009 66 10000 2.6 340 00:52 24.01.2020
50 Clouds 31 1009 66 10000 2.6 340 00:19 24.01.2020
51 Clouds 31 1009 62 10000 1 50 23:42 23.01.2020
52 Clouds 31 1009 62 10000 1 50 23:23 23.01.2020
53 Clouds 27 1009 74 10000 2.1 180 22:58 23.01.2020
54 Clouds 27 1009 74 10000 2.1 180 22:37 23.01.2020
55 Clouds 27 1009 74 10000 2.1 180 22:37 23.01.2020
56 Clouds 27 1009 74 10000 2.1 180 22:18 23.01.2020
57 Clouds 24 1009 94 10000 0.69 203 21:55 23.01.2020
58 Clouds 24 1009 94 10000 0.69 203 21:37 23.01.2020
59 Clouds 24 1009 94 10000 0.69 203 21:19 23.01.2020
60 Clouds 23 1008 94 10000 0.69 203 20:54 23.01.2020
61 Clouds 23 1008 94 10000 0.47 219 20:36 23.01.2020
62 Clouds 23 1008 94 10000 1.07 189 20:18 23.01.2020
63 Clouds 23 1008 88 10000 1.07 189 19:42 23.01.2020
64 Clouds 23 1008 88 10000 1.07 189 19:23 23.01.2020
65 Clouds 23 1008 94 10000 1.07 189 18:57 23.01.2020
66 Clouds 23 1008 94 10000 1.07 189 18:38 23.01.2020
67 Clouds 23 1008 94 10000 1.07 189 18:19 23.01.2020
68 Clouds 23 1008 100 10000 1.07 189 17:45 23.01.2020
69 Clouds 23 1008 100 10000 1.25 218 17:21 23.01.2020
70 Clouds 24 1008 94 10000 1.25 218 16:59 23.01.2020
71 Clouds 24 1008 94 10000 1.25 218 16:39 23.01.2020
72 Clouds 24 1008 94 10000 1.25 218 16:19 23.01.2020
73 Clouds 24 1009 94 10000 1.25 218 15:58 23.01.2020
74 Clouds 24 1009 94 10000 1.25 218 15:38 23.01.2020
75 Clouds 24 1009 94 10000 1.25 218 15:38 23.01.2020
76 Clouds 24 1009 94 10000 1.25 218 15:19 23.01.2020
77 Clouds 25 1009 88 10000 1.25 218 14:58 23.01.2020
78 Clouds 25 1009 88 10000 1.25 218 14:40 23.01.2020
79 Clouds 25 1009 88 10000 1.28 216 14:21 23.01.2020
80 Clouds 25 1010 88 10000 1.5 180 13:46 23.01.2020
81 Clouds 25 1010 88 10000 1.5 180 13:21 23.01.2020
82 Clouds 26 1010 83 10000 1 230 12:56 23.01.2020
83 Clouds 26 1010 83 10000 1 230 12:56 23.01.2020
84 Clouds 26 1010 83 10000 1 230 12:38 23.01.2020
85 Clouds 26 1010 83 10000 1 230 12:20 23.01.2020
86 Clouds 28 1009 78 10000 2.1 250 11:43 23.01.2020
87 Clouds 28 1009 78 10000 2.1 250 11:25 23.01.2020
88 Clouds 28 1008 78 10000 3.1 200 10:58 23.01.2020
89 Clouds 28 1008 78 10000 3.1 200 10:40 23.01.2020
90 Clouds 28 1008 78 10000 3.1 200 10:19 23.01.2020
91 Clouds 29 1008 79 10000 2.1 180 09:41 23.01.2020
92 Clouds 29 1008 79 10000 2.1 180 09:22 23.01.2020
93 Clouds 31 1007 74 10000 3.1 320 08:56 23.01.2020
94 Clouds 31 1007 74 10000 3.1 320 08:38 23.01.2020
95 Clouds 31 1007 74 10000 3.1 320 08:18 23.01.2020
96 Clouds 32 1007 66 10000 5.1 340 07:37 23.01.2020
97 Clouds 32 1007 66 10000 5.1 340 07:18 23.01.2020
98 Clouds 32 1007 70 10000 2.6 340 06:44 23.01.2020
99 Clouds 32 1007 70 10000 2.6 340 06:18 23.01.2020
100 Clouds 32 1008 66 10000 5.1 360 04:25 23.01.2020
101 Clouds 32 1009 66 10000 3.1 20 03:23 23.01.2020
102 Clouds 31 1010 62 10000 3.6 360 01:53 23.01.2020
103 Clouds 31 1010 66 10000 2.6 360 00:44 23.01.2020
104 Clouds 31 1010 66 10000 2.6 360 00:22 23.01.2020
105 Clouds 30 1010 66 10000 1 200 23:46 22.01.2020
106 Clouds 30 1010 66 10000 1 200 23:28 22.01.2020
107 Clouds 27 1010 74 10000 1 200 22:43 22.01.2020
108 Clouds 27 1010 74 10000 1 200 22:25 22.01.2020
109 Clouds 25 1009 83 10000 1.5 200 21:58 22.01.2020
110 Clouds 25 1009 83 10000 1.5 200 21:36 22.01.2020
111 Clouds 25 1009 83 10000 1.5 200 21:36 22.01.2020
112 Clouds 25 1009 83 10000 1.5 200 21:18 22.01.2020
113 Clouds 24 1009 88 10000 1 200 20:42 22.01.2020
114 Clouds 24 1009 88 10000 1 200 20:23 22.01.2020
115 Clouds 24 1008 88 10000 1 180 19:59 22.01.2020
116 Clouds 24 1008 88 10000 1 180 19:41 22.01.2020
117 Clouds 24 1008 88 10000 1 180 19:20 22.01.2020
118 Clouds 24 1008 94 10000 1 180 18:58 22.01.2020
119 Clouds 24 1008 94 10000 1 180 18:39 22.01.2020
120 Clouds 24 1008 94 10000 1 180 18:21 22.01.2020
121 Clouds 22 1009 84 0 1.29 214 17:56 22.01.2020
122 Clouds 22 1009 84 0 1.29 214 17:38 22.01.2020
123 Clouds 25 1009 88 10000 1.43 212 17:19 22.01.2020
124 Clouds 25 1009 88 10000 1.43 212 16:44 22.01.2020
125 Clouds 25 1009 88 10000 1.43 212 16:24 22.01.2020
126 Clouds 25 1009 94 10000 1.43 212 15:59 22.01.2020
127 Clouds 25 1009 94 10000 1.43 212 15:41 22.01.2020
128 Clouds 25 1009 94 10000 1.43 212 15:23 22.01.2020
129 Clouds 25 1010 94 10000 1 200 14:58 22.01.2020
130 Clouds 25 1010 94 10000 1 200 14:37 22.01.2020
131 Clouds 25 1010 94 10000 1 200 14:19 22.01.2020
132 Clouds 26 1010 88 10000 1 230 13:55 22.01.2020
133 Clouds 26 1010 88 10000 1 230 13:36 22.01.2020
134 Clouds 26 1010 88 10000 1 230 13:36 22.01.2020
135 Clouds 26 1010 88 10000 1 230 13:36 22.01.2020
136 Clouds 26 1010 88 10000 1 230 13:18 22.01.2020
137 Clouds 27 1010 83 10000 1.38 200 12:55 22.01.2020
138 Clouds 27 1010 83 10000 1.38 200 12:37 22.01.2020
139 Clouds 27 1010 83 10000 1.38 200 12:18 22.01.2020
140 Clouds 28 1009 78 10000 2.6 230 11:56 22.01.2020
141 Clouds 28 1009 78 10000 2.6 230 11:37 22.01.2020
142 Clouds 28 1009 78 10000 2.6 230 11:18 22.01.2020
143 Clouds 29 1009 79 10000 2.6 180 10:43 22.01.2020
144 Clouds 29 1009 79 10000 2.6 180 10:20 22.01.2020
145 Rain 30 1008 84 10000 2.6 200 09:43 22.01.2020
146 Rain 30 1008 84 10000 2.6 200 09:25 22.01.2020
147 Clouds 30 1008 79 10000 2.1 320 08:57 22.01.2020
148 Clouds 30 1007 79 10000 2.6 320 08:39 22.01.2020
149 Clouds 30 1007 79 10000 2.6 320 08:21 22.01.2020
150 Rain 32 1006 70 10000 5.1 340 07:49 22.01.2020
151 Rain 32 1006 70 10000 5.1 340 07:30 22.01.2020
152 Clouds 31 1007 74 10000 4.6 340 06:50 22.01.2020
153 Clouds 31 1007 74 10000 4.6 340 06:26 22.01.2020
154 Clouds 32 1007 66 10000 4.1 360 05:33 22.01.2020
155 Clouds 31 1008 70 10000 5.1 360 04:18 22.01.2020
156 Clouds 31 1008 70 10000 5.1 360 03:21 22.01.2020
157 Clouds 31 1010 66 10000 4.1 20 01:43 22.01.2020
158 Clouds 32 1010 66 10000 1.5 200 00:44 22.01.2020
159 Clouds 32 1010 66 10000 1.5 200 00:26 22.01.2020
160 Clouds 30 1010 74 10000 1 140 23:38 21.01.2020
161 Clouds 30 1010 74 10000 1 140 23:20 21.01.2020
162 Clouds 27 1010 83 10000 1.5 200 22:55 21.01.2020
163 Clouds 27 1010 83 10000 1.5 200 22:55 21.01.2020
164 Clouds 27 1010 83 10000 1.5 200 22:55 21.01.2020
165 Clouds 27 1010 83 10000 1.5 200 22:55 21.01.2020
166 Clouds 27 1010 83 10000 1.5 200 22:36 21.01.2020
167 Clouds 27 1010 83 10000 1.5 200 22:18 21.01.2020
168 Clouds 24 1009 100 10000 1 140 21:55 21.01.2020
169 Clouds 24 1009 100 10000 1 140 21:37 21.01.2020
170 Clouds 24 1009 100 10000 1 140 21:18 21.01.2020
171 Clouds 23 1008 100 10000 1.5 230 20:39 21.01.2020
172 Clouds 23 1008 100 10000 1.5 230 20:20 21.01.2020
173 Clouds 23 1008 100 10000 1.36 198 19:59 21.01.2020
174 Clouds 23 1008 100 10000 1.36 198 19:40 21.01.2020
175 Clouds 23 1008 100 10000 1.36 198 19:21 21.01.2020
176 Clouds 23 1008 100 10000 1.5 160 18:57 21.01.2020
177 Clouds 23 1008 100 10000 1.5 160 18:39 21.01.2020
178 Clouds 23 1008 100 10000 1.5 160 18:21 21.01.2020
179 Clouds 24 1008 94 10000 1 140 17:57 21.01.2020
180 Clouds 24 1008 94 10000 1 140 17:38 21.01.2020
181 Clouds 24 1008 94 10000 1 140 17:18 21.01.2020
182 Clouds 24 1008 94 10000 1.86 213 16:38 21.01.2020
183 Clouds 24 1008 94 10000 1.86 213 16:19 21.01.2020
184 Clouds 25 1009 94 10000 2.1 160 15:59 21.01.2020
185 Clouds 25 1009 94 10000 2.1 160 15:38 21.01.2020
186 Clouds 25 1009 94 10000 2.1 160 15:19 21.01.2020
187 Clouds 25 1009 100 10000 1.5 180 14:40 21.01.2020
188 Clouds 25 1009 100 10000 1.5 180 14:21 21.01.2020
189 Clouds 26 1010 94 10000 1.5 230 13:43 21.01.2020
190 Clouds 26 1010 94 10000 1.5 230 13:21 21.01.2020
191 Clouds 26 1010 100 10000 1.62 222 12:59 21.01.2020
192 Clouds 26 1010 100 10000 1.62 222 12:41 21.01.2020
193 Clouds 26 1010 100 10000 1.62 222 12:23 21.01.2020
194 Clouds 26 1010 100 10000 1.62 222 11:55 21.01.2020
195 Clouds 26 1010 100 10000 1.62 222 11:36 21.01.2020
196 Clouds 26 1010 100 10000 1.73 224 11:18 21.01.2020
197 Clouds 27 1009 94 10000 1.73 224 10:42 21.01.2020
198 Clouds 27 1009 94 10000 1.73 224 10:22 21.01.2020
199 Clouds 27 1008 94 10000 1.73 224 09:43 21.01.2020
200 Clouds 27 1008 94 10000 1.73 224 09:24 21.01.2020
201 Clouds 28 1007 88 10000 4.6 140 08:58 21.01.2020
202 Clouds 28 1007 88 10000 4.6 140 08:58 21.01.2020
203 Clouds 28 1007 88 10000 4.6 140 08:40 21.01.2020
204 Clouds 28 1007 88 10000 4.6 140 08:19 21.01.2020
205 Clouds 31 1006 74 10000 5.1 320 07:42 21.01.2020
206 Clouds 31 1006 74 10000 5.1 320 07:42 21.01.2020
207 Clouds 31 1006 74 10000 5.1 320 07:23 21.01.2020
208 Rain 31 1006 79 10000 3.6 340 06:55 21.01.2020
209 Rain 31 1006 79 10000 3.6 340 06:37 21.01.2020
210 Rain 32 1006 75 10000 5.1 340 05:50 21.01.2020
211 Rain 32 1007 59 10000 3.6 340 04:41 21.01.2020
212 Clouds 31 1009 79 10000 3.1 360 02:58 21.01.2020
213 Clouds 31 1009 79 10000 3.1 360 02:19 21.01.2020
214 Clouds 30 1010 70 10000 3.1 20 01:26 21.01.2020
215 Clouds 30 1010 74 10000 2.6 360 00:38 21.01.2020
216 Clouds 29 1010 79 10000 1.5 230 23:59 20.01.2020
217 Clouds 29 1010 79 10000 1.5 230 23:41 20.01.2020
218 Clouds 29 1010 79 10000 1.5 230 23:19 20.01.2020
219 Clouds 26 1010 88 10000 1.5 140 22:58 20.01.2020
220 Clouds 26 1010 88 10000 1.5 140 22:38 20.01.2020
221 Clouds 26 1010 88 10000 1.5 140 22:20 20.01.2020
222 Clouds 26 1010 88 10000 1.5 140 22:20 20.01.2020
223 Clouds 24 1009 100 10000 1.11 198 21:58 20.01.2020
224 Clouds 24 1009 100 10000 1.11 198 21:37 20.01.2020
225 Clouds 24 1009 100 10000 1.11 198 21:19 20.01.2020
226 Clouds 23 1008 100 10000 1.11 198 20:56 20.01.2020
227 Clouds 23 1008 100 10000 1.11 198 20:38 20.01.2020
228 Clouds 23 1008 100 10000 1.81 194 20:18 20.01.2020
229 Clouds 23 1008 100 10000 1.81 194 19:56 20.01.2020
230 Clouds 23 1008 100 10000 1.81 194 19:56 20.01.2020
231 Clouds 23 1008 100 10000 1.81 194 19:37 20.01.2020
232 Clouds 23 1008 100 10000 1.81 194 19:18 20.01.2020
233 Clouds 24 1007 100 10000 1.81 194 18:43 20.01.2020
234 Clouds 24 1007 100 10000 1.81 194 18:22 20.01.2020
235 Clouds 24 1008 100 10000 1.5 160 17:41 20.01.2020
236 Clouds 24 1008 100 10000 1.5 160 17:20 20.01.2020
237 Clouds 24 1008 100 10000 1.5 160 17:20 20.01.2020
238 Clouds 24 1008 94 10000 1 110 16:59 20.01.2020
239 Clouds 24 1008 94 10000 1 110 16:37 20.01.2020
240 Clouds 24 1008 94 10000 1 110 16:18 20.01.2020
241 Clouds 24 1008 94 10000 1 110 16:18 20.01.2020
242 Clouds 24 1009 100 10000 1 230 15:54 20.01.2020
243 Clouds 24 1009 100 10000 1 230 15:36 20.01.2020
244 Clouds 24 1009 100 10000 1 230 15:18 20.01.2020
245 Clouds 25 1010 94 10000 1.85 208 14:41 20.01.2020
246 Clouds 25 1010 94 10000 1.85 208 14:22 20.01.2020
247 Clouds 25 1010 100 10000 1 230 13:58 20.01.2020
248 Clouds 25 1010 100 10000 1 230 13:39 20.01.2020
249 Clouds 25 1010 100 10000 1 230 13:20 20.01.2020
250 Clouds 25 1010 100 10000 1.8 207 12:45 20.01.2020
251 Clouds 25 1010 100 10000 1.8 207 12:26 20.01.2020
252 Clouds 26 1009 94 10000 1.8 207 11:56 20.01.2020
253 Clouds 26 1009 94 10000 1.8 207 11:37 20.01.2020
254 Clouds 26 1009 94 10000 2.44 227 11:19 20.01.2020
255 Clouds 26 1008 94 10000 1 160 10:47 20.01.2020
256 Clouds 26 1008 94 10000 1 160 10:21 20.01.2020
257 Rain 28 1008 83 10000 3.1 290 09:42 20.01.2020
258 Rain 28 1008 83 10000 3.1 290 09:24 20.01.2020
259 Rain 29 1007 79 10000 4.6 290 08:56 20.01.2020
260 Rain 29 1007 79 10000 4.6 290 08:35 20.01.2020
261 Clouds 26 1006 94 10000 2.1 320 07:59 20.01.2020
262 Clouds 26 1006 94 10000 2.1 320 07:41 20.01.2020
263 Clouds 26 1006 94 10000 2.1 320 07:21 20.01.2020
264 Clouds 26 1006 94 10000 1.5 20 06:44 20.01.2020
265 Clouds 26 1006 94 10000 1.5 20 06:22 20.01.2020
266 Clouds 29 1005 83 10000 1.5 320 05:38 20.01.2020
267 Clouds 29 1005 83 10000 1.5 320 05:19 20.01.2020
268 Clouds 32 1006 75 10000 5.1 320 04:23 20.01.2020
269 Clouds 31 1008 70 10000 3.1 360 01:58 20.01.2020
270 Clouds 31 1008 70 10000 3.1 360 01:39 20.01.2020
271 Clouds 30 1008 74 10000 3.1 20 00:56 20.01.2020
272 Clouds 30 1008 74 10000 3.1 20 00:38 20.01.2020
273 Clouds 30 1008 74 10000 3.1 20 00:38 20.01.2020
274 Clouds 30 1008 74 10000 3.1 20 00:20 20.01.2020
275 Clouds 30 1008 74 10000 1.88 338 23:38 19.01.2020
276 Clouds 30 1008 74 10000 0.84 198 23:18 19.01.2020
277 Clear 25 1008 80 0 0.84 198 22:55 19.01.2020
278 Clear 25 1008 80 0 0.84 198 22:37 19.01.2020
279 Clear 25 1008 80 0 0.84 198 22:19 19.01.2020
280 Clouds 24 1007 94 10000 1 180 21:56 19.01.2020
281 Clouds 24 1007 94 10000 1 180 21:37 19.01.2020
282 Clouds 24 1007 94 10000 1 180 21:19 19.01.2020
283 Clouds 23 1007 94 10000 1 180 20:56 19.01.2020
284 Clouds 23 1007 94 10000 1 180 20:37 19.01.2020
285 Clouds 23 1007 94 10000 1 180 20:19 19.01.2020
286 Clouds 24 1006 94 10000 1.5 180 19:55 19.01.2020
287 Clouds 24 1006 94 10000 1.5 180 19:37 19.01.2020
288 Clouds 24 1006 94 10000 1.5 180 19:19 19.01.2020
289 Clouds 24 1006 94 10000 1 180 18:55 19.01.2020
290 Clouds 24 1006 94 10000 1 180 18:55 19.01.2020
291 Clouds 24 1006 94 10000 1 180 18:36 19.01.2020
292 Clouds 24 1006 94 10000 1 180 18:18 19.01.2020
293 Clouds 24 1006 94 10000 1.5 200 17:56 19.01.2020
294 Clouds 24 1006 94 10000 1.5 200 17:38 19.01.2020
295 Clouds 24 1006 94 10000 1.5 200 17:18 19.01.2020
296 Clouds 25 1006 94 10000 1 200 16:55 19.01.2020
297 Clouds 25 1006 94 10000 1 200 16:36 19.01.2020
298 Clouds 25 1006 94 10000 1 200 16:18 19.01.2020
299 Clouds 25 1007 94 10000 1 200 15:41 19.01.2020
300 Clouds 25 1007 94 10000 1 200 15:22 19.01.2020
301 Clouds 25 1008 100 10000 1 200 14:59 19.01.2020
302 Clouds 25 1008 100 10000 1 200 14:40 19.01.2020
303 Clouds 25 1008 100 10000 1 200 14:19 19.01.2020
304 Clouds 26 1008 94 10000 1.43 201 13:58 19.01.2020
305 Clouds 26 1008 94 10000 1.43 201 13:39 19.01.2020
306 Clouds 26 1008 94 10000 1.43 201 13:39 19.01.2020
307 Clouds 26 1008 94 10000 1.51 208 13:20 19.01.2020
308 Clouds 25 1008 94 10000 1.51 208 12:56 19.01.2020
309 Clouds 25 1008 94 10000 1.51 208 12:37 19.01.2020
310 Clouds 25 1008 94 10000 1.51 208 12:19 19.01.2020
311 Clouds 25 1007 94 10000 2.6 110 11:56 19.01.2020
312 Clouds 25 1007 94 10000 2.6 110 11:37 19.01.2020
313 Clouds 25 1007 94 10000 2.6 110 11:18 19.01.2020
314 Clouds 26 1007 88 10000 1 160 10:39 19.01.2020
315 Clouds 26 1007 88 10000 1 160 10:19 19.01.2020
316 Clouds 27 1006 83 10000 2.6 110 09:56 19.01.2020
317 Clouds 27 1006 83 10000 2.6 110 09:37 19.01.2020
318 Clouds 27 1006 83 10000 2.6 110 09:19 19.01.2020
319 Clouds 29 1005 83 10000 3.6 110 08:54 19.01.2020
320 Clouds 29 1005 83 10000 3.6 110 08:30 19.01.2020
321 Clouds 29 1004 74 10000 3.6 160 07:46 19.01.2020
322 Clouds 29 1004 74 10000 3.6 160 07:27 19.01.2020
323 Clouds 31 1004 66 10000 6.2 110 06:54 19.01.2020
324 Clouds 31 1004 66 10000 6.2 110 06:21 19.01.2020
325 Clouds 32 1005 70 10000 2.6 20 03:28 19.01.2020
326 Clouds 31 1006 62 10000 3.1 340 02:26 19.01.2020
327 Clouds 31 1007 62 10000 2.6 50 01:29 19.01.2020
328 Clouds 31 1006 70 10000 1.74 3 00:54 19.01.2020
329 Clouds 31 1006 66 10000 1.74 3 00:31 19.01.2020
330 Clouds 31 1006 66 10000 1.74 3 23:59 18.01.2020
331 Clouds 31 1006 66 10000 1.74 3 23:41 18.01.2020
332 Clouds 31 1006 66 10000 1.74 3 23:23 18.01.2020
333 Clouds 26 1006 78 10000 1.5 200 22:55 18.01.2020
334 Clouds 26 1006 78 10000 1.5 200 22:37 18.01.2020
335 Clouds 26 1006 78 10000 1.5 200 22:19 18.01.2020
336 Clouds 23 1006 94 10000 1.5 200 21:57 18.01.2020
337 Clouds 23 1006 94 10000 1.5 200 21:37 18.01.2020
338 Clouds 23 1006 94 10000 1.5 200 21:19 18.01.2020
339 Clouds 22 1005 100 10000 0.92 212 20:43 18.01.2020
340 Clouds 22 1005 100 10000 1.69 192 20:21 18.01.2020
341 Clouds 23 1005 94 10000 1.69 192 19:57 18.01.2020
342 Clouds 23 1005 94 10000 1.69 192 19:57 18.01.2020
343 Clouds 23 1005 94 10000 1.69 192 19:39 18.01.2020
344 Clouds 23 1005 94 10000 1.69 192 19:39 18.01.2020
345 Clouds 23 1005 94 10000 1.69 192 19:21 18.01.2020
346 Clouds 23 1004 94 10000 1.5 160 18:42 18.01.2020
347 Clouds 23 1004 94 10000 1.5 160 18:21 18.01.2020
348 Clouds 24 1004 94 10000 1.69 192 17:55 18.01.2020
349 Clouds 24 1004 94 10000 1.69 192 17:37 18.01.2020
350 Clouds 24 1004 94 10000 1.86 201 17:18 18.01.2020
351 Clouds 24 1004 88 10000 1.5 160 16:41 18.01.2020
352 Clouds 24 1004 88 10000 1.5 160 16:23 18.01.2020
353 Clouds 24 1005 94 10000 1.86 201 15:59 18.01.2020
354 Clouds 24 1005 94 10000 1.86 201 15:40 18.01.2020
355 Clouds 24 1005 94 10000 1.86 201 15:22 18.01.2020
356 Clouds 25 1006 88 10000 1.86 201 14:44 18.01.2020
357 Clouds 25 1006 88 10000 1.86 201 14:24 18.01.2020
358 Clouds 26 1006 88 10000 2.1 205 13:59 18.01.2020
359 Clouds 26 1006 88 10000 2.1 205 13:41 18.01.2020
360 Clouds 26 1006 88 10000 2.05 207 13:21 18.01.2020
361 Clouds 26 1006 88 10000 1 200 12:55 18.01.2020
362 Clouds 26 1006 88 10000 1 200 12:36 18.01.2020
363 Clouds 26 1006 88 10000 1 200 12:18 18.01.2020
364 Clouds 27 1005 78 10000 1 180 11:43 18.01.2020
365 Clouds 27 1005 78 10000 1 180 11:21 18.01.2020
366 Clouds 29 1005 58 10000 1 290 10:45 18.01.2020
367 Clouds 29 1005 58 10000 1 290 10:22 18.01.2020
368 Clouds 30 1004 74 10000 2.1 230 09:57 18.01.2020
369 Clouds 30 1004 74 10000 2.1 230 09:39 18.01.2020
370 Clouds 30 1004 74 10000 2.1 230 09:19 18.01.2020
371 Clouds 32 1003 66 10000 2.1 160 08:42 18.01.2020
372 Clouds 32 1003 66 10000 2.1 160 08:20 18.01.2020
373 Clouds 33 1001 59 10000 2.6 110 07:58 18.01.2020
374 Clouds 33 1001 59 10000 2.6 110 07:37 18.01.2020
375 Clouds 33 1001 59 10000 3.6 90 06:50 18.01.2020
376 Clouds 33 1001 63 10000 3.6 90 06:27 18.01.2020
377 Clouds 33 1002 66 10000 3.1 70 05:45 18.01.2020
378 Clouds 32 1003 66 10000 1.5 20 04:19 18.01.2020
379 Clouds 31 1004 70 10000 5.1 50 02:21 18.01.2020
380 Clouds 31 1004 62 10000 3.6 50 01:36 18.01.2020
381 Clouds 32 1005 66 10000 1 110 00:38 18.01.2020
382 Clouds 32 1005 66 10000 1 110 00:19 18.01.2020
383 Clouds 30 1005 74 10000 2.1 110 23:44 17.01.2020
384 Clouds 30 1005 74 10000 2.1 110 23:20 17.01.2020
385 Clouds 26 1005 83 10000 1 180 22:59 17.01.2020
386 Clouds 26 1005 83 10000 1 180 22:40 17.01.2020
387 Clouds 26 1005 83 10000 1 180 22:19 17.01.2020
388 Clouds 24 1004 94 10000 1 200 21:42 17.01.2020
389 Clouds 24 1004 94 10000 1 200 21:24 17.01.2020
390 Clouds 23 1004 100 10000 1 200 20:59 17.01.2020
391 Clouds 23 1004 100 10000 1 200 20:40 17.01.2020
392 Clouds 23 1004 100 10000 1 200 20:20 17.01.2020
393 Clouds 24 1003 94 10000 1 140 19:57 17.01.2020
394 Clouds 24 1003 94 10000 1 140 19:38 17.01.2020
395 Clouds 24 1003 94 10000 1 140 19:19 17.01.2020
396 Clouds 22 1003 91 0 2.14 206 18:56 17.01.2020
397 Clouds 22 1003 91 0 2.14 206 18:56 17.01.2020
398 Clouds 22 1003 91 0 2.14 206 18:36 17.01.2020
399 Clouds 24 1003 94 10000 1 200 18:18 17.01.2020
400 Clouds 24 1003 94 10000 1 200 17:39 17.01.2020
401 Clouds 24 1003 94 10000 1 200 17:20 17.01.2020
402 Clouds 24 1003 94 10000 1 180 16:43 17.01.2020
403 Clouds 24 1003 94 10000 1 180 16:21 17.01.2020
404 Clouds 24 1003 100 10000 1 180 15:55 17.01.2020
405 Clouds 24 1003 100 10000 1 180 15:37 17.01.2020
406 Clouds 24 1003 100 10000 1 180 15:19 17.01.2020
407 Clouds 25 1004 94 10000 1.5 200 14:43 17.01.2020
408 Clouds 25 1004 94 10000 1.5 200 14:23 17.01.2020
409 Clouds 26 1004 88 10000 1 180 13:42 17.01.2020
410 Clouds 26 1004 88 10000 1 180 13:22 17.01.2020
411 Clouds 23 1006 88 0 2.26 205 12:46 17.01.2020
412 Clouds 27 1004 83 10000 1 200 12:23 17.01.2020
413 Clouds 27 1004 83 10000 1 200 11:41 17.01.2020
414 Clouds 27 1004 83 10000 1 200 11:41 17.01.2020
415 Clouds 27 1004 83 10000 1 200 11:20 17.01.2020
416 Clouds 28 1004 78 10000 1 200 10:56 17.01.2020
417 Clouds 28 1004 78 10000 1 200 10:37 17.01.2020
418 Clouds 28 1004 78 10000 1 200 10:19 17.01.2020
419 Rain 29 1003 74 10000 2.65 210 09:43 17.01.2020
420 Rain 29 1003 74 10000 2.65 210 09:21 17.01.2020
421 Clouds 31 1002 62 10000 2.6 230 08:56 17.01.2020
422 Clouds 31 1002 62 10000 2.6 230 08:38 17.01.2020
423 Clouds 31 1002 62 10000 2.6 230 08:19 17.01.2020
424 Rain 29 1001 74 10000 4.6 230 07:43 17.01.2020
425 Rain 29 1001 74 10000 4.6 230 07:43 17.01.2020
426 Rain 29 1001 74 10000 4.6 230 07:24 17.01.2020
427 Clouds 32 1001 62 10000 5.7 250 06:47 17.01.2020
428 Clouds 32 1001 62 10000 5.7 250 06:29 17.01.2020
429 Rain 30 1002 62 0 4.22 241 04:26 17.01.2020
430 Rain 30 1002 62 0 4.22 241 02:56 17.01.2020
431 Rain 30 1002 62 0 4.22 241 02:31 17.01.2020
432 Clouds 29 1005 65 0 3 243 01:33 17.01.2020
433 Clouds 29 1005 65 0 3 243 00:59 17.01.2020
434 Clouds 29 1005 65 0 3 243 00:59 17.01.2020
435 Clouds 29 1005 65 0 3 243 00:35 17.01.2020
436 Clouds 30 1003 74 10000 3 243 23:56 16.01.2020
437 Clouds 30 1003 74 10000 3 243 23:38 16.01.2020
438 Clouds 30 1003 74 10000 2.87 228 23:19 16.01.2020
439 Clouds 26 1003 88 10000 1 160 22:40 16.01.2020
440 Clouds 26 1003 88 10000 1 160 22:21 16.01.2020
441 Clouds 25 1003 94 10000 2.87 228 21:57 16.01.2020
442 Clouds 25 1003 94 10000 2.87 228 21:37 16.01.2020
443 Clouds 25 1003 94 10000 2.87 228 21:19 16.01.2020
444 Clouds 25 1002 94 10000 1 230 20:56 16.01.2020
445 Clouds 25 1002 94 10000 1 230 20:37 16.01.2020
446 Clouds 25 1002 94 10000 1 230 20:18 16.01.2020
447 Clouds 26 1001 83 10000 2.71 218 19:54 16.01.2020
448 Clouds 26 1001 83 10000 2.71 218 19:54 16.01.2020
449 Clouds 26 1001 83 10000 2.71 218 19:36 16.01.2020
450 Clouds 26 1001 83 10000 2.71 218 19:18 16.01.2020
451 Clouds 27 1001 78 10000 3.6 270 18:54 16.01.2020
452 Clouds 27 1001 78 10000 3.6 270 18:36 16.01.2020
453 Clouds 27 1001 78 10000 3.6 270 18:18 16.01.2020
454 Clouds 27 1002 83 10000 4.6 270 17:41 16.01.2020
455 Clouds 27 1002 83 10000 4.6 270 17:21 16.01.2020
456 Clouds 27 1001 83 10000 2.6 270 16:56 16.01.2020
457 Clouds 27 1001 83 10000 2.6 270 16:37 16.01.2020
458 Clouds 27 1001 83 10000 2.6 270 16:19 16.01.2020
459 Clouds 26 1002 88 10000 2.6 250 15:44 16.01.2020
460 Clouds 26 1002 88 10000 2.6 250 15:21 16.01.2020
461 Clouds 27 1003 83 10000 3.1 230 14:55 16.01.2020
462 Clouds 27 1003 83 10000 3.1 230 14:37 16.01.2020
463 Clouds 27 1003 83 10000 3.1 230 14:19 16.01.2020
464 Clouds 26 1004 88 10000 3.1 180 13:43 16.01.2020
465 Clouds 26 1004 88 10000 3.1 180 13:24 16.01.2020
466 Clouds 27 1003 83 10000 1.5 140 12:46 16.01.2020
467 Clouds 27 1003 83 10000 1.5 140 12:28 16.01.2020
468 Clouds 27 1003 83 10000 4.1 270 11:56 16.01.2020
469 Clouds 27 1003 83 10000 4.1 270 11:37 16.01.2020
470 Clouds 27 1003 83 10000 4.1 270 11:19 16.01.2020
471 Clouds 28 1003 83 10000 4.1 250 10:39 16.01.2020
472 Clouds 28 1003 83 10000 4.1 250 10:20 16.01.2020
473 Clouds 29 1003 79 10000 1.5 250 09:57 16.01.2020
474 Clouds 29 1003 79 10000 1.5 250 09:38 16.01.2020
475 Clouds 29 1003 79 10000 1.5 250 09:19 16.01.2020
476 Clouds 30 1002 70 10000 5.1 270 08:49 16.01.2020
477 Clouds 30 1002 70 10000 5.1 270 08:29 16.01.2020
478 Clouds 32 1001 62 10000 4.1 250 07:57 16.01.2020
479 Clouds 32 1001 62 10000 4.1 250 07:37 16.01.2020
480 Clouds 32 1001 62 10000 4.1 250 07:18 16.01.2020
481 Rain 31 1000 74 10000 3.6 70 06:42 16.01.2020
482 Clouds 31 1000 70 10000 3.1 20 05:58 16.01.2020
483 Clouds 31 1000 70 10000 3.1 20 05:39 16.01.2020
484 Rain 31 1000 74 10000 3.1 70 04:37 16.01.2020
485 Rain 31 1000 74 10000 3.1 70 04:37 16.01.2020
486 Clouds 31 1001 70 10000 2.1 90 03:28 16.01.2020
487 Clouds 32 1002 66 10000 1.5 200 02:36 16.01.2020
488 Rain 28 1004 88 10000 1.5 270 00:48 16.01.2020
489 Rain 28 1004 88 10000 1.5 270 00:24 16.01.2020
490 Rain 27 1004 94 10000 1.5 180 23:48 15.01.2020
491 Rain 27 1004 94 10000 1.5 180 23:23 15.01.2020
492 Clouds 26 1000 94 10000 3.1 160 22:57 15.01.2020
493 Clouds 26 1000 94 10000 3.1 160 22:39 15.01.2020
494 Clouds 26 1000 94 10000 3.1 160 22:19 15.01.2020
495 Clouds 25 1003 100 0 1.5 140 21:57 15.01.2020
496 Clouds 25 1003 100 0 1.5 140 21:37 15.01.2020
497 Clouds 25 1003 100 0 1.5 140 21:37 15.01.2020
498 Clouds 25 1003 100 0 1.5 140 21:19 15.01.2020
499 Drizzle 25 1002 100 10000 2.1 230 20:56 15.01.2020
500 Drizzle 25 1002 100 10000 2.1 230 20:38 15.01.2020
501 Drizzle 25 1002 100 10000 2.1 230 20:19 15.01.2020
502 Drizzle 25 1001 94 10000 3.25 223 19:54 15.01.2020
503 Drizzle 25 1001 94 10000 3.25 223 19:36 15.01.2020
504 Drizzle 25 1001 94 10000 3.25 223 19:18 15.01.2020
505 Rain 25 1001 100 10000 3.25 223 18:56 15.01.2020
506 Rain 25 1001 100 10000 3.25 223 18:37 15.01.2020
507 Rain 25 1001 100 10000 3.25 223 18:19 15.01.2020
508 Rain 25 1001 100 10000 1.5 200 17:55 15.01.2020
509 Rain 25 1001 100 10000 1.5 200 17:37 15.01.2020
510 Rain 25 1001 100 10000 1.5 200 17:18 15.01.2020
511 Rain 25 1002 100 10000 4.6 270 16:40 15.01.2020
512 Rain 25 1002 100 10000 4.6 270 16:21 15.01.2020
513 Clouds 25 1003 100 10000 4.22 242 15:56 15.01.2020
514 Clouds 25 1003 100 10000 4.22 242 15:38 15.01.2020
515 Clouds 25 1003 100 10000 4.22 242 15:18 15.01.2020
516 Clouds 25 1003 100 10000 4.22 242 14:42 15.01.2020
517 Clouds 25 1003 100 10000 2.35 252 14:19 15.01.2020
518 Clouds 25 1003 100 10000 1 50 13:46 15.01.2020
519 Clouds 25 1003 100 10000 1 50 13:26 15.01.2020
520 Drizzle 26 1003 94 10000 2.1 290 12:59 15.01.2020
521 Drizzle 26 1003 94 10000 2.1 290 12:39 15.01.2020
522 Drizzle 26 1003 94 10000 2.1 290 12:19 15.01.2020
523 Clouds 25 1003 100 10000 5.1 290 11:56 15.01.2020
524 Clouds 25 1003 100 10000 5.1 290 11:36 15.01.2020
525 Clouds 25 1003 100 10000 5.1 290 11:18 15.01.2020
526 Clouds 26 1003 94 10000 6.2 290 10:41 15.01.2020
527 Clouds 26 1003 94 10000 6.2 290 10:23 15.01.2020
528 Rain 27 1002 88 10000 4.1 320 09:42 15.01.2020
529 Rain 27 1002 88 10000 4.1 320 09:22 15.01.2020
530 Rain 28 1001 83 10000 6.2 290 08:55 15.01.2020
531 Rain 28 1001 83 10000 6.2 290 08:37 15.01.2020
532 Rain 28 1001 83 10000 6.2 290 08:19 15.01.2020
533 Rain 28 1000 83 10000 3.1 320 07:43 15.01.2020
534 Rain 28 1000 83 10000 3.1 320 07:24 15.01.2020
535 Clouds 28 1001 88 10000 6.2 270 06:44 15.01.2020
536 Clouds 26 1002 94 10000 6.7 290 05:57 15.01.2020
537 Clouds 29 1003 83 10000 7.2 290 03:56 15.01.2020
538 Clouds 29 1003 83 10000 5.1 290 02:28 15.01.2020
539 Clouds 30 1004 74 10000 5.7 290 01:22 15.01.2020
540 Clouds 31 1003 74 10000 6.2 270 00:44 15.01.2020
541 Clouds 31 1003 74 10000 6.2 270 00:25 15.01.2020
542 Clouds 30 1003 79 10000 6.2 270 23:47 14.01.2020
543 Clouds 30 1003 79 10000 6.2 270 23:29 14.01.2020
544 Rain 29 1004 79 10000 5.7 290 22:59 14.01.2020
545 Rain 29 1004 79 10000 5.7 290 22:40 14.01.2020
546 Rain 29 1004 79 10000 5.7 290 22:19 14.01.2020
547 Clouds 28 1003 83 10000 3.6 290 21:58 14.01.2020
548 Clouds 28 1003 83 10000 3.6 290 21:39 14.01.2020
549 Clouds 28 1003 83 10000 3.6 290 21:20 14.01.2020
550 Rain 27 1002 88 10000 2.6 270 20:56 14.01.2020
551 Rain 26 1004 83 0 3.5 252 20:38 14.01.2020
552 Rain 27 1002 88 10000 4.6 290 20:18 14.01.2020
553 Rain 27 1002 88 10000 4.6 290 19:55 14.01.2020
554 Rain 27 1002 88 10000 4.6 290 19:37 14.01.2020
555 Rain 27 1002 88 10000 4.6 290 19:18 14.01.2020
556 Rain 27 1002 88 10000 4.6 290 19:18 14.01.2020
557 Rain 24 1002 91 0 3.04 248 18:41 14.01.2020
558 Clouds 27 1002 94 10000 5.1 290 18:20 14.01.2020
559 Clouds 27 1002 94 10000 5.1 290 17:56 14.01.2020
560 Clouds 27 1002 94 10000 5.1 290 17:36 14.01.2020
561 Clouds 27 1002 94 10000 5.1 290 17:18 14.01.2020
562 Clouds 26 1003 94 10000 2.6 290 16:42 14.01.2020
563 Clouds 26 1003 94 10000 2.6 290 16:22 14.01.2020
564 Rain 26 1004 100 10000 2.6 290 15:56 14.01.2020
565 Rain 26 1004 100 10000 2.6 290 15:38 14.01.2020
566 Rain 26 1004 100 10000 2.6 290 15:19 14.01.2020
567 Drizzle 26 1004 94 10000 1.5 160 14:43 14.01.2020
568 Drizzle 26 1004 94 10000 1.5 160 14:20 14.01.2020
569 Drizzle 26 1005 94 10000 1.5 290 13:55 14.01.2020
570 Drizzle 26 1005 94 10000 1.5 290 13:37 14.01.2020
571 Drizzle 26 1005 94 10000 1.5 290 13:18 14.01.2020
572 Drizzle 27 1005 88 10000 4.1 250 12:41 14.01.2020
573 Drizzle 27 1005 88 10000 4.1 250 12:20 14.01.2020
574 Rain 27 1004 88 10000 6.2 270 11:43 14.01.2020
575 Rain 27 1004 88 10000 6.2 270 11:23 14.01.2020
576 Drizzle 27 1003 88 10000 5.1 270 10:59 14.01.2020
577 Drizzle 27 1003 88 10000 5.1 270 10:40 14.01.2020
578 Drizzle 27 1003 88 10000 5.1 270 10:20 14.01.2020
579 Clouds 27 1003 88 10000 3.6 270 09:57 14.01.2020
580 Clouds 27 1003 88 10000 3.6 270 09:57 14.01.2020
581 Clouds 27 1003 88 10000 3.6 270 09:39 14.01.2020
582 Clouds 27 1003 88 10000 3.6 270 09:20 14.01.2020
583 Drizzle 26 1002 94 10000 2.6 250 08:46 14.01.2020
584 Drizzle 26 1002 94 10000 2.6 250 08:24 14.01.2020
585 Rain 26 1003 100 0 6.2 270 07:53 14.01.2020
586 Clouds 28 1001 70 0 4.45 244 07:33 14.01.2020
587 Drizzle 28 1002 94 10000 5.1 290 06:51 14.01.2020
588 Drizzle 28 1002 94 10000 5.1 290 06:23 14.01.2020
589 Drizzle 30 1001 79 10000 6.2 290 05:21 14.01.2020
590 Clouds 31 1002 74 10000 6.2 290 03:51 14.01.2020
591 Rain 35 1003 59 10000 8.2 250 02:42 14.01.2020
592 Rain 33 1003 63 10000 6.2 270 01:35 14.01.2020
593 Rain 32 1004 66 10000 7.2 290 00:49 14.01.2020
594 Rain 32 1004 66 10000 7.2 290 00:28 14.01.2020
595 Clouds 32 1003 66 10000 7.2 270 23:48 13.01.2020
596 Clouds 32 1003 66 10000 7.2 270 23:20 13.01.2020
597 Clouds 30 1003 70 10000 5.7 290 23:00 13.01.2020
598 Clouds 30 1003 70 10000 5.7 290 22:40 13.01.2020
599 Clouds 30 1003 70 10000 5.7 290 22:20 13.01.2020
600 Clouds 29 1002 74 10000 5.1 270 21:56 13.01.2020
601 Clouds 29 1002 74 10000 5.1 270 21:37 13.01.2020
602 Clouds 29 1002 74 10000 5.1 270 21:18 13.01.2020
603 Clouds 28 1002 78 10000 5.7 270 20:57 13.01.2020
604 Clouds 28 1002 78 10000 5.7 270 20:57 13.01.2020
605 Clouds 28 1002 78 10000 5.7 270 20:38 13.01.2020
606 Clouds 28 1002 78 10000 5.7 270 20:20 13.01.2020
607 Clouds 28 1002 74 10000 5.1 270 19:56 13.01.2020
608 Clouds 28 1002 74 10000 5.1 270 19:37 13.01.2020
609 Clouds 28 1002 74 10000 5.1 270 19:18 13.01.2020
610 Clouds 27 1001 83 10000 4.1 290 18:55 13.01.2020
611 Clouds 27 1001 83 10000 4.1 290 18:36 13.01.2020
612 Clouds 27 1001 83 10000 4.1 290 18:18 13.01.2020
613 Clouds 27 1002 83 10000 4.1 290 17:40 13.01.2020
614 Clouds 27 1002 83 10000 4.1 290 17:21 13.01.2020
615 Clouds 24 1002 85 0 3.22 228 16:56 13.01.2020
616 Clouds 24 1002 85 0 3.22 228 16:37 13.01.2020
617 Clouds 24 1002 85 0 3.22 228 16:18 13.01.2020
618 Clouds 24 1002 85 0 3.22 228 15:42 13.01.2020
619 Clouds 24 1002 85 0 3.22 228 15:22 13.01.2020
620 Clouds 24 1002 85 0 3.22 228 14:56 13.01.2020
621 Clouds 24 1002 85 0 3.22 228 14:36 13.01.2020
622 Clouds 24 1005 86 0 3.14 231 14:18 13.01.2020
623 Clouds 24 1005 86 0 3.14 231 13:40 13.01.2020
624 Clouds 24 1005 87 0 3.19 234 13:22 13.01.2020
625 Clouds 24 1005 87 0 3.19 234 12:58 13.01.2020
626 Clouds 24 1005 87 0 3.19 234 12:40 13.01.2020
627 Clouds 29 1003 74 10000 3.1 270 12:21 13.01.2020
628 Clouds 29 1003 74 10000 3.1 270 11:40 13.01.2020
629 Clouds 29 1003 74 10000 3.1 270 11:20 13.01.2020
630 Clouds 29 1003 70 10000 5.1 290 10:58 13.01.2020
631 Clouds 29 1003 70 10000 5.1 290 10:39 13.01.2020
632 Clouds 29 1003 70 10000 5.1 290 10:39 13.01.2020
633 Clouds 29 1003 70 10000 5.1 290 10:39 13.01.2020
634 Clouds 29 1003 70 10000 5.1 290 10:21 13.01.2020
635 Clouds 30 1002 70 10000 6.2 290 09:59 13.01.2020
636 Clouds 30 1002 70 10000 6.2 290 09:40 13.01.2020
637 Clouds 30 1002 70 10000 6.2 290 09:21 13.01.2020
638 Clouds 30 1001 70 10000 6.2 270 08:41 13.01.2020
639 Clouds 30 1001 70 10000 6.2 270 08:20 13.01.2020
640 Clouds 32 1000 52 10000 5.1 270 07:48 13.01.2020
641 Clouds 32 1000 52 10000 5.1 270 07:27 13.01.2020
642 Clouds 33 1000 55 10000 8.7 270 06:43 13.01.2020
643 Clouds 33 1000 55 10000 8.7 270 06:21 13.01.2020
644 Clouds 34 1000 56 10000 8.2 270 05:23 13.01.2020
645 Clouds 34 1001 56 10000 5.7 270 03:54 13.01.2020
646 Clouds 34 1001 56 10000 5.7 270 03:22 13.01.2020
647 Clouds 33 1002 63 10000 6.2 270 02:44 13.01.2020
648 Clouds 33 1002 63 10000 6.2 270 02:24 13.01.2020
649 Clouds 32 1003 59 10000 5.7 270 01:18 13.01.2020
650 Clouds 30 1003 79 10000 4.1 290 00:40 13.01.2020
651 Clouds 30 1003 79 10000 4.1 290 00:21 13.01.2020
652 Clouds 28 1003 94 10000 2.25 237 23:41 12.01.2020
653 Clouds 28 1003 94 10000 2.25 237 23:23 12.01.2020
654 Rain 26 1003 94 10000 1.5 180 22:57 12.01.2020
655 Rain 26 1003 94 10000 1.5 180 22:39 12.01.2020
656 Rain 26 1003 94 10000 1.5 180 22:21 12.01.2020
657 Clouds 25 1002 100 10000 2.1 180 21:55 12.01.2020
658 Clouds 25 1002 100 10000 2.1 180 21:37 12.01.2020
659 Clouds 25 1002 100 10000 2.1 180 21:19 12.01.2020
660 Drizzle 25 1001 100 10000 1 90 20:55 12.01.2020
661 Drizzle 25 1001 100 10000 1 90 20:37 12.01.2020
662 Drizzle 25 1001 100 10000 1 90 20:19 12.01.2020
663 Drizzle 25 1001 100 10000 2.1 250 19:55 12.01.2020
664 Drizzle 25 1001 100 10000 2.1 250 19:36 12.01.2020
665 Drizzle 25 1001 100 10000 2.1 250 19:18 12.01.2020
666 Clouds 25 1001 100 10000 2.1 200 18:56 12.01.2020
667 Clouds 25 1001 100 10000 2.1 200 18:38 12.01.2020
668 Clouds 25 1001 100 10000 2.1 200 18:19 12.01.2020
669 Drizzle 25 1001 100 10000 1 140 17:42 12.01.2020
670 Drizzle 25 1001 100 10000 1 140 17:21 12.01.2020
671 Drizzle 25 1001 100 10000 1 200 16:57 12.01.2020
672 Drizzle 25 1001 100 10000 1 200 16:38 12.01.2020
673 Drizzle 25 1001 100 10000 1 200 16:19 12.01.2020
674 Rain 23 1001 92 0 2.68 252 15:43 12.01.2020
675 Rain 23 1001 92 0 2.68 252 15:25 12.01.2020
676 Drizzle 26 1003 94 10000 2.1 250 14:59 12.01.2020
677 Drizzle 26 1003 94 10000 2.1 250 14:41 12.01.2020
678 Drizzle 26 1003 94 10000 2.1 250 14:21 12.01.2020
679 Drizzle 26 1003 94 10000 2.1 250 13:56 12.01.2020
680 Drizzle 26 1003 94 10000 2.1 250 13:38 12.01.2020
681 Drizzle 26 1003 94 10000 2.1 250 13:20 12.01.2020
682 Drizzle 25 1003 100 10000 1 270 12:43 12.01.2020
683 Drizzle 25 1003 100 10000 1 270 12:21 12.01.2020
684 Rain 26 1003 94 10000 2.6 270 11:59 12.01.2020
685 Rain 26 1003 94 10000 2.6 270 11:39 12.01.2020
686 Rain 26 1003 94 10000 2.6 270 11:21 12.01.2020
687 Rain 26 1003 94 10000 4.1 290 10:42 12.01.2020
688 Rain 26 1003 94 10000 4.1 290 10:22 12.01.2020
689 Rain 24 1003 94 0 2.88 248 09:59 12.01.2020
690 Rain 24 1003 94 0 2.88 248 09:41 12.01.2020
691 Drizzle 26 1002 100 10000 3.1 270 09:20 12.01.2020
692 Drizzle 26 1002 100 10000 3.1 270 08:45 12.01.2020
693 Drizzle 26 1002 100 10000 3.1 270 08:21 12.01.2020
694 Clouds 28 1001 83 10000 4.1 290 07:44 12.01.2020
695 Clouds 28 1001 83 10000 4.1 290 07:25 12.01.2020
696 Clouds 29 1001 79 10000 6.2 290 06:49 12.01.2020
697 Clouds 29 1001 79 10000 6.2 290 06:30 12.01.2020
698 Clouds 30 1001 74 10000 3.1 340 05:37 12.01.2020
699 Clouds 30 1001 74 10000 6.2 320 04:30 12.01.2020
700 Clouds 31 1002 74 10000 5.1 340 03:25 12.01.2020
701 Clouds 30 1003 79 10000 5.1 320 02:34 12.01.2020
702 Clouds 29 1003 83 10000 3.1 360 01:51 12.01.2020
703 Clouds 29 1003 83 10000 3.1 360 01:29 12.01.2020
704 Clouds 29 1003 83 10000 2.6 340 00:41 12.01.2020
705 Clouds 29 1003 83 10000 2.6 340 00:20 12.01.2020
706 Clouds 29 1003 83 10000 2.6 340 00:20 12.01.2020
707 Clouds 29 1004 83 10000 2.81 304 23:42 11.01.2020
708 Clouds 29 1004 83 10000 1.95 305 23:20 11.01.2020
709 Clouds 26 1003 88 10000 1.95 305 22:58 11.01.2020
710 Clouds 26 1003 88 10000 1.95 305 22:58 11.01.2020
711 Clouds 26 1003 88 10000 1.95 305 22:40 11.01.2020
712 Clouds 26 1003 88 10000 1.95 305 22:20 11.01.2020
713 Clouds 24 1003 100 10000 1.95 305 21:58 11.01.2020
714 Clouds 24 1003 100 10000 1.95 305 21:40 11.01.2020
715 Clouds 24 1003 100 10000 1.95 305 21:18 11.01.2020
716 Clouds 24 1002 100 10000 1.5 140 20:41 11.01.2020
717 Clouds 24 1002 100 10000 1.5 140 20:22 11.01.2020
718 Clouds 24 1002 100 10000 2.15 325 19:58 11.01.2020
719 Clouds 24 1002 100 10000 2.15 325 19:39 11.01.2020
720 Clouds 24 1002 100 10000 2.15 325 19:21 11.01.2020
721 Clouds 24 1002 100 10000 1 140 18:58 11.01.2020
722 Clouds 24 1002 100 10000 1 140 18:38 11.01.2020
723 Clouds 24 1002 100 10000 1 140 18:19 11.01.2020
724 Clouds 25 1001 94 10000 2.15 325 17:57 11.01.2020
725 Clouds 25 1001 94 10000 2.15 325 17:57 11.01.2020
726 Clouds 25 1001 94 10000 2.15 325 17:39 11.01.2020
727 Clouds 25 1001 94 10000 0.97 285 17:19 11.01.2020
728 Clouds 25 1002 94 10000 0.97 285 16:44 11.01.2020
729 Clouds 25 1002 94 10000 0.97 285 16:26 11.01.2020
730 Clouds 25 1003 100 10000 1 140 15:58 11.01.2020
731 Clouds 25 1003 100 10000 1 140 15:40 11.01.2020
732 Clouds 25 1003 100 10000 1 140 15:20 11.01.2020
733 Clouds 25 1004 100 10000 0.97 285 14:56 11.01.2020
734 Clouds 25 1004 100 10000 0.97 285 14:38 11.01.2020
735 Clouds 25 1004 100 10000 1.36 276 14:19 11.01.2020
736 Drizzle 25 1005 100 10000 1.36 276 13:39 11.01.2020
737 Drizzle 25 1005 100 10000 1.36 276 13:20 11.01.2020
738 Drizzle 25 1005 100 10000 1.7 280 12:56 11.01.2020
739 Drizzle 25 1005 100 10000 1.7 280 12:38 11.01.2020
740 Drizzle 25 1005 100 10000 1.7 280 12:20 11.01.2020
741 Rain 25 1005 100 0 2.1 140 11:45 11.01.2020
742 Rain 25 1005 100 0 2.1 140 11:24 11.01.2020
743 Rain 25 1005 100 0 2.1 110 10:50 11.01.2020
744 Rain 25 1005 100 0 2.1 110 10:30 11.01.2020
745 Clouds 25 1004 100 0 1.5 20 09:55 11.01.2020
746 Clouds 25 1004 100 0 1.5 20 09:37 11.01.2020
747 Clouds 25 1004 100 0 1.5 20 09:18 11.01.2020
748 Clouds 27 1003 88 10000 3.6 320 08:41 11.01.2020
749 Clouds 27 1003 88 10000 3.6 320 08:20 11.01.2020
750 Clouds 30 1002 70 10000 2.1 20 07:43 11.01.2020
751 Clouds 30 1002 70 10000 2.1 20 07:24 11.01.2020
752 Clouds 30 1002 74 10000 3.1 340 06:45 11.01.2020
753 Rain 31 1002 74 10000 2.6 20 05:31 11.01.2020
754 Rain 31 1003 66 10000 4.1 20 04:43 11.01.2020
755 Rain 31 1003 66 10000 4.1 20 04:25 11.01.2020
756 Clouds 31 1004 70 10000 3.1 360 02:48 11.01.2020
757 Rain 30 1005 70 10000 2.6 360 01:48 11.01.2020
758 Rain 30 1005 70 10000 2.6 360 01:30 11.01.2020
759 Clouds 29 1006 74 10000 2.6 20 00:58 11.01.2020
760 Clouds 29 1006 74 10000 2.6 20 00:29 11.01.2020
761 Clouds 29 1006 79 10000 1 20 23:59 10.01.2020
762 Clouds 29 1006 79 10000 1 20 23:39 10.01.2020
763 Clouds 29 1006 79 10000 1 20 23:20 10.01.2020
764 Clouds 26 1006 88 10000 1.5 230 22:41 10.01.2020
765 Clouds 26 1006 88 10000 1.5 230 22:22 10.01.2020
766 Clouds 24 1005 100 10000 1.7 117 21:59 10.01.2020
767 Clouds 24 1005 100 10000 1.7 117 21:41 10.01.2020
768 Clouds 24 1005 100 10000 1.7 117 21:20 10.01.2020
769 Clouds 24 1004 100 10000 2.1 140 20:57 10.01.2020
770 Clouds 24 1004 100 10000 2.1 140 20:39 10.01.2020
771 Clouds 24 1004 100 10000 2.1 140 20:39 10.01.2020
772 Clouds 24 1004 100 10000 2.1 140 20:20 10.01.2020
773 Clouds 24 1004 100 10000 1.06 143 19:41 10.01.2020
774 Clouds 24 1004 100 10000 1.06 143 19:21 10.01.2020
775 Clouds 24 1003 100 10000 1.06 143 18:56 10.01.2020
776 Clouds 24 1003 100 10000 1.06 143 18:37 10.01.2020
777 Clouds 24 1003 100 10000 1.06 143 18:18 10.01.2020
778 Clouds 24 1003 100 10000 1.06 143 17:56 10.01.2020
779 Clouds 24 1003 100 10000 1.06 143 17:38 10.01.2020
780 Clouds 24 1003 100 10000 1.4 180 17:19 10.01.2020
781 Clouds 24 1003 100 10000 1.4 180 17:19 10.01.2020
782 Clouds 25 1004 94 10000 1.4 180 16:42 10.01.2020
783 Clouds 25 1004 94 10000 1.4 180 16:21 10.01.2020
784 Clouds 25 1004 88 10000 1.4 180 15:57 10.01.2020
785 Clouds 25 1004 88 10000 1.4 180 15:38 10.01.2020
786 Clouds 25 1004 88 10000 1.4 180 15:19 10.01.2020
787 Clouds 25 1006 94 10000 6.7 110 14:57 10.01.2020
788 Clouds 25 1006 94 10000 6.7 110 14:39 10.01.2020
789 Clouds 25 1006 94 10000 6.7 110 14:19 10.01.2020
790 Clouds 25 1006 94 10000 1 160 13:55 10.01.2020
791 Clouds 25 1006 94 10000 1 160 13:36 10.01.2020
792 Clouds 25 1006 94 10000 1 160 13:18 10.01.2020
793 Drizzle 26 1006 94 10000 1 250 12:54 10.01.2020
794 Drizzle 26 1006 94 10000 1 250 12:36 10.01.2020
795 Drizzle 26 1006 94 10000 1 250 12:18 10.01.2020
796 Clouds 26 1006 94 10000 2.6 250 11:42 10.01.2020
797 Clouds 26 1006 94 10000 2.6 250 11:42 10.01.2020
798 Clouds 26 1006 94 10000 2.6 250 11:42 10.01.2020
799 Clouds 26 1006 94 10000 2.6 250 11:21 10.01.2020
800 Clouds 26 1005 88 10000 2.6 50 10:59 10.01.2020
801 Clouds 26 1005 88 10000 2.6 50 10:38 10.01.2020
802 Clouds 26 1005 88 10000 2.6 50 10:19 10.01.2020
803 Rain 27 1005 88 10000 2.1 230 09:46 10.01.2020
804 Rain 27 1005 88 10000 2.1 230 09:26 10.01.2020
805 Clouds 28 1004 83 10000 3.1 160 08:57 10.01.2020
806 Clouds 28 1004 83 10000 3.1 160 08:37 10.01.2020
807 Clouds 28 1004 83 10000 3.1 160 08:37 10.01.2020
808 Clouds 28 1004 83 10000 3.1 160 08:18 10.01.2020
809 Rain 30 1003 79 10000 3.1 50 07:41 10.01.2020
810 Rain 30 1003 79 10000 3.1 50 07:19 10.01.2020
811 Clouds 31 1003 74 10000 3.1 50 06:37 10.01.2020
812 Clouds 31 1003 74 10000 3.1 50 06:19 10.01.2020
813 Clouds 32 1003 62 10000 3.6 50 04:44 10.01.2020
814 Clouds 32 1004 66 10000 3.1 50 03:31 10.01.2020
815 Clouds 31 1005 70 10000 2.6 50 02:52 10.01.2020
816 Clouds 30 1006 74 10000 3.1 70 01:53 10.01.2020
817 Clouds 30 1006 74 10000 3.1 70 01:29 10.01.2020
818 Clouds 31 1006 74 10000 4.6 140 00:48 10.01.2020
819 Clouds 31 1006 74 10000 4.6 140 00:30 10.01.2020
820 Clouds 30 1006 79 10000 5.1 90 23:40 09.01.2020
821 Clouds 30 1006 79 10000 5.1 90 23:21 09.01.2020
822 Clouds 30 1006 79 10000 5.1 90 23:21 09.01.2020
823 Clouds 28 1006 83 10000 2.6 140 22:58 09.01.2020
824 Clouds 28 1006 83 10000 2.6 140 22:39 09.01.2020
825 Clouds 28 1006 83 10000 2.6 140 22:19 09.01.2020
826 Clouds 28 1006 83 10000 2.6 140 22:19 09.01.2020
827 Clouds 25 1006 94 10000 1 160 21:58 09.01.2020
828 Clouds 25 1006 94 10000 1 160 21:39 09.01.2020
829 Clouds 25 1006 94 10000 1 160 21:20 09.01.2020
830 Clouds 24 1006 100 10000 1.5 180 20:58 09.01.2020
831 Clouds 24 1006 100 10000 1.5 180 20:40 09.01.2020
832 Clouds 24 1006 100 10000 1.5 180 20:20 09.01.2020
833 Clouds 24 1005 94 10000 1 160 19:59 09.01.2020
834 Clouds 24 1005 94 10000 1 160 19:39 09.01.2020
835 Clouds 24 1005 94 10000 1 160 19:20 09.01.2020
836 Clouds 24 1005 100 10000 1 200 18:56 09.01.2020
837 Clouds 24 1005 100 10000 1 200 18:38 09.01.2020
838 Clouds 24 1005 100 10000 1 200 18:20 09.01.2020
839 Clouds 24 1005 100 10000 1.5 180 17:41 09.01.2020
840 Clouds 24 1005 100 10000 1.5 180 17:19 09.01.2020
841 Rain 24 1005 100 10000 1.5 140 16:56 09.01.2020
842 Rain 24 1005 100 10000 1.5 140 16:37 09.01.2020
843 Rain 24 1005 100 10000 1.5 140 16:19 09.01.2020
844 Rain 22 1005 97 0 1.88 121 15:42 09.01.2020
845 Clouds 25 1007 100 10000 2.1 200 15:21 09.01.2020
846 Clouds 25 1007 100 10000 2.1 200 14:55 09.01.2020
847 Clouds 25 1007 100 10000 2.1 200 14:37 09.01.2020
848 Clouds 25 1007 100 10000 2.1 200 14:18 09.01.2020
849 Drizzle 25 1008 94 10000 1 160 13:55 09.01.2020
850 Drizzle 25 1008 94 10000 1 160 13:55 09.01.2020
851 Drizzle 25 1008 94 10000 1 160 13:36 09.01.2020
852 Drizzle 25 1008 94 10000 1 160 13:18 09.01.2020
853 Drizzle 25 1008 94 10000 0.96 141 12:42 09.01.2020
854 Drizzle 25 1008 94 10000 0.96 141 12:22 09.01.2020
855 Drizzle 25 1008 100 10000 1.5 160 11:58 09.01.2020
856 Drizzle 25 1008 100 10000 1.5 160 11:40 09.01.2020
857 Drizzle 25 1008 100 10000 1.5 160 11:22 09.01.2020
858 Rain 26 1007 88 10000 1.5 160 10:44 09.01.2020
859 Rain 26 1007 88 10000 1.5 160 10:23 09.01.2020
860 Rain 26 1006 88 10000 1.59 162 09:59 09.01.2020
861 Rain 26 1006 88 10000 1.59 162 09:39 09.01.2020
862 Rain 26 1006 88 10000 1.59 162 09:21 09.01.2020
863 Rain 26 1006 88 10000 1.59 162 09:21 09.01.2020
864 Rain 23 1007 92 0 1.59 162 08:55 09.01.2020
865 Rain 23 1007 92 0 1.59 162 08:37 09.01.2020
866 Rain 24 1005 92 0 2.22 126 08:19 09.01.2020
867 Rain 24 1005 92 0 2.22 126 07:42 09.01.2020
868 Rain 24 1005 92 0 2.22 126 07:23 09.01.2020
869 Rain 24 1005 92 0 2.22 126 06:39 09.01.2020
870 Clouds 30 1004 84 10000 3.1 50 06:20 09.01.2020
871 Clouds 30 1004 84 10000 3.1 50 05:48 09.01.2020
872 Clouds 30 1006 79 10000 2.1 50 04:43 09.01.2020
873 Clouds 28 1006 88 10000 1 160 03:31 09.01.2020
874 Clouds 28 1008 88 10000 2.1 160 02:53 09.01.2020
875 Clouds 28 1008 88 10000 2.1 160 02:24 09.01.2020
876 Drizzle 27 1008 94 10000 2.1 140 01:38 09.01.2020
877 Clouds 27 1008 88 10000 1 180 00:42 09.01.2020
878 Clouds 27 1008 88 10000 1 180 00:21 09.01.2020
879 Clouds 26 1008 94 10000 3.83 88 23:42 08.01.2020
880 Clouds 26 1008 94 10000 3.83 88 23:42 08.01.2020
881 Clouds 26 1008 94 10000 3.83 88 23:24 08.01.2020
882 Clouds 25 1007 94 10000 1.5 180 22:58 08.01.2020
883 Clouds 25 1007 94 10000 1.5 180 22:38 08.01.2020
884 Clouds 25 1007 94 10000 1.5 180 22:20 08.01.2020
885 Clouds 24 1007 100 10000 1.5 140 21:56 08.01.2020
886 Clouds 24 1007 100 10000 1.5 140 21:38 08.01.2020
887 Clouds 24 1007 100 10000 1.5 140 21:18 08.01.2020
888 Clouds 24 1006 100 10000 2.1 140 20:57 08.01.2020
889 Clouds 24 1006 100 10000 2.1 140 20:38 08.01.2020
890 Clouds 24 1006 100 10000 2.1 140 20:19 08.01.2020
891 Drizzle 25 1006 94 10000 1.5 160 19:39 08.01.2020
892 Drizzle 25 1006 94 10000 1.5 160 19:39 08.01.2020
893 Drizzle 25 1006 94 10000 1.5 160 19:21 08.01.2020
894 Drizzle 24 1006 100 10000 2.1 110 18:59 08.01.2020
895 Drizzle 24 1006 100 10000 2.1 110 18:40 08.01.2020
896 Drizzle 24 1006 100 10000 2.1 110 18:19 08.01.2020
897 Drizzle 24 1006 100 10000 2.1 110 18:19 08.01.2020
898 Clouds 25 1006 94 0 2.6 140 17:59 08.01.2020
899 Clouds 25 1006 94 0 2.6 140 17:40 08.01.2020
900 Clouds 25 1006 94 0 2.6 140 17:22 08.01.2020
901 Clouds 25 1007 94 0 5.1 110 16:57 08.01.2020
902 Clouds 25 1007 94 0 5.1 110 16:57 08.01.2020
903 Clouds 25 1007 94 0 5.1 110 16:38 08.01.2020
904 Clouds 25 1007 94 0 5.1 110 16:19 08.01.2020
905 Clouds 25 1007 100 0 4.1 140 15:45 08.01.2020
906 Clouds 25 1007 100 0 5.1 140 15:22 08.01.2020
907 Clouds 25 1007 100 10000 3.1 140 14:59 08.01.2020
908 Clouds 25 1007 100 10000 3.1 140 14:40 08.01.2020
909 Clouds 25 1007 100 10000 3.1 140 14:21 08.01.2020
910 Drizzle 25 1007 94 10000 1.5 160 13:42 08.01.2020
911 Drizzle 25 1007 94 10000 1.5 160 13:22 08.01.2020
912 Clouds 25 1008 100 10000 4.6 160 12:55 08.01.2020
913 Clouds 25 1008 100 10000 4.6 160 12:37 08.01.2020
914 Clouds 25 1008 100 10000 4.6 160 12:18 08.01.2020
915 Clouds 25 1007 100 10000 2.6 200 11:48 08.01.2020
916 Clouds 25 1007 100 10000 2.6 200 11:19 08.01.2020
917 Clouds 27 1007 88 0 1.5 50 10:59 08.01.2020
918 Clouds 27 1007 88 0 1.5 50 10:40 08.01.2020
919 Clouds 27 1007 88 0 1.5 50 10:21 08.01.2020
920 Clouds 27 1007 88 0 1.5 50 10:21 08.01.2020
921 Clouds 27 1007 88 0 1.5 50 10:21 08.01.2020
922 Clouds 27 1007 94 0 6.2 50 09:43 08.01.2020
923 Clouds 27 1007 94 0 6.2 50 09:20 08.01.2020
924 Thunderstorm 30 1006 79 10000 5.7 20 08:59 08.01.2020
925 Clouds 31 1005 70 10000 3.1 90 08:40 08.01.2020
926 Clouds 31 1005 70 10000 3.1 90 08:21 08.01.2020
927 Clouds 32 1005 70 10000 5.1 140 07:52 08.01.2020
928 Clouds 32 1005 70 10000 5.1 140 07:52 08.01.2020
929 Clouds 32 1005 70 10000 5.1 140 07:34 08.01.2020
930 Clouds 33 1004 63 10000 2.6 90 06:58 08.01.2020
931 Thunderstorm 32 1004 70 10000 4.6 70 06:40 08.01.2020
932 Thunderstorm 33 1004 66 10000 4.6 70 05:55 08.01.2020
933 Clouds 33 1004 63 10000 3.6 70 05:25 08.01.2020
934 Clouds 34 1005 63 10000 3.6 50 04:36 08.01.2020
935 Rain 33 1007 66 10000 5.7 70 02:46 08.01.2020
936 Rain 33 1007 66 10000 5.7 70 02:28 08.01.2020
937 Rain 33 1007 63 10000 3.6 70 01:52 08.01.2020
938 Rain 33 1007 63 10000 3.6 70 01:26 08.01.2020
939 Clouds 32 1008 66 10000 4.6 70 00:42 08.01.2020
940 Clouds 32 1008 66 10000 4.6 70 00:21 08.01.2020
941 Clouds 31 1008 74 10000 4.1 90 23:44 07.01.2020
942 Clouds 31 1008 74 10000 4.1 90 23:20 07.01.2020
943 Clouds 29 1007 70 10000 1 160 22:40 07.01.2020
944 Clouds 29 1007 70 10000 1 160 22:21 07.01.2020
945 Clouds 25 1007 94 10000 1 140 21:57 07.01.2020
946 Clouds 25 1007 94 10000 1 140 21:39 07.01.2020
947 Clouds 25 1007 94 10000 1 140 21:21 07.01.2020
948 Clouds 24 1007 94 10000 1 140 20:56 07.01.2020
949 Clouds 24 1007 94 10000 1 140 20:38 07.01.2020
950 Clouds 24 1007 94 10000 1 140 20:19 07.01.2020
951 Clouds 24 1006 94 10000 1 160 19:38 07.01.2020
952 Clouds 24 1006 94 10000 1 160 19:20 07.01.2020
953 Clouds 24 1005 94 10000 1.96 129 18:58 07.01.2020
954 Clouds 24 1005 94 10000 1.96 129 18:40 07.01.2020
955 Clouds 24 1005 94 10000 1.96 129 18:19 07.01.2020
956 Clouds 24 1005 94 10000 1.96 129 17:59 07.01.2020
957 Clouds 24 1005 94 10000 1.96 129 17:39 07.01.2020
958 Clouds 24 1005 94 10000 1.73 162 17:21 07.01.2020
959 Clouds 24 1006 94 10000 1 160 16:56 07.01.2020
960 Clouds 24 1006 94 10000 1 160 16:38 07.01.2020
961 Clouds 24 1006 94 10000 1 160 16:19 07.01.2020
962 Clouds 24 1006 94 10000 1.73 162 15:57 07.01.2020
963 Clouds 24 1006 94 10000 1.73 162 15:38 07.01.2020
964 Clouds 24 1006 94 10000 1.73 162 15:19 07.01.2020
965 Clouds 25 1007 88 10000 1 110 14:42 07.01.2020
966 Clouds 25 1007 88 10000 1 110 14:24 07.01.2020
967 Clouds 25 1008 88 10000 1.5 180 13:57 07.01.2020
968 Clouds 25 1008 88 10000 1.5 180 13:38 07.01.2020
969 Clouds 25 1008 88 10000 1.5 180 13:18 07.01.2020
970 Clouds 26 1008 88 10000 2.1 140 12:41 07.01.2020
971 Clouds 26 1008 88 10000 2.1 140 12:19 07.01.2020
972 Clouds 27 1007 88 10000 1.5 180 11:44 07.01.2020
973 Clouds 27 1007 88 10000 1.5 180 11:23 07.01.2020
974 Clouds 27 1007 88 10000 1.5 180 11:23 07.01.2020
975 Clouds 28 1007 83 10000 2.1 140 10:59 07.01.2020
976 Clouds 28 1007 83 10000 2.1 140 10:40 07.01.2020
977 Clouds 28 1007 83 10000 2.1 140 10:40 07.01.2020
978 Clouds 28 1007 83 10000 2.1 140 10:22 07.01.2020
979 Clouds 30 1006 74 10000 1.5 110 09:56 07.01.2020
980 Clouds 30 1006 74 10000 1.5 110 09:37 07.01.2020
981 Clouds 30 1006 74 10000 1.5 110 09:19 07.01.2020
982 Clouds 31 1005 70 10000 2.6 70 08:41 07.01.2020
983 Clouds 31 1005 70 10000 2.6 70 08:18 07.01.2020
984 Clouds 33 1004 55 10000 4.1 70 07:49 07.01.2020
985 Clouds 33 1004 55 10000 4.1 70 07:23 07.01.2020
986 Clouds 33 1004 63 10000 6.2 70 06:50 07.01.2020
987 Clouds 33 1004 63 10000 6.2 70 06:30 07.01.2020
988 Clouds 34 1004 56 10000 6.7 70 05:41 07.01.2020
989 Clouds 33 1006 66 10000 5.1 50 03:52 07.01.2020
990 Clouds 33 1006 66 10000 5.1 50 03:52 07.01.2020
991 Clouds 33 1006 66 10000 5.1 50 03:25 07.01.2020
992 Clouds 33 1007 70 10000 6.7 50 02:20 07.01.2020
993 Clouds 33 1008 55 10000 8.2 70 01:40 07.01.2020
994 Clouds 33 1008 55 10000 8.2 70 01:40 07.01.2020
995 Clouds 32 1008 62 10000 5.1 110 00:59 07.01.2020
996 Clouds 32 1008 62 10000 5.1 110 00:21 07.01.2020
997 Clouds 32 1008 62 10000 5.1 110 00:21 07.01.2020
998 Clouds 32 1008 62 10000 5.1 110 00:21 07.01.2020
999 Clouds 31 1008 74 10000 5.1 70 23:57 06.01.2020
1000 Clouds 31 1008 74 10000 5.1 70 23:37 06.01.2020
1001 Clouds 31 1008 74 10000 5.1 70 23:19 06.01.2020
1002 Clouds 28 1008 78 10000 2.6 140 22:44 06.01.2020
1003 Clouds 28 1008 78 10000 2.6 140 22:25 06.01.2020
1004 Clouds 25 1008 100 10000 1.09 103 21:59 06.01.2020
1005 Clouds 25 1008 100 10000 1.09 103 21:39 06.01.2020
1006 Clouds 25 1008 100 10000 1.09 103 21:20 06.01.2020
1007 Clouds 24 1007 100 10000 2.1 160 20:57 06.01.2020
1008 Clouds 24 1007 100 10000 2.1 160 20:39 06.01.2020
1009 Clouds 24 1007 100 10000 2.1 160 20:20 06.01.2020
1010 Clouds 25 1006 100 10000 1 270 19:57 06.01.2020
1011 Clouds 25 1006 100 10000 1 270 19:38 06.01.2020
1012 Clouds 25 1006 100 10000 1 270 19:20 06.01.2020
1013 Clouds 26 1006 94 10000 1 140 18:48 06.01.2020
1014 Clouds 26 1006 94 10000 1 140 18:23 06.01.2020
1015 Clouds 26 1006 94 10000 1.35 140 17:59 06.01.2020
1016 Clouds 26 1006 94 10000 1.35 140 17:38 06.01.2020
1017 Clouds 26 1006 94 10000 1.54 135 17:18 06.01.2020
1018 Clouds 26 1006 94 10000 2.1 160 16:44 06.01.2020
1019 Clouds 26 1006 94 10000 2.1 160 16:25 06.01.2020
1020 Clouds 26 1006 94 10000 2.1 160 16:25 06.01.2020
1021 Clouds 26 1007 100 10000 1 140 15:59 06.01.2020
1022 Clouds 26 1007 100 10000 1 140 15:39 06.01.2020
1023 Clouds 26 1007 100 10000 1 140 15:19 06.01.2020
1024 Clouds 27 1008 94 10000 1.5 140 14:57 06.01.2020
1025 Clouds 27 1008 94 10000 1.5 140 14:39 06.01.2020
1026 Clouds 27 1008 94 10000 1.5 140 14:18 06.01.2020
1027 Clouds 27 1008 94 10000 1.5 140 13:42 06.01.2020
1028 Clouds 27 1008 94 10000 1.5 140 13:22 06.01.2020
1029 Clouds 27 1008 94 10000 1.5 180 12:59 06.01.2020
1030 Clouds 27 1008 94 10000 1.5 180 12:41 06.01.2020
1031 Clouds 27 1008 94 10000 1.5 180 12:20 06.01.2020
1032 Clouds 27 1008 94 10000 2.6 140 11:56 06.01.2020
1033 Clouds 27 1008 94 10000 2.6 140 11:38 06.01.2020
1034 Clouds 27 1008 94 10000 2.6 140 11:20 06.01.2020
1035 Clouds 27 1008 94 10000 2.6 140 11:20 06.01.2020
1036 Thunderstorm 27 1008 94 10000 1.5 180 10:42 06.01.2020
1037 Thunderstorm 27 1008 94 10000 2.1 200 10:21 06.01.2020
1038 Clouds 28 1007 88 10000 3.1 110 09:42 06.01.2020
1039 Clouds 28 1007 88 10000 3.1 110 09:24 06.01.2020
1040 Clouds 28 1007 88 10000 3.1 110 09:24 06.01.2020
1041 Clouds 29 1006 83 10000 2.1 200 08:58 06.01.2020
1042 Clouds 29 1006 83 10000 2.1 200 08:58 06.01.2020
1043 Clouds 29 1006 83 10000 2.1 200 08:39 06.01.2020
1044 Clouds 29 1006 83 10000 2.1 200 08:21 06.01.2020
1045 Thunderstorm 29 1006 79 10000 2.1 180 07:45 06.01.2020
1046 Thunderstorm 31 1005 74 10000 2.1 360 07:21 06.01.2020
1047 Clouds 31 1005 79 10000 2.6 360 06:38 06.01.2020
1048 Clouds 32 1005 75 10000 4.1 334 05:49 06.01.2020
1049 Thunderstorm 32 1005 75 10000 4.1 320 05:28 06.01.2020
1050 Rain 33 1005 75 10000 3.1 20 04:24 06.01.2020
1051 Rain 32 1006 79 10000 4.6 360 03:51 06.01.2020
1052 Clouds 32 1007 75 10000 3.1 360 02:29 06.01.2020
1053 Clouds 32 1007 70 10000 2.6 50 01:54 06.01.2020
1054 Clouds 32 1007 70 10000 2.6 50 01:31 06.01.2020
1055 Clouds 30 1008 79 10000 2.1 20 00:46 06.01.2020
1056 Clouds 30 1008 79 10000 2.1 20 00:28 06.01.2020
1057 Clouds 31 1008 74 10000 1.5 90 23:57 05.01.2020
1058 Clouds 31 1008 74 10000 1.5 90 23:57 05.01.2020
1059 Clouds 31 1008 74 10000 1.5 90 23:57 05.01.2020
1060 Clouds 31 1008 74 10000 1.5 90 23:38 05.01.2020
1061 Clouds 31 1008 74 10000 1.5 90 23:20 05.01.2020
1062 Clouds 28 1008 78 10000 1.5 230 22:40 05.01.2020
1063 Clouds 28 1008 78 10000 1.5 230 22:20 05.01.2020
1064 Clouds 25 1008 94 10000 1 160 21:57 05.01.2020
1065 Clouds 25 1008 94 10000 1 160 21:39 05.01.2020
1066 Clouds 25 1008 94 10000 1 160 21:20 05.01.2020
1067 Clouds 24 1007 94 10000 1 140 20:56 05.01.2020
1068 Clouds 24 1007 94 10000 1 140 20:38 05.01.2020
1069 Clouds 24 1007 94 10000 1 140 20:19 05.01.2020
1070 Clouds 24 1007 94 10000 1 140 20:19 05.01.2020
1071 Clouds 25 1007 88 10000 1.5 200 19:58 05.01.2020
1072 Clouds 25 1007 88 10000 1.5 200 19:38 05.01.2020
1073 Clouds 25 1007 88 10000 1.5 200 19:19 05.01.2020
1074 Clouds 25 1007 94 10000 1 200 18:55 05.01.2020
1075 Clouds 25 1007 94 10000 1 200 18:37 05.01.2020
1076 Clouds 25 1007 94 10000 1 200 18:37 05.01.2020
1077 Clouds 25 1007 94 10000 1 200 18:19 05.01.2020
1078 Clouds 25 1007 94 10000 1.72 185 17:57 05.01.2020
1079 Clouds 25 1007 94 10000 1.72 185 17:38 05.01.2020
1080 Clouds 25 1007 94 10000 1.13 165 17:19 05.01.2020
1081 Clouds 25 1008 94 10000 1.13 165 16:55 05.01.2020
1082 Clouds 25 1008 94 10000 1.13 165 16:37 05.01.2020
1083 Clouds 25 1008 94 10000 1.13 165 16:19 05.01.2020
1084 Clouds 25 1008 94 10000 1.13 165 16:19 05.01.2020
1085 Clouds 25 1008 94 10000 1.13 165 16:19 05.01.2020
1086 Clouds 25 1008 100 10000 1.13 165 15:37 05.01.2020
1087 Clouds 25 1008 100 10000 1.13 165 15:18 05.01.2020
1088 Clouds 25 1009 100 10000 1.13 165 14:55 05.01.2020
1089 Clouds 25 1009 100 10000 1.13 165 14:36 05.01.2020
1090 Clouds 25 1009 100 10000 1.5 148 14:18 05.01.2020
1091 Clouds 26 1010 94 10000 1 180 13:40 05.01.2020
1092 Clouds 26 1010 94 10000 1 180 13:21 05.01.2020
1093 Clouds 26 1010 94 10000 2.1 140 12:58 05.01.2020
1094 Clouds 26 1010 94 10000 2.1 140 12:39 05.01.2020
1095 Clouds 26 1010 94 10000 2.1 140 12:21 05.01.2020
1096 Clouds 26 1010 94 10000 1.26 166 11:58 05.01.2020
1097 Clouds 26 1010 94 10000 1.26 166 11:39 05.01.2020
1098 Clouds 26 1010 94 10000 1.26 166 11:39 05.01.2020
1099 Clouds 26 1010 94 10000 1.68 123 11:19 05.01.2020
1100 Clouds 27 1009 83 10000 1.68 123 10:56 05.01.2020
1101 Clouds 27 1009 83 10000 1.68 123 10:36 05.01.2020
1102 Clouds 27 1009 83 10000 1.68 123 10:36 05.01.2020
1103 Clouds 27 1009 83 10000 1.68 123 10:18 05.01.2020
1104 Clouds 29 1008 74 10000 1 180 09:41 05.01.2020
1105 Clouds 29 1008 74 10000 1 180 09:21 05.01.2020
1106 Clouds 31 1007 62 10000 4.1 90 08:46 05.01.2020
1107 Clouds 31 1007 62 10000 4.1 90 08:27 05.01.2020
1108 Clouds 32 1006 59 10000 3.1 90 07:55 05.01.2020
1109 Clouds 32 1006 59 10000 3.1 90 07:35 05.01.2020
1110 Clouds 33 1006 63 10000 5.1 90 06:58 05.01.2020
1111 Clouds 33 1006 66 10000 6.7 70 05:55 05.01.2020
1112 Clouds 33 1006 66 10000 6.7 70 05:30 05.01.2020
1113 Clouds 33 1006 66 10000 6.7 70 05:30 05.01.2020
1114 Clouds 33 1007 63 10000 6.7 70 04:34 05.01.2020
1115 Clouds 33 1008 66 10000 5.1 50 03:47 05.01.2020
1116 Clouds 33 1008 66 10000 5.1 90 02:43 05.01.2020
1117 Clouds 33 1008 66 10000 5.1 90 02:20 05.01.2020
1118 Clouds 32 1009 62 10000 5.1 110 01:39 05.01.2020
1119 Clouds 32 1009 62 10000 5.1 110 01:18 05.01.2020
1120 Clouds 31 1009 74 10000 6.2 110 00:40 05.01.2020
1121 Clouds 31 1009 74 10000 6.2 110 00:21 05.01.2020
1122 Clouds 30 1009 74 10000 3.6 110 23:59 04.01.2020
1123 Clouds 30 1009 74 10000 3.6 110 23:39 04.01.2020
1124 Clouds 30 1009 74 10000 3.6 110 23:18 04.01.2020
1125 Rain 28 1009 83 10000 1 140 22:39 04.01.2020
1126 Rain 28 1009 83 10000 1 140 22:39 04.01.2020
1127 Rain 28 1009 83 10000 1 140 22:20 04.01.2020
1128 Rain 26 1008 94 10000 1.5 140 21:56 04.01.2020
1129 Rain 26 1008 94 10000 1.5 140 21:37 04.01.2020
1130 Rain 26 1008 94 10000 1.5 140 21:19 04.01.2020
1131 Clouds 25 1007 94 10000 1.5 160 20:56 04.01.2020
1132 Clouds 25 1007 94 10000 1.5 160 20:37 04.01.2020
1133 Clouds 25 1007 94 10000 1.5 160 20:18 04.01.2020
1134 Clouds 25 1007 83 10000 1 180 19:41 04.01.2020
1135 Clouds 25 1007 83 10000 1 180 19:41 04.01.2020
1136 Clouds 25 1007 83 10000 1 180 19:41 04.01.2020
1137 Clouds 25 1007 83 10000 1 180 19:23 04.01.2020
1138 Clouds 25 1006 94 10000 1 180 18:58 04.01.2020
1139 Clouds 25 1006 94 10000 1 180 18:39 04.01.2020
1140 Clouds 25 1006 94 10000 1 180 18:20 04.01.2020
1141 Clouds 25 1006 94 10000 1 90 17:56 04.01.2020
1142 Clouds 25 1006 94 10000 1 90 17:38 04.01.2020
1143 Clouds 25 1006 94 10000 1 90 17:20 04.01.2020
1144 Clouds 25 1006 94 10000 1 140 16:42 04.01.2020
1145 Clouds 25 1006 94 10000 1 140 16:24 04.01.2020
1146 Clouds 25 1007 94 10000 1 180 15:57 04.01.2020
1147 Clouds 25 1007 94 10000 1 180 15:38 04.01.2020
1148 Clouds 25 1007 94 10000 1 180 15:19 04.01.2020
1149 Clouds 25 1008 94 10000 1 140 14:56 04.01.2020
1150 Clouds 25 1008 94 10000 1 140 14:37 04.01.2020
1151 Clouds 25 1008 94 10000 1 140 14:19 04.01.2020
1152 Clouds 26 1008 88 10000 1.5 140 13:54 04.01.2020
1153 Clouds 26 1008 88 10000 1.5 140 13:36 04.01.2020
1154 Clouds 26 1008 88 10000 1.5 140 13:18 04.01.2020
1155 Rain 27 1009 88 10000 1.49 150 12:41 04.01.2020
1156 Rain 27 1009 88 10000 1.49 150 12:19 04.01.2020
1157 Clouds 27 1008 88 10000 1.5 160 11:57 04.01.2020
1158 Clouds 27 1008 88 10000 1.5 160 11:38 04.01.2020
1159 Clouds 27 1008 88 10000 1.5 160 11:19 04.01.2020
1160 Clouds 28 1008 83 10000 1.5 140 10:42 04.01.2020
1161 Clouds 28 1008 83 10000 1.5 140 10:23 04.01.2020
1162 Clouds 30 1007 74 10000 3.1 90 09:57 04.01.2020
1163 Clouds 30 1007 74 10000 3.1 90 09:39 04.01.2020
1164 Clouds 30 1007 74 10000 3.1 90 09:20 04.01.2020
1165 Clouds 31 1006 74 10000 4.1 50 08:40 04.01.2020
1166 Clouds 31 1006 74 10000 4.1 50 08:20 04.01.2020
1167 Clouds 32 1005 62 10000 4.1 50 07:42 04.01.2020
1168 Clouds 32 1005 62 10000 4.1 50 07:19 04.01.2020
1169 Rain 32 1004 70 10000 3.1 50 06:33 04.01.2020
1170 Clouds 32 1005 66 10000 4.1 50 05:19 04.01.2020
1171 Clouds 32 1005 66 10000 4.1 50 04:34 04.01.2020
1172 Clouds 31 1006 74 10000 5.1 50 03:43 04.01.2020
1173 Clouds 31 1006 74 10000 5.1 50 03:43 04.01.2020
1174 Clouds 31 1006 74 10000 5.1 50 03:18 04.01.2020
1175 Clouds 31 1007 74 10000 4.6 50 02:21 04.01.2020
1176 Clouds 31 1007 74 10000 4.6 50 02:21 04.01.2020
1177 Clouds 31 1008 70 10000 4.1 50 01:53 04.01.2020
1178 Clouds 31 1008 70 10000 4.1 50 01:30 04.01.2020
1179 Clouds 32 1008 66 10000 4.1 70 00:41 04.01.2020
1180 Clouds 32 1008 66 10000 4.1 70 00:22 04.01.2020
1181 Clouds 31 1008 70 10000 4.1 110 23:41 03.01.2020
1182 Clouds 31 1008 70 10000 4.1 110 23:23 03.01.2020
1183 Clouds 28 1008 74 10000 2.1 140 22:41 03.01.2020
1184 Clouds 28 1008 74 10000 2.1 140 22:20 03.01.2020
1185 Clouds 28 1008 74 10000 2.1 140 22:20 03.01.2020
1186 Clouds 26 1007 88 10000 1.41 123 21:58 03.01.2020
1187 Clouds 26 1007 88 10000 1.41 123 21:38 03.01.2020
1188 Clouds 26 1007 88 10000 1.41 123 21:38 03.01.2020
1189 Clouds 26 1007 88 10000 1.41 123 21:38 03.01.2020
1190 Clouds 26 1007 88 10000 1.41 123 21:19 03.01.2020
1191 Clouds 26 1007 88 10000 1.41 123 21:19 03.01.2020
1192 Clouds 24 1007 94 10000 1.41 123 20:56 03.01.2020
1193 Clouds 24 1007 94 10000 1.41 123 20:38 03.01.2020
1194 Clouds 24 1007 94 10000 1.11 150 20:18 03.01.2020
1195 Clouds 24 1007 94 10000 1.5 200 19:55 03.01.2020
1196 Clouds 24 1007 94 10000 1.5 200 19:37 03.01.2020
1197 Clouds 24 1007 94 10000 1.5 200 19:18 03.01.2020
1198 Clouds 24 1006 94 10000 1.5 200 18:40 03.01.2020
1199 Clouds 24 1006 94 10000 1.5 200 18:21 03.01.2020
1200 Clouds 25 1007 94 10000 1.11 150 17:54 03.01.2020
1201 Clouds 25 1007 94 10000 1.11 150 17:36 03.01.2020
1202 Clouds 25 1007 94 10000 1.42 174 17:18 03.01.2020
1203 Clouds 27 1007 88 10000 3.1 250 16:42 03.01.2020
1204 Clouds 27 1007 88 10000 3.1 250 16:22 03.01.2020
1205 Clouds 26 1007 94 10000 2.1 270 15:43 03.01.2020
1206 Clouds 26 1007 94 10000 2.1 270 15:19 03.01.2020
1207 Clouds 26 1007 94 10000 2.1 270 15:19 03.01.2020
1208 Clouds 26 1008 94 10000 1.42 174 14:56 03.01.2020
1209 Clouds 26 1008 94 10000 1.42 174 14:37 03.01.2020
1210 Clouds 26 1008 94 10000 0.93 171 14:19 03.01.2020
1211 Clouds 27 1008 88 10000 1 160 13:41 03.01.2020
1212 Clouds 27 1008 88 10000 1 160 13:23 03.01.2020
1213 Clouds 27 1008 94 10000 1.5 200 12:56 03.01.2020
1214 Clouds 27 1008 94 10000 1.5 200 12:38 03.01.2020
1215 Clouds 27 1008 94 10000 1.5 200 12:19 03.01.2020
1216 Clouds 28 1007 88 10000 1.5 160 11:42 03.01.2020
1217 Clouds 28 1007 88 10000 1.5 160 11:18 03.01.2020
1218 Clouds 29 1007 79 10000 1.5 160 10:43 03.01.2020
1219 Clouds 29 1007 79 10000 1.5 160 10:24 03.01.2020
1220 Clouds 30 1006 70 10000 2.1 50 09:56 03.01.2020
1221 Clouds 30 1006 70 10000 2.1 50 09:38 03.01.2020
1222 Clouds 30 1006 70 10000 2.1 50 09:20 03.01.2020
1223 Clouds 30 1005 70 10000 0.43 212 08:45 03.01.2020
1224 Clouds 30 1005 70 10000 0.76 351 08:23 03.01.2020
1225 Clouds 31 1005 62 10000 1.5 20 07:57 03.01.2020
1226 Clouds 31 1005 62 10000 1.5 20 07:38 03.01.2020
1227 Clouds 31 1005 62 10000 1.5 20 07:18 03.01.2020
1228 Clouds 31 1004 70 10000 3.1 360 06:42 03.01.2020
1229 Clouds 31 1004 70 10000 3.1 360 06:23 03.01.2020
1230 Clouds 32 1005 66 10000 3.1 360 05:20 03.01.2020
1231 Clouds 31 1006 70 10000 3.1 50 03:42 03.01.2020
1232 Clouds 31 1007 66 10000 4.1 20 02:54 03.01.2020
1233 Clouds 31 1008 74 10000 3.1 20 01:51 03.01.2020
1234 Clouds 31 1008 74 10000 3.1 20 01:33 03.01.2020
1235 Clouds 31 1008 70 10000 2.1 20 00:43 03.01.2020
1236 Clouds 31 1008 70 10000 2.1 20 00:24 03.01.2020
1237 Clouds 31 1009 70 10000 1 110 23:39 02.01.2020
1238 Clouds 31 1009 70 10000 1 110 23:20 02.01.2020
1239 Clouds 28 1009 74 10000 2.1 180 22:59 02.01.2020
1240 Clouds 28 1009 74 10000 2.1 180 22:41 02.01.2020
1241 Clouds 28 1009 74 10000 2.1 180 22:20 02.01.2020
1242 Clouds 25 1008 94 10000 0.67 168 21:56 02.01.2020
1243 Clouds 25 1008 94 10000 0.67 168 21:38 02.01.2020
1244 Clouds 25 1008 94 10000 0.67 168 21:19 02.01.2020
1245 Clouds 23 1008 100 10000 2.1 160 20:56 02.01.2020
1246 Clouds 23 1008 100 10000 2.1 160 20:37 02.01.2020
1247 Clouds 23 1008 100 10000 2.1 160 20:18 02.01.2020
1248 Clouds 23 1007 100 10000 1.5 140 19:54 02.01.2020
1249 Clouds 23 1007 100 10000 1.5 140 19:36 02.01.2020
1250 Clouds 23 1007 100 10000 1.5 140 19:36 02.01.2020
1251 Clouds 23 1007 100 10000 1.5 140 19:18 02.01.2020
1252 Clouds 24 1007 94 10000 1.21 190 18:42 02.01.2020
1253 Clouds 24 1007 94 10000 1.21 190 18:23 02.01.2020
1254 Clouds 24 1007 100 10000 1.5 110 17:58 02.01.2020
1255 Clouds 24 1007 100 10000 1.5 110 17:38 02.01.2020
1256 Clouds 24 1007 100 10000 1.5 110 17:19 02.01.2020
1257 Clouds 24 1008 100 10000 1.05 193 16:58 02.01.2020
1258 Clouds 24 1008 100 10000 1.05 193 16:40 02.01.2020
1259 Clouds 24 1008 100 10000 1.05 193 16:40 02.01.2020
1260 Clouds 24 1008 100 10000 1.05 193 16:20 02.01.2020
1261 Rain 23 1008 91 0 1.05 193 15:57 02.01.2020
1262 Rain 23 1008 91 0 1.05 193 15:39 02.01.2020
1263 Clouds 26 1010 94 10000 2.1 160 15:19 02.01.2020
1264 Clouds 26 1010 94 10000 2.1 160 14:55 02.01.2020
1265 Clouds 26 1010 94 10000 2.1 160 14:55 02.01.2020
1266 Clouds 26 1010 94 10000 2.1 160 14:55 02.01.2020
1267 Clouds 26 1010 94 10000 2.1 160 14:36 02.01.2020
1268 Clouds 26 1010 83 10000 1 140 14:18 02.01.2020
1269 Clouds 26 1010 83 10000 1 140 13:47 02.01.2020
1270 Clouds 26 1010 83 10000 1 140 13:29 02.01.2020
1271 Clouds 27 1010 88 10000 2.6 200 12:45 02.01.2020
1272 Clouds 28 1010 83 10000 1 200 12:25 02.01.2020
1273 Clouds 28 1010 83 10000 1 200 12:25 02.01.2020
1274 Clouds 28 1010 83 10000 1 200 11:44 02.01.2020
1275 Clouds 28 1010 83 10000 1 200 11:26 02.01.2020
1276 Clouds 29 1009 83 10000 1 140 10:58 02.01.2020
1277 Clouds 29 1009 83 10000 1 140 10:38 02.01.2020
1278 Clouds 29 1009 83 10000 1 140 10:19 02.01.2020
1279 Clouds 30 1009 74 10000 1.5 290 09:41 02.01.2020
1280 Clouds 30 1009 74 10000 1.5 290 09:22 02.01.2020
1281 Clouds 30 1008 74 10000 2.1 340 08:44 02.01.2020
1282 Clouds 30 1008 74 10000 2.1 340 08:25 02.01.2020
1283 Clouds 31 1007 66 10000 2.6 360 07:49 02.01.2020
1284 Clouds 31 1007 66 10000 2.6 360 07:30 02.01.2020
1285 Clouds 32 1007 62 10000 3.6 360 06:44 02.01.2020
1286 Clouds 32 1007 62 10000 3.6 360 06:26 02.01.2020
1287 Clouds 31 1008 66 10000 4.1 360 04:41 02.01.2020
1288 Clouds 31 1008 66 10000 4.1 360 04:21 02.01.2020
1289 Clouds 31 1008 66 10000 4.1 360 04:21 02.01.2020
1290 Clouds 31 1010 70 10000 4.1 20 02:28 02.01.2020
1291 Clouds 31 1010 66 10000 4.1 20 01:57 02.01.2020
1292 Clouds 31 1010 66 10000 4.1 20 01:32 02.01.2020
1293 Clouds 31 1010 70 10000 3.6 20 00:53 02.01.2020
1294 Clouds 31 1010 70 10000 3.6 20 00:32 02.01.2020
1295 Clouds 30 1010 70 10000 2.6 50 23:48 01.01.2020
1296 Clouds 30 1010 70 10000 2.6 50 23:25 01.01.2020
1297 Rain 25 1010 86 0 0.2 166 22:54 01.01.2020
1298 Rain 25 1010 86 0 0.2 166 22:36 01.01.2020
1299 Rain 25 1010 86 0 0.2 166 22:18 01.01.2020
1300 Rain 25 1010 86 0 0.2 166 21:42 01.01.2020
1301 Clouds 24 1010 94 10000 1.5 90 21:21 01.01.2020
1302 Clouds 24 1010 94 10000 1.5 90 20:58 01.01.2020
1303 Rain 25 1010 86 0 0.2 166 20:39 01.01.2020
1304 Clouds 24 1009 94 10000 1 180 20:20 01.01.2020
1305 Clouds 24 1009 94 10000 1 180 19:57 01.01.2020
1306 Clouds 24 1009 94 10000 1 180 19:39 01.01.2020
1307 Clouds 24 1009 94 10000 1 180 19:20 01.01.2020
1308 Rain 23 1010 91 0 1.1 193 18:57 01.01.2020
1309 Rain 23 1010 91 0 1.1 193 18:38 01.01.2020
1310 Clouds 24 1009 100 10000 1 140 18:20 01.01.2020
1311 Clouds 24 1009 100 10000 1 140 17:58 01.01.2020
1312 Clouds 24 1009 100 10000 1 140 17:40 01.01.2020
1313 Clouds 24 1009 100 10000 1 140 17:19 01.01.2020
1314 Clouds 25 1010 94 10000 1.5 140 16:57 01.01.2020
1315 Clouds 25 1010 94 10000 1.5 140 16:38 01.01.2020
1316 Clouds 25 1010 94 10000 1.5 140 16:38 01.01.2020
1317 Clouds 25 1010 94 10000 1.5 140 16:19 01.01.2020
1318 Clouds 25 1010 94 10000 1 160 15:54 01.01.2020
1319 Clouds 25 1010 94 10000 1 160 15:36 01.01.2020
1320 Clouds 25 1010 94 10000 1 160 15:36 01.01.2020
1321 Clouds 25 1010 94 10000 1 160 15:36 01.01.2020
1322 Clouds 25 1010 94 10000 1 160 15:18 01.01.2020
1323 Clouds 26 1011 94 10000 2.1 180 14:41 01.01.2020
1324 Clouds 26 1011 94 10000 2.1 180 14:23 01.01.2020
1325 Clouds 26 1011 88 10000 0.54 118 13:57 01.01.2020
1326 Clouds 26 1011 88 10000 0.71 139 13:38 01.01.2020
1327 Clouds 26 1011 88 10000 0.71 139 13:19 01.01.2020
1328 Clouds 27 1011 88 10000 0.71 139 12:57 01.01.2020
1329 Clouds 27 1011 88 10000 0.71 139 12:39 01.01.2020
1330 Clouds 27 1011 88 10000 0.71 139 12:19 01.01.2020
1331 Clouds 27 1011 88 10000 0.71 139 12:19 01.01.2020
1332 Clouds 28 1011 83 10000 2.1 140 11:56 01.01.2020
1333 Clouds 28 1011 83 10000 2.1 140 11:37 01.01.2020
1334 Clouds 28 1011 83 10000 2.1 140 11:18 01.01.2020
1335 Clouds 29 1010 74 10000 0.32 162 10:41 01.01.2020
1336 Clouds 29 1010 74 10000 0.32 162 10:21 01.01.2020
1337 Clouds 29 1009 74 10000 0.32 162 09:59 01.01.2020
1338 Clouds 29 1009 74 10000 0.32 162 09:38 01.01.2020
1339 Clouds 29 1009 74 10000 0.32 162 09:19 01.01.2020
1340 Clouds 30 1008 74 10000 2.1 340 08:55 01.01.2020
1341 Clouds 30 1008 74 10000 2.1 340 08:37 01.01.2020
1342 Clouds 30 1008 74 10000 2.1 340 08:37 01.01.2020
1343 Clouds 30 1008 74 10000 2.1 340 08:18 01.01.2020
1344 Clouds 32 1007 55 10000 2.1 320 07:54 01.01.2020
1345 Clouds 32 1007 55 10000 2.1 320 07:36 01.01.2020
1346 Rain 31 1007 62 10000 3.1 340 06:45 01.01.2020
1347 Rain 31 1007 62 10000 3.1 340 06:21 01.01.2020
1348 Rain 32 1007 59 10000 2.1 320 05:22 01.01.2020
1349 Clouds 32 1009 62 10000 5.1 320 03:45 01.01.2020
1350 Clouds 32 1009 62 10000 5.1 320 03:23 01.01.2020
1351 Clouds 32 1010 62 10000 3.6 360 02:57 01.01.2020
1352 Clouds 32 1010 62 10000 3.6 360 02:34 01.01.2020
1353 Clouds 32 1011 59 10000 3.1 360 01:55 01.01.2020
1354 Clouds 32 1011 59 10000 3.1 360 01:36 01.01.2020
1355 Clouds 32 1011 59 10000 3.1 360 01:18 01.01.2020
1356 Clouds 31 1011 66 10000 1 360 00:44 01.01.2020
1357 Clouds 31 1011 66 10000 1 360 00:24 01.01.2020
1358 Clouds 31 1011 70 10000 1.5 140 23:41 31.12.2019
1359 Clouds 31 1011 70 10000 1.5 140 23:21 31.12.2019
1360 Clouds 27 1011 78 10000 1 180 22:57 31.12.2019
1361 Clouds 27 1011 78 10000 1 180 22:38 31.12.2019
1362 Clouds 27 1011 78 10000 1 180 22:19 31.12.2019
1363 Clouds 25 1010 88 10000 1 180 21:57 31.12.2019
1364 Clouds 25 1010 88 10000 1 180 21:37 31.12.2019
1365 Clouds 25 1010 88 10000 1 180 21:19 31.12.2019
1366 Clouds 23 1010 94 10000 1 180 20:40 31.12.2019
1367 Clouds 23 1010 94 10000 1 180 20:22 31.12.2019
1368 Clouds 23 1009 94 10000 1 180 19:59 31.12.2019
1369 Clouds 23 1009 94 10000 1 180 19:40 31.12.2019
1370 Clouds 23 1009 94 10000 1 180 19:22 31.12.2019
1371 Clouds 23 1009 94 10000 1 180 19:22 31.12.2019
1372 Clouds 23 1009 100 10000 1 160 18:58 31.12.2019
1373 Clouds 23 1009 100 10000 1 160 18:40 31.12.2019
1374 Clouds 23 1009 100 10000 1 160 18:19 31.12.2019
1375 Clouds 24 1009 94 10000 1 160 17:56 31.12.2019
1376 Clouds 24 1009 94 10000 1 160 17:37 31.12.2019
1377 Clouds 24 1009 94 10000 1 160 17:19 31.12.2019
1378 Clouds 24 1010 94 10000 1 140 16:56 31.12.2019
1379 Clouds 24 1010 94 10000 1 140 16:37 31.12.2019
1380 Clouds 24 1010 94 10000 1 140 16:19 31.12.2019
1381 Clouds 25 1010 88 10000 1 160 15:56 31.12.2019
1382 Clouds 25 1010 88 10000 1 160 15:38 31.12.2019
1383 Clouds 25 1010 88 10000 1 160 15:20 31.12.2019
1384 Clouds 25 1011 94 10000 1 160 14:56 31.12.2019
1385 Clouds 25 1011 94 10000 1 160 14:37 31.12.2019
1386 Clouds 25 1011 94 10000 1 160 14:19 31.12.2019
1387 Clouds 25 1011 94 10000 1 140 13:56 31.12.2019
1388 Clouds 25 1011 94 10000 1 140 13:38 31.12.2019
1389 Clouds 25 1011 94 10000 1 140 13:38 31.12.2019
1390 Clouds 25 1011 94 10000 1 140 13:20 31.12.2019
1391 Clouds 25 1011 94 10000 1 160 12:56 31.12.2019
1392 Clouds 25 1011 94 10000 1 160 12:37 31.12.2019
1393 Clouds 25 1011 94 10000 1 160 12:19 31.12.2019
1394 Clouds 26 1010 88 10000 1 160 11:55 31.12.2019
1395 Clouds 26 1010 88 10000 1 160 11:37 31.12.2019
1396 Clouds 26 1010 88 10000 1 160 11:19 31.12.2019
1397 Clouds 26 1009 88 10000 2.1 180 10:56 31.12.2019
1398 Clouds 26 1009 88 10000 2.1 180 10:37 31.12.2019
1399 Clouds 26 1009 88 10000 2.1 180 10:19 31.12.2019
1400 Clouds 29 1009 70 10000 1 290 09:57 31.12.2019
1401 Clouds 29 1009 70 10000 1 290 09:57 31.12.2019
1402 Clouds 29 1009 70 10000 1 290 09:38 31.12.2019
1403 Clouds 29 1009 70 10000 1 290 09:18 31.12.2019
1404 Clouds 30 1008 70 10000 1.5 360 08:42 31.12.2019
1405 Clouds 30 1008 70 10000 1.5 360 08:42 31.12.2019
1406 Clouds 30 1008 70 10000 1.5 360 08:22 31.12.2019
1407 Clouds 31 1007 62 10000 2.1 340 07:56 31.12.2019
1408 Clouds 31 1007 62 10000 2.1 340 07:37 31.12.2019
1409 Clouds 31 1007 62 10000 2.1 340 07:18 31.12.2019
1410 Clouds 31 1007 66 10000 2.6 320 06:27 31.12.2019
1411 Clouds 31 1007 62 10000 3.6 50 04:55 31.12.2019
1412 Clouds 31 1007 62 10000 3.6 50 04:25 31.12.2019
1413 Clouds 31 1008 66 10000 3.1 50 02:57 31.12.2019
1414 Clouds 31 1008 66 10000 3.1 50 02:20 31.12.2019
1415 Clouds 30 1009 70 10000 3.1 20 01:49 31.12.2019
1416 Clouds 30 1009 70 10000 3.1 20 01:31 31.12.2019
1417 Clouds 30 1009 74 10000 3.1 20 00:48 31.12.2019
1418 Clouds 30 1009 74 10000 3.1 20 00:25 31.12.2019
1419 Clouds 30 1009 74 10000 2.2 358 23:58 30.12.2019
1420 Clouds 30 1009 74 10000 2.2 358 23:39 30.12.2019
1421 Clouds 30 1009 74 10000 0.61 224 23:21 30.12.2019
1422 Clouds 27 1009 78 10000 2.1 180 22:59 30.12.2019
1423 Clouds 27 1009 78 10000 2.1 180 22:41 30.12.2019
1424 Clouds 27 1009 78 10000 2.1 180 22:21 30.12.2019
1425 Clouds 25 1009 88 10000 2.1 180 21:57 30.12.2019
1426 Clouds 25 1009 88 10000 2.1 180 21:39 30.12.2019
1427 Clouds 25 1009 88 10000 2.1 180 21:20 30.12.2019
1428 Clouds 23 1008 94 10000 1 180 20:58 30.12.2019
1429 Clouds 23 1008 94 10000 1 180 20:40 30.12.2019
1430 Clouds 23 1008 94 10000 1 180 20:20 30.12.2019
1431 Clouds 24 1008 88 10000 1 180 19:58 30.12.2019
1432 Clouds 24 1008 88 10000 1 180 19:38 30.12.2019
1433 Clouds 24 1008 88 10000 1 180 19:19 30.12.2019
1434 Clouds 24 1008 94 10000 1 200 18:58 30.12.2019
1435 Clouds 24 1008 94 10000 1 200 18:40 30.12.2019
1436 Clouds 24 1008 94 10000 1 200 18:20 30.12.2019
1437 Clouds 24 1008 94 10000 1.5 200 17:55 30.12.2019
1438 Clouds 24 1008 94 10000 1.5 200 17:37 30.12.2019
1439 Clouds 24 1008 94 10000 1.5 200 17:18 30.12.2019
1440 Clouds 25 1009 88 10000 2.1 200 16:57 30.12.2019
1441 Clouds 25 1009 88 10000 2.1 200 16:37 30.12.2019
1442 Clouds 25 1009 88 10000 2.1 200 16:18 30.12.2019
1443 Clouds 25 1009 94 10000 1 180 15:55 30.12.2019
1444 Clouds 25 1009 94 10000 1 180 15:36 30.12.2019
1445 Clouds 25 1009 94 10000 1 180 15:18 30.12.2019
1446 Clouds 25 1010 94 10000 2.1 180 14:42 30.12.2019
1447 Clouds 25 1010 94 10000 2.1 180 14:19 30.12.2019
1448 Clouds 26 1010 83 10000 1.5 90 13:56 30.12.2019
1449 Clouds 26 1010 83 10000 1.5 90 13:37 30.12.2019
1450 Clouds 26 1010 83 10000 1.5 90 13:19 30.12.2019
1451 Clouds 26 1010 94 10000 1.5 110 12:43 30.12.2019
1452 Clouds 26 1010 94 10000 1.5 110 12:20 30.12.2019
1453 Clouds 26 1010 94 10000 1.5 200 11:59 30.12.2019
1454 Clouds 26 1010 94 10000 1.5 200 11:40 30.12.2019
1455 Clouds 26 1010 94 10000 1.5 200 11:19 30.12.2019
1456 Clouds 27 1009 88 10000 1 140 10:45 30.12.2019
1457 Clouds 27 1009 88 10000 1 140 10:22 30.12.2019
1458 Clouds 27 1009 88 10000 1 140 10:22 30.12.2019
1459 Clouds 27 1008 88 10000 1.5 160 09:58 30.12.2019
1460 Clouds 27 1008 88 10000 1.5 160 09:40 30.12.2019
1461 Clouds 27 1008 88 10000 1.5 160 09:20 30.12.2019
1462 Clouds 28 1008 78 10000 2.1 200 08:50 30.12.2019
1463 Clouds 28 1008 78 10000 2.1 200 08:23 30.12.2019
1464 Clouds 30 1007 70 10000 4.6 290 07:56 30.12.2019
1465 Clouds 30 1007 70 10000 4.6 290 07:37 30.12.2019
1466 Rain 30 1006 70 10000 3.1 340 06:52 30.12.2019
1467 Clouds 31 1007 70 10000 4.1 360 04:57 30.12.2019
1468 Clouds 31 1007 70 10000 3.1 360 03:55 30.12.2019
1469 Clouds 31 1008 70 10000 3.1 360 02:56 30.12.2019
1470 Clouds 31 1008 70 10000 3.1 360 02:37 30.12.2019
1471 Clouds 31 1008 62 10000 3.1 20 01:50 30.12.2019
1472 Clouds 31 1008 62 10000 3.1 20 01:21 30.12.2019
1473 Clouds 31 1009 66 10000 3.1 20 00:44 30.12.2019
1474 Clouds 31 1009 66 10000 3.1 20 00:18 30.12.2019
1475 Clouds 30 1009 70 10000 1 140 23:39 29.12.2019
1476 Clouds 30 1009 70 10000 1 140 23:39 29.12.2019
1477 Clouds 30 1009 70 10000 1 140 23:21 29.12.2019
1478 Clouds 28 1009 69 10000 3.1 180 22:42 29.12.2019
1479 Clouds 28 1009 69 10000 3.1 180 22:23 29.12.2019
1480 Clouds 25 1009 88 10000 0.32 135 21:58 29.12.2019
1481 Clouds 25 1009 88 10000 0.32 135 21:40 29.12.2019
1482 Clouds 25 1009 88 10000 0.32 135 21:20 29.12.2019
1483 Clouds 23 1009 94 10000 0.32 135 20:57 29.12.2019
1484 Clouds 23 1009 94 10000 0.32 135 20:38 29.12.2019
1485 Clouds 23 1009 94 10000 1.74 193 20:20 29.12.2019
1486 Clouds 23 1008 94 10000 1.5 160 19:58 29.12.2019
1487 Clouds 23 1008 94 10000 1.5 160 19:39 29.12.2019
1488 Clouds 23 1008 94 10000 1.5 160 19:20 29.12.2019
1489 Clouds 23 1008 94 10000 1.5 140 18:55 29.12.2019
1490 Clouds 23 1008 94 10000 1.5 140 18:37 29.12.2019
1491 Clouds 23 1008 94 10000 1.5 140 18:19 29.12.2019
1492 Clouds 23 1008 94 10000 1.5 140 18:19 29.12.2019
1493 Clouds 24 1008 94 10000 1.5 160 17:56 29.12.2019
1494 Clouds 24 1008 94 10000 1.5 160 17:38 29.12.2019
1495 Clouds 24 1008 94 10000 1.5 160 17:19 29.12.2019
1496 Clouds 25 1008 88 10000 2.04 197 16:56 29.12.2019
1497 Clouds 25 1008 88 10000 2.04 197 16:36 29.12.2019
1498 Clouds 25 1008 88 10000 2.04 197 16:18 29.12.2019
1499 Clouds 25 1009 88 10000 2.04 197 15:56 29.12.2019
1500 Clouds 25 1009 88 10000 2.04 197 15:56 29.12.2019
1501 Clouds 25 1009 88 10000 2.04 197 15:38 29.12.2019
1502 Clouds 25 1009 88 10000 2.04 197 15:18 29.12.2019
1503 Clouds 25 1009 94 10000 2.04 197 14:55 29.12.2019
1504 Clouds 25 1009 94 10000 2.04 197 14:37 29.12.2019
1505 Clouds 25 1009 94 10000 2.16 186 14:18 29.12.2019
1506 Clouds 25 1010 94 10000 2.16 186 13:41 29.12.2019
1507 Clouds 25 1010 94 10000 2.01 182 13:22 29.12.2019
1508 Clouds 26 1009 94 10000 2.01 182 12:59 29.12.2019
1509 Clouds 26 1009 94 10000 2.01 182 12:41 29.12.2019
1510 Clouds 26 1009 94 10000 2.01 182 12:22 29.12.2019
1511 Clouds 26 1009 94 10000 1.5 200 11:46 29.12.2019
1512 Clouds 26 1009 94 10000 1.5 200 11:23 29.12.2019
1513 Clouds 28 1009 83 10000 1.5 180 11:00 29.12.2019
1514 Clouds 28 1009 83 10000 1.5 180 10:41 29.12.2019
1515 Clouds 28 1009 83 10000 1.5 180 10:19 29.12.2019
1516 Clouds 29 1008 79 10000 1 140 09:47 29.12.2019
1517 Clouds 29 1008 79 10000 1 140 09:28 29.12.2019
1518 Clouds 30 1007 70 10000 2.6 50 08:59 29.12.2019
1519 Clouds 30 1007 70 10000 2.6 50 08:41 29.12.2019
1520 Clouds 30 1007 70 10000 2.6 50 08:23 29.12.2019
1521 Clouds 30 1007 70 10000 2.6 70 07:45 29.12.2019
1522 Clouds 30 1007 70 10000 2.6 70 07:26 29.12.2019
1523 Clouds 31 1006 70 10000 2.6 340 06:42 29.12.2019
1524 Clouds 31 1006 70 10000 2.6 340 06:19 29.12.2019
1525 Clouds 31 1006 70 10000 3.6 20 05:44 29.12.2019
1526 Clouds 32 1007 66 10000 2.1 320 04:33 29.12.2019
1527 Clouds 32 1008 66 10000 1.64 26 03:36 29.12.2019
1528 Clouds 31 1008 70 10000 2.6 360 02:30 29.12.2019
1529 Clouds 31 1008 70 10000 2.6 360 02:30 29.12.2019
1530 Clouds 30 1009 70 10000 3.6 20 01:52 29.12.2019
1531 Clouds 30 1009 70 10000 3.6 20 01:29 29.12.2019
1532 Clouds 30 1009 70 10000 3.6 20 01:29 29.12.2019
1533 Clouds 31 1009 70 10000 1.5 290 00:45 29.12.2019
1534 Clouds 31 1009 70 10000 1.5 290 00:45 29.12.2019
1535 Clouds 31 1009 70 10000 1.5 290 00:25 29.12.2019
1536 Clouds 31 1009 70 10000 1.5 290 00:25 29.12.2019
1537 Clouds 29 1009 74 10000 3.1 160 23:55 28.12.2019
1538 Clouds 29 1009 74 10000 3.1 160 23:37 28.12.2019
1539 Clouds 29 1009 74 10000 3.1 160 23:18 28.12.2019
1540 Clouds 27 1009 83 10000 1.5 200 22:37 28.12.2019
1541 Clouds 27 1009 83 10000 1.5 200 22:18 28.12.2019
1542 Clouds 25 1009 88 10000 1.5 180 21:56 28.12.2019
1543 Clouds 25 1009 88 10000 1.5 180 21:56 28.12.2019
1544 Clouds 25 1009 88 10000 1.5 180 21:37 28.12.2019
1545 Clouds 25 1009 88 10000 1.5 180 21:19 28.12.2019
1546 Clouds 24 1008 94 10000 1 180 20:42 28.12.2019
1547 Clouds 24 1008 94 10000 1 180 20:23 28.12.2019
1548 Clouds 24 1008 94 10000 1 180 19:59 28.12.2019
1549 Clouds 24 1008 94 10000 1 180 19:41 28.12.2019
1550 Clouds 24 1008 94 10000 1 180 19:23 28.12.2019
1551 Clear 22 1008 89 0 1.64 184 18:59 28.12.2019
1552 Clear 22 1008 89 0 1.64 184 18:40 28.12.2019
1553 Clear 22 1008 89 0 1.64 184 18:20 28.12.2019
1554 Clear 22 1008 89 0 1.64 184 17:56 28.12.2019
1555 Clear 22 1008 89 0 1.64 184 17:38 28.12.2019
1556 Clouds 24 1008 100 10000 1 140 17:19 28.12.2019
1557 Clouds 24 1008 100 10000 1 140 16:46 28.12.2019
1558 Clouds 24 1008 100 10000 1 140 16:26 28.12.2019
1559 Clouds 24 1008 100 10000 1 140 16:26 28.12.2019
1560 Clouds 24 1008 100 10000 1 140 16:26 28.12.2019
1561 Clouds 25 1009 94 10000 1.62 196 15:49 28.12.2019
1562 Clouds 25 1009 94 10000 1.62 196 15:25 28.12.2019
1563 Clouds 26 1009 88 10000 1.5 230 14:59 28.12.2019
1564 Clouds 26 1009 88 10000 1.5 230 14:39 28.12.2019
1565 Clouds 26 1009 88 10000 1.5 230 14:20 28.12.2019
1566 Clouds 26 1009 88 10000 1 180 13:56 28.12.2019
1567 Clouds 26 1009 88 10000 1 180 13:37 28.12.2019
1568 Clouds 26 1009 88 10000 1 180 13:18 28.12.2019
1569 Clouds 26 1009 94 10000 1.38 187 12:42 28.12.2019
1570 Clouds 26 1009 94 10000 1.38 187 12:23 28.12.2019
1571 Clouds 27 1009 88 10000 1.38 187 11:56 28.12.2019
1572 Clouds 27 1009 88 10000 1.38 187 11:37 28.12.2019
1573 Clouds 27 1009 88 10000 0.85 133 11:18 28.12.2019
1574 Clouds 28 1008 83 10000 0.85 133 10:43 28.12.2019
1575 Clouds 28 1008 83 10000 0.85 133 10:21 28.12.2019
1576 Clouds 29 1007 79 10000 0.85 133 09:57 28.12.2019
1577 Clouds 29 1007 79 10000 0.85 133 09:39 28.12.2019
1578 Clouds 29 1007 79 10000 0.85 133 09:19 28.12.2019
1579 Clouds 30 1006 70 10000 1.5 340 08:44 28.12.2019
1580 Clouds 30 1006 70 10000 1.5 340 08:26 28.12.2019
1581 Clouds 31 1006 66 10000 2.1 50 07:49 28.12.2019
1582 Clouds 31 1006 66 10000 2.1 50 07:27 28.12.2019
1583 Clouds 31 1006 70 10000 3.1 20 06:21 28.12.2019
1584 Clouds 31 1007 66 10000 4.6 360 03:59 28.12.2019
1585 Clouds 31 1007 66 10000 4.6 360 03:38 28.12.2019
1586 Clouds 31 1008 70 10000 4.6 320 02:48 28.12.2019
1587 Clouds 30 1008 70 10000 3.1 340 01:59 28.12.2019
1588 Clouds 30 1008 70 10000 3.1 340 01:29 28.12.2019
1589 Clouds 32 1009 62 10000 3.6 20 00:54 28.12.2019
1590 Clouds 32 1009 62 10000 3.6 20 00:36 28.12.2019
1591 Clouds 32 1009 62 10000 3.6 20 00:18 28.12.2019
1592 Haze 30 1009 74 10000 1.5 160 23:42 27.12.2019
1593 Haze 30 1009 74 10000 1.5 160 23:19 27.12.2019
1594 Haze 30 1009 74 10000 1.5 160 23:19 27.12.2019
1595 Haze 30 1009 74 10000 1.5 160 23:19 27.12.2019
1596 Clouds 27 1009 74 10000 2.1 180 22:57 27.12.2019
1597 Clouds 27 1009 74 10000 2.1 180 22:38 27.12.2019
1598 Clouds 27 1009 74 10000 2.1 180 22:20 27.12.2019
1599 Clouds 25 1008 83 10000 2.6 180 21:54 27.12.2019
1600 Clouds 25 1008 83 10000 2.6 180 21:36 27.12.2019
1601 Clouds 25 1008 83 10000 2.6 180 21:18 27.12.2019
1602 Clouds 23 1008 94 10000 2.6 180 20:40 27.12.2019
1603 Clouds 23 1008 94 10000 2.6 180 20:21 27.12.2019
1604 Clouds 23 1007 94 10000 1 160 19:42 27.12.2019
1605 Clouds 23 1007 94 10000 1 160 19:20 27.12.2019
1606 Clouds 24 1006 88 10000 1.5 200 18:59 27.12.2019
1607 Clouds 24 1006 88 10000 1.5 200 18:38 27.12.2019
1608 Clouds 24 1006 88 10000 1.5 200 18:20 27.12.2019
1609 Clouds 24 1006 88 10000 1.5 180 17:57 27.12.2019
1610 Clouds 24 1006 88 10000 1.5 180 17:38 27.12.2019
1611 Clouds 24 1006 88 10000 1.5 180 17:19 27.12.2019
1612 Clouds 24 1007 88 10000 1.5 180 16:56 27.12.2019
1613 Clouds 24 1007 88 10000 1.5 180 16:37 27.12.2019
1614 Clouds 24 1007 88 10000 1.5 180 16:19 27.12.2019
1615 Clouds 24 1008 94 10000 1 160 15:43 27.12.2019
1616 Clouds 24 1008 94 10000 1 160 15:20 27.12.2019
1617 Clouds 25 1008 88 10000 2.15 195 14:56 27.12.2019
1618 Clouds 25 1008 88 10000 2.15 195 14:38 27.12.2019
1619 Clouds 25 1008 88 10000 2.31 187 14:20 27.12.2019
1620 Clouds 25 1008 94 10000 2.31 187 13:48 27.12.2019
1621 Clouds 25 1008 94 10000 2.31 187 13:25 27.12.2019
1622 Clouds 25 1008 94 10000 2.38 189 13:25 27.12.2019
1623 Clouds 26 1008 88 10000 2.38 189 12:56 27.12.2019
1624 Clouds 26 1008 88 10000 2.38 189 12:38 27.12.2019
1625 Clouds 26 1008 88 10000 2.38 189 12:20 27.12.2019
1626 Haze 26 1008 94 0 1.5 180 11:42 27.12.2019
1627 Haze 26 1008 94 0 1.5 180 11:22 27.12.2019
1628 Haze 27 1007 88 0 1.5 200 10:54 27.12.2019
1629 Haze 27 1007 88 0 1.5 200 10:36 27.12.2019
1630 Haze 27 1007 88 0 1.5 200 10:18 27.12.2019
1631 Haze 28 1007 83 0 1.5 180 09:39 27.12.2019
1632 Haze 28 1007 83 0 1.5 180 09:21 27.12.2019
1633 Clouds 30 1006 70 10000 1.24 154 08:49 27.12.2019
1634 Clouds 30 1006 70 10000 1.09 152 08:30 27.12.2019
1635 Rain 30 1005 66 10000 2.6 360 07:48 27.12.2019
1636 Rain 30 1005 66 10000 2.6 360 07:26 27.12.2019
1637 Clouds 31 1004 66 10000 4.1 320 06:33 27.12.2019
1638 Clouds 32 1005 62 10000 4.1 320 04:51 27.12.2019
1639 Clouds 31 1006 70 10000 4.1 50 02:35 27.12.2019
1640 Clouds 30 1007 70 10000 3.1 360 01:48 27.12.2019
1641 Clouds 30 1007 70 10000 3.1 360 01:23 27.12.2019
1642 Clouds 30 1007 74 10000 2.6 360 00:52 27.12.2019
1643 Clouds 30 1007 74 10000 2.6 360 00:34 27.12.2019
1644 Clouds 30 1007 74 10000 2.6 360 00:34 27.12.2019
1645 Clouds 30 1007 74 10000 1 200 23:57 26.12.2019
1646 Clouds 30 1007 74 10000 1 200 23:38 26.12.2019
1647 Clouds 30 1007 74 10000 1 200 23:20 26.12.2019
1648 Clouds 26 1007 83 10000 1.5 250 22:42 26.12.2019
1649 Clouds 26 1007 83 10000 1.5 250 22:21 26.12.2019
1650 Clouds 24 1006 94 10000 0.82 176 21:55 26.12.2019
1651 Clouds 24 1006 94 10000 0.82 176 21:37 26.12.2019
1652 Clouds 24 1006 94 10000 0.82 176 21:19 26.12.2019
1653 Clouds 23 1006 94 10000 1.5 110 20:44 26.12.2019
1654 Clouds 23 1006 94 10000 1.5 110 20:22 26.12.2019
1655 Clouds 23 1005 94 10000 1 200 19:57 26.12.2019
1656 Clouds 23 1005 94 10000 1 200 19:38 26.12.2019
1657 Clouds 23 1005 94 10000 1 200 19:20 26.12.2019
1658 Clouds 22 1006 89 0 1.42 201 18:57 26.12.2019
1659 Clouds 22 1006 89 0 1.42 201 18:37 26.12.2019
1660 Clouds 23 1005 94 10000 1 200 18:18 26.12.2019
1661 Clouds 23 1005 94 10000 1 200 17:42 26.12.2019
1662 Clouds 23 1005 94 10000 1 200 17:22 26.12.2019
1663 Clouds 24 1005 88 10000 1 200 16:51 26.12.2019
1664 Clouds 24 1005 88 10000 1 200 16:29 26.12.2019
1665 Clouds 24 1006 94 10000 1 200 15:59 26.12.2019
1666 Clouds 24 1006 94 10000 1 200 15:40 26.12.2019
1667 Clouds 24 1006 94 10000 1 200 15:19 26.12.2019
1668 Clouds 23 1007 100 10000 1.54 186 14:42 26.12.2019
1669 Clouds 23 1007 100 10000 1.35 179 14:23 26.12.2019
1670 Clouds 24 1007 94 10000 1.35 179 13:57 26.12.2019
1671 Clouds 24 1007 94 10000 1.35 179 13:39 26.12.2019
1672 Clouds 24 1007 94 10000 1.35 179 13:39 26.12.2019
1673 Clouds 24 1007 94 10000 1.59 175 13:18 26.12.2019
1674 Clouds 24 1007 94 10000 1 180 12:45 26.12.2019
1675 Clouds 24 1007 94 10000 1 180 12:26 26.12.2019
1676 Clouds 25 1007 94 10000 1 180 11:59 26.12.2019
1677 Clouds 25 1007 94 10000 1 180 11:40 26.12.2019
1678 Clouds 25 1007 94 10000 1 180 11:22 26.12.2019
1679 Clouds 26 1007 88 10000 1 180 10:51 26.12.2019
1680 Clouds 26 1007 88 10000 1 180 10:28 26.12.2019
1681 Clouds 27 1006 83 10000 2.1 180 09:59 26.12.2019
1682 Clouds 27 1006 83 10000 2.1 180 09:41 26.12.2019
1683 Clouds 27 1006 83 10000 2.1 180 09:22 26.12.2019
1684 Clouds 30 1005 66 10000 1 340 08:39 26.12.2019
1685 Clouds 30 1005 66 10000 1 340 08:21 26.12.2019
1686 Clouds 30 1004 62 10000 3.6 360 07:44 26.12.2019
1687 Clouds 30 1004 62 10000 3.6 360 07:24 26.12.2019
1688 Clouds 31 1004 66 10000 2.1 320 06:38 26.12.2019
1689 Clouds 31 1004 66 10000 2.1 320 06:20 26.12.2019
1690 Clouds 31 1004 62 10000 3.6 340 05:42 26.12.2019
1691 Clouds 31 1005 52 10000 3.1 340 04:33 26.12.2019
1692 Clouds 30 1005 66 10000 2.6 360 03:31 26.12.2019
1693 Clouds 31 1006 58 10000 4.6 360 02:46 26.12.2019
1694 Clouds 31 1006 58 10000 4.6 360 02:27 26.12.2019
1695 Clouds 31 1006 62 10000 3.1 340 01:44 26.12.2019
1696 Clouds 31 1006 62 10000 3.1 340 01:24 26.12.2019
1697 Clouds 30 1007 66 10000 3.1 290 00:44 26.12.2019
1698 Clouds 30 1007 66 10000 3.1 290 00:23 26.12.2019
1699 Clouds 30 1007 66 10000 3.1 290 00:23 26.12.2019
1700 Clouds 30 1007 66 10000 1.84 3 23:57 25.12.2019
1701 Clouds 30 1007 66 10000 1.84 3 23:37 25.12.2019
1702 Clouds 30 1007 66 10000 0.96 179 23:18 25.12.2019
1703 Clouds 26 1007 88 10000 1.5 200 22:55 25.12.2019
1704 Clouds 26 1007 88 10000 1.5 200 22:37 25.12.2019
1705 Clouds 26 1007 88 10000 1.5 200 22:37 25.12.2019
1706 Clouds 26 1007 88 10000 1.5 200 22:18 25.12.2019
1707 Clouds 23 1006 88 10000 1 250 21:41 25.12.2019
1708 Clouds 23 1006 88 10000 1 250 21:23 25.12.2019
1709 Clouds 21 1005 94 10000 0.96 179 20:59 25.12.2019
1710 Clouds 21 1005 94 10000 0.96 179 20:40 25.12.2019
1711 Clouds 21 1005 94 10000 1.82 188 20:19 25.12.2019
1712 Clouds 22 1004 94 10000 1 140 19:57 25.12.2019
1713 Clouds 22 1004 94 10000 1 140 19:39 25.12.2019
1714 Clouds 22 1004 94 10000 1 140 19:21 25.12.2019
1715 Clouds 22 1004 94 10000 1 200 18:39 25.12.2019
1716 Clouds 22 1004 94 10000 1 200 18:20 25.12.2019
1717 Clouds 22 1004 94 10000 1.5 200 17:43 25.12.2019
1718 Clouds 22 1004 94 10000 1.5 200 17:21 25.12.2019
1719 Clouds 23 1005 94 10000 1.5 200 16:59 25.12.2019
1720 Clouds 23 1005 94 10000 1.5 200 16:39 25.12.2019
1721 Clouds 23 1005 94 10000 1.5 200 16:19 25.12.2019
1722 Clouds 21 1005 84 0 1.92 178 15:58 25.12.2019
1723 Clouds 21 1005 84 0 1.92 178 15:39 25.12.2019
1724 Clouds 21 1005 84 0 1.92 178 15:39 25.12.2019
1725 Clouds 24 1006 88 10000 2.1 90 15:21 25.12.2019
1726 Clouds 24 1006 88 10000 2.1 90 14:58 25.12.2019
1727 Clouds 24 1006 88 10000 2.1 90 14:40 25.12.2019
1728 Clouds 24 1006 88 10000 2.1 90 14:21 25.12.2019
1729 Clouds 24 1007 88 10000 2.1 110 13:55 25.12.2019
1730 Clouds 24 1007 88 10000 2.1 110 13:36 25.12.2019
1731 Clouds 24 1007 88 10000 2.1 110 13:18 25.12.2019
1732 Clouds 25 1007 83 10000 2.59 201 12:39 25.12.2019
1733 Clouds 25 1007 83 10000 2.59 201 12:20 25.12.2019
1734 Clouds 26 1007 78 10000 1 230 11:54 25.12.2019
1735 Clouds 26 1007 78 10000 1 230 11:36 25.12.2019
1736 Clouds 26 1007 78 10000 1 230 11:18 25.12.2019
1737 Clouds 27 1006 94 10000 1 160 10:38 25.12.2019
1738 Clouds 27 1006 94 10000 1 160 10:19 25.12.2019
1739 Clouds 29 1005 79 10000 2.1 70 09:49 25.12.2019
1740 Clouds 29 1005 79 10000 2.1 70 09:30 25.12.2019
1741 Clouds 30 1005 74 10000 3.6 50 08:47 25.12.2019
1742 Clouds 30 1005 74 10000 3.6 50 08:29 25.12.2019
1743 Clouds 31 1004 70 10000 2.6 70 07:50 25.12.2019
1744 Clouds 31 1004 70 10000 2.6 70 07:31 25.12.2019
1745 Clouds 31 1003 70 10000 2.6 360 06:49 25.12.2019
1746 Clouds 31 1003 70 10000 2.6 360 06:22 25.12.2019
1747 Clouds 31 1004 70 10000 2.6 360 05:18 25.12.2019
1748 Clouds 31 1004 70 10000 3.6 360 04:38 25.12.2019
1749 Clouds 31 1004 70 10000 3.6 360 04:18 25.12.2019
1750 Clouds 31 1005 70 10000 4.1 360 03:40 25.12.2019
1751 Clouds 31 1006 70 10000 3.1 360 02:39 25.12.2019
1752 Clouds 31 1007 70 10000 4.1 360 01:59 25.12.2019
1753 Clouds 31 1007 70 10000 4.1 360 01:25 25.12.2019
1754 Clouds 31 1007 70 10000 2.1 360 00:50 25.12.2019
1755 Clouds 31 1007 70 10000 2.1 360 00:29 25.12.2019
1756 Clouds 31 1007 74 10000 0.54 72 23:55 24.12.2019
1757 Clouds 31 1007 74 10000 0.54 72 23:37 24.12.2019
1758 Clouds 31 1007 74 10000 1.1 166 23:19 24.12.2019
1759 Clouds 28 1008 83 10000 1.1 166 22:39 24.12.2019
1760 Clouds 28 1008 83 10000 1.1 166 22:20 24.12.2019
1761 Clouds 28 1008 83 10000 1.1 166 22:20 24.12.2019
1762 Clouds 24 1007 94 10000 1.1 166 21:42 24.12.2019
1763 Clouds 24 1007 94 10000 1.1 166 21:22 24.12.2019
1764 Clouds 24 1006 94 10000 1.1 166 20:45 24.12.2019
1765 Clouds 24 1006 94 10000 0.87 202 20:24 24.12.2019
1766 Clouds 24 1005 94 10000 1.28 194 19:57 24.12.2019
1767 Clouds 24 1005 94 10000 1.28 194 19:38 24.12.2019
1768 Clouds 24 1005 94 10000 1.28 194 19:18 24.12.2019
1769 Clouds 24 1005 100 10000 1.5 180 18:42 24.12.2019
1770 Clouds 24 1005 100 10000 1.5 180 18:19 24.12.2019
1771 Clouds 25 1005 94 10000 1.28 194 17:45 24.12.2019
1772 Clouds 25 1005 94 10000 1.28 194 17:23 24.12.2019
1773 Clouds 25 1005 94 10000 1.5 187 16:59 24.12.2019
1774 Clouds 25 1005 94 10000 1.5 187 16:59 24.12.2019
1775 Clouds 25 1005 94 10000 1.5 187 16:40 24.12.2019
1776 Clouds 25 1005 94 10000 1.5 187 16:22 24.12.2019
1777 Clouds 25 1006 100 10000 1.5 187 15:58 24.12.2019
1778 Clouds 25 1006 100 10000 1.5 187 15:38 24.12.2019
1779 Clouds 25 1006 100 10000 1.5 187 15:19 24.12.2019
1780 Clouds 25 1007 100 10000 1.5 187 14:58 24.12.2019
1781 Clouds 25 1007 100 10000 1.5 187 14:40 24.12.2019
1782 Clouds 25 1007 100 10000 1.64 211 14:22 24.12.2019
1783 Clouds 25 1007 100 10000 1.64 211 13:56 24.12.2019
1784 Clouds 25 1007 100 10000 1.64 211 13:38 24.12.2019
1785 Clouds 25 1007 100 10000 1.68 199 13:20 24.12.2019
1786 Clouds 26 1007 100 10000 1.5 110 12:57 24.12.2019
1787 Clouds 26 1007 100 10000 1.5 110 12:38 24.12.2019
1788 Clouds 26 1007 100 10000 1.5 110 12:19 24.12.2019
1789 Clouds 26 1007 100 10000 2.6 250 11:56 24.12.2019
1790 Clouds 26 1007 100 10000 2.6 250 11:37 24.12.2019
1791 Clouds 26 1007 100 10000 2.6 250 11:19 24.12.2019
1792 Clouds 27 1007 88 10000 2.6 270 10:56 24.12.2019
1793 Clouds 27 1007 88 10000 2.6 270 10:56 24.12.2019
1794 Clouds 27 1007 88 10000 2.6 270 10:56 24.12.2019
1795 Clouds 27 1007 88 10000 2.6 270 10:38 24.12.2019
1796 Clouds 27 1007 88 10000 2.6 270 10:19 24.12.2019
1797 Drizzle 27 1006 94 10000 3.6 260 09:55 24.12.2019
1798 Drizzle 27 1006 94 10000 3.6 260 09:37 24.12.2019
1799 Drizzle 27 1006 94 10000 3.6 260 09:19 24.12.2019
1800 Clouds 28 1005 94 10000 3.6 230 08:45 24.12.2019
1801 Clouds 28 1005 94 10000 3.6 230 08:24 24.12.2019
1802 Clouds 29 1004 83 0 2.1 340 07:46 24.12.2019
1803 Clouds 29 1004 83 0 2.1 340 07:26 24.12.2019
1804 Clouds 30 1004 79 0 3.1 50 06:58 24.12.2019
1805 Clouds 30 1004 79 0 3.1 50 06:38 24.12.2019
1806 Clouds 30 1004 79 0 3.1 50 06:38 24.12.2019
1807 Clouds 30 1004 79 0 3.1 50 06:19 24.12.2019
1808 Rain 31 1004 70 10000 4.1 340 05:40 24.12.2019
1809 Rain 31 1004 70 10000 4.1 340 05:18 24.12.2019
1810 Clouds 32 1005 70 10000 1 160 03:50 24.12.2019
1811 Clouds 32 1005 70 10000 1 160 03:23 24.12.2019
1812 Clouds 30 1006 79 10000 2.6 340 02:25 24.12.2019
1813 Rain 30 1007 74 10000 2.1 50 01:51 24.12.2019
1814 Rain 30 1007 74 10000 2.1 50 01:22 24.12.2019
1815 Clouds 29 1006 83 10000 1.5 20 00:45 24.12.2019
1816 Clouds 29 1006 83 10000 1.5 20 00:24 24.12.2019
1817 Rain 29 1006 79 10000 1.45 9 23:59 23.12.2019
1818 Rain 29 1006 79 10000 1.45 9 23:40 23.12.2019
1819 Rain 29 1006 79 10000 1.1 134 23:22 23.12.2019
1820 Rain 27 1007 88 10000 2.1 140 22:56 23.12.2019
1821 Rain 27 1007 88 10000 2.1 140 22:56 23.12.2019
1822 Rain 27 1007 88 10000 2.1 140 22:36 23.12.2019
1823 Rain 27 1007 88 10000 2.1 140 22:18 23.12.2019
1824 Clouds 26 1006 94 10000 2.1 180 21:55 23.12.2019
1825 Clouds 26 1006 94 10000 2.1 180 21:36 23.12.2019
1826 Clouds 26 1006 94 10000 2.1 180 21:18 23.12.2019
1827 Clouds 24 1005 100 10000 1 200 20:56 23.12.2019
1828 Clouds 24 1005 100 10000 1 200 20:56 23.12.2019
1829 Clouds 24 1005 100 10000 1 200 20:38 23.12.2019
1830 Clouds 24 1005 100 10000 1 200 20:18 23.12.2019
1831 Clouds 24 1005 100 10000 1 200 19:55 23.12.2019
1832 Clouds 24 1005 100 10000 1 200 19:55 23.12.2019
1833 Clouds 24 1005 100 10000 1 200 19:36 23.12.2019
1834 Clouds 24 1005 100 10000 1 200 19:18 23.12.2019
1835 Clouds 23 1005 90 0 1.08 194 18:55 23.12.2019
1836 Clouds 23 1005 90 0 1.08 194 18:36 23.12.2019
1837 Clouds 25 1006 94 10000 1 200 18:18 23.12.2019
1838 Clouds 25 1006 94 10000 1 200 17:55 23.12.2019
1839 Clouds 25 1006 94 10000 1 200 17:37 23.12.2019
1840 Clouds 25 1006 94 10000 1 200 17:18 23.12.2019
1841 Rain 25 1006 94 10000 1.1 191 16:42 23.12.2019
1842 Rain 25 1006 94 10000 1.1 191 16:19 23.12.2019
1843 Rain 25 1006 94 10000 1.1 191 16:19 23.12.2019
1844 Clouds 25 1006 100 10000 1 250 15:58 23.12.2019
1845 Clouds 25 1006 100 10000 1 250 15:38 23.12.2019
1846 Clouds 25 1006 100 10000 1 250 15:19 23.12.2019
1847 Clouds 25 1007 100 10000 1 200 14:58 23.12.2019
1848 Clouds 25 1007 100 10000 1 200 14:39 23.12.2019
1849 Clouds 25 1007 100 10000 1 200 14:20 23.12.2019
1850 Clouds 25 1007 100 10000 1.5 180 13:57 23.12.2019
1851 Clouds 25 1007 100 10000 1.5 180 13:39 23.12.2019
1852 Clouds 25 1007 100 10000 1.5 180 13:21 23.12.2019
1853 Clouds 25 1007 100 10000 1.02 168 12:55 23.12.2019
1854 Clouds 25 1007 100 10000 1.02 168 12:37 23.12.2019
1855 Clouds 25 1007 100 10000 1.02 168 12:37 23.12.2019
1856 Clouds 25 1007 100 10000 1.02 168 12:18 23.12.2019
1857 Clouds 26 1007 94 10000 1.02 168 11:43 23.12.2019
1858 Clouds 26 1007 94 10000 1.02 168 11:25 23.12.2019
1859 Clouds 27 1007 94 10000 0.34 144 10:56 23.12.2019
1860 Clouds 27 1007 94 10000 0.34 144 10:38 23.12.2019
1861 Clouds 27 1007 94 10000 0.34 144 10:38 23.12.2019
1862 Clouds 27 1007 94 10000 0.34 144 10:20 23.12.2019
1863 Clouds 27 1006 94 10000 1.5 140 09:58 23.12.2019
1864 Clouds 27 1006 94 10000 1.5 140 09:39 23.12.2019
1865 Clouds 27 1006 94 10000 1.5 140 09:39 23.12.2019
1866 Clouds 27 1006 94 10000 1.5 140 09:39 23.12.2019
1867 Clouds 27 1006 94 10000 1.5 140 09:19 23.12.2019
1868 Clouds 27 1006 94 10000 0.34 144 08:55 23.12.2019
1869 Clouds 27 1006 94 10000 0.34 144 08:37 23.12.2019
1870 Clouds 27 1006 94 10000 0.77 10 08:18 23.12.2019
1871 Rain 27 1004 94 10000 2.1 180 07:42 23.12.2019
1872 Rain 27 1004 94 10000 2.1 180 07:19 23.12.2019
1873 Clouds 26 1005 100 10000 1.5 200 06:44 23.12.2019
1874 Clouds 26 1005 100 10000 2.1 270 06:22 23.12.2019
1875 Clouds 26 1005 94 10000 2.6 230 05:46 23.12.2019
1876 Clouds 27 1005 100 0 2.6 200 04:55 23.12.2019
1877 Thunderstorm 30 1005 79 10000 4.6 50 03:59 23.12.2019
1878 Clouds 30 1006 79 10000 4.6 50 02:48 23.12.2019
1879 Clouds 30 1006 79 10000 4.6 50 02:20 23.12.2019
1880 Clouds 30 1006 66 10000 4.6 20 01:51 23.12.2019
1881 Clouds 30 1006 66 10000 4.6 20 01:32 23.12.2019
1882 Clouds 30 1006 66 10000 4.6 20 01:32 23.12.2019
1883 Clouds 30 1006 66 10000 4.6 20 01:32 23.12.2019
1884 Clouds 30 1007 74 10000 3.1 70 00:49 23.12.2019
1885 Clouds 30 1007 74 10000 3.1 70 00:30 23.12.2019
1886 Clouds 30 1007 74 10000 0.8 16 23:57 22.12.2019
1887 Clouds 30 1007 74 10000 0.8 16 23:57 22.12.2019
1888 Clouds 30 1007 74 10000 0.8 16 23:37 22.12.2019
1889 Clouds 30 1007 74 10000 0.77 174 23:19 22.12.2019
1890 Clouds 25 1007 94 10000 1.5 200 22:55 22.12.2019
1891 Clouds 25 1007 94 10000 1.5 200 22:37 22.12.2019
1892 Clouds 25 1007 94 10000 1.5 200 22:18 22.12.2019
1893 Clouds 24 1006 100 10000 0.77 174 21:54 22.12.2019
1894 Clouds 24 1006 100 10000 0.77 174 21:36 22.12.2019
1895 Clouds 24 1006 100 10000 0.77 174 21:18 22.12.2019
1896 Clouds 23 1005 100 10000 1 140 20:40 22.12.2019
1897 Clouds 23 1005 100 10000 1 140 20:19 22.12.2019
1898 Clouds 23 1005 100 10000 1 140 19:57 22.12.2019
1899 Clouds 23 1005 100 10000 1 140 19:39 22.12.2019
1900 Clouds 23 1005 100 10000 1 140 19:20 22.12.2019
1901 Clouds 24 1005 100 10000 1.5 140 18:44 22.12.2019
1902 Clouds 24 1005 100 10000 1.5 140 18:44 22.12.2019
1903 Clouds 24 1005 100 10000 1.5 140 18:25 22.12.2019
1904 Clouds 24 1005 100 10000 1 110 17:58 22.12.2019
1905 Clouds 24 1005 100 10000 1 110 17:39 22.12.2019
1906 Clouds 24 1005 100 10000 1 110 17:19 22.12.2019
1907 Clouds 24 1006 100 10000 1.01 176 16:59 22.12.2019
1908 Clouds 24 1006 100 10000 1.01 176 16:41 22.12.2019
1909 Clouds 24 1006 100 10000 1.01 176 16:22 22.12.2019
1910 Clouds 24 1006 100 10000 1.01 176 16:22 22.12.2019
1911 Clouds 25 1007 94 10000 1.01 176 15:57 22.12.2019
1912 Clouds 25 1007 94 10000 1.01 176 15:39 22.12.2019
1913 Clouds 25 1007 94 10000 1.01 176 15:39 22.12.2019
1914 Clouds 25 1007 94 10000 1.01 176 15:20 22.12.2019
1915 Clouds 25 1008 100 10000 1.5 200 14:56 22.12.2019
1916 Clouds 25 1008 100 10000 1.5 200 14:38 22.12.2019
1917 Clouds 25 1008 100 10000 1.5 200 14:19 22.12.2019
1918 Clouds 25 1008 100 10000 1.5 200 14:19 22.12.2019
1919 Clouds 25 1008 94 10000 1 140 13:55 22.12.2019
1920 Clouds 25 1008 94 10000 1 140 13:37 22.12.2019
1921 Clouds 25 1008 94 10000 1 140 13:19 22.12.2019
1922 Clouds 25 1008 100 10000 1 140 12:56 22.12.2019
1923 Clouds 25 1008 100 10000 1 140 12:37 22.12.2019
1924 Clouds 25 1008 100 10000 1 140 12:19 22.12.2019
1925 Rain 25 1008 100 10000 1 180 11:56 22.12.2019
1926 Rain 25 1008 100 10000 1 180 11:38 22.12.2019
1927 Rain 25 1008 100 10000 1 180 11:18 22.12.2019
1928 Rain 25 1006 100 10000 1 180 10:55 22.12.2019
1929 Rain 25 1006 100 10000 1 180 10:36 22.12.2019
1930 Rain 25 1006 100 10000 1 180 10:18 22.12.2019
1931 Rain 25 1007 100 10000 2.1 140 09:56 22.12.2019
1932 Rain 25 1007 100 10000 2.1 140 09:37 22.12.2019
1933 Rain 25 1007 100 10000 2.1 140 09:19 22.12.2019
1934 Rain 26 1006 94 10000 1.5 140 08:39 22.12.2019
1935 Rain 26 1006 94 10000 1.5 140 08:21 22.12.2019
1936 Drizzle 26 1005 94 10000 1 180 07:40 22.12.2019
1937 Drizzle 26 1005 94 10000 1 180 07:21 22.12.2019
1938 Drizzle 26 1005 100 10000 2.1 180 06:41 22.12.2019
1939 Clouds 27 1005 88 10000 1 250 05:56 22.12.2019
1940 Clouds 27 1005 88 10000 1 250 05:24 22.12.2019
1941 Rain 28 1005 83 10000 4.1 340 04:30 22.12.2019
1942 Rain 31 1006 74 10000 3.1 360 03:58 22.12.2019
1943 Clouds 30 1006 74 10000 2.6 360 02:42 22.12.2019
1944 Clouds 30 1007 74 10000 2.6 20 01:54 22.12.2019
1945 Clouds 30 1007 74 10000 2.6 20 01:30 22.12.2019
1946 Clouds 30 1007 74 10000 2.6 20 01:30 22.12.2019
1947 Clouds 31 1007 74 10000 3.1 70 00:47 22.12.2019
1948 Clouds 31 1007 74 10000 3.1 70 00:24 22.12.2019
1949 Clouds 30 1007 79 10000 1.49 71 23:57 21.12.2019
1950 Clouds 30 1007 79 10000 1.49 71 23:38 21.12.2019
1951 Clouds 30 1007 79 10000 1.37 81 23:19 21.12.2019
1952 Clouds 27 1006 83 10000 1.5 160 22:41 21.12.2019
1953 Clouds 27 1006 83 10000 1.5 160 22:19 21.12.2019
1954 Clouds 25 1006 100 10000 1.37 81 21:57 21.12.2019
1955 Clouds 25 1006 100 10000 1.37 81 21:38 21.12.2019
1956 Clouds 25 1006 100 10000 1.37 81 21:19 21.12.2019
1957 Clouds 25 1006 94 10000 2.1 180 20:58 21.12.2019
1958 Clouds 25 1006 94 10000 2.1 180 20:39 21.12.2019
1959 Clouds 25 1006 94 10000 2.1 180 20:21 21.12.2019
1960 Clouds 24 1005 100 10000 1.03 264 19:58 21.12.2019
1961 Clouds 24 1005 100 10000 1.03 264 19:40 21.12.2019
1962 Clouds 24 1005 100 10000 1.03 264 19:19 21.12.2019
1963 Clouds 24 1005 100 10000 1.03 264 18:45 21.12.2019
1964 Clouds 24 1005 100 10000 1.03 264 18:24 21.12.2019
1965 Clouds 25 1005 94 10000 1.03 264 17:57 21.12.2019
1966 Clouds 25 1005 94 10000 1.03 264 17:39 21.12.2019
1967 Clouds 25 1005 94 10000 1.03 144 17:21 21.12.2019
1968 Clouds 25 1005 94 10000 1.03 144 16:58 21.12.2019
1969 Clouds 25 1005 94 10000 1.03 144 16:39 21.12.2019
1970 Clouds 25 1005 94 10000 1.03 144 16:18 21.12.2019
1971 Clouds 25 1006 100 10000 2.1 160 15:56 21.12.2019
1972 Clouds 25 1006 100 10000 2.1 160 15:38 21.12.2019
1973 Clouds 25 1006 100 10000 2.1 160 15:19 21.12.2019
1974 Drizzle 26 1005 100 10000 1.03 144 14:45 21.12.2019
1975 Drizzle 26 1005 100 10000 1.03 144 14:26 21.12.2019
1976 Drizzle 26 1007 100 10000 1.5 180 13:59 21.12.2019
1977 Drizzle 26 1007 100 10000 1.5 180 13:40 21.12.2019
1978 Drizzle 26 1007 100 10000 1.5 180 13:20 21.12.2019
1979 Clouds 26 1008 100 10000 1 290 12:57 21.12.2019
1980 Clouds 26 1008 100 10000 1 290 12:39 21.12.2019
1981 Clouds 26 1008 100 10000 1 290 12:21 21.12.2019
1982 Clouds 26 1008 100 10000 1 290 11:57 21.12.2019
1983 Thunderstorm 27 1008 94 10000 2.6 250 11:39 21.12.2019
1984 Thunderstorm 27 1008 94 10000 2.6 250 11:21 21.12.2019
1985 Drizzle 27 1007 88 10000 1 250 10:41 21.12.2019
1986 Drizzle 27 1007 88 10000 1 250 10:23 21.12.2019
1987 Drizzle 28 1006 94 10000 3.1 140 09:58 21.12.2019
1988 Drizzle 28 1006 94 10000 3.1 140 09:39 21.12.2019
1989 Drizzle 28 1006 94 10000 3.1 140 09:19 21.12.2019
1990 Clouds 30 1006 74 10000 2.1 320 08:51 21.12.2019
1991 Clouds 30 1006 74 10000 2.1 320 08:27 21.12.2019
1992 Rain 30 1005 74 10000 2.6 360 07:58 21.12.2019
1993 Rain 30 1005 74 10000 2.6 360 07:58 21.12.2019
1994 Rain 30 1005 74 10000 2.6 360 07:39 21.12.2019
1995 Rain 30 1005 74 10000 2.6 360 07:20 21.12.2019
1996 Rain 32 1004 66 10000 4.1 20 06:40 21.12.2019
1997 Rain 32 1004 66 10000 4.1 20 06:22 21.12.2019
1998 Rain 31 1004 70 10000 3.1 360 05:25 21.12.2019
1999 Clouds 32 1005 62 10000 3.1 20 04:34 21.12.2019
2000 Clouds 31 1005 70 10000 3.1 20 03:56 21.12.2019
2001 Clouds 31 1006 74 10000 3.1 20 02:25 21.12.2019
2002 Clouds 31 1006 74 10000 3.1 20 02:25 21.12.2019
2003 Clouds 31 1007 74 10000 3.1 50 01:43 21.12.2019
2004 Clouds 31 1007 74 10000 3.1 50 01:24 21.12.2019
2005 Clouds 31 1006 70 10000 3.1 140 00:40 21.12.2019
2006 Clouds 31 1006 70 10000 3.1 140 00:21 21.12.2019
2007 Clouds 29 1007 79 10000 3.1 90 23:39 20.12.2019
2008 Clouds 29 1007 79 10000 3.1 90 23:39 20.12.2019
2009 Clouds 29 1007 79 10000 3.1 90 23:20 20.12.2019
2010 Rain 26 1007 88 10000 1.5 140 22:57 20.12.2019
2011 Rain 26 1007 88 10000 1.5 140 22:38 20.12.2019
2012 Rain 26 1007 88 10000 1.5 140 22:18 20.12.2019
2013 Rain 25 1007 94 10000 1.5 180 21:41 20.12.2019
2014 Rain 25 1007 94 10000 1.5 180 21:21 20.12.2019
2015 Rain 25 1007 94 10000 1.5 180 21:21 20.12.2019
2016 Clouds 24 1006 100 10000 1 110 20:57 20.12.2019
2017 Clouds 24 1006 100 10000 1 110 20:38 20.12.2019
2018 Clouds 24 1006 100 10000 1 110 20:18 20.12.2019
2019 Clouds 25 1005 94 10000 2.1 180 19:42 20.12.2019
2020 Clouds 25 1005 94 10000 2.1 180 19:21 20.12.2019
2021 Clouds 24 1005 100 10000 1 160 18:58 20.12.2019
2022 Clouds 24 1005 100 10000 1 160 18:39 20.12.2019
2023 Clouds 24 1005 100 10000 1 160 18:21 20.12.2019
2024 Clouds 22 1006 85 0 1.1 151 17:55 20.12.2019
2025 Clouds 22 1006 85 0 1.1 151 17:37 20.12.2019
2026 -273 0 0 0 0 0 17:18 20.12.2019
2027 Clouds 24 1005 94 10000 1 140 16:40 20.12.2019
2028 Clouds 24 1005 94 10000 1 140 16:20 20.12.2019
2029 Clouds 25 1006 94 10000 1 160 15:57 20.12.2019
2030 Clouds 25 1006 94 10000 1 160 15:39 20.12.2019
2031 Clouds 25 1006 94 10000 1 160 15:20 20.12.2019
2032 Clouds 25 1006 100 10000 1.03 174 14:59 20.12.2019
2033 Clouds 25 1006 100 10000 1.03 174 14:40 20.12.2019
2034 Clouds 25 1006 100 10000 2.11 167 14:22 20.12.2019
2035 Clouds 26 1007 94 10000 1 230 13:55 20.12.2019
2036 Clouds 26 1007 94 10000 1 230 13:36 20.12.2019
2037 Clouds 26 1007 94 10000 1 230 13:18 20.12.2019
2038 Clouds 26 1007 94 10000 1.5 160 12:41 20.12.2019
2039 Clouds 26 1007 94 10000 1.5 160 12:19 20.12.2019
2040 Clouds 26 1007 94 10000 1 140 11:59 20.12.2019
2041 Clouds 26 1007 94 10000 1 140 11:40 20.12.2019
2042 Clouds 26 1007 94 10000 1 140 11:21 20.12.2019
2043 Clouds 27 1007 88 10000 1 110 10:59 20.12.2019
2044 Clouds 27 1007 88 10000 1 110 10:41 20.12.2019
2045 Clouds 27 1007 88 10000 1 110 10:20 20.12.2019
2046 Clouds 27 1006 94 10000 1 110 09:55 20.12.2019
2047 Clouds 27 1006 94 10000 1 110 09:37 20.12.2019
2048 Clouds 27 1006 94 10000 1 110 09:19 20.12.2019
2049 Clouds 28 1005 88 10000 1 230 08:42 20.12.2019
2050 Clouds 28 1005 88 10000 1 230 08:22 20.12.2019
2051 Rain 29 1005 74 10000 1.68 105 07:58 20.12.2019
2052 Rain 29 1005 74 10000 1.68 105 07:40 20.12.2019
2053 Rain 29 1005 74 10000 1.68 105 07:19 20.12.2019
2054 Rain 29 1005 74 10000 1.68 105 07:19 20.12.2019
2055 Rain 30 1005 74 10000 2.1 360 06:50 20.12.2019
2056 Rain 30 1005 74 10000 2.1 360 06:31 20.12.2019
2057 Clouds 30 1005 74 10000 1.68 105 05:52 20.12.2019
2058 Clouds 30 1005 74 10000 1.68 105 05:34 20.12.2019
2059 Rain 30 1006 79 10000 3.6 20 03:57 20.12.2019
2060 Rain 30 1006 79 10000 3.6 20 03:29 20.12.2019
2061 Rain 31 1007 74 10000 3.1 20 02:38 20.12.2019
2062 Clouds 31 1007 70 10000 3.6 110 01:44 20.12.2019
2063 Clouds 30 1007 79 10000 3.1 90 00:59 20.12.2019
2064 Clouds 30 1007 79 10000 3.1 90 00:40 20.12.2019
2065 Clouds 29 1007 83 10000 3.6 90 23:59 19.12.2019
2066 Clouds 29 1007 83 10000 3.6 90 23:40 19.12.2019
2067 Clouds 29 1007 83 10000 3.6 90 23:22 19.12.2019
2068 Clouds 28 1007 83 10000 1.5 160 22:41 19.12.2019
2069 Clouds 28 1007 83 10000 1.5 160 22:23 19.12.2019
2070 Clouds 26 1006 88 10000 1.27 105 21:59 19.12.2019
2071 Clouds 26 1006 88 10000 1.27 105 21:59 19.12.2019
2072 Clouds 26 1006 88 10000 1.27 105 21:41 19.12.2019
2073 Clouds 26 1006 88 10000 1.27 105 21:20 19.12.2019
2074 Clouds 24 1006 100 10000 2.1 160 20:58 19.12.2019
2075 Clouds 24 1006 100 10000 2.1 160 20:38 19.12.2019
2076 Clouds 24 1006 100 10000 2.1 160 20:20 19.12.2019
2077 Clouds 24 1006 100 10000 2.1 160 20:20 19.12.2019
2078 Clouds 24 1006 100 10000 1.58 132 19:58 19.12.2019
2079 Clouds 24 1006 100 10000 1.58 132 19:40 19.12.2019
2080 Clouds 24 1006 100 10000 1.58 132 19:40 19.12.2019
2081 Clouds 24 1006 100 10000 1.58 132 19:20 19.12.2019
2082 Clouds 24 1006 100 10000 1.58 132 19:20 19.12.2019
2083 Clouds 24 1006 100 10000 1.58 132 19:20 19.12.2019
2084 Clouds 24 1006 100 10000 1.58 132 19:20 19.12.2019
2085 Clouds 24 1005 100 10000 1.58 132 18:58 19.12.2019
2086 Clouds 24 1005 100 10000 1.58 132 18:40 19.12.2019
2087 Clouds 24 1005 100 10000 1.58 132 18:20 19.12.2019
2088 Clouds 24 1005 100 10000 1.58 132 17:56 19.12.2019
2089 Clouds 24 1005 100 10000 1.58 132 17:38 19.12.2019
2090 Clouds 24 1005 100 10000 1.67 143 17:18 19.12.2019
2091 Clouds 25 1005 94 10000 1.67 143 16:56 19.12.2019
2092 Clouds 25 1005 94 10000 1.67 143 16:37 19.12.2019
2093 Clouds 25 1005 94 10000 1.67 143 16:19 19.12.2019
2094 Clouds 25 1006 94 10000 1.5 160 15:57 19.12.2019
2095 Clouds 25 1006 94 10000 1.5 160 15:37 19.12.2019
2096 Clouds 25 1006 94 10000 1.5 160 15:19 19.12.2019
2097 Clouds 25 1006 94 10000 1.5 160 15:19 19.12.2019
2098 Clouds 25 1006 94 10000 2.1 140 14:43 19.12.2019
2099 Clouds 25 1006 94 10000 2.1 140 14:20 19.12.2019
2100 Clouds 26 1007 88 10000 2.1 110 13:59 19.12.2019
2101 Clouds 26 1007 88 10000 2.1 110 13:38 19.12.2019
2102 Clouds 26 1007 88 10000 2.1 110 13:38 19.12.2019
2103 Clouds 26 1007 88 10000 2.1 110 13:19 19.12.2019
2104 Clouds 26 1007 94 10000 1.5 110 12:57 19.12.2019
2105 Clouds 26 1007 94 10000 1.5 110 12:39 19.12.2019
2106 Clouds 26 1007 94 10000 1.5 110 12:19 19.12.2019
2107 Clouds 26 1007 94 10000 1.5 110 12:19 19.12.2019
2108 Clouds 26 1008 100 10000 1.5 140 11:58 19.12.2019
2109 Clouds 26 1008 100 10000 1.5 140 11:40 19.12.2019
2110 Clouds 26 1008 100 10000 1.5 140 11:18 19.12.2019
2111 Clouds 26 1007 94 10000 1.5 160 10:57 19.12.2019
2112 Clouds 26 1007 94 10000 1.5 160 10:38 19.12.2019
2113 Clouds 26 1007 94 10000 1.5 160 10:19 19.12.2019
2114 Clouds 28 1006 83 10000 5.1 90 09:54 19.12.2019
2115 Clouds 28 1006 83 10000 5.1 90 09:36 19.12.2019
2116 Clouds 28 1006 83 10000 5.1 90 09:18 19.12.2019
2117 Clouds 28 1005 83 10000 6.2 50 08:41 19.12.2019
2118 Clouds 28 1005 83 10000 6.2 50 08:19 19.12.2019
2119 Clouds 30 1004 74 10000 4.6 90 07:57 19.12.2019
2120 Clouds 30 1004 74 10000 4.6 90 07:38 19.12.2019
2121 Clouds 30 1004 74 10000 4.6 90 07:19 19.12.2019
2122 Rain 31 1004 74 10000 3.6 110 06:50 19.12.2019
2123 Rain 31 1004 74 10000 3.6 110 06:29 19.12.2019
2124 Clouds 31 1004 74 10000 3.1 50 05:55 19.12.2019
2125 Clouds 31 1004 74 10000 3.1 50 05:34 19.12.2019
2126 Rain 32 1004 66 10000 6.2 90 04:52 19.12.2019
2127 Rain 32 1005 70 10000 6.2 110 03:21 19.12.2019
2128 Clouds 32 1006 70 10000 4.6 90 02:22 19.12.2019
2129 Clouds 31 1006 66 10000 6.2 90 01:22 19.12.2019
2130 Clouds 31 1006 74 10000 5.7 110 00:41 19.12.2019
2131 Clouds 31 1006 74 10000 5.7 110 00:22 19.12.2019
2132 Clouds 30 1006 79 10000 3.6 110 23:56 18.12.2019
2133 Clouds 30 1006 79 10000 3.6 110 23:38 18.12.2019
2134 Clouds 30 1006 79 10000 3.6 110 23:18 18.12.2019
2135 Clouds 28 1006 78 10000 1.5 110 22:55 18.12.2019
2136 Clouds 28 1006 78 10000 1.5 110 22:36 18.12.2019
2137 Clouds 28 1006 78 10000 1.5 110 22:18 18.12.2019
2138 Clouds 25 1005 94 10000 1 160 21:55 18.12.2019
2139 Clouds 25 1005 94 10000 1 160 21:37 18.12.2019
2140 Clouds 25 1005 94 10000 1 160 21:36 18.12.2019
2141 Clouds 25 1005 94 10000 1 160 21:18 18.12.2019
2142 Clouds 26 1006 77 0 0.77 121 20:54 18.12.2019
2143 Clouds 26 1006 77 0 0.77 121 20:36 18.12.2019
2144 Clouds 23 1005 86 0 1.3 143 20:18 18.12.2019
2145 Clouds 23 1005 86 0 1.3 143 19:54 18.12.2019
2146 Clouds 23 1005 86 0 1.3 143 19:54 18.12.2019
2147 Clouds 23 1005 86 0 1.3 143 19:36 18.12.2019
2148 Clouds 23 1005 86 0 1.3 143 19:18 18.12.2019
2149 Clouds 23 1005 86 0 1.3 143 18:43 18.12.2019
2150 Clouds 23 1005 86 0 1.3 143 18:25 18.12.2019
2151 Clouds 23 1005 86 0 1.3 143 17:56 18.12.2019
2152 Clouds 23 1005 86 0 1.3 143 17:38 18.12.2019
2153 Clouds 23 1005 86 0 1.3 143 17:38 18.12.2019
2154 Clouds 25 1005 94 10000 1 160 17:19 18.12.2019
2155 Clouds 25 1005 94 10000 1 160 16:43 18.12.2019
2156 Clouds 25 1005 94 10000 1 160 16:24 18.12.2019
2157 Clouds 25 1006 94 10000 1 180 15:59 18.12.2019
2158 Clouds 25 1006 94 10000 1 180 15:40 18.12.2019
2159 Clouds 25 1006 94 10000 1 180 15:21 18.12.2019
2160 Clouds 25 1006 94 10000 1 140 14:58 18.12.2019
2161 Clouds 25 1006 94 10000 1 140 14:40 18.12.2019
2162 Clouds 25 1006 94 10000 1 140 14:20 18.12.2019
2163 Clouds 26 1006 94 10000 2.1 160 13:56 18.12.2019
2164 Clouds 26 1006 94 10000 2.1 160 13:56 18.12.2019
2165 Clouds 26 1006 94 10000 2.1 160 13:37 18.12.2019
2166 Clouds 26 1006 94 10000 2.1 160 13:19 18.12.2019
2167 Clouds 26 1006 94 10000 1 180 12:55 18.12.2019
2168 Clouds 26 1006 94 10000 1 180 12:54 18.12.2019
2169 Clouds 26 1006 94 10000 1 180 12:36 18.12.2019
2170 Clouds 26 1006 94 10000 1 180 12:18 18.12.2019
2171 Clouds 26 1006 94 10000 1.5 110 11:54 18.12.2019
2172 Clouds 26 1006 94 10000 1.5 110 11:36 18.12.2019
2173 Clouds 26 1006 94 10000 1.5 110 11:18 18.12.2019
2174 Clouds 27 1006 88 10000 1.5 140 10:54 18.12.2019
2175 Clouds 27 1006 88 10000 1.5 140 10:54 18.12.2019
2176 Clouds 27 1006 88 10000 1.5 140 10:36 18.12.2019
2177 Clouds 27 1006 88 10000 1.5 140 10:18 18.12.2019
2178 Thunderstorm 28 1006 88 10000 1.5 140 09:21 18.12.2019
2179 Thunderstorm 28 1005 88 10000 2.1 160 08:57 18.12.2019
2180 Thunderstorm 28 1005 88 10000 2.1 160 08:57 18.12.2019
2181 Thunderstorm 28 1005 88 10000 2.1 160 08:57 18.12.2019
2182 Rain 29 1004 83 10000 1 200 08:39 18.12.2019
2183 Rain 29 1004 83 10000 1 200 08:20 18.12.2019
2184 Rain 31 1003 74 10000 5.1 70 07:42 18.12.2019
2185 Rain 31 1003 74 10000 5.1 70 07:21 18.12.2019
2186 Clouds 32 1003 70 10000 6.2 70 06:53 18.12.2019
2187 Clouds 32 1003 70 10000 6.2 70 06:26 18.12.2019
2188 Thunderstorm 32 1003 70 10000 4.6 70 05:43 18.12.2019
2189 Clouds 32 1004 70 10000 5.7 50 04:37 18.12.2019
2190 Clouds 32 1005 70 10000 6.2 50 02:50 18.12.2019
2191 Clouds 32 1005 70 10000 6.2 50 02:30 18.12.2019
2192 Clouds 31 1006 70 10000 3.1 50 01:47 18.12.2019
2193 Clouds 31 1006 70 10000 3.1 50 01:28 18.12.2019
2194 Clouds 31 1006 74 10000 3.6 20 00:59 18.12.2019
2195 Clouds 31 1006 74 10000 3.6 20 00:39 18.12.2019
2196 Clouds 31 1006 74 10000 3.6 20 00:21 18.12.2019
2197 Clouds 29 1006 83 10000 2.39 42 23:44 17.12.2019
2198 Clouds 29 1006 83 10000 2.39 42 23:24 17.12.2019
2199 Clouds 26 1006 88 10000 1.5 180 22:57 17.12.2019
2200 Clouds 26 1006 88 10000 1.5 180 22:39 17.12.2019
2201 Clouds 26 1006 88 10000 1.5 180 22:20 17.12.2019
2202 Clouds 24 1005 100 10000 2.1 140 21:57 17.12.2019
2203 Clouds 24 1005 100 10000 2.1 140 21:39 17.12.2019
2204 Clouds 24 1005 100 10000 2.1 140 21:20 17.12.2019
2205 Clouds 24 1005 100 10000 2.1 140 21:20 17.12.2019
2206 Clouds 24 1005 94 10000 1 140 20:59 17.12.2019
2207 Clouds 24 1005 94 10000 1 140 20:40 17.12.2019
2208 Clouds 24 1005 94 10000 1 140 20:19 17.12.2019
2209 Clouds 24 1004 94 10000 1 185 19:57 17.12.2019
2210 Clouds 24 1004 94 10000 1 185 19:39 17.12.2019
2211 Clouds 24 1004 94 10000 1 185 19:19 17.12.2019
2212 Clouds 24 1004 94 10000 1 160 18:57 17.12.2019
2213 Clouds 24 1004 94 10000 1 160 18:38 17.12.2019
2214 Clouds 24 1004 94 10000 1 185 18:20 17.12.2019
2215 Clouds 24 1004 94 10000 1 185 17:55 17.12.2019
2216 Clouds 24 1004 94 10000 1 185 17:36 17.12.2019
2217 Clouds 24 1004 100 10000 1.16 180 17:18 17.12.2019
2218 Clouds 24 1004 100 10000 1.16 180 16:54 17.12.2019
2219 Clouds 24 1004 100 10000 1.16 180 16:36 17.12.2019
2220 Clouds 24 1004 100 10000 1.16 180 16:18 17.12.2019
2221 Clouds 24 1005 100 10000 1.16 180 15:38 17.12.2019
2222 Clouds 24 1005 100 10000 1.16 180 15:20 17.12.2019
2223 Clouds 24 1005 100 10000 1.16 180 14:56 17.12.2019
2224 Clouds 24 1005 100 10000 1.16 180 14:38 17.12.2019
2225 Clouds 24 1005 100 10000 1.36 174 14:19 17.12.2019
2226 Clouds 24 1005 100 10000 1.36 174 14:19 17.12.2019
2227 Clouds 25 1006 94 10000 1.36 174 13:56 17.12.2019
2228 Clouds 25 1006 94 10000 1.36 174 13:38 17.12.2019
2229 Clouds 25 1006 94 10000 1.04 156 13:19 17.12.2019
2230 Clouds 25 1006 94 10000 1.04 156 13:19 17.12.2019
2231 Clouds 25 1006 100 10000 1.5 180 12:58 17.12.2019
2232 Clouds 25 1006 100 10000 1.5 180 12:38 17.12.2019
2233 Clouds 25 1006 100 10000 1.5 140 12:18 17.12.2019
2234 Clouds 25 1006 100 10000 1.5 140 11:56 17.12.2019
2235 Clouds 25 1006 100 10000 1.5 140 11:36 17.12.2019
2236 Rain 26 1005 83 10000 1.5 140 11:18 17.12.2019
2237 Rain 26 1005 83 10000 1.5 140 10:55 17.12.2019
2238 Rain 26 1005 83 10000 1.5 140 10:37 17.12.2019
2239 Rain 26 1005 83 10000 1.5 140 10:18 17.12.2019
2240 Rain 27 1005 94 10000 2.6 230 09:42 17.12.2019
2241 Rain 27 1005 94 10000 2.6 230 09:21 17.12.2019
2242 Clouds 28 1004 83 10000 1.5 160 08:58 17.12.2019
2243 Clouds 28 1004 83 10000 1.5 160 08:39 17.12.2019
2244 Clouds 28 1004 83 10000 1.5 160 08:21 17.12.2019
2245 Thunderstorm 28 1004 83 10000 3.1 110 07:58 17.12.2019
2246 Thunderstorm 29 1004 79 10000 3.1 110 07:39 17.12.2019
2247 Thunderstorm 29 1004 79 10000 3.1 110 07:19 17.12.2019
2248 Thunderstorm 30 1003 74 10000 4.1 90 06:36 17.12.2019
2249 Thunderstorm 30 1003 79 10000 6.2 70 06:18 17.12.2019
2250 Rain 31 1003 74 10000 7.2 70 05:38 17.12.2019
2251 Rain 31 1003 70 10000 3.1 20 04:46 17.12.2019
2252 Clouds 30 1005 79 10000 1.5 20 02:48 17.12.2019
2253 Rain 30 1006 74 10000 1.5 50 01:56 17.12.2019
2254 Rain 30 1006 74 10000 1.5 50 01:20 17.12.2019
2255 Clouds 29 1006 79 10000 1 20 00:38 17.12.2019
2256 Clouds 29 1006 79 10000 1 20 00:20 17.12.2019
2257 Clouds 28 1006 83 10000 1 110 23:42 16.12.2019
2258 Clouds 28 1006 83 10000 1 110 23:19 16.12.2019
2259 Clouds 26 1006 88 10000 0.81 135 22:58 16.12.2019
2260 Clouds 26 1006 88 10000 0.81 135 22:38 16.12.2019
2261 Clouds 26 1006 88 10000 0.81 135 22:20 16.12.2019
2262 Clouds 24 1005 100 10000 0.81 135 21:56 16.12.2019
2263 Clouds 24 1005 100 10000 0.81 135 21:38 16.12.2019
2264 Clouds 24 1005 100 10000 0.81 135 21:20 16.12.2019
2265 Clouds 24 1004 100 10000 0.81 135 20:57 16.12.2019
2266 Clouds 24 1004 100 10000 0.81 135 20:38 16.12.2019
2267 Clouds 24 1004 100 10000 0.81 135 20:38 16.12.2019
2268 Clouds 24 1004 100 10000 1.46 169 20:19 16.12.2019
2269 Clouds 24 1004 94 10000 1 90 19:56 16.12.2019
2270 Clouds 24 1004 94 10000 1 90 19:37 16.12.2019
2271 Clouds 24 1004 94 10000 1 90 19:19 16.12.2019
2272 Clouds 24 1004 100 10000 1.5 140 18:56 16.12.2019
2273 Clouds 24 1004 100 10000 1.5 140 18:56 16.12.2019
2274 Clouds 24 1004 100 10000 1.5 140 18:38 16.12.2019
2275 Clouds 24 1004 100 10000 1.5 140 18:38 16.12.2019
2276 Clouds 24 1004 100 10000 1.5 140 18:19 16.12.2019
2277 Rain 24 1004 100 10000 2.1 200 17:57 16.12.2019
2278 Rain 24 1004 100 10000 2.1 200 17:38 16.12.2019
2279 Drizzle 25 1004 100 10000 1.34 163 17:19 16.12.2019
2280 Drizzle 25 1004 100 10000 1.34 163 16:55 16.12.2019
2281 Drizzle 25 1004 100 10000 1.34 163 16:37 16.12.2019
2282 Drizzle 25 1004 100 10000 1.34 163 16:18 16.12.2019
2283 Clouds 26 1005 94 10000 1.34 163 15:57 16.12.2019
2284 Clouds 26 1005 94 10000 1.34 163 15:38 16.12.2019
2285 Clouds 26 1005 94 10000 1.34 163 15:19 16.12.2019
2286 Clouds 26 1005 94 10000 1 70 14:54 16.12.2019
2287 Clouds 26 1005 94 10000 1 70 14:36 16.12.2019
2288 Clouds 26 1006 88 10000 1 200 14:18 16.12.2019
2289 Clouds 26 1006 88 10000 1 200 13:38 16.12.2019
2290 Clouds 26 1006 88 10000 1 200 13:20 16.12.2019
2291 Clouds 26 1005 94 10000 1 200 12:59 16.12.2019
2292 Clouds 26 1005 94 10000 1 200 12:41 16.12.2019
2293 Clouds 23 1006 92 0 1.2 161 12:20 16.12.2019
2294 Clouds 23 1006 92 0 1.61 166 11:59 16.12.2019
2295 Clouds 23 1006 92 0 1.61 166 11:41 16.12.2019
2296 Clouds 26 1005 94 10000 1 180 11:22 16.12.2019
2297 Clouds 26 1005 94 10000 1 180 10:59 16.12.2019
2298 Clouds 26 1005 94 10000 1 180 10:40 16.12.2019
2299 Clouds 26 1005 94 10000 1 180 10:21 16.12.2019
2300 Rain 27 1005 88 10000 2.1 200 09:47 16.12.2019
2301 Rain 27 1005 88 10000 2.1 200 09:29 16.12.2019
2302 Rain 28 1004 78 10000 3.1 50 08:58 16.12.2019
2303 Rain 28 1004 78 10000 3.1 50 08:38 16.12.2019
2304 Rain 28 1004 78 10000 3.1 50 08:19 16.12.2019
2305 Rain 30 1003 70 10000 1 180 07:49 16.12.2019
2306 Rain 30 1003 70 10000 1 180 07:30 16.12.2019
2307 Clouds 30 1003 74 10000 2.6 70 06:46 16.12.2019
2308 Clouds 30 1003 74 10000 2.6 70 06:26 16.12.2019
2309 Rain 30 1003 74 10000 1 140 05:56 16.12.2019
2310 Rain 30 1003 74 10000 1 140 05:35 16.12.2019
2311 Drizzle 29 1004 83 10000 1 50 04:33 16.12.2019
2312 Rain 30 1005 74 10000 5.1 50 02:49 16.12.2019
2313 Clouds 31 1006 66 10000 2.6 50 01:45 16.12.2019
2314 Clouds 30 1006 74 10000 2.1 70 00:54 16.12.2019
2315 Clouds 30 1006 74 10000 2.1 70 00:36 16.12.2019
2316 Clouds 29 1006 74 10000 1 70 00:18 16.12.2019
2317 Clouds 29 1006 74 10000 1 70 23:40 15.12.2019
2318 Clouds 29 1006 74 10000 1 70 23:21 15.12.2019
2319 Clouds 27 1006 83 10000 1 180 22:56 15.12.2019
2320 Clouds 27 1006 83 10000 1 180 22:38 15.12.2019
2321 Clouds 27 1006 83 10000 1 180 22:18 15.12.2019
2322 Clouds 24 1006 100 10000 2.1 140 21:56 15.12.2019
2323 Clouds 24 1006 100 10000 2.1 140 21:38 15.12.2019
2324 Clouds 24 1006 100 10000 2.1 140 21:19 15.12.2019
2325 Clouds 23 1005 100 10000 0.4 159 20:56 15.12.2019
2326 Clouds 23 1005 100 10000 0.4 159 20:37 15.12.2019
2327 Clouds 23 1005 100 10000 1.4 177 20:19 15.12.2019
2328 Clouds 23 1004 100 10000 1 180 19:57 15.12.2019
2329 Clouds 23 1004 100 10000 1 180 19:57 15.12.2019
2330 Clouds 23 1004 100 10000 1 180 19:38 15.12.2019
2331 Clouds 23 1004 100 10000 2.6 160 19:18 15.12.2019
2332 Clouds 23 1004 100 10000 2.6 160 18:56 15.12.2019
2333 Clouds 23 1004 100 10000 2.6 160 18:56 15.12.2019
2334 Clouds 23 1004 100 10000 2.6 160 18:38 15.12.2019
2335 Clouds 24 1004 100 10000 1 110 18:18 15.12.2019
2336 Clouds 24 1004 100 10000 1 110 17:56 15.12.2019
2337 Clouds 24 1004 100 10000 1 110 17:36 15.12.2019
2338 Clouds 24 1005 94 10000 1.98 161 17:18 15.12.2019
2339 Clouds 24 1005 94 10000 1.98 161 17:18 15.12.2019
2340 Clouds 24 1005 94 10000 1.87 161 16:43 15.12.2019
2341 Clouds 24 1005 94 10000 1.87 161 16:23 15.12.2019
2342 Clouds 24 1006 100 10000 1.5 230 15:58 15.12.2019
2343 Clouds 24 1006 100 10000 1.5 230 15:39 15.12.2019
2344 Clouds 24 1006 100 10000 1.5 230 15:20 15.12.2019
2345 Clouds 24 1007 100 10000 1.87 161 14:57 15.12.2019
2346 Clouds 24 1007 100 10000 1.87 161 14:38 15.12.2019
2347 Clouds 24 1007 100 10000 1.79 152 14:19 15.12.2019
2348 Drizzle 25 1008 94 10000 1 180 13:59 15.12.2019
2349 Drizzle 25 1008 94 10000 1 180 13:39 15.12.2019
2350 Drizzle 25 1008 94 10000 1 180 13:20 15.12.2019
2351 Drizzle 25 1008 100 10000 1.8 163 12:57 15.12.2019
2352 Drizzle 25 1008 100 10000 1.8 163 12:39 15.12.2019
2353 Drizzle 25 1008 100 10000 2.1 230 12:21 15.12.2019
2354 Drizzle 25 1008 100 10000 2.1 230 11:59 15.12.2019
2355 Drizzle 25 1008 100 10000 2.1 230 11:38 15.12.2019
2356 Clouds 25 1007 94 10000 2.1 230 11:19 15.12.2019
2357 Clouds 25 1007 94 10000 2.1 230 11:19 15.12.2019
2358 Clouds 25 1007 94 10000 2.1 230 10:55 15.12.2019
2359 Clouds 25 1007 94 10000 2.1 230 10:37 15.12.2019
2360 Clouds 25 1007 94 10000 2.1 230 10:19 15.12.2019
2361 Drizzle 24 1006 100 10000 2.1 180 09:41 15.12.2019
2362 Drizzle 24 1006 100 10000 2.1 180 09:20 15.12.2019
2363 Drizzle 25 1006 94 10000 3.6 140 08:59 15.12.2019
2364 Drizzle 25 1006 94 0 2.1 140 08:41 15.12.2019
2365 Drizzle 25 1006 94 0 2.1 140 08:22 15.12.2019
2366 Clouds 27 1005 83 10000 2.1 160 07:56 15.12.2019
2367 Clouds 27 1005 83 10000 2.1 160 07:35 15.12.2019
2368 Clouds 27 1004 94 10000 5.1 140 06:52 15.12.2019
2369 Clouds 30 1004 74 10000 5.1 200 06:20 15.12.2019
2370 Clouds 30 1004 74 10000 5.1 200 05:28 15.12.2019
2371 Clouds 30 1004 74 10000 5.1 200 05:28 15.12.2019
2372 Clouds 31 1004 70 10000 5.1 320 04:47 15.12.2019
2373 Clouds 32 1005 66 10000 5.7 360 03:31 15.12.2019
2374 Clouds 31 1006 70 10000 4.1 20 02:34 15.12.2019
2375 Clouds 28 1006 83 10000 2.6 50 01:47 15.12.2019
2376 Clouds 28 1006 83 10000 2.6 50 01:28 15.12.2019
2377 Clouds 32 1006 66 10000 1 270 00:58 15.12.2019
2378 Clouds 32 1006 66 10000 1 270 00:40 15.12.2019
2379 Clouds 32 1006 66 10000 1 270 00:21 15.12.2019
2380 Clouds 30 1007 74 10000 2.1 200 23:40 14.12.2019
2381 Clouds 28 1006 78 10000 0.27 151 23:21 14.12.2019
2382 Clouds 28 1006 78 10000 0.27 151 22:58 14.12.2019
2383 Clouds 28 1006 78 10000 0.27 151 22:40 14.12.2019
2384 Clouds 28 1006 78 10000 0.27 151 22:21 14.12.2019
2385 Clouds 25 1006 94 10000 0.27 151 21:56 14.12.2019
2386 Clouds 25 1006 94 10000 0.27 151 21:56 14.12.2019
2387 Clouds 25 1006 94 10000 0.27 151 21:37 14.12.2019
2388 Clouds 25 1006 94 10000 0.27 151 21:18 14.12.2019
2389 Clouds 24 1006 94 10000 0.27 151 20:56 14.12.2019
2390 Clouds 24 1006 94 10000 0.27 151 20:37 14.12.2019
2391 Clouds 24 1006 94 10000 1.41 192 20:19 14.12.2019
2392 Clouds 24 1005 94 10000 1.41 192 19:40 14.12.2019
2393 Clouds 24 1005 94 10000 1.41 192 19:40 14.12.2019
2394 Clouds 24 1005 94 10000 1.41 192 19:21 14.12.2019
2395 Clouds 24 1005 94 10000 1.41 192 18:59 14.12.2019
2396 Clouds 24 1005 94 10000 1.41 192 18:40 14.12.2019
2397 Clouds 24 1005 94 10000 1.41 192 18:22 14.12.2019
2398 Clouds 25 1005 94 10000 1.41 192 17:59 14.12.2019
2399 Clouds 25 1005 94 10000 1.41 192 17:41 14.12.2019
2400 Clouds 25 1005 94 10000 1.74 191 17:22 14.12.2019
2401 Clouds 25 1006 94 10000 1 180 16:42 14.12.2019
2402 Clouds 25 1006 94 10000 1 180 16:19 14.12.2019
2403 Clouds 25 1006 94 10000 1.74 191 15:57 14.12.2019
2404 Clouds 25 1006 94 10000 1.74 191 15:38 14.12.2019
2405 Clouds 25 1006 94 10000 1.74 191 15:38 14.12.2019
2406 Clouds 25 1006 94 10000 1.74 191 15:19 14.12.2019
2407 Clouds 25 1007 100 10000 1.5 230 14:57 14.12.2019
2408 Clouds 25 1007 100 10000 1.5 230 14:37 14.12.2019
2409 Clouds 25 1007 100 10000 1.5 230 14:18 14.12.2019
2410 Clouds 25 1008 100 10000 1.63 182 13:44 14.12.2019
2411 Clouds 25 1008 100 10000 1.63 174 13:19 14.12.2019
2412 Clouds 26 1008 94 10000 1.71 177 12:58 14.12.2019
2413 Clouds 26 1008 94 10000 1.63 174 12:39 14.12.2019
2414 Clouds 26 1008 94 10000 1.71 177 12:20 14.12.2019
2415 Clouds 26 1008 100 10000 1 200 11:58 14.12.2019
2416 Clouds 26 1008 100 10000 1 200 11:39 14.12.2019
2417 Clouds 27 1007 94 10000 1.5 160 11:19 14.12.2019
2418 Clouds 27 1007 94 10000 1.5 160 10:56 14.12.2019
2419 Clouds 27 1007 94 10000 1.5 160 10:38 14.12.2019
2420 Clouds 27 1007 94 10000 1.5 160 10:20 14.12.2019
2421 Clouds 29 1006 79 10000 0.78 197 09:43 14.12.2019
2422 Clouds 29 1006 79 10000 0.78 197 09:23 14.12.2019
2423 Clouds 30 1006 74 10000 2.6 320 08:57 14.12.2019
2424 Clouds 30 1006 74 10000 2.6 320 08:57 14.12.2019
2425 Clouds 30 1006 74 10000 2.6 320 08:57 14.12.2019
2426 Clouds 30 1006 74 10000 2.6 320 08:38 14.12.2019
2427 Clouds 30 1006 74 10000 2.6 320 08:19 14.12.2019
2428 Clouds 31 1005 66 10000 3.6 360 07:40 14.12.2019
2429 Clouds 31 1005 66 10000 3.6 360 07:21 14.12.2019
2430 Clouds 31 1005 70 10000 3.1 290 06:48 14.12.2019
2431 Clouds 31 1005 70 10000 3.1 290 06:30 14.12.2019
2432 Clouds 31 1005 70 10000 4.1 290 05:50 14.12.2019
2433 Clouds 31 1007 74 10000 3.1 20 03:44 14.12.2019
2434 Clouds 31 1008 70 10000 2.6 340 02:24 14.12.2019
2435 Clouds 30 1009 74 10000 2.1 360 01:44 14.12.2019
2436 Clouds 30 1009 74 10000 2.1 360 01:20 14.12.2019
2437 Clouds 31 1009 74 10000 3.1 320 00:41 14.12.2019
2438 Clouds 31 1009 74 10000 3.1 320 00:20 14.12.2019
2439 Clouds 31 1009 74 10000 1 180 23:41 13.12.2019
2440 Clouds 29 1009 74 10000 1 160 23:19 13.12.2019
2441 Clouds 29 1009 74 10000 1 160 22:57 13.12.2019
2442 Clouds 29 1009 74 10000 1 160 22:37 13.12.2019
2443 Clouds 29 1009 74 10000 1 160 22:18 13.12.2019
2444 Clouds 26 1008 88 10000 0.11 197 21:44 13.12.2019
2445 Clouds 26 1008 88 10000 0.11 197 21:22 13.12.2019
2446 Clouds 24 1008 94 10000 2.1 200 20:59 13.12.2019
2447 Clear 26 1009 76 0 0.11 197 20:39 13.12.2019
2448 Clouds 24 1006 94 10000 1 160 20:20 13.12.2019
2449 Clouds 24 1006 94 10000 1 160 19:56 13.12.2019
2450 Clouds 24 1006 94 10000 1 160 19:38 13.12.2019
2451 Clouds 24 1006 94 10000 1 160 19:19 13.12.2019
2452 Clouds 24 1006 94 10000 1.43 174 18:54 13.12.2019
2453 Clouds 24 1006 94 10000 1.43 174 18:36 13.12.2019
2454 Clouds 24 1006 94 10000 1.43 174 18:18 13.12.2019
2455 Clouds 23 1007 88 0 1.43 174 17:40 13.12.2019
2456 Clouds 25 1006 94 10000 1.5 90 17:18 13.12.2019
2457 Clouds 25 1006 94 10000 1.5 90 17:18 13.12.2019
2458 Clouds 25 1006 94 10000 1.5 90 16:56 13.12.2019
2459 Clouds 25 1006 94 10000 1.5 90 16:38 13.12.2019
2460 Clouds 25 1006 94 10000 1.5 90 16:38 13.12.2019
2461 Clouds 25 1006 94 10000 1.5 90 16:20 13.12.2019
2462 Clouds 25 1007 94 10000 1 230 15:42 13.12.2019
2463 Clouds 25 1007 94 10000 1 230 15:42 13.12.2019
2464 Clouds 25 1007 94 10000 1 230 15:21 13.12.2019
2465 Clouds 26 1009 88 10000 1.5 200 14:57 13.12.2019
2466 Clouds 26 1009 88 10000 1.5 200 14:37 13.12.2019
2467 Clouds 26 1009 88 10000 1.5 200 14:19 13.12.2019
2468 Clouds 26 1009 94 10000 1.18 155 13:43 13.12.2019
2469 Clouds 26 1009 94 10000 1.39 186 13:24 13.12.2019
2470 Clouds 26 1009 100 10000 1.39 186 12:57 13.12.2019
2471 Clouds 26 1009 100 10000 1.39 186 12:39 13.12.2019
2472 Clouds 26 1009 100 10000 1.39 186 12:18 13.12.2019
2473 Clouds 27 1008 94 10000 1.5 140 11:43 13.12.2019
2474 Clouds 27 1008 94 10000 1.5 140 11:25 13.12.2019
2475 Clouds 28 1008 88 10000 1 180 10:56 13.12.2019
2476 Clouds 28 1008 88 10000 1 180 10:38 13.12.2019
2477 Clouds 28 1008 88 10000 1 180 10:20 13.12.2019
2478 Clouds 29 1007 83 10000 0.98 213 09:42 13.12.2019
2479 Clouds 29 1007 83 10000 0.98 213 09:21 13.12.2019
2480 Clouds 29 1006 83 10000 0.98 213 08:45 13.12.2019
2481 Clouds 29 1006 83 10000 0.89 227 08:27 13.12.2019
2482 Clouds 30 1006 79 10000 1.5 70 07:50 13.12.2019
2483 Clouds 30 1006 79 10000 1.5 70 07:27 13.12.2019
2484 Clouds 30 1006 79 10000 1.5 360 06:57 13.12.2019
2485 Clouds 30 1006 79 10000 1.5 360 06:32 13.12.2019
2486 Clouds 30 1006 79 10000 2.1 320 05:52 13.12.2019
2487 Clouds 30 1006 79 10000 2.1 320 05:33 13.12.2019
2488 Clouds 31 1007 66 10000 2.1 20 04:54 13.12.2019
2489 Clouds 31 1008 70 10000 4.1 360 03:52 13.12.2019
2490 Clouds 31 1009 74 10000 4.1 20 02:35 13.12.2019
2491 Clouds 31 1010 74 10000 2.6 50 01:51 13.12.2019
2492 Clouds 31 1010 74 10000 2.6 50 01:25 13.12.2019
2493 Clouds 30 1010 74 10000 3.1 20 00:46 13.12.2019
2494 Clouds 30 1010 74 10000 3.1 20 00:24 13.12.2019
2495 Clouds 30 1009 74 10000 3.1 70 23:42 12.12.2019
2496 Clouds 30 1009 74 10000 3.1 70 23:24 12.12.2019
2497 Clouds 28 1009 78 10000 0.31 90 22:56 12.12.2019
2498 Clouds 28 1009 78 10000 0.31 90 22:38 12.12.2019
2499 Clouds 28 1009 78 10000 0.31 90 22:38 12.12.2019
2500 Clouds 28 1009 78 10000 0.31 90 22:19 12.12.2019
2501 Clouds 25 1008 94 10000 0.31 90 21:55 12.12.2019
2502 Clouds 25 1008 94 10000 0.31 90 21:37 12.12.2019
2503 Clouds 25 1008 94 10000 0.31 90 21:19 12.12.2019
2504 Clouds 24 1008 100 10000 1.5 200 20:57 12.12.2019
2505 Clouds 24 1008 100 10000 1.5 200 20:38 12.12.2019
2506 Clouds 24 1008 100 10000 1.5 200 20:20 12.12.2019
2507 Clouds 24 1008 94 10000 1.41 171 19:55 12.12.2019
2508 Clouds 24 1008 94 10000 1.41 171 19:37 12.12.2019
2509 Clouds 24 1008 94 10000 1.41 171 19:18 12.12.2019
2510 Clouds 24 1007 100 10000 2.1 160 18:55 12.12.2019
2511 Clouds 24 1007 100 10000 2.1 160 18:36 12.12.2019
2512 Clouds 24 1007 100 10000 2.1 160 18:18 12.12.2019
2513 Clouds 24 1008 100 10000 1.5 160 17:55 12.12.2019
2514 Clouds 24 1008 100 10000 1.5 160 17:55 12.12.2019
2515 Clouds 24 1008 100 10000 1.5 160 17:37 12.12.2019
2516 Clouds 24 1008 100 10000 1.5 160 17:18 12.12.2019
2517 Clouds 24 1008 100 10000 1.67 192 16:42 12.12.2019
2518 Clouds 24 1008 100 10000 1.67 192 16:21 12.12.2019
2519 Clouds 25 1008 94 10000 1.5 110 15:58 12.12.2019
2520 Clouds 25 1008 94 10000 1.5 110 15:40 12.12.2019
2521 Clouds 25 1008 94 10000 1.5 110 15:19 12.12.2019
2522 Clouds 25 1009 100 10000 1 160 14:56 12.12.2019
2523 Clouds 25 1009 100 10000 1 160 14:36 12.12.2019
2524 Clouds 25 1009 100 10000 1 160 14:18 12.12.2019
2525 Clouds 26 1008 94 10000 1.68 188 13:54 12.12.2019
2526 Clouds 26 1008 94 10000 1.68 188 13:36 12.12.2019
2527 Clouds 26 1008 94 10000 1.68 188 13:18 12.12.2019
2528 Rain 23 1010 88 0 1.65 186 12:41 12.12.2019
2529 Rain 23 1010 88 0 1.65 186 12:41 12.12.2019
2530 Clouds 27 1009 94 10000 1 140 12:22 12.12.2019
2531 Clouds 27 1009 94 10000 1 140 11:59 12.12.2019
2532 Clouds 27 1009 94 10000 1 140 11:39 12.12.2019
2533 Clouds 27 1009 94 10000 1 140 11:39 12.12.2019
2534 Clouds 27 1009 94 10000 1 140 11:21 12.12.2019
2535 Clouds 27 1008 94 10000 1 160 10:57 12.12.2019
2536 Clouds 27 1008 94 10000 1 160 10:57 12.12.2019
2537 Clouds 27 1008 94 10000 1 160 10:39 12.12.2019
2538 Clouds 27 1008 94 10000 1 160 10:21 12.12.2019
2539 Clouds 28 1007 83 10000 1 340 09:55 12.12.2019
2540 Clouds 28 1007 83 10000 1 340 09:55 12.12.2019
2541 Clouds 28 1007 83 10000 1 340 09:37 12.12.2019
2542 Clouds 28 1007 83 10000 1 340 09:19 12.12.2019
2543 Clouds 30 1007 74 10000 1 320 08:43 12.12.2019
2544 Clouds 30 1007 74 10000 1 320 08:25 12.12.2019
2545 Clouds 30 1006 70 10000 3.1 360 07:49 12.12.2019
2546 Clouds 30 1006 70 10000 3.1 360 07:49 12.12.2019
2547 Clouds 30 1006 70 10000 3.1 360 07:27 12.12.2019
2548 Clouds 27 1005 83 10000 1 180 06:55 12.12.2019
2549 Clouds 27 1005 83 10000 1 180 06:35 12.12.2019
2550 Clouds 27 1006 83 10000 3.1 140 05:42 12.12.2019
2551 Clouds 27 1007 83 10000 2.1 180 04:54 12.12.2019
2552 Thunderstorm 30 1007 79 10000 2.6 340 03:50 12.12.2019
2553 Rain 31 1008 74 10000 3.6 20 02:40 12.12.2019
2554 Rain 31 1008 74 10000 3.6 20 02:21 12.12.2019
2555 Rain 31 1009 74 10000 3.6 360 01:43 12.12.2019
2556 Rain 31 1009 74 10000 3.6 360 01:24 12.12.2019
2557 Clouds 30 1009 74 10000 3.1 50 00:47 12.12.2019
2558 Clouds 30 1009 74 10000 3.1 50 00:20 12.12.2019
2559 Clouds 30 1009 74 10000 1 90 23:44 11.12.2019
2560 Clouds 30 1009 74 10000 1 90 23:21 11.12.2019
2561 Clouds 27 1008 88 10000 1.5 140 22:58 11.12.2019
2562 Clouds 27 1008 88 10000 1.5 140 22:39 11.12.2019
2563 Clouds 27 1008 88 10000 1.5 140 22:20 11.12.2019
2564 Clouds 25 1008 94 10000 1 160 21:57 11.12.2019
2565 Clouds 25 1008 94 10000 1 160 21:38 11.12.2019
2566 Clouds 25 1008 94 10000 1 160 21:20 11.12.2019
2567 Clouds 23 1007 100 10000 1.5 200 20:56 11.12.2019
2568 Clouds 23 1007 100 10000 1.5 200 20:37 11.12.2019
2569 Clouds 23 1007 100 10000 1.5 200 20:37 11.12.2019
2570 Clouds 23 1007 100 10000 1.5 200 20:19 11.12.2019
2571 Clouds 23 1007 100 10000 1 180 19:57 11.12.2019
2572 Clouds 23 1007 100 10000 1 180 19:39 11.12.2019
2573 Clouds 23 1007 100 10000 1 180 19:39 11.12.2019
2574 Clouds 23 1007 100 10000 1 180 19:19 11.12.2019
2575 Clouds 23 1006 100 10000 2.6 180 18:41 11.12.2019
2576 Clouds 23 1006 100 10000 2.6 180 18:21 11.12.2019
2577 Clouds 23 1006 100 10000 2.6 140 17:57 11.12.2019
2578 Clouds 23 1006 100 10000 2.6 140 17:57 11.12.2019
2579 Clouds 23 1006 100 10000 2.6 140 17:39 11.12.2019
2580 Clouds 23 1006 100 10000 2.6 140 17:18 11.12.2019
2581 Clouds 24 1007 94 10000 1.5 200 16:57 11.12.2019
2582 Clouds 24 1007 94 10000 1.5 200 16:57 11.12.2019
2583 Clouds 24 1007 94 10000 1.5 200 16:38 11.12.2019
2584 Clouds 24 1007 94 10000 1.5 200 16:38 11.12.2019
2585 Clouds 24 1007 94 10000 1.5 200 16:38 11.12.2019
2586 Clouds 24 1007 94 10000 1.5 200 16:20 11.12.2019
2587 Clouds 24 1008 100 10000 2.1 230 15:59 11.12.2019
2588 Clouds 24 1008 100 10000 2.1 230 15:39 11.12.2019
2589 Clouds 24 1008 100 10000 2.1 230 15:20 11.12.2019
2590 Clouds 25 1009 88 10000 1.27 183 14:56 11.12.2019
2591 Clouds 25 1009 88 10000 1.27 183 14:37 11.12.2019
2592 Clouds 25 1009 88 10000 1.27 183 14:37 11.12.2019
2593 Clouds 25 1009 88 10000 0.78 157 14:19 11.12.2019
2594 Clouds 25 1010 100 10000 2.6 180 13:54 11.12.2019
2595 Clouds 25 1010 100 10000 2.6 180 13:36 11.12.2019
2596 Clouds 25 1010 100 10000 2.6 180 13:18 11.12.2019
2597 Clouds 25 1009 94 10000 1 200 12:54 11.12.2019
2598 Clouds 25 1009 94 10000 1 200 12:36 11.12.2019
2599 Clouds 25 1009 94 10000 1 200 12:36 11.12.2019
2600 Clouds 25 1009 94 10000 1 200 12:18 11.12.2019
2601 Clouds 25 1009 94 10000 2.1 200 11:54 11.12.2019
2602 Clouds 25 1009 94 10000 2.1 200 11:36 11.12.2019
2603 Clouds 25 1009 94 10000 2.1 200 11:18 11.12.2019
2604 Drizzle 25 1009 94 10000 2.1 200 10:40 11.12.2019
2605 Drizzle 25 1009 94 10000 2.1 200 10:22 11.12.2019
2606 Drizzle 26 1008 88 10000 2.1 200 09:57 11.12.2019
2607 Drizzle 26 1008 88 10000 2.1 200 09:38 11.12.2019
2608 Clouds 27 1008 83 10000 3.1 230 09:19 11.12.2019
2609 Clouds 27 1008 83 10000 3.1 230 08:55 11.12.2019
2610 Clouds 27 1008 83 10000 3.1 230 08:36 11.12.2019
2611 Clouds 27 1008 83 10000 3.1 230 08:18 11.12.2019
2612 Thunderstorm 30 1007 70 10000 2.1 290 07:43 11.12.2019
2613 Thunderstorm 30 1007 70 10000 2.1 290 07:24 11.12.2019
2614 Thunderstorm 30 1007 70 10000 2.1 290 07:24 11.12.2019
2615 Clouds 30 1006 70 10000 1 340 06:46 11.12.2019
2616 Rain 26 1007 88 0 0.86 312 06:25 11.12.2019
2617 Clouds 32 1006 66 10000 2.1 50 05:54 11.12.2019
2618 Clouds 32 1006 66 10000 2.1 50 05:35 11.12.2019
2619 Rain 30 1007 70 10000 2.1 290 04:51 11.12.2019
2620 Thunderstorm 30 1007 70 10000 4.1 20 03:26 11.12.2019
2621 Clouds 31 1008 70 10000 4.1 20 02:35 11.12.2019
2622 Clouds 31 1008 62 10000 2.1 20 01:22 11.12.2019
2623 Clouds 31 1009 74 10000 3.6 340 00:37 11.12.2019
2624 Clouds 31 1009 74 10000 3.6 340 00:18 11.12.2019
2625 Clouds 31 1009 70 10000 1.35 16 23:43 10.12.2019
2626 Clouds 31 1009 70 10000 0.86 184 23:22 10.12.2019
2627 Clouds 28 1009 78 10000 0.86 184 22:42 10.12.2019
2628 Clouds 28 1009 78 10000 0.86 184 22:24 10.12.2019
2629 Clouds 24 1009 100 10000 0.86 184 21:59 10.12.2019
2630 Clouds 24 1009 100 10000 0.86 184 21:41 10.12.2019
2631 Clouds 24 1009 100 10000 0.86 184 21:22 10.12.2019
2632 Clouds 23 1009 100 10000 1 160 20:59 10.12.2019
2633 Clouds 23 1009 100 10000 1 160 20:38 10.12.2019
2634 Clouds 23 1009 100 10000 1 160 20:38 10.12.2019
2635 Clouds 23 1009 100 10000 1 160 20:38 10.12.2019
2636 Clouds 23 1009 100 10000 1 160 20:38 10.12.2019
2637 Clouds 23 1009 100 10000 1 160 20:20 10.12.2019
2638 Clouds 24 1008 94 10000 1.51 168 19:58 10.12.2019
2639 Clouds 24 1008 94 10000 1.51 168 19:40 10.12.2019
2640 Clouds 24 1008 94 10000 1.51 168 19:22 10.12.2019
2641 Thunderstorm 24 1008 94 10000 1.51 168 18:56 10.12.2019
2642 Clouds 24 1008 94 10000 1.5 160 18:38 10.12.2019
2643 Clouds 24 1008 94 10000 1.5 160 18:18 10.12.2019
2644 Clouds 24 1008 94 10000 1.51 168 17:42 10.12.2019
2645 Clouds 24 1008 94 10000 1.51 168 17:23 10.12.2019
2646 Clouds 24 1008 94 10000 1.17 213 16:58 10.12.2019
2647 Clouds 24 1008 94 10000 1.17 213 16:39 10.12.2019
2648 Clouds 24 1008 94 10000 1.17 213 16:19 10.12.2019
2649 Clouds 24 1009 100 10000 1.5 140 15:39 10.12.2019
2650 Clouds 24 1009 100 10000 1.5 140 15:19 10.12.2019
2651 Clouds 25 1010 94 10000 1 140 14:56 10.12.2019
2652 Clouds 25 1010 94 10000 1 140 14:38 10.12.2019
2653 Clouds 25 1010 94 10000 1 140 14:38 10.12.2019
2654 Clouds 25 1010 94 10000 1 140 14:20 10.12.2019
2655 Clouds 25 1010 100 10000 1 70 13:58 10.12.2019
2656 Clouds 25 1010 100 10000 1 70 13:40 10.12.2019
2657 Clouds 25 1010 100 10000 1 70 13:20 10.12.2019
2658 Clouds 25 1010 100 10000 1 70 13:20 10.12.2019
2659 Clouds 25 1010 100 10000 0.64 188 12:49 10.12.2019
2660 Clouds 25 1010 100 10000 0.64 188 12:28 10.12.2019
2661 Clouds 26 1010 100 10000 1 140 11:56 10.12.2019
2662 Clouds 26 1010 100 10000 1 140 11:38 10.12.2019
2663 Clouds 26 1010 100 10000 1 140 11:19 10.12.2019
2664 Clouds 26 1010 100 10000 1 140 11:19 10.12.2019
2665 Clouds 27 1009 88 10000 0.47 90 10:43 10.12.2019
2666 Clouds 27 1009 88 10000 0.47 90 10:24 10.12.2019
2667 Clouds 27 1009 94 10000 2.1 140 09:57 10.12.2019
2668 Clouds 27 1009 94 10000 2.1 140 09:39 10.12.2019
2669 Clouds 27 1009 94 10000 2.1 140 09:20 10.12.2019
2670 Clouds 29 1008 83 10000 0.47 90 08:58 10.12.2019
2671 Clouds 29 1008 83 10000 0.47 90 08:39 10.12.2019
2672 Clouds 29 1008 83 10000 1.52 38 08:19 10.12.2019
2673 Clouds 30 1007 70 10000 1.52 38 07:44 10.12.2019
2674 Clouds 30 1007 70 10000 1.52 38 07:26 10.12.2019
2675 Clouds 30 1007 74 10000 2.1 340 06:50 10.12.2019
2676 Clouds 30 1007 74 10000 2.1 340 06:25 10.12.2019
2677 Rain 31 1008 66 10000 1.5 320 05:56 10.12.2019
2678 Rain 31 1008 66 10000 1.5 320 05:34 10.12.2019
2679 Rain 31 1008 70 10000 2.6 360 03:55 10.12.2019
2680 Rain 31 1008 70 10000 2.6 360 03:55 10.12.2019
2681 Clouds 31 1009 74 10000 2.6 360 02:57 10.12.2019
2682 Clouds 32 1010 62 10000 3.1 340 01:55 10.12.2019
2683 Clouds 32 1010 62 10000 3.1 340 01:27 10.12.2019
2684 Clouds 31 1010 74 10000 1.5 320 00:58 10.12.2019
2685 Clouds 31 1010 74 10000 1.5 320 00:25 10.12.2019
2686 Clouds 31 1010 70 10000 2.62 61 23:55 09.12.2019
2687 Clouds 31 1010 70 10000 2.62 61 23:36 09.12.2019
2688 Clouds 31 1010 70 10000 1.38 90 23:18 09.12.2019
2689 Clouds 29 1010 83 10000 1 180 22:54 09.12.2019
2690 Clouds 29 1010 83 10000 1 180 22:36 09.12.2019
2691 Clouds 29 1010 83 10000 1 180 22:18 09.12.2019
2692 Clouds 25 1010 94 10000 1.38 90 21:54 09.12.2019
2693 Clouds 25 1010 94 10000 1.38 90 21:36 09.12.2019
2694 Clouds 25 1010 94 10000 1.38 90 21:18 09.12.2019
2695 Clouds 23 1009 100 10000 1.38 90 20:54 09.12.2019
2696 Clouds 23 1009 100 10000 1.38 90 20:36 09.12.2019
2697 Clouds 23 1009 100 10000 2.3 157 20:18 09.12.2019
2698 Clouds 23 1009 100 10000 2.3 157 19:54 09.12.2019
2699 Clouds 23 1009 100 10000 2.3 157 19:36 09.12.2019
2700 Clouds 23 1009 100 10000 2.3 157 19:18 09.12.2019
2701 Clouds 24 1008 94 10000 2.3 157 18:40 09.12.2019
2702 Clouds 24 1008 94 10000 2.3 157 18:20 09.12.2019
2703 Clouds 24 1009 94 10000 2.3 157 17:59 09.12.2019
2704 Clouds 24 1009 94 10000 2.3 157 17:59 09.12.2019
2705 Clouds 24 1009 94 10000 2.3 157 17:40 09.12.2019
2706 Clouds 24 1009 94 10000 1.07 159 17:21 09.12.2019
2707 Clouds 24 1009 94 10000 1.07 159 16:56 09.12.2019
2708 Clouds 24 1009 94 10000 1.07 159 16:38 09.12.2019
2709 Clouds 24 1009 94 10000 1.07 159 16:20 09.12.2019
2710 Clouds 25 1009 94 10000 1.07 159 15:56 09.12.2019
2711 Clouds 25 1009 94 10000 1.07 159 15:56 09.12.2019
2712 Clouds 25 1009 94 10000 1.07 159 15:37 09.12.2019
2713 Clouds 25 1009 94 10000 1.07 159 15:19 09.12.2019
2714 Clouds 25 1011 94 10000 1.07 159 14:57 09.12.2019
2715 Clouds 25 1011 94 10000 1.07 159 14:39 09.12.2019
2716 Clouds 25 1011 94 10000 0.71 170 14:18 09.12.2019
2717 Clouds 25 1012 94 10000 1.5 160 13:40 09.12.2019
2718 Clouds 25 1012 94 10000 1.5 160 13:21 09.12.2019
2719 Clouds 26 1012 94 10000 1 200 12:58 09.12.2019
2720 Clouds 26 1012 94 10000 1 200 12:58 09.12.2019
2721 Clouds 26 1012 94 10000 1 200 12:40 09.12.2019
2722 Clouds 26 1012 94 10000 1 200 12:21 09.12.2019
2723 Clouds 26 1011 100 10000 0.92 174 11:59 09.12.2019
2724 Clouds 26 1011 100 10000 0.92 174 11:40 09.12.2019
2725 Clouds 26 1011 100 10000 0.68 111 11:21 09.12.2019
2726 Clouds 26 1011 94 10000 1.5 160 10:57 09.12.2019
2727 Clouds 26 1011 94 10000 1.5 160 10:38 09.12.2019
2728 Clouds 26 1011 94 10000 1.5 160 10:19 09.12.2019
2729 Clouds 26 1010 94 10000 0.68 111 09:41 09.12.2019
2730 Clouds 26 1010 94 10000 0.68 111 09:23 09.12.2019
2731 Clouds 26 1009 94 10000 1.5 140 08:55 09.12.2019
2732 Clouds 26 1009 94 10000 1.5 140 08:37 09.12.2019
2733 Clouds 26 1009 94 10000 1.5 140 08:19 09.12.2019
2734 Clouds 26 1009 94 10000 3.6 180 07:42 09.12.2019
2735 Clouds 26 1009 94 10000 3.6 180 07:24 09.12.2019
2736 Clouds 28 1009 88 10000 3.6 70 06:55 09.12.2019
2737 Clouds 28 1009 88 10000 3.6 70 06:27 09.12.2019
2738 Drizzle 30 1009 79 10000 3.1 90 05:30 09.12.2019
2739 Clouds 31 1009 66 10000 2.6 110 04:51 09.12.2019
2740 Clouds 31 1009 66 10000 2.6 110 04:20 09.12.2019
2741 Clouds 31 1011 74 10000 2.6 90 02:27 09.12.2019
2742 Clouds 31 1011 70 10000 3.1 70 01:44 09.12.2019
2743 Clouds 30 1011 74 10000 3.1 140 00:53 09.12.2019
2744 Clouds 30 1011 74 10000 3.1 140 00:32 09.12.2019
2745 Clouds 29 1011 83 10000 1 160 23:44 08.12.2019
2746 Clouds 29 1011 83 10000 1 160 23:25 08.12.2019
2747 Clouds 26 1011 88 10000 1 180 22:58 08.12.2019
2748 Clouds 26 1011 88 10000 1 180 22:39 08.12.2019
2749 Clouds 26 1011 88 10000 1 180 22:20 08.12.2019
2750 Clouds 24 1010 100 10000 2.1 160 21:58 08.12.2019
2751 Clouds 24 1010 100 10000 2.1 160 21:40 08.12.2019
2752 Clouds 24 1010 100 10000 2.1 160 21:40 08.12.2019
2753 Clouds 24 1010 100 10000 2.1 160 21:22 08.12.2019
2754 Clouds 26 1011 77 0 1.81 98 20:57 08.12.2019
2755 Clouds 26 1011 77 0 1.81 98 20:38 08.12.2019
2756 Clouds 25 1009 88 10000 1.5 160 20:20 08.12.2019
2757 Clouds 25 1009 88 10000 1.5 160 19:59 08.12.2019
2758 Clouds 25 1009 88 10000 1.5 160 19:41 08.12.2019
2759 Clouds 25 1009 88 10000 1.5 160 19:23 08.12.2019
2760 Clouds 24 1009 100 10000 2.6 180 18:55 08.12.2019
2761 Clouds 24 1009 100 10000 2.6 180 18:37 08.12.2019
2762 Clouds 24 1009 100 10000 2.6 180 18:19 08.12.2019
2763 Clouds 24 1009 100 10000 2.6 180 18:19 08.12.2019
2764 Drizzle 24 1009 100 10000 2.6 160 17:57 08.12.2019
2765 Drizzle 24 1009 100 10000 2.6 160 17:38 08.12.2019
2766 Drizzle 24 1009 100 10000 2.6 160 17:20 08.12.2019
2767 Drizzle 24 1009 100 10000 2.6 160 17:20 08.12.2019
2768 Drizzle 24 1009 100 10000 2.6 160 17:20 08.12.2019
2769 Drizzle 25 1010 94 10000 1 270 16:57 08.12.2019
2770 Drizzle 25 1010 94 10000 1 270 16:39 08.12.2019
2771 Drizzle 25 1010 94 10000 1 270 16:20 08.12.2019
2772 Drizzle 25 1010 100 10000 2.1 320 15:55 08.12.2019
2773 Drizzle 25 1010 100 10000 2.1 320 15:36 08.12.2019
2774 Drizzle 25 1010 100 10000 2.1 320 15:36 08.12.2019
2775 Drizzle 25 1010 100 10000 2.1 320 15:18 08.12.2019
2776 Clouds 25 1011 100 10000 1 160 14:43 08.12.2019
2777 Clouds 25 1011 100 10000 1 160 14:24 08.12.2019
2778 Clouds 25 1011 100 10000 1.37 148 13:57 08.12.2019
2779 Clouds 25 1011 100 10000 1.37 148 13:39 08.12.2019
2780 Clouds 25 1011 100 10000 1.35 153 13:21 08.12.2019
2781 Clouds 25 1011 100 10000 1.35 153 12:55 08.12.2019
2782 Clouds 25 1011 100 10000 1.35 153 12:37 08.12.2019
2783 Clouds 25 1011 100 10000 1.35 153 12:18 08.12.2019
2784 Clouds 25 1011 100 10000 1.35 153 11:55 08.12.2019
2785 Clouds 25 1011 100 10000 1.35 153 11:37 08.12.2019
2786 Clouds 25 1011 100 10000 0.73 153 11:18 08.12.2019
2787 Clouds 26 1010 94 10000 0.73 153 10:39 08.12.2019
2788 Clouds 26 1010 94 10000 0.73 153 10:21 08.12.2019
2789 Clouds 26 1009 94 10000 1 80 09:58 08.12.2019
2790 Clouds 26 1009 94 10000 1 80 09:39 08.12.2019
2791 Clouds 26 1009 94 10000 1 80 09:20 08.12.2019
2792 Clouds 26 1009 94 10000 1 80 09:20 08.12.2019
2793 Clouds 28 1008 83 10000 1 20 08:58 08.12.2019
2794 Clouds 28 1008 83 10000 1 20 08:38 08.12.2019
2795 Clouds 28 1008 83 10000 1 20 08:19 08.12.2019
2796 Clouds 30 1008 70 10000 1.5 20 07:44 08.12.2019
2797 Clouds 30 1008 70 10000 1.5 20 07:20 08.12.2019
2798 Clouds 30 1007 79 10000 2.1 20 06:51 08.12.2019
2799 Clouds 30 1007 79 10000 2.1 20 06:22 08.12.2019
2800 Clouds 30 1007 79 10000 3.1 360 05:49 08.12.2019
2801 Clouds 30 1007 79 10000 3.1 360 05:18 08.12.2019
2802 Clouds 30 1008 74 10000 3.6 140 03:50 08.12.2019
2803 Clouds 30 1008 74 10000 3.6 140 03:23 08.12.2019
2804 Clouds 29 1008 83 10000 3.1 140 02:39 08.12.2019
2805 Drizzle 27 1010 88 10000 3.6 140 01:56 08.12.2019
2806 Drizzle 27 1010 88 10000 3.6 140 01:23 08.12.2019
2807 Clouds 27 1010 94 10000 1.5 140 00:40 08.12.2019
2808 Clouds 27 1010 94 10000 1.5 140 00:20 08.12.2019
2809 Clouds 27 1010 94 10000 1.5 140 00:20 08.12.2019
2810 Clouds 27 1010 88 10000 3.1 140 23:41 07.12.2019
2811 Clouds 27 1010 88 10000 3.1 140 23:21 07.12.2019
2812 Clouds 27 1010 88 10000 3.1 140 23:21 07.12.2019
2813 Rain 25 1009 94 10000 2.6 140 22:57 07.12.2019
2814 Rain 25 1009 94 10000 2.6 140 22:39 07.12.2019
2815 Rain 25 1009 94 10000 2.6 140 22:21 07.12.2019
2816 Rain 24 1008 94 0 1.83 124 21:56 07.12.2019
2817 Rain 24 1008 94 0 1.83 124 21:38 07.12.2019
2818 Rain 24 1008 94 0 1.83 124 21:19 07.12.2019
2819 Rain 24 1010 87 0 1.83 124 20:56 07.12.2019
2820 Rain 24 1010 87 0 1.83 124 20:36 07.12.2019
2821 Clouds 23 1007 94 10000 1 160 20:18 07.12.2019
2822 Clouds 23 1007 94 10000 1 160 19:56 07.12.2019
2823 Clouds 23 1007 94 10000 1 160 19:37 07.12.2019
2824 Clouds 23 1007 94 10000 1 160 19:19 07.12.2019
2825 Clouds 23 1007 94 10000 1.8 120 18:44 07.12.2019
2826 Clouds 23 1007 94 10000 1.8 120 18:19 07.12.2019
2827 Clouds 23 1007 94 10000 1 200 17:58 07.12.2019
2828 Clouds 23 1007 94 10000 1 200 17:39 07.12.2019
2829 Clouds 23 1007 94 10000 1 200 17:21 07.12.2019
2830 Clouds 23 1007 100 10000 1.5 200 16:56 07.12.2019
2831 Clouds 23 1007 100 10000 1.5 200 16:38 07.12.2019
2832 Clouds 23 1007 100 10000 1.5 200 16:19 07.12.2019
2833 Clouds 24 1008 94 10000 1.5 200 15:42 07.12.2019
2834 Clouds 24 1008 94 10000 1.5 200 15:24 07.12.2019
2835 Clouds 24 1009 100 10000 1.1 173 14:58 07.12.2019
2836 Clouds 24 1009 100 10000 1.1 173 14:40 07.12.2019
2837 Clouds 24 1009 100 10000 0.33 140 14:18 07.12.2019
2838 Clouds 24 1009 100 10000 0.33 140 13:41 07.12.2019
2839 Clouds 24 1009 100 10000 0.64 156 13:21 07.12.2019
2840 Clouds 24 1009 100 10000 1 180 12:59 07.12.2019
2841 Clouds 24 1009 100 10000 1 180 12:40 07.12.2019
2842 Clouds 24 1009 100 10000 1 180 12:22 07.12.2019
2843 Clouds 25 1008 94 10000 2.1 180 11:57 07.12.2019
2844 Clouds 25 1008 94 10000 2.1 180 11:39 07.12.2019
2845 Clouds 25 1008 94 10000 2.1 180 11:20 07.12.2019
2846 Rain 23 1009 91 0 0.64 109 10:38 07.12.2019
2847 Clouds 26 1007 94 10000 1 140 10:19 07.12.2019
2848 Clouds 26 1007 94 10000 1 140 09:42 07.12.2019
2849 Clouds 26 1007 94 10000 1 140 09:22 07.12.2019
2850 Clouds 26 1007 94 10000 1 240 08:59 07.12.2019
2851 Clouds 26 1007 94 10000 1 240 08:39 07.12.2019
2852 Clouds 26 1007 94 10000 1 240 08:21 07.12.2019
2853 Clouds 27 1007 88 10000 4.1 160 07:45 07.12.2019
2854 Clouds 27 1007 88 10000 4.1 160 07:25 07.12.2019
2855 Clouds 27 1006 88 10000 1.5 50 06:48 07.12.2019
2856 Clouds 27 1006 88 10000 1.5 50 06:24 07.12.2019
2857 Clouds 26 1006 94 10000 2.6 240 05:25 07.12.2019
2858 Clouds 26 1008 94 0 3.1 140 03:55 07.12.2019
2859 Drizzle 27 1009 88 10000 3.1 160 02:59 07.12.2019
2860 Thunderstorm 29 1009 79 10000 3.1 70 02:21 07.12.2019
2861 Clouds 30 1009 74 10000 2.6 50 01:34 07.12.2019
2862 Clouds 30 1009 79 10000 1.5 360 00:52 07.12.2019
2863 Clouds 30 1009 79 10000 1.5 360 00:19 07.12.2019
2864 Clouds 30 1009 79 10000 1.5 290 23:49 06.12.2019
2865 Clouds 29 1009 74 10000 1.5 230 23:25 06.12.2019
2866 Clouds 27 1009 78 10000 1.5 160 22:59 06.12.2019
2867 Clouds 27 1009 78 10000 1.5 160 22:37 06.12.2019
2868 Clouds 27 1009 78 10000 1.5 160 22:19 06.12.2019
2869 Clouds 25 1008 88 10000 1.5 140 21:57 06.12.2019
2870 Clouds 25 1008 88 10000 1.5 140 21:38 06.12.2019
2871 Clouds 25 1008 88 10000 1.5 140 21:19 06.12.2019
2872 Clouds 24 1007 94 10000 1.5 200 20:42 06.12.2019
2873 Clouds 24 1007 94 10000 1.5 200 20:22 06.12.2019
2874 Clouds 24 1007 94 10000 1.5 200 19:58 06.12.2019
2875 Clouds 24 1007 94 10000 1.5 200 19:58 06.12.2019
2876 Clouds 24 1007 94 10000 1.5 200 19:39 06.12.2019
2877 Clouds 24 1007 94 10000 1.5 200 19:21 06.12.2019
2878 Clouds 24 1007 94 10000 1.5 110 18:45 06.12.2019
2879 Clouds 24 1007 94 10000 1.5 110 18:23 06.12.2019
2880 Clouds 24 1007 94 10000 1.5 160 17:58 06.12.2019
2881 Clouds 24 1007 94 10000 1.5 160 17:40 06.12.2019
2882 Clouds 24 1007 94 10000 1.5 160 17:22 06.12.2019
2883 Clouds 24 1007 100 10000 1.61 182 16:59 06.12.2019
2884 Clouds 24 1007 100 10000 1.61 182 16:40 06.12.2019
2885 Clouds 24 1007 100 10000 1.61 182 16:21 06.12.2019
2886 Clouds 25 1007 94 10000 1.61 182 15:56 06.12.2019
2887 Clouds 25 1007 94 10000 1.61 182 15:38 06.12.2019
2888 Clouds 25 1007 94 10000 1.61 182 15:18 06.12.2019
2889 Clouds 25 1007 94 10000 1.61 182 15:18 06.12.2019
2890 Clouds 25 1007 94 10000 1.61 182 15:18 06.12.2019
2891 Clouds 25 1008 94 10000 1.61 182 14:41 06.12.2019
2892 Clouds 25 1008 94 10000 1.52 182 14:20 06.12.2019
2893 Clouds 25 1009 94 10000 1.52 182 13:58 06.12.2019
2894 Clouds 25 1009 94 10000 1.52 182 13:40 06.12.2019
2895 Clouds 25 1009 94 10000 1.52 182 13:21 06.12.2019
2896 Clouds 25 1009 94 10000 1.6 174 13:21 06.12.2019
2897 Clouds 25 1009 94 10000 1.6 174 13:21 06.12.2019
2898 Clouds 26 1009 88 10000 1.6 174 12:40 06.12.2019
2899 Clouds 26 1009 88 10000 1.6 174 12:21 06.12.2019
2900 Clouds 26 1009 94 10000 1.6 174 11:43 06.12.2019
2901 Clouds 26 1009 94 10000 1.6 174 11:23 06.12.2019
2902 Clouds 27 1008 88 10000 1.46 188 10:58 06.12.2019
2903 Clouds 27 1008 88 10000 1.46 188 10:40 06.12.2019
2904 Clouds 27 1008 88 10000 1.46 188 10:20 06.12.2019
2905 Clouds 28 1008 83 10000 1.46 188 09:56 06.12.2019
2906 Clouds 28 1008 83 10000 1.46 188 09:37 06.12.2019
2907 Clouds 28 1008 83 10000 1.46 188 09:19 06.12.2019
2908 Clouds 28 1008 83 10000 1.46 188 09:19 06.12.2019
2909 Clouds 30 1007 66 10000 1 360 08:43 06.12.2019
2910 Clouds 30 1007 66 10000 1 360 08:25 06.12.2019
2911 Clouds 30 1006 66 10000 2.1 360 07:42 06.12.2019
2912 Clouds 30 1006 66 10000 2.1 360 07:22 06.12.2019
2913 Clouds 31 1005 66 10000 4.1 340 06:48 06.12.2019
2914 Clouds 31 1005 66 10000 4.1 340 06:25 06.12.2019
2915 Clouds 31 1005 66 10000 4.1 20 05:49 06.12.2019
2916 Clouds 31 1007 70 10000 4.1 50 02:51 06.12.2019
2917 Clouds 31 1008 66 10000 4.1 50 01:45 06.12.2019
2918 Clouds 31 1008 66 10000 4.1 70 00:51 06.12.2019
2919 Clouds 31 1008 66 10000 4.1 70 00:23 06.12.2019
2920 Clouds 31 1009 66 10000 1.96 12 23:51 05.12.2019
2921 Clouds 31 1009 66 10000 0.67 137 23:21 05.12.2019
2922 Clouds 28 1009 74 10000 0.67 137 22:58 05.12.2019
2923 Clouds 28 1009 74 10000 0.67 137 22:39 05.12.2019
2924 Clouds 28 1009 74 10000 0.67 137 22:39 05.12.2019
2925 Clouds 28 1009 74 10000 0.67 137 22:20 05.12.2019
2926 Clouds 26 1008 88 10000 1 160 21:57 05.12.2019
2927 Clouds 26 1008 88 10000 1 160 21:57 05.12.2019
2928 Clouds 26 1008 88 10000 1 160 21:39 05.12.2019
2929 Clouds 26 1008 88 10000 1 160 21:39 05.12.2019
2930 Clouds 26 1008 88 10000 1 160 21:20 05.12.2019
2931 Clouds 23 1008 100 10000 2.1 200 20:57 05.12.2019
2932 Clouds 23 1008 100 10000 2.1 200 20:38 05.12.2019
2933 Clouds 23 1008 100 10000 2.1 200 20:38 05.12.2019
2934 Clouds 23 1008 100 10000 2.1 200 20:18 05.12.2019
2935 Clouds 23 1008 94 10000 1 160 19:41 05.12.2019
2936 Clouds 23 1008 94 10000 1 160 19:22 05.12.2019
2937 Clouds 23 1008 94 10000 1 250 18:59 05.12.2019
2938 Clouds 23 1008 94 10000 1 250 18:39 05.12.2019
2939 Clouds 23 1008 94 10000 1 250 18:20 05.12.2019
2940 Clouds 23 1008 100 10000 1 250 17:55 05.12.2019
2941 Clouds 23 1008 100 10000 1 250 17:36 05.12.2019
2942 Clouds 23 1008 100 10000 1 250 17:18 05.12.2019
2943 Clouds 23 1008 100 10000 1 140 16:40 05.12.2019
2944 Clouds 23 1008 100 10000 1 140 16:22 05.12.2019
2945 Clouds 24 1009 94 10000 1.75 176 15:58 05.12.2019
2946 Clouds 24 1009 94 10000 1.75 176 15:58 05.12.2019
2947 Clouds 24 1009 94 10000 1.75 176 15:40 05.12.2019
2948 Clouds 24 1009 94 10000 1.75 176 15:20 05.12.2019
2949 Clouds 25 1009 94 10000 1.5 160 14:56 05.12.2019
2950 Clouds 25 1009 94 10000 1.5 160 14:38 05.12.2019
2951 Clouds 25 1009 94 10000 1.5 160 14:19 05.12.2019
2952 Clouds 25 1010 94 10000 2.06 197 13:57 05.12.2019
2953 Clouds 25 1010 94 10000 2.06 197 13:39 05.12.2019
2954 Clouds 25 1010 94 10000 2.15 187 13:20 05.12.2019
2955 Clouds 26 1010 88 10000 1.5 160 12:57 05.12.2019
2956 Clouds 26 1010 88 10000 1.5 160 12:38 05.12.2019
2957 Clouds 26 1010 88 10000 1.5 160 12:20 05.12.2019
2958 Clouds 26 1010 94 10000 2.1 180 11:40 05.12.2019
2959 Clouds 26 1010 94 10000 2.1 180 11:21 05.12.2019
2960 Clouds 26 1009 88 10000 1.47 184 10:58 05.12.2019
2961 Clouds 26 1009 88 10000 1.47 184 10:40 05.12.2019
2962 Clouds 26 1009 88 10000 1.47 184 10:40 05.12.2019
2963 Clouds 26 1009 88 10000 1.47 184 10:19 05.12.2019
2964 Clouds 27 1009 88 10000 1.5 180 09:55 05.12.2019
2965 Clouds 27 1009 88 10000 1.5 180 09:37 05.12.2019
2966 Clouds 27 1009 88 10000 1.5 180 09:18 05.12.2019
2967 Clouds 27 1008 88 10000 1 180 08:39 05.12.2019
2968 Clouds 27 1008 88 10000 1 180 08:20 05.12.2019
2969 Thunderstorm 27 1007 88 10000 1.5 140 07:57 05.12.2019
2970 Clouds 28 1007 78 10000 2.1 290 07:36 05.12.2019
2971 Clouds 28 1007 78 10000 2.1 290 07:18 05.12.2019
2972 Clouds 27 1006 88 10000 3.6 50 06:42 05.12.2019
2973 Clouds 27 1006 88 10000 3.6 50 06:22 05.12.2019
2974 Rain 26 1006 94 10000 4.6 70 05:48 05.12.2019
2975 Clouds 28 1006 83 10000 5.7 110 05:23 05.12.2019
2976 Clouds 31 1006 62 10000 3.1 70 04:25 05.12.2019
2977 Clouds 32 1007 66 10000 4.1 50 02:54 05.12.2019
2978 Clouds 32 1007 66 10000 4.1 50 02:25 05.12.2019
2979 Clouds 32 1008 66 10000 4.1 50 01:55 05.12.2019
2980 Clouds 32 1008 66 10000 4.1 50 01:27 05.12.2019
2981 Clouds 32 1008 66 10000 4.1 50 01:27 05.12.2019
2982 Clouds 31 1008 70 10000 1.5 90 00:54 05.12.2019
2983 Clouds 31 1008 70 10000 1.5 90 00:36 05.12.2019
2984 Clouds 31 1008 70 10000 1.5 90 00:18 05.12.2019
2985 Clouds 29 1009 74 10000 1.96 20 23:40 04.12.2019
2986 Clouds 29 1009 74 10000 0.22 102 23:22 04.12.2019
2987 Clouds 28 1009 78 10000 0.22 102 22:57 04.12.2019
2988 Clouds 28 1009 78 10000 0.22 102 22:36 04.12.2019
2989 Clouds 28 1009 78 10000 0.22 102 22:18 04.12.2019
2990 Clouds 26 1008 88 10000 1 200 21:54 04.12.2019
2991 Clouds 26 1008 88 10000 1 200 21:36 04.12.2019
2992 Clouds 26 1008 88 10000 1 200 21:18 04.12.2019
2993 Clouds 25 1007 94 10000 0.22 102 20:56 04.12.2019
2994 Clouds 25 1007 94 10000 0.22 102 20:37 04.12.2019
2995 Clouds 25 1007 94 10000 0.86 170 20:19 04.12.2019
2996 Clouds 24 1007 94 10000 0.86 170 19:40 04.12.2019
2997 Clouds 24 1007 94 10000 0.86 170 19:21 04.12.2019
2998 Clouds 24 1007 94 10000 0.86 170 18:58 04.12.2019
2999 Clouds 24 1007 94 10000 0.86 170 18:58 04.12.2019
3000 Clouds 24 1007 94 10000 0.86 170 18:40 04.12.2019
3001 Clouds 24 1007 94 10000 0.86 170 18:21 04.12.2019
3002 Clouds 24 1007 100 10000 0.86 170 17:55 04.12.2019
3003 Clouds 24 1007 100 10000 0.86 170 17:36 04.12.2019
3004 Clouds 24 1007 100 10000 1.33 183 17:18 04.12.2019
3005 Clouds 24 1007 94 10000 1.33 183 16:40 04.12.2019
3006 Clouds 24 1007 94 10000 1.33 183 16:20 04.12.2019
3007 Clouds 24 1007 94 10000 1.33 183 16:20 04.12.2019
3008 Clouds 24 1008 100 10000 1.33 183 15:56 04.12.2019
3009 Clouds 24 1008 100 10000 1.33 183 15:38 04.12.2019
3010 Clouds 24 1008 100 10000 1.33 183 15:19 04.12.2019
3011 Clouds 25 1009 94 10000 1.33 183 14:54 04.12.2019
3012 Clouds 25 1009 94 10000 1.33 183 14:36 04.12.2019
3013 Clouds 25 1009 94 10000 0.99 169 14:18 04.12.2019
3014 Clouds 26 1009 94 10000 0.72 174 13:38 04.12.2019
3015 Clouds 26 1009 94 10000 0.99 169 13:20 04.12.2019
3016 Clouds 26 1009 94 10000 0.72 174 13:20 04.12.2019
3017 Clouds 27 1010 88 10000 0.72 174 12:45 04.12.2019
3018 Clouds 27 1010 88 10000 0.72 174 12:25 04.12.2019
3019 Clouds 28 1009 88 10000 1.5 200 11:59 04.12.2019
3020 Clouds 28 1009 88 10000 1.5 200 11:41 04.12.2019
3021 Clouds 28 1009 88 10000 1.5 200 11:22 04.12.2019
3022 Clouds 28 1009 88 10000 1.5 180 10:44 04.12.2019
3023 Clouds 28 1009 88 10000 1.5 180 10:24 04.12.2019
3024 Clouds 28 1009 88 10000 1.5 180 10:24 04.12.2019
3025 Clouds 29 1008 83 10000 1 180 09:57 04.12.2019
3026 Clouds 29 1008 83 10000 1 180 09:39 04.12.2019
3027 Clouds 29 1008 83 10000 1 180 09:20 04.12.2019
3028 Rain 24 1009 86 0 0.73 231 08:41 04.12.2019
3029 Clouds 31 1007 58 10000 3.1 70 08:23 04.12.2019
3030 Clouds 31 1007 58 10000 3.1 70 07:50 04.12.2019
3031 Clouds 31 1007 58 10000 3.1 70 07:30 04.12.2019
3032 Clouds 32 1006 62 10000 4.1 50 06:47 04.12.2019
3033 Clouds 32 1006 62 10000 4.1 50 06:25 04.12.2019
3034 Clouds 32 1006 62 10000 4.6 50 05:42 04.12.2019
3035 Clouds 31 1007 70 10000 4.6 70 04:31 04.12.2019
3036 Clouds 31 1008 66 10000 4.1 50 02:59 04.12.2019
3037 -273 0 0 0 0 0 00:53 04.12.2019
3038 Clouds 29 1010 83 10000 3.1 90 00:28 04.12.2019
3039 Clouds 27 1010 88 10000 2.1 200 23:59 03.12.2019
3040 Clouds 27 1010 88 10000 2.1 200 23:41 03.12.2019
3041 Clouds 27 1010 88 10000 2.1 200 23:19 03.12.2019
3042 Clouds 25 1010 94 0 4.1 140 22:41 03.12.2019
3043 Clouds 25 1010 94 0 4.1 140 22:41 03.12.2019
3044 Clouds 25 1010 94 0 4.1 140 22:19 03.12.2019
3045 Clouds 25 1010 94 0 4.6 110 21:59 03.12.2019
3046 Clouds 25 1010 94 10000 4.1 90 21:39 03.12.2019
3047 Clouds 25 1010 94 10000 4.1 90 21:19 03.12.2019
3048 Clouds 24 1009 94 10000 2.6 180 20:58 03.12.2019
3049 Clouds 24 1009 94 10000 2.6 180 20:39 03.12.2019
3050 Clouds 24 1009 94 10000 2.6 180 20:18 03.12.2019
3051 Clouds 24 1008 94 10000 2.6 180 19:55 03.12.2019
3052 Clouds 24 1008 94 10000 2.6 180 19:37 03.12.2019
3053 Clouds 24 1008 94 10000 2.6 180 19:18 03.12.2019
3054 Clouds 24 1008 100 10000 1.5 70 18:56 03.12.2019
3055 Clouds 24 1008 100 10000 1.5 70 18:37 03.12.2019
3056 Clouds 24 1008 100 10000 1.5 70 18:19 03.12.2019
3057 Clouds 24 1008 100 10000 1.5 70 18:19 03.12.2019
3058 Clouds 24 1008 100 10000 1.15 162 17:54 03.12.2019
3059 Clouds 24 1008 100 10000 1.15 162 17:36 03.12.2019
3060 Clouds 24 1008 100 10000 1.15 162 17:36 03.12.2019
3061 Clouds 25 1008 94 10000 1.5 140 17:18 03.12.2019
3062 Clouds 25 1008 94 10000 1.5 140 16:40 03.12.2019
3063 Clouds 25 1008 94 10000 1.5 140 16:21 03.12.2019
3064 Clouds 25 1008 94 10000 1.5 140 15:59 03.12.2019
3065 Clouds 25 1008 94 10000 1.5 140 15:39 03.12.2019
3066 Clouds 25 1008 94 10000 1.5 140 15:20 03.12.2019
3067 Clouds 25 1009 100 10000 1.12 176 14:56 03.12.2019
3068 Clouds 25 1009 100 10000 1.12 176 14:38 03.12.2019
3069 Clouds 25 1009 100 10000 1.06 165 14:18 03.12.2019
3070 Clouds 26 1009 94 10000 1.5 180 13:38 03.12.2019
3071 Clouds 26 1009 94 10000 1.5 180 13:20 03.12.2019
3072 Clouds 26 1009 94 10000 1.5 180 13:20 03.12.2019
3073 Clouds 26 1009 94 10000 1.14 164 12:58 03.12.2019
3074 Clouds 26 1009 94 10000 1.14 164 12:37 03.12.2019
3075 Clouds 26 1009 94 10000 1.14 164 12:18 03.12.2019
3076 Clouds 27 1009 83 10000 1 230 11:56 03.12.2019
3077 Clouds 27 1009 83 10000 1 230 11:37 03.12.2019
3078 Clouds 27 1009 83 10000 1 230 11:19 03.12.2019
3079 Rain 27 1009 83 10000 1.5 140 10:54 03.12.2019
3080 Rain 27 1009 83 10000 1.5 140 10:36 03.12.2019
3081 Rain 27 1009 83 10000 1.5 140 10:18 03.12.2019
3082 Clouds 28 1008 88 10000 1 160 09:40 03.12.2019
3083 Clouds 28 1008 88 10000 1 160 09:22 03.12.2019
3084 Clouds 28 1008 88 10000 1 140 08:56 03.12.2019
3085 Clouds 28 1008 88 10000 1 140 08:38 03.12.2019
3086 Clouds 28 1008 88 10000 1 140 08:19 03.12.2019
3087 Clouds 30 1007 70 10000 3.1 70 07:50 03.12.2019
3088 Clouds 30 1007 70 10000 3.1 70 07:24 03.12.2019
3089 Clouds 30 1006 74 10000 2.1 50 06:24 03.12.2019
3090 Clouds 30 1006 74 10000 2.1 50 06:24 03.12.2019
3091 Clouds 31 1006 66 10000 3.6 340 05:59 03.12.2019
3092 Thunderstorm 31 1006 70 0 4.1 360 04:55 03.12.2019
3093 Clouds 31 1007 74 10000 3.6 20 03:40 03.12.2019
3094 Clouds 31 1007 74 10000 3.6 20 03:20 03.12.2019
3095 Clouds 31 1008 70 10000 5.1 20 02:49 03.12.2019
3096 Clouds 31 1008 70 10000 5.1 20 02:31 03.12.2019
3097 Clouds 32 1008 66 10000 3.1 360 01:46 03.12.2019
3098 Clouds 32 1008 66 10000 3.1 360 01:28 03.12.2019
3099 Clouds 32 1009 66 10000 4.6 20 00:56 03.12.2019
3100 Clouds 32 1009 66 10000 4.6 20 00:38 03.12.2019
3101 Clouds 32 1009 66 10000 4.6 20 00:20 03.12.2019
3102 Clouds 31 1009 66 10000 1 90 23:43 02.12.2019
3103 Clouds 31 1009 66 10000 1 90 23:20 02.12.2019
3104 Clouds 28 1009 78 10000 1.5 180 22:42 02.12.2019
3105 Clouds 28 1009 78 10000 1.5 180 22:23 02.12.2019
3106 Clouds 26 1008 88 10000 1 160 21:59 02.12.2019
3107 Clouds 26 1008 88 10000 1 160 21:37 02.12.2019
3108 Clouds 26 1008 88 10000 1 160 21:19 02.12.2019
3109 Clouds 26 1008 88 10000 1 160 21:19 02.12.2019
3110 Clouds 24 1007 94 10000 1 110 20:56 02.12.2019
3111 Clouds 24 1007 94 10000 1 110 20:38 02.12.2019
3112 Clouds 24 1007 94 10000 1 110 20:19 02.12.2019
3113 Clouds 24 1007 94 10000 1.5 180 19:43 02.12.2019
3114 Clouds 24 1007 94 10000 1.5 180 19:23 02.12.2019
3115 -273 0 0 0 0 0 19:23 02.12.2019
3116 Clouds 24 1007 94 10000 1.5 180 19:23 02.12.2019
3117 Clouds 24 1006 94 10000 1 200 18:59 02.12.2019
3118 Clouds 24 1006 94 10000 1 200 18:59 02.12.2019
3119 Clouds 24 1006 94 10000 1 200 18:41 02.12.2019
3120 Clouds 24 1006 94 10000 1 200 18:19 02.12.2019
3121 Clouds 24 1006 94 10000 1.5 180 17:58 02.12.2019
3122 Clouds 24 1006 94 10000 1.5 180 17:39 02.12.2019
3123 Clouds 24 1006 94 10000 1.5 180 17:19 02.12.2019
3124 Clouds 25 1007 94 10000 1.33 151 16:40 02.12.2019
3125 Clouds 25 1007 94 10000 1.33 151 16:19 02.12.2019
3126 Clouds 25 1007 100 10000 1.5 180 15:58 02.12.2019
3127 Clouds 25 1007 100 10000 1.5 180 15:40 02.12.2019
3128 Clouds 25 1007 100 10000 1.5 180 15:22 02.12.2019
3129 Clouds 25 1008 100 10000 1.33 151 14:59 02.12.2019
3130 Clouds 25 1008 100 10000 1.33 151 14:38 02.12.2019
3131 Clouds 25 1008 100 10000 1.39 146 14:20 02.12.2019
3132 Clouds 25 1008 100 10000 1 160 13:57 02.12.2019
3133 Clouds 25 1008 100 10000 1 160 13:39 02.12.2019
3134 Clouds 25 1008 100 10000 1 160 13:19 02.12.2019
3135 Clouds 25 1008 100 10000 1 180 12:54 02.12.2019
3136 Clouds 25 1008 100 10000 1 180 12:54 02.12.2019
3137 Clouds 25 1008 100 10000 1 180 12:36 02.12.2019
3138 Clouds 25 1008 100 10000 1 180 12:18 02.12.2019
3139 Clouds 26 1008 94 10000 2.1 160 11:38 02.12.2019
3140 Clouds 26 1008 94 10000 2.1 160 11:20 02.12.2019
3141 Clouds 26 1008 94 10000 2.1 160 11:20 02.12.2019
3142 Clouds 26 1007 94 10000 2.1 90 10:58 02.12.2019
3143 Clouds 26 1007 94 10000 2.1 90 10:40 02.12.2019
3144 Clouds 26 1007 94 10000 2.1 90 10:21 02.12.2019
3145 Clouds 27 1007 94 10000 2.1 140 09:56 02.12.2019
3146 Clouds 27 1007 94 10000 2.1 140 09:38 02.12.2019
3147 Clouds 27 1007 94 10000 2.1 140 09:18 02.12.2019
3148 Clouds 27 1006 94 10000 2.1 180 08:42 02.12.2019
3149 Clouds 27 1006 94 10000 2.1 180 08:23 02.12.2019
3150 Clouds 27 1005 88 10000 5.1 110 07:59 02.12.2019
3151 Clouds 27 1005 88 10000 5.1 110 07:38 02.12.2019
3152 Clouds 27 1005 88 10000 5.1 110 07:38 02.12.2019
3153 Clouds 27 1005 88 10000 5.1 110 07:19 02.12.2019
3154 Clouds 31 1005 74 10000 3.1 50 06:40 02.12.2019
3155 Clouds 31 1005 79 10000 3.1 360 05:45 02.12.2019
3156 Clouds 31 1005 70 10000 3.1 340 04:59 02.12.2019
3157 Clouds 31 1006 79 10000 3.6 340 03:19 02.12.2019
3158 Clouds 31 1007 74 10000 3.1 20 02:45 02.12.2019
3159 Clouds 30 1007 74 10000 3.1 50 01:45 02.12.2019
3160 Clouds 30 1007 74 10000 3.1 50 01:18 02.12.2019
3161 Clouds 30 1008 74 10000 2.1 360 00:33 02.12.2019
3162 Clouds 31 1008 70 10000 1.98 4 23:57 01.12.2019
3163 Clouds 31 1008 70 10000 1.98 4 23:57 01.12.2019
3164 Clouds 31 1008 70 10000 1.98 4 23:38 01.12.2019
3165 Clouds 31 1008 70 10000 0.31 263 23:19 01.12.2019
3166 Clouds 29 1008 79 10000 0.31 263 22:56 01.12.2019
3167 Clouds 29 1008 79 10000 0.31 263 22:37 01.12.2019
3168 Clouds 29 1008 79 10000 0.31 263 22:18 01.12.2019
3169 Clouds 25 1008 94 10000 1.5 180 21:56 01.12.2019
3170 Clouds 25 1008 94 10000 1.5 180 21:38 01.12.2019
3171 Clouds 25 1008 94 10000 1.5 180 21:18 01.12.2019
3172 Clouds 23 1007 100 10000 1.5 160 20:56 01.12.2019
3173 Clouds 23 1007 100 10000 1.5 160 20:37 01.12.2019
3174 Clouds 23 1007 100 10000 1.5 160 20:19 01.12.2019
3175 Clouds 24 1006 94 10000 1.5 110 19:55 01.12.2019
3176 Clouds 24 1006 94 10000 1.5 110 19:36 01.12.2019
3177 Clouds 24 1006 94 10000 1.5 110 19:18 01.12.2019
3178 Clouds 25 1006 94 10000 1.29 198 18:54 01.12.2019
3179 Clouds 25 1006 94 10000 1.29 198 18:36 01.12.2019
3180 Clouds 25 1006 94 10000 1.29 198 18:18 01.12.2019
3181 Clouds 24 1005 100 10000 1.29 198 17:55 01.12.2019
3182 Clouds 24 1005 100 10000 1.29 198 17:37 01.12.2019
3183 Clouds 24 1005 100 10000 1.29 198 17:37 01.12.2019
3184 Clouds 24 1005 100 10000 1.23 209 17:19 01.12.2019
3185 Clouds 25 1006 94 10000 1.23 209 16:42 01.12.2019
3186 Clouds 25 1006 94 10000 1.23 209 16:23 01.12.2019
3187 Clouds 25 1006 100 10000 1.23 209 15:51 01.12.2019
3188 Clouds 25 1006 100 10000 1.23 209 15:32 01.12.2019
3189 Clouds 25 1006 100 10000 1.23 209 15:32 01.12.2019
3190 Clouds 25 1006 100 10000 1.23 209 15:32 01.12.2019
3191 Clouds 25 1007 100 10000 2.1 140 14:54 01.12.2019
3192 Clouds 25 1007 100 10000 2.1 140 14:54 01.12.2019
3193 Clouds 25 1007 100 10000 2.1 140 14:36 01.12.2019
3194 Clouds 25 1007 100 10000 2.1 140 14:18 01.12.2019
3195 Clouds 26 1007 94 10000 2.1 180 13:40 01.12.2019
3196 Clouds 26 1007 94 10000 2.1 180 13:40 01.12.2019
3197 Clouds 26 1007 94 10000 2.1 180 13:20 01.12.2019
3198 Clouds 25 1007 100 10000 2.1 160 12:46 01.12.2019
3199 Drizzle 26 1007 94 10000 3.1 140 11:59 01.12.2019
3200 Drizzle 26 1007 94 10000 3.1 140 11:40 01.12.2019
3201 Drizzle 26 1007 94 10000 3.1 140 11:22 01.12.2019
3202 Clouds 27 1006 88 10000 4.1 110 10:44 01.12.2019
3203 Clouds 27 1006 88 10000 4.1 110 10:22 01.12.2019
3204 Clouds 28 1006 83 10000 1 200 09:59 01.12.2019
3205 Clouds 28 1006 83 10000 1 200 09:39 01.12.2019
3206 Clouds 28 1006 83 10000 1 200 09:20 01.12.2019
3207 Clouds 30 1005 74 10000 1 360 08:48 01.12.2019
3208 Clouds 30 1005 74 10000 1 360 08:20 01.12.2019
3209 Clouds 31 1004 70 10000 2.1 340 07:51 01.12.2019
3210 Clouds 31 1004 70 10000 2.1 340 07:31 01.12.2019
3211 Clouds 31 1004 70 10000 3.1 290 06:57 01.12.2019
3212 Clouds 31 1004 70 10000 3.1 290 06:34 01.12.2019
3213 Clouds 32 1004 70 10000 5.1 360 05:48 01.12.2019
3214 Clouds 31 1005 74 10000 4.1 360 04:50 01.12.2019
3215 Clouds 31 1006 74 10000 3.1 360 02:54 01.12.2019
3216 Clouds 31 1006 74 10000 3.1 360 02:36 01.12.2019
3217 Clouds 31 1006 74 10000 3.1 360 02:18 01.12.2019
3218 Clouds 31 1007 70 10000 2.6 360 01:50 01.12.2019
3219 Clouds 31 1007 70 10000 2.6 360 01:19 01.12.2019
3220 Haze 31 1008 74 10000 2.6 20 00:40 01.12.2019
3221 Haze 31 1008 74 10000 2.6 20 00:22 01.12.2019
3222 Haze 31 1008 74 10000 1 70 23:42 30.11.2019
3223 Haze 31 1008 74 10000 1 70 23:23 30.11.2019
3224 Haze 30 1008 79 10000 0.46 91 22:50 30.11.2019
3225 Haze 30 1008 79 10000 0.46 91 22:30 30.11.2019
3226 Clear 26 1008 80 0 0.46 91 21:58 30.11.2019
3227 Clear 26 1008 80 0 0.46 91 21:39 30.11.2019
3228 Clear 26 1008 80 0 0.46 91 21:20 30.11.2019
3229 Clear 26 1008 80 0 0.46 91 20:55 30.11.2019
3230 Clear 26 1008 80 0 0.46 91 20:37 30.11.2019
3231 Clear 23 1007 90 0 1.1 176 20:18 30.11.2019
3232 Clear 23 1007 90 0 1.1 176 19:55 30.11.2019
3233 Clear 23 1007 90 0 1.1 176 19:36 30.11.2019
3234 Clear 23 1007 90 0 1.1 176 19:18 30.11.2019
3235 Clear 23 1007 90 0 1.1 176 18:54 30.11.2019
3236 Clear 23 1007 90 0 1.1 176 18:36 30.11.2019
3237 Clear 23 1007 90 0 1.1 176 18:18 30.11.2019
3238 Clear 23 1007 90 0 1.1 176 17:55 30.11.2019
3239 Clear 23 1007 90 0 1.1 176 17:36 30.11.2019
3240 Clouds 23 1006 91 0 1.04 185 17:18 30.11.2019
3241 Clouds 23 1006 91 0 1.04 185 16:41 30.11.2019
3242 Clouds 23 1006 91 0 1.04 185 16:41 30.11.2019
3243 Clouds 26 1007 94 10000 1 180 16:22 30.11.2019
3244 Clouds 26 1007 94 10000 1 180 15:55 30.11.2019
3245 Clouds 26 1007 94 10000 1 180 15:36 30.11.2019
3246 Clouds 26 1007 94 10000 1 180 15:18 30.11.2019
3247 Clouds 26 1007 94 10000 1 230 14:55 30.11.2019
3248 Clouds 26 1007 94 10000 1 230 14:37 30.11.2019
3249 Clouds 26 1007 94 10000 1 230 14:18 30.11.2019
3250 Clouds 26 1007 94 10000 1 230 14:18 30.11.2019
3251 Clouds 26 1008 94 10000 1 200 13:43 30.11.2019
3252 Clouds 26 1008 94 10000 1 200 13:24 30.11.2019
3253 Clouds 26 1008 100 10000 0.59 161 12:57 30.11.2019
3254 Clouds 26 1008 100 10000 0.59 161 12:39 30.11.2019
3255 Clouds 26 1008 100 10000 0.59 161 12:18 30.11.2019
3256 Clouds 27 1008 94 10000 1 180 11:41 30.11.2019
3257 Clouds 27 1008 94 10000 1 180 11:19 30.11.2019
3258 Clouds 28 1007 83 10000 1.5 160 10:55 30.11.2019
3259 Clouds 28 1007 83 10000 1.5 160 10:37 30.11.2019
3260 Clouds 28 1007 83 10000 1.5 160 10:18 30.11.2019
3261 Clouds 29 1007 79 10000 0.79 130 09:43 30.11.2019
3262 Clouds 29 1007 79 10000 0.79 130 09:21 30.11.2019
3263 Clouds 30 1006 74 10000 1.5 290 08:43 30.11.2019
3264 Clouds 30 1006 74 10000 1.5 290 08:20 30.11.2019
3265 Clouds 30 1005 74 10000 2.1 320 07:54 30.11.2019
3266 Clouds 30 1005 74 10000 2.1 320 07:36 30.11.2019
3267 Clouds 31 1005 70 10000 2.6 360 06:55 30.11.2019
3268 Clouds 31 1005 70 10000 2.6 360 06:28 30.11.2019
3269 Clouds 32 1005 66 10000 3.1 340 05:40 30.11.2019
3270 Clouds 31 1007 74 10000 3.1 20 03:42 30.11.2019
3271 Clouds 31 1007 70 10000 3.6 20 02:39 30.11.2019
3272 Clouds 31 1007 70 10000 3.6 20 02:20 30.11.2019
3273 Clouds 31 1008 66 10000 4.6 20 01:25 30.11.2019
3274 Clouds 31 1009 70 10000 3.6 20 00:48 30.11.2019
3275 Clouds 31 1009 70 10000 3.6 20 00:30 30.11.2019
3276 Clouds 31 1009 66 10000 1 110 23:57 29.11.2019
3277 Clouds 31 1009 66 10000 1 110 23:38 29.11.2019
3278 Clouds 31 1009 66 10000 1 110 23:18 29.11.2019
3279 Clouds 29 1009 70 10000 1 180 22:40 29.11.2019
3280 Clouds 29 1009 70 10000 1 180 22:21 29.11.2019
3281 Clouds 26 1009 88 10000 0.46 107 21:43 29.11.2019
3282 Clouds 26 1009 88 10000 0.46 107 21:23 29.11.2019
3283 Clouds 24 1008 94 10000 0.46 107 20:57 29.11.2019
3284 Clouds 24 1008 94 10000 0.46 107 20:38 29.11.2019
3285 Clouds 24 1008 94 10000 0.81 162 20:19 29.11.2019
3286 Clouds 24 1007 94 10000 0.81 162 19:56 29.11.2019
3287 Clouds 24 1007 94 10000 0.81 162 19:38 29.11.2019
3288 Clouds 24 1007 94 10000 0.81 162 19:19 29.11.2019
3289 Clouds 24 1007 94 10000 1 180 18:42 29.11.2019
3290 Clouds 24 1007 94 10000 1 180 18:42 29.11.2019
3291 Clouds 24 1007 94 10000 1 180 18:24 29.11.2019
3292 Clear 22 1008 90 0 0.81 162 18:00 29.11.2019
3293 Clear 22 1008 90 0 0.81 162 17:41 29.11.2019
3294 Clouds 25 1008 94 10000 1 180 17:22 29.11.2019
3295 Clouds 25 1008 94 10000 1 180 16:44 29.11.2019
3296 Clouds 25 1008 94 10000 1 180 16:21 29.11.2019
3297 Clouds 25 1008 94 10000 1 200 15:59 29.11.2019
3298 Clouds 25 1008 94 10000 1 200 15:39 29.11.2019
3299 Clouds 25 1008 94 10000 1 200 15:21 29.11.2019
3300 Clouds 25 1008 94 10000 1 200 15:21 29.11.2019
3301 Clouds 25 1009 94 10000 1 160 14:40 29.11.2019
3302 Clouds 25 1009 94 10000 1 160 14:22 29.11.2019
3303 Clouds 26 1009 88 10000 1 140 13:58 29.11.2019
3304 Clouds 26 1009 88 10000 1 140 13:38 29.11.2019
3305 Clouds 26 1009 88 10000 1 140 13:20 29.11.2019
3306 Clouds 26 1009 94 10000 1 200 12:44 29.11.2019
3307 Clouds 26 1009 94 10000 1 200 12:25 29.11.2019
3308 Clouds 27 1009 88 10000 1.5 180 11:57 29.11.2019
3309 Clouds 27 1009 88 10000 1.5 180 11:38 29.11.2019
3310 Clouds 27 1009 88 10000 1.5 180 11:19 29.11.2019
3311 Clouds 28 1008 88 10000 1 110 10:57 29.11.2019
3312 Clouds 28 1008 88 10000 1 110 10:39 29.11.2019
3313 Clouds 28 1008 88 10000 1 110 10:20 29.11.2019
3314 Clouds 29 1008 83 10000 2.6 230 09:58 29.11.2019
3315 Clouds 29 1008 83 10000 2.6 230 09:38 29.11.2019
3316 Clouds 29 1008 83 10000 2.6 230 09:20 29.11.2019
3317 Clouds 30 1007 74 10000 2.1 270 08:55 29.11.2019
3318 Clouds 30 1007 74 10000 2.1 270 08:36 29.11.2019
3319 Clouds 30 1007 74 10000 2.1 270 08:18 29.11.2019
3320 Clouds 32 1006 62 10000 3.6 340 07:41 29.11.2019
3321 Clouds 32 1006 62 10000 3.6 340 07:23 29.11.2019
3322 Clouds 32 1006 62 10000 3.1 360 06:46 29.11.2019
3323 Clouds 32 1006 62 10000 3.1 360 06:27 29.11.2019
3324 Clouds 32 1006 66 10000 2.6 360 05:32 29.11.2019
3325 Clouds 32 1007 66 10000 3.6 360 04:49 29.11.2019
3326 Clouds 32 1007 62 10000 4.6 360 03:23 29.11.2019
3327 Clouds 32 1008 62 10000 2.6 360 02:53 29.11.2019
3328 Clouds 32 1008 62 10000 2.6 360 02:21 29.11.2019
3329 Clouds 32 1009 66 10000 2.6 20 01:27 29.11.2019
3330 Clouds 31 1009 74 10000 2.6 50 00:51 29.11.2019
3331 Clouds 31 1009 74 10000 2.6 50 00:23 29.11.2019
3332 Clouds 31 1009 74 10000 2.23 21 23:58 28.11.2019
3333 Clouds 31 1009 74 10000 2.23 21 23:39 28.11.2019
3334 Clouds 31 1009 74 10000 0.83 103 23:20 28.11.2019
3335 Clouds 31 1009 74 10000 0.83 103 23:20 28.11.2019
3336 Clouds 28 1009 78 10000 2.6 180 22:55 28.11.2019
3337 Clouds 28 1009 78 10000 2.6 180 22:36 28.11.2019
3338 Clouds 28 1009 78 10000 2.6 180 22:18 28.11.2019
3339 Clouds 25 1008 94 10000 0.83 103 21:42 28.11.2019
3340 Clouds 25 1008 94 10000 0.83 103 21:21 28.11.2019
3341 Clouds 23 1008 100 10000 1 140 20:58 28.11.2019
3342 Clouds 23 1008 100 10000 1 140 20:40 28.11.2019
3343 Clouds 23 1008 100 10000 1 140 20:21 28.11.2019
3344 Clouds 23 1008 100 10000 1 140 20:21 28.11.2019
3345 Clouds 23 1007 100 10000 1.49 143 19:56 28.11.2019
3346 Clouds 23 1007 100 10000 1.49 143 19:37 28.11.2019
3347 Clouds 23 1007 100 10000 1.49 143 19:19 28.11.2019
3348 Clouds 23 1007 100 10000 1.49 143 18:56 28.11.2019
3349 Clouds 23 1007 100 10000 1.49 143 18:38 28.11.2019
3350 Clouds 23 1007 100 10000 1.49 143 18:18 28.11.2019
3351 Clouds 24 1007 100 10000 1.5 160 17:43 28.11.2019
3352 Clouds 24 1007 100 10000 1.5 160 17:25 28.11.2019
3353 Clouds 24 1007 100 10000 1.5 160 17:24 28.11.2019
3354 Clouds 24 1008 100 10000 1.31 164 16:59 28.11.2019
3355 Clouds 24 1008 100 10000 1.31 164 16:40 28.11.2019
3356 Clouds 24 1008 100 10000 1.31 164 16:19 28.11.2019
3357 Clouds 25 1008 94 10000 1.31 164 15:56 28.11.2019
3358 Clouds 25 1008 94 10000 1.31 164 15:37 28.11.2019
3359 Clouds 25 1008 94 10000 1.31 164 15:19 28.11.2019
3360 Clouds 22 1007 91 0 1.31 164 14:42 28.11.2019
3361 Clouds 26 1009 94 10000 0.93 162 14:24 28.11.2019
3362 Clouds 26 1009 94 10000 0.93 162 13:59 28.11.2019
3363 Clouds 26 1009 94 10000 0.93 162 13:41 28.11.2019
3364 Clouds 26 1009 94 10000 1 149 13:22 28.11.2019
3365 Clouds 26 1009 94 10000 1.5 180 12:49 28.11.2019
3366 Clouds 26 1009 94 10000 1.5 180 12:29 28.11.2019
3367 Clouds 26 1009 100 10000 1 180 11:59 28.11.2019
3368 Clouds 26 1009 100 10000 1 180 11:41 28.11.2019
3369 Clouds 26 1009 100 10000 1 180 11:21 28.11.2019
3370 Clouds 27 1008 94 10000 1.5 140 10:59 28.11.2019
3371 Clouds 27 1008 94 10000 1.5 140 10:41 28.11.2019
3372 Clouds 27 1008 94 10000 1.5 140 10:20 28.11.2019
3373 Clouds 29 1007 79 10000 1.5 50 09:42 28.11.2019
3374 Clouds 29 1007 79 10000 1.5 50 09:23 28.11.2019
3375 Clouds 29 1006 79 10000 1.5 360 08:59 28.11.2019
3376 Clouds 29 1006 79 10000 1.5 360 08:40 28.11.2019
3377 Clouds 29 1006 79 10000 1.5 360 08:21 28.11.2019
3378 Clouds 30 1006 74 10000 1.5 360 07:43 28.11.2019
3379 Clouds 30 1006 74 10000 1.5 360 07:24 28.11.2019
3380 Clouds 30 1006 74 10000 1.5 360 07:24 28.11.2019
3381 Clouds 30 1005 79 10000 3.1 20 06:52 28.11.2019
3382 Clouds 30 1005 79 10000 3.1 20 06:52 28.11.2019
3383 Clouds 30 1005 79 10000 3.1 20 06:52 28.11.2019
3384 Clouds 30 1005 79 10000 3.1 20 06:34 28.11.2019
3385 Clouds 30 1005 79 10000 3.6 20 05:51 28.11.2019
3386 Clouds 30 1005 79 10000 3.6 20 05:18 28.11.2019
3387 Clouds 30 1005 79 10000 3.6 20 05:18 28.11.2019
3388 Clouds 30 1005 79 10000 3.6 20 05:18 28.11.2019
3389 Clouds 30 1007 74 10000 3.6 50 02:50 28.11.2019
3390 Clouds 30 1008 74 10000 3.1 20 01:50 28.11.2019
3391 Clouds 30 1008 74 10000 3.1 70 00:48 28.11.2019
3392 Clouds 30 1008 74 10000 3.1 70 00:24 28.11.2019
3393 Clouds 29 1008 79 10000 2.1 50 23:55 27.11.2019
3394 Clouds 29 1008 79 10000 2.1 50 23:37 27.11.2019
3395 Clouds 29 1008 79 10000 2.1 50 23:37 27.11.2019
3396 Clouds 29 1008 79 10000 2.1 50 23:19 27.11.2019
3397 Clouds 27 1008 83 10000 2.1 180 22:39 27.11.2019
3398 Clouds 27 1008 83 10000 2.1 180 22:20 27.11.2019
3399 Clouds 25 1008 94 10000 1 160 21:56 27.11.2019
3400 Clouds 25 1008 94 10000 1 160 21:38 27.11.2019
3401 Clouds 25 1008 94 10000 1 160 21:19 27.11.2019
3402 Clouds 23 1007 100 10000 1 180 20:59 27.11.2019
3403 Clouds 23 1007 100 10000 1 180 20:39 27.11.2019
3404 Clouds 23 1007 100 10000 1 180 20:21 27.11.2019
3405 Clouds 23 1006 94 10000 1 140 19:57 27.11.2019
3406 Clouds 23 1006 94 10000 1 140 19:39 27.11.2019
3407 Clouds 23 1006 94 10000 1 140 19:21 27.11.2019
3408 Clouds 22 1006 89 0 1.31 148 18:58 27.11.2019
3409 Clouds 22 1006 89 0 1.31 148 18:37 27.11.2019
3410 Clouds 23 1006 100 10000 1 200 18:19 27.11.2019
3411 Clouds 23 1006 100 10000 1 200 17:56 27.11.2019
3412 Clouds 23 1006 100 10000 1 200 17:38 27.11.2019
3413 Clouds 23 1006 100 10000 1 200 17:38 27.11.2019
3414 Clouds 23 1006 100 10000 1 200 17:20 27.11.2019
3415 Clouds 24 1006 94 10000 1 200 16:56 27.11.2019
3416 Clouds 24 1006 94 10000 1 200 16:37 27.11.2019
3417 Clouds 24 1006 94 10000 1 200 16:18 27.11.2019
3418 Clouds 24 1006 94 10000 1 200 16:18 27.11.2019
3419 Clouds 24 1007 94 10000 1 200 15:56 27.11.2019
3420 Clouds 24 1007 94 10000 1 200 15:55 27.11.2019
3421 Clouds 24 1007 94 10000 1 200 15:37 27.11.2019
3422 Clouds 24 1007 94 10000 1 200 15:19 27.11.2019
3423 Clouds 24 1007 100 10000 1.22 159 14:55 27.11.2019
3424 Clouds 24 1007 100 10000 1.22 159 14:36 27.11.2019
3425 Clouds 24 1007 100 10000 0.9 180 14:18 27.11.2019
3426 Clouds 25 1008 94 10000 0.9 180 13:55 27.11.2019
3427 Clouds 25 1008 94 10000 0.9 180 13:36 27.11.2019
3428 Clouds 25 1008 100 10000 0.57 168 13:18 27.11.2019
3429 Clouds 25 1008 100 10000 0.57 168 12:40 27.11.2019
3430 Clouds 25 1008 100 10000 0.57 168 12:20 27.11.2019
3431 Clouds 25 1008 94 10000 0.57 168 11:54 27.11.2019
3432 Clouds 25 1008 94 10000 0.57 168 11:54 27.11.2019
3433 Clouds 25 1008 94 10000 0.57 168 11:36 27.11.2019
3434 Clouds 25 1007 94 10000 1 140 11:18 27.11.2019
3435 Clouds 25 1007 94 10000 1 140 10:42 27.11.2019
3436 Clouds 25 1007 94 10000 1 140 10:23 27.11.2019
3437 Clouds 25 1007 100 10000 0.52 183 09:48 27.11.2019
3438 Clouds 25 1007 100 10000 0.52 183 09:26 27.11.2019
3439 Clouds 26 1006 94 10000 0.52 183 08:59 27.11.2019
3440 Clouds 26 1006 94 10000 0.52 183 08:41 27.11.2019
3441 Clouds 26 1006 94 10000 0.92 330 08:22 27.11.2019
3442 Drizzle 27 1005 88 10000 2.6 180 07:47 27.11.2019
3443 Drizzle 27 1005 88 10000 2.6 180 07:28 27.11.2019
3444 Clouds 26 1005 100 10000 2.1 200 06:49 27.11.2019
3445 Clouds 26 1005 100 10000 2.1 200 06:30 27.11.2019
3446 Rain 26 1005 100 0 1.5 160 05:43 27.11.2019
3447 Rain 27 1005 81 0 1.15 349 05:19 27.11.2019
3448 Clouds 29 1005 79 10000 4.1 50 04:43 27.11.2019
3449 Drizzle 30 1007 79 10000 4.1 50 03:55 27.11.2019
3450 Drizzle 30 1007 79 10000 4.1 50 03:24 27.11.2019
3451 Clouds 30 1007 79 10000 3.1 50 02:55 27.11.2019
3452 Clouds 30 1007 79 10000 3.1 20 01:41 27.11.2019
3453 Clouds 29 1008 79 10000 3.6 50 00:46 27.11.2019
3454 Clouds 29 1008 79 10000 3.6 50 00:46 27.11.2019
3455 Clouds 29 1008 79 10000 3.6 50 00:26 27.11.2019
3456 Clouds 28 1007 83 10000 1.5 70 23:50 26.11.2019
3457 Clouds 28 1007 83 10000 1.5 70 23:28 26.11.2019
3458 Clouds 27 1007 88 10000 1.5 140 22:59 26.11.2019
3459 Clouds 27 1007 88 10000 1.5 140 22:38 26.11.2019
3460 Clouds 27 1007 88 10000 1.5 140 22:19 26.11.2019
3461 Clouds 25 1006 94 10000 0.1 280 21:58 26.11.2019
3462 Clouds 25 1006 94 10000 0.1 280 21:38 26.11.2019
3463 Clouds 25 1006 94 10000 0.1 280 21:19 26.11.2019
3464 Clouds 25 1006 94 10000 0.1 280 20:55 26.11.2019
3465 Clouds 24 1005 100 10000 0.1 280 20:37 26.11.2019
3466 Clouds 24 1005 100 10000 1.36 189 20:18 26.11.2019
3467 Clouds 24 1005 100 10000 1.36 189 19:55 26.11.2019
3468 Clouds 24 1005 100 10000 1.36 189 19:37 26.11.2019
3469 Clouds 24 1005 100 10000 1.36 189 19:18 26.11.2019
3470 Clouds 24 1005 100 10000 1.36 189 18:56 26.11.2019
3471 Clouds 24 1005 100 10000 1.36 189 18:38 26.11.2019
3472 Clouds 24 1005 100 10000 1.36 189 18:20 26.11.2019
3473 Clouds 24 1005 100 10000 1.36 189 17:54 26.11.2019
3474 Clouds 24 1005 100 10000 1.36 189 17:36 26.11.2019
3475 Clouds 25 1005 94 10000 1.25 200 17:18 26.11.2019
3476 Clouds 25 1005 94 10000 1.25 200 16:54 26.11.2019
3477 Clouds 25 1005 94 10000 1.25 200 16:36 26.11.2019
3478 Clouds 25 1005 94 10000 1.25 200 16:18 26.11.2019
3479 Clouds 24 1006 100 10000 1 180 15:39 26.11.2019
3480 Clouds 24 1006 100 10000 1 180 15:39 26.11.2019
3481 Clouds 24 1006 100 10000 1 180 15:21 26.11.2019
3482 Clouds 25 1007 94 10000 2.1 200 15:00 26.11.2019
3483 Clouds 25 1007 94 10000 2.1 200 14:41 26.11.2019
3484 Clouds 25 1007 94 10000 2.1 200 14:23 26.11.2019
3485 Clouds 25 1007 94 10000 2.6 110 13:43 26.11.2019
3486 Clouds 25 1007 94 10000 2.6 110 13:24 26.11.2019
3487 Clouds 25 1007 94 10000 1.2 200 12:56 26.11.2019
3488 Clouds 25 1007 94 10000 1.2 200 12:36 26.11.2019
3489 Clouds 25 1007 94 10000 1.2 200 12:18 26.11.2019
3490 Clouds 25 1007 94 10000 1 180 11:54 26.11.2019
3491 Clouds 25 1007 94 10000 1 180 11:36 26.11.2019
3492 Clouds 25 1006 94 10000 2.1 200 11:18 26.11.2019
3493 Clouds 25 1006 94 10000 2.1 200 10:54 26.11.2019
3494 Clouds 25 1006 94 10000 2.1 200 10:36 26.11.2019
3495 Clouds 25 1006 94 10000 2.1 200 10:18 26.11.2019
3496 Rain 23 1007 90 0 0.98 163 09:42 26.11.2019
3497 Clouds 25 1006 94 10000 5.1 200 09:23 26.11.2019
3498 Clouds 25 1006 94 10000 5.1 200 08:46 26.11.2019
3499 Clouds 25 1006 94 10000 5.1 200 08:26 26.11.2019
3500 Clouds 27 1005 83 10000 1.5 200 07:51 26.11.2019
3501 Clouds 27 1005 83 10000 1.5 200 07:32 26.11.2019
3502 Clouds 30 1004 70 10000 2.6 70 06:59 26.11.2019
3503 Clouds 30 1004 70 10000 2.6 70 06:40 26.11.2019
3504 Clouds 30 1004 70 10000 3.1 20 05:58 26.11.2019
3505 Clouds 29 1005 66 10000 3.1 360 04:47 26.11.2019
3506 Clouds 30 1007 74 10000 4.1 360 02:53 26.11.2019
3507 Clouds 31 1007 66 10000 2.6 320 01:35 26.11.2019
3508 Clouds 30 1008 70 10000 2.1 320 00:53 26.11.2019
3509 Clouds 30 1008 70 10000 2.1 320 00:33 26.11.2019
3510 Clouds 30 1008 70 10000 2.1 320 23:56 25.11.2019
3511 Clouds 30 1008 70 10000 1 290 23:37 25.11.2019
3512 Clouds 28 1007 78 10000 0.76 78 23:18 25.11.2019
3513 Clouds 28 1007 78 10000 0.76 78 22:39 25.11.2019
3514 Clouds 28 1007 78 10000 0.76 78 22:39 25.11.2019
3515 Clouds 28 1007 78 10000 0.76 78 22:19 25.11.2019
3516 Clouds 25 1006 88 10000 2.1 180 21:59 25.11.2019
3517 Clouds 25 1006 88 10000 2.1 180 21:40 25.11.2019
3518 Clouds 25 1006 88 10000 2.1 180 21:21 25.11.2019
3519 Clouds 24 1006 94 10000 1.5 200 20:57 25.11.2019
3520 Clouds 24 1006 94 10000 1.5 200 20:39 25.11.2019
3521 Clouds 24 1006 94 10000 1.5 200 20:19 25.11.2019
3522 Clouds 24 1005 94 10000 1.18 174 19:56 25.11.2019
3523 Clouds 24 1005 94 10000 1.18 174 19:37 25.11.2019
3524 Clouds 24 1005 94 10000 1.18 174 19:37 25.11.2019
3525 Clouds 24 1005 94 10000 1.18 174 19:18 25.11.2019
3526 Clouds 24 1005 94 10000 1.18 174 18:57 25.11.2019
3527 Clouds 23 1005 100 10000 1 140 18:38 25.11.2019
3528 Clouds 23 1005 100 10000 1 140 18:38 25.11.2019
3529 Clouds 23 1005 100 10000 1 140 18:20 25.11.2019
3530 Clouds 23 1005 100 10000 1 140 17:57 25.11.2019
3531 Clouds 24 1005 94 10000 1.18 174 17:38 25.11.2019
3532 Clouds 24 1005 94 10000 1 90 17:19 25.11.2019
3533 Clouds 24 1005 94 10000 1 90 16:56 25.11.2019
3534 Clouds 24 1005 94 10000 1 90 16:37 25.11.2019
3535 Clouds 24 1005 94 10000 1 90 16:19 25.11.2019
3536 Clouds 25 1006 94 10000 1 160 15:42 25.11.2019
3537 Clouds 25 1006 94 10000 1 160 15:21 25.11.2019
3538 Clouds 25 1007 94 10000 1 200 14:59 25.11.2019
3539 Clouds 25 1007 94 10000 1 200 14:40 25.11.2019
3540 Clouds 25 1007 94 10000 1 200 14:40 25.11.2019
3541 Clouds 25 1007 94 10000 1 200 14:22 25.11.2019
3542 Clouds 25 1007 94 10000 2.1 90 13:55 25.11.2019
3543 Clouds 25 1007 94 10000 2.1 90 13:36 25.11.2019
3544 Clouds 25 1007 94 10000 2.1 90 13:18 25.11.2019
3545 Clouds 25 1007 94 10000 2.1 90 13:18 25.11.2019
3546 Clouds 25 1007 94 10000 1.5 140 12:41 25.11.2019
3547 Clouds 26 1007 94 10000 1 110 12:22 25.11.2019
3548 Clouds 26 1007 94 10000 1 110 12:22 25.11.2019
3549 Clouds 26 1007 94 10000 1 110 11:59 25.11.2019
3550 Clouds 26 1007 94 10000 1 110 11:39 25.11.2019
3551 Clouds 26 1006 88 10000 1.5 200 11:20 25.11.2019
3552 Clouds 26 1006 88 10000 1.5 200 10:46 25.11.2019
3553 Clouds 26 1006 88 10000 1.5 200 10:27 25.11.2019
3554 Clouds 27 1005 83 10000 1 140 09:59 25.11.2019
3555 Clouds 27 1005 83 10000 1 140 09:40 25.11.2019
3556 Clouds 27 1005 83 10000 1 140 09:22 25.11.2019
3557 Clouds 28 1004 83 10000 1 110 08:41 25.11.2019
3558 Clouds 28 1004 83 10000 1 110 08:22 25.11.2019
3559 Clouds 30 1004 62 10000 2.6 110 07:44 25.11.2019
3560 Clouds 30 1004 62 10000 2.6 110 07:24 25.11.2019
3561 Clouds 30 1003 66 10000 3.1 200 06:50 25.11.2019
3562 Clouds 30 1003 74 10000 3.6 160 06:22 25.11.2019
3563 Clouds 30 1003 74 10000 3.6 160 06:22 25.11.2019
3564 Clouds 30 1003 74 10000 3.6 160 05:40 25.11.2019
3565 Clouds 31 1004 70 10000 4.6 70 04:52 25.11.2019
3566 Clouds 30 1004 70 10000 4.1 20 03:24 25.11.2019
3567 Clouds 30 1005 70 10000 4.1 50 02:28 25.11.2019
3568 Clouds 30 1006 66 10000 3.1 360 01:41 25.11.2019
3569 Clouds 30 1006 66 10000 3.1 360 01:22 25.11.2019
3570 Clouds 30 1006 74 10000 2.6 50 00:24 25.11.2019
3571 Clouds 29 1006 70 10000 1.5 250 00:00 25.11.2019
3572 Clouds 29 1006 70 10000 1.5 250 00:00 25.11.2019
3573 Clouds 29 1006 70 10000 1.5 250 23:41 24.11.2019
3574 Clouds 26 1007 83 10000 1.08 188 23:19 24.11.2019
3575 Clouds 26 1007 83 10000 1.08 188 22:56 24.11.2019
3576 Clouds 26 1007 83 10000 1.08 188 22:37 24.11.2019
3577 Clouds 23 1006 100 10000 1 160 22:18 24.11.2019
3578 Clouds 26 1007 83 10000 1.08 188 22:18 24.11.2019
3579 Clouds 23 1006 100 10000 1 160 21:42 24.11.2019
3580 Clouds 23 1006 100 10000 1 160 21:22 24.11.2019
3581 Clouds 23 1005 100 10000 2.1 160 20:59 24.11.2019
3582 Clouds 23 1005 100 10000 2.1 160 20:59 24.11.2019
3583 Clouds 23 1005 100 10000 2.1 160 20:40 24.11.2019
3584 Clouds 23 1005 100 10000 2.1 160 20:20 24.11.2019
3585 Clouds 23 1004 100 10000 1 160 19:57 24.11.2019
3586 Clouds 23 1004 100 10000 1 160 19:39 24.11.2019
3587 Clouds 22 1005 90 0 1.67 192 19:21 24.11.2019
3588 Clouds 22 1005 90 0 1.67 192 18:59 24.11.2019
3589 Clouds 22 1005 90 0 1.67 192 18:38 24.11.2019
3590 Clouds 23 1004 100 10000 1.67 192 18:20 24.11.2019
3591 Clouds 23 1004 100 10000 1.67 192 17:58 24.11.2019
3592 Clouds 23 1004 100 10000 1.67 192 17:40 24.11.2019
3593 Clouds 23 1005 100 10000 1 140 17:22 24.11.2019
3594 Clouds 23 1005 100 10000 1 140 16:58 24.11.2019
3595 Clouds 23 1005 100 10000 1 140 16:39 24.11.2019
3596 Clouds 23 1005 100 10000 1 140 16:20 24.11.2019
3597 Clouds 24 1005 94 10000 1.78 199 15:45 24.11.2019
3598 Clouds 24 1005 94 10000 1.78 199 15:27 24.11.2019
3599 Clouds 24 1006 94 10000 1 180 14:59 24.11.2019
3600 Clouds 24 1006 94 10000 1 180 14:39 24.11.2019
3601 Clouds 24 1006 94 10000 1 180 14:19 24.11.2019
3602 Clouds 24 1007 100 10000 1.5 110 13:55 24.11.2019
3603 Clouds 24 1007 100 10000 1.5 110 13:36 24.11.2019
3604 Clouds 24 1007 100 10000 1.5 110 13:18 24.11.2019
3605 Clouds 25 1007 94 10000 1.5 70 12:42 24.11.2019
3606 Clouds 25 1006 94 10000 1.5 110 12:20 24.11.2019
3607 Clouds 25 1006 94 10000 1.5 110 11:58 24.11.2019
3608 Clouds 25 1006 94 10000 1.5 110 11:37 24.11.2019
3609 Clouds 26 1005 88 10000 1 200 11:18 24.11.2019
3610 Clouds 26 1005 88 10000 1 200 10:47 24.11.2019
3611 Clouds 26 1005 88 10000 1 200 10:29 24.11.2019
3612 Clouds 26 1005 88 10000 3.1 200 09:58 24.11.2019
3613 Clouds 26 1005 88 10000 3.1 200 09:38 24.11.2019
3614 Clouds 26 1005 88 10000 3.1 200 09:19 24.11.2019
3615 Clouds 27 1004 83 10000 2.6 160 08:45 24.11.2019
3616 Clouds 27 1004 83 10000 2.6 160 08:22 24.11.2019
3617 Clouds 30 1003 70 0 4.1 110 07:58 24.11.2019
3618 Clouds 30 1003 70 0 4.1 110 07:38 24.11.2019
3619 Clouds 29 1003 74 10000 4.1 70 07:19 24.11.2019
3620 Clouds 29 1003 74 10000 4.1 70 06:20 24.11.2019
3621 Clouds 29 1003 74 10000 4.1 70 06:20 24.11.2019
3622 Clouds 29 1003 74 10000 4.1 70 06:20 24.11.2019
3623 Clouds 29 1003 74 10000 4.1 70 06:20 24.11.2019
3624 Clouds 31 1004 66 10000 3.6 20 04:49 24.11.2019
3625 Clouds 30 1004 70 10000 3.6 360 03:38 24.11.2019
3626 Clouds 30 1005 66 10000 4.1 50 02:26 24.11.2019
3627 Clouds 30 1006 70 10000 3.1 340 01:40 24.11.2019
3628 Clouds 30 1006 70 10000 3.1 340 01:21 24.11.2019
3629 Clouds 30 1006 74 10000 3.1 360 00:47 24.11.2019
3630 Clouds 30 1006 74 10000 3.1 360 00:24 24.11.2019
3631 Clouds 30 1007 74 10000 2.6 320 23:46 23.11.2019
3632 Clouds 30 1007 74 10000 2.6 320 23:23 23.11.2019
3633 Clouds 28 1006 74 10000 1 180 22:59 23.11.2019
3634 Clouds 28 1006 74 10000 1 180 22:40 23.11.2019
3635 Clouds 28 1006 74 10000 1 180 22:22 23.11.2019
3636 Clouds 25 1005 88 10000 1.5 160 21:59 23.11.2019
3637 Clouds 25 1005 88 10000 1.5 160 21:40 23.11.2019
3638 Clouds 25 1005 88 10000 1.5 160 21:22 23.11.2019
3639 Clouds 23 1005 94 10000 1.5 180 20:55 23.11.2019
3640 Clouds 23 1005 94 10000 1.5 180 20:36 23.11.2019
3641 Clouds 23 1005 94 10000 1.5 180 20:18 23.11.2019
3642 Clouds 23 1004 94 10000 1.62 179 19:54 23.11.2019
3643 Clouds 23 1004 94 10000 1.62 179 19:36 23.11.2019
3644 Clouds 23 1004 100 10000 1.5 180 19:18 23.11.2019
3645 Clouds 23 1004 100 10000 1.5 180 18:39 23.11.2019
3646 Clouds 23 1004 100 10000 1.5 180 18:20 23.11.2019
3647 Clouds 23 1005 100 10000 1.62 179 17:54 23.11.2019
3648 Clouds 23 1005 100 10000 1.62 179 17:54 23.11.2019
3649 Clouds 23 1005 100 10000 1.62 179 17:36 23.11.2019
3650 Clouds 24 1005 94 10000 1.84 182 17:18 23.11.2019
3651 Clouds 24 1005 94 10000 1.84 182 16:54 23.11.2019
3652 Clouds 24 1005 94 10000 1.84 182 16:36 23.11.2019
3653 Clouds 24 1005 94 10000 1.84 182 16:18 23.11.2019
3654 Clouds 22 1005 88 0 1.84 182 15:40 23.11.2019
3655 Clouds 25 1007 94 10000 1.84 182 15:19 23.11.2019
3656 Clouds 25 1007 94 10000 1.84 182 15:19 23.11.2019
3657 Clouds 25 1007 94 10000 1.84 182 14:58 23.11.2019
3658 Clouds 22 1005 88 0 1.84 182 14:39 23.11.2019
3659 Clouds 25 1007 94 10000 2.1 140 14:21 23.11.2019
3660 Clouds 25 1007 94 10000 2.1 140 13:54 23.11.2019
3661 Clouds 25 1007 94 10000 2.1 140 13:54 23.11.2019
3662 Clouds 25 1007 94 10000 2.1 140 13:36 23.11.2019
3663 Clouds 25 1007 94 10000 2.1 140 13:18 23.11.2019
3664 Clouds 25 1007 100 10000 1.92 196 12:42 23.11.2019
3665 Clouds 25 1007 100 10000 1.92 196 12:24 23.11.2019
3666 Clouds 26 1007 94 10000 1.92 196 11:45 23.11.2019
3667 -273 0 0 0 0 0 11:23 23.11.2019
3668 Clouds 26 1006 94 10000 1.3 184 10:46 23.11.2019
3669 Clouds 26 1006 94 10000 1.3 184 10:23 23.11.2019
3670 Clouds 26 1006 88 10000 1.3 184 09:58 23.11.2019
3671 Clouds 26 1006 88 10000 1.3 184 09:39 23.11.2019
3672 Clouds 26 1006 88 10000 1.3 184 09:18 23.11.2019
3673 Clouds 28 1005 78 10000 1.5 70 08:41 23.11.2019
3674 Clouds 28 1005 78 10000 1.5 70 08:18 23.11.2019
3675 Clouds 29 1004 74 10000 2.6 50 07:41 23.11.2019
3676 Clouds 29 1003 83 10000 2.6 20 06:52 23.11.2019
3677 Clouds 29 1003 83 10000 2.6 20 06:26 23.11.2019
3678 Clouds 29 1004 83 10000 1.5 180 05:57 23.11.2019
3679 Clouds 29 1004 83 10000 1.5 180 05:31 23.11.2019
3680 Clouds 29 1004 83 10000 2.1 200 04:54 23.11.2019
3681 Clouds 29 1005 83 10000 1.5 160 04:32 23.11.2019
3682 Clouds 29 1006 74 10000 2.1 110 03:25 23.11.2019
3683 Clouds 27 1007 83 10000 0.23 68 02:31 23.11.2019
3684 Drizzle 26 1007 88 10000 3.1 160 01:39 23.11.2019
3685 Rain 25 1008 94 10000 4.1 160 00:45 23.11.2019
3686 Rain 25 1008 94 10000 4.1 160 00:19 23.11.2019
3687 Rain 25 1008 94 10000 2.6 160 23:43 22.11.2019
3688 Clouds 26 1007 88 10000 2.1 180 23:23 22.11.2019
3689 Clouds 26 1007 88 10000 2.1 180 23:00 22.11.2019
3690 Clouds 26 1007 88 10000 2.1 180 23:00 22.11.2019
3691 Clouds 26 1007 88 10000 2.1 180 23:00 22.11.2019
3692 Clouds 26 1007 88 10000 2.1 180 22:41 22.11.2019
3693 Clouds 26 1007 88 10000 2.1 180 22:23 22.11.2019
3694 Clouds 24 1006 100 10000 2.1 160 21:59 22.11.2019
3695 Clouds 24 1006 100 10000 2.1 160 21:40 22.11.2019
3696 Clouds 24 1006 100 10000 2.1 160 21:20 22.11.2019
3697 Clouds 24 1006 100 10000 2.1 160 20:44 22.11.2019
3698 Clouds 24 1006 100 10000 2.1 160 20:22 22.11.2019
3699 Drizzle 24 1005 100 10000 2.6 160 19:58 22.11.2019
3700 Drizzle 24 1005 100 10000 2.6 160 19:39 22.11.2019
3701 Drizzle 24 1005 100 10000 2.6 160 19:19 22.11.2019
3702 Drizzle 24 1005 100 10000 2.1 200 18:58 22.11.2019
3703 Clouds 22 1005 91 0 2.03 190 18:36 22.11.2019
3704 Clouds 24 1005 100 10000 1.5 140 18:18 22.11.2019
3705 Clouds 24 1005 100 10000 1.5 140 18:18 22.11.2019
3706 Clouds 24 1005 100 10000 1.5 140 18:18 22.11.2019
3707 Clouds 24 1005 100 10000 1.5 140 17:40 22.11.2019
3708 Clouds 24 1005 100 10000 1.5 140 17:22 22.11.2019
3709 Clouds 24 1005 100 10000 1.89 190 16:48 22.11.2019
3710 Clouds 24 1005 100 10000 1.89 190 16:29 22.11.2019
3711 Clouds 24 1005 100 10000 1 160 15:47 22.11.2019
3712 Clouds 24 1005 100 10000 1 160 15:25 22.11.2019
3713 Clouds 22 1005 90 0 1.89 190 14:58 22.11.2019
3714 Clouds 22 1005 90 0 1.89 190 14:39 22.11.2019
3715 Rain 23 1007 92 0 1.78 188 14:21 22.11.2019
3716 Rain 23 1007 92 0 1.78 188 13:59 22.11.2019
3717 Rain 23 1007 92 0 1.78 188 13:37 22.11.2019
3718 Clouds 25 1007 100 10000 1.81 181 13:19 22.11.2019
3719 Clouds 25 1007 100 10000 1.81 181 12:57 22.11.2019
3720 Clouds 25 1007 100 10000 1.81 181 12:39 22.11.2019
3721 Clouds 25 1007 100 10000 1.81 181 12:19 22.11.2019
3722 Clouds 25 1007 100 10000 1.81 181 11:55 22.11.2019
3723 Clouds 25 1007 100 10000 1.81 181 11:36 22.11.2019
3724 Clouds 25 1007 100 10000 1.29 181 11:18 22.11.2019
3725 Clouds 25 1007 100 10000 1.29 181 10:40 22.11.2019
3726 Clouds 25 1007 100 10000 1.29 181 10:22 22.11.2019
3727 Rain 23 1007 91 0 1.29 181 09:58 22.11.2019
3728 Rain 23 1007 91 0 1.29 181 09:39 22.11.2019
3729 Rain 23 1007 91 0 1.29 181 09:21 22.11.2019
3730 Rain 23 1007 91 0 1.29 181 08:47 22.11.2019
3731 Rain 23 1007 91 0 1.29 181 08:27 22.11.2019
3732 Rain 26 1005 86 0 0.55 107 07:55 22.11.2019
3733 Rain 26 1005 86 0 0.55 107 07:37 22.11.2019
3734 Rain 26 1004 94 10000 1 20 07:18 22.11.2019
3735 Rain 26 1004 94 10000 1 20 06:40 22.11.2019
3736 Clouds 26 1004 100 0 3.1 70 05:54 22.11.2019
3737 Drizzle 27 1004 94 10000 2.1 200 04:51 22.11.2019
3738 Clouds 30 1006 79 10000 5.1 290 02:55 22.11.2019
3739 Clouds 30 1006 79 10000 5.1 290 02:32 22.11.2019
3740 Clouds 30 1006 74 10000 3.1 270 01:45 22.11.2019
3741 Clouds 30 1006 74 10000 3.1 270 01:20 22.11.2019
3742 Clouds 28 1007 83 10000 1.5 270 00:53 22.11.2019
3743 Clouds 28 1007 83 10000 1.5 270 00:24 22.11.2019
3744 Clouds 28 1007 88 10000 1 270 23:49 21.11.2019
3745 Clouds 28 1007 88 10000 1 270 23:31 21.11.2019
3746 Clouds 27 1006 88 10000 3.1 270 22:59 21.11.2019
3747 Clouds 27 1006 88 10000 3.1 270 22:40 21.11.2019
3748 Clouds 27 1006 88 10000 3.1 270 22:22 21.11.2019
3749 Clouds 25 1005 100 10000 1.5 250 21:57 21.11.2019
3750 Clouds 25 1005 100 10000 1.5 250 21:38 21.11.2019
3751 Clouds 25 1005 100 10000 1.5 250 21:19 21.11.2019
3752 Clouds 24 1005 100 10000 3.1 200 20:58 21.11.2019
3753 Clouds 24 1005 100 10000 3.1 200 20:39 21.11.2019
3754 Clouds 24 1005 100 10000 3.1 200 20:19 21.11.2019
3755 Drizzle 24 1004 100 10000 1.29 167 19:59 21.11.2019
3756 Drizzle 24 1004 100 10000 1.29 167 19:59 21.11.2019
3757 Drizzle 24 1004 100 10000 1.29 167 19:59 21.11.2019
3758 Drizzle 24 1004 100 10000 1.29 167 19:40 21.11.2019
3759 Drizzle 24 1004 100 10000 1.29 167 19:21 21.11.2019
3760 Rain 24 1004 100 10000 3.1 250 18:57 21.11.2019
3761 Rain 24 1004 100 10000 3.1 250 18:37 21.11.2019
3762 Rain 24 1004 100 10000 3.1 250 18:19 21.11.2019
3763 Rain 24 1005 94 10000 2.1 200 17:57 21.11.2019
3764 Rain 24 1005 94 10000 2.1 200 17:38 21.11.2019
3765 Rain 24 1005 94 10000 2.1 200 17:19 21.11.2019
3766 Rain 23 1005 91 0 1.27 173 16:41 21.11.2019
3767 Rain 24 1006 100 10000 1.27 173 16:21 21.11.2019
3768 Rain 24 1006 100 10000 1.27 173 15:57 21.11.2019
3769 Rain 24 1006 100 10000 1.27 173 15:38 21.11.2019
3770 Rain 24 1006 100 10000 1.27 173 15:19 21.11.2019
3771 Rain 25 1007 100 10000 1 110 14:55 21.11.2019
3772 Rain 25 1007 100 10000 1 110 14:36 21.11.2019
3773 Rain 25 1007 100 10000 1 110 14:18 21.11.2019
3774 Rain 25 1007 100 10000 2.1 200 13:39 21.11.2019
3775 Rain 25 1007 100 10000 2.1 200 13:19 21.11.2019
3776 Rain 25 1007 100 10000 2.1 200 12:56 21.11.2019
3777 Rain 25 1007 100 10000 2.1 200 12:37 21.11.2019
3778 Rain 25 1007 100 10000 2.1 200 12:19 21.11.2019
3779 Clouds 25 1007 94 10000 2.6 110 11:41 21.11.2019
3780 Clouds 25 1007 94 10000 2.6 110 11:21 21.11.2019
3781 Clouds 25 1006 94 10000 1.21 131 10:57 21.11.2019
3782 Clouds 25 1006 94 10000 1.21 131 10:39 21.11.2019
3783 Clouds 25 1006 94 10000 1.21 131 10:20 21.11.2019
3784 Clouds 25 1006 100 10000 1.21 131 09:43 21.11.2019
3785 Clouds 25 1006 100 10000 1.21 131 09:24 21.11.2019
3786 Clouds 26 1006 94 10000 1.21 131 08:59 21.11.2019
3787 Clouds 26 1006 94 10000 1.21 131 08:40 21.11.2019
3788 Clouds 26 1006 94 10000 1.21 131 08:40 21.11.2019
3789 Clouds 26 1006 94 10000 0.93 107 08:18 21.11.2019
3790 Clouds 25 1005 94 10000 3.1 140 07:40 21.11.2019
3791 Clouds 25 1005 94 10000 3.1 140 07:18 21.11.2019
3792 Thunderstorm 25 1005 100 10000 1.5 180 06:47 21.11.2019
3793 Clouds 25 1005 100 10000 3.1 180 06:28 21.11.2019
3794 Clouds 26 1005 94 0 3.1 180 05:27 21.11.2019
3795 Clouds 29 1005 79 10000 3.1 360 03:31 21.11.2019
3796 Clouds 29 1006 74 10000 3.1 360 02:40 21.11.2019
3797 Clouds 30 1007 70 10000 3.1 50 01:52 21.11.2019
3798 Clouds 30 1007 70 10000 3.1 50 01:23 21.11.2019
3799 Clouds 30 1007 74 10000 2.04 7 00:47 21.11.2019
3800 Clouds 30 1007 74 10000 2.04 7 00:20 21.11.2019
3801 Clouds 30 1007 74 10000 2.04 7 00:20 21.11.2019
3802 Clouds 28 1007 83 10000 1.5 140 23:51 20.11.2019
3803 Clouds 28 1007 83 10000 1.5 140 23:23 20.11.2019
3804 Clouds 27 1007 83 10000 1.5 230 22:58 20.11.2019
3805 Clouds 27 1007 83 10000 1.5 230 22:40 20.11.2019
3806 Clouds 27 1007 83 10000 1.5 230 22:20 20.11.2019
3807 Clouds 24 1007 100 10000 1 160 21:59 20.11.2019
3808 Clouds 24 1007 100 10000 1 160 21:40 20.11.2019
3809 Clouds 24 1007 100 10000 1 160 21:22 20.11.2019
3810 Clouds 22 1007 100 10000 0.44 146 20:58 20.11.2019
3811 Clouds 22 1007 100 10000 0.44 146 20:40 20.11.2019
3812 Clouds 22 1007 100 10000 0.9 179 20:21 20.11.2019
3813 Clouds 22 1006 100 10000 0.9 179 19:57 20.11.2019
3814 Clouds 22 1006 100 10000 0.9 179 19:37 20.11.2019
3815 Clouds 22 1006 100 10000 0.9 179 19:19 20.11.2019
3816 Clouds 22 1006 100 10000 0.9 179 18:59 20.11.2019
3817 Clouds 22 1006 100 10000 0.9 179 18:39 20.11.2019
3818 Clouds 22 1006 100 10000 0.9 179 18:21 20.11.2019
3819 Clouds 23 1006 100 10000 0.9 179 17:56 20.11.2019
3820 Clouds 23 1006 100 10000 0.9 179 17:38 20.11.2019
3821 Clouds 23 1006 100 10000 0.9 179 17:38 20.11.2019
3822 Clouds 23 1006 100 10000 1.05 197 17:20 20.11.2019
3823 Clouds 23 1006 100 10000 1.05 197 16:56 20.11.2019
3824 Clouds 23 1006 100 10000 1.05 197 16:37 20.11.2019
3825 Clouds 23 1006 100 10000 1.05 197 16:18 20.11.2019
3826 Clouds 23 1007 100 10000 1.05 197 15:41 20.11.2019
3827 Clouds 23 1007 100 10000 1.05 197 15:41 20.11.2019
3828 Clouds 23 1007 100 10000 1.05 197 15:22 20.11.2019
3829 Clouds 23 1007 100 10000 1 110 14:59 20.11.2019
3830 Clouds 23 1007 100 10000 1 110 14:40 20.11.2019
3831 Clouds 23 1007 100 10000 1 110 14:21 20.11.2019
3832 Clouds 24 1008 94 10000 1 110 13:57 20.11.2019
3833 Clouds 24 1008 94 10000 1 110 13:39 20.11.2019
3834 Clouds 24 1008 94 10000 1 110 13:19 20.11.2019
3835 Clouds 24 1008 94 10000 1 110 13:19 20.11.2019
3836 Clouds 24 1008 100 10000 1.32 180 12:43 20.11.2019
3837 Clouds 24 1008 100 10000 1.32 180 12:43 20.11.2019
3838 Clouds 24 1008 100 10000 1.32 180 12:24 20.11.2019
3839 Clouds 24 1007 100 10000 1 140 11:58 20.11.2019
3840 Clouds 24 1007 100 10000 1 140 11:38 20.11.2019
3841 Clouds 24 1007 100 10000 1 140 11:20 20.11.2019
3842 Clouds 25 1007 94 10000 2.1 110 10:55 20.11.2019
3843 Clouds 25 1007 94 10000 2.1 110 10:37 20.11.2019
3844 Clouds 25 1007 94 10000 2.1 110 10:18 20.11.2019
3845 Drizzle 25 1007 94 10000 1.5 140 09:42 20.11.2019
3846 Drizzle 25 1007 94 10000 1.5 140 09:21 20.11.2019
3847 Clouds 25 1006 94 10000 2.1 140 08:54 20.11.2019
3848 Clouds 25 1006 94 10000 2.1 140 08:36 20.11.2019
3849 Clouds 25 1006 94 10000 2.1 140 08:18 20.11.2019
3850 Drizzle 25 1006 94 10000 4.1 180 07:40 20.11.2019
3851 Drizzle 25 1006 94 10000 4.1 180 07:21 20.11.2019
3852 Clouds 24 1006 100 0 3.1 200 06:46 20.11.2019
3853 Clouds 25 1005 94 0 4.1 180 06:20 20.11.2019
3854 Clouds 30 1005 79 10000 2.1 50 04:51 20.11.2019
3855 Clouds 30 1006 74 10000 4.1 20 02:48 20.11.2019
3856 Clouds 30 1007 74 10000 3.1 20 01:52 20.11.2019
3857 Clouds 30 1007 74 10000 3.1 20 01:20 20.11.2019
3858 Clouds 30 1008 74 10000 2.6 50 00:35 20.11.2019
3859 Clouds 30 1008 70 10000 3.1 140 23:43 19.11.2019
3860 Clouds 30 1008 70 10000 3.1 140 23:24 19.11.2019
3861 Clouds 28 1008 78 10000 0.85 139 22:57 19.11.2019
3862 Clouds 28 1008 78 10000 0.85 139 22:38 19.11.2019
3863 Clouds 28 1008 78 10000 0.85 139 22:18 19.11.2019
3864 Clouds 24 1007 94 10000 0.85 139 21:55 19.11.2019
3865 Clouds 24 1007 94 10000 0.85 139 21:37 19.11.2019
3866 Clouds 24 1007 94 10000 0.85 139 21:18 19.11.2019
3867 Clouds 22 1006 100 10000 0.85 139 20:55 19.11.2019
3868 Clouds 22 1006 100 10000 0.85 139 20:36 19.11.2019
3869 Clouds 22 1006 100 10000 0.85 139 20:36 19.11.2019
3870 Clouds 22 1006 100 10000 1.04 194 20:18 19.11.2019
3871 Clouds 22 1006 100 10000 1 180 19:42 19.11.2019
3872 Clouds 22 1006 100 10000 1 180 19:20 19.11.2019
3873 Clouds 23 1005 94 10000 1 200 18:58 19.11.2019
3874 Clouds 23 1005 94 10000 1 200 18:40 19.11.2019
3875 Clouds 23 1005 94 10000 1 200 18:21 19.11.2019
3876 Clouds 23 1006 100 10000 1 200 17:58 19.11.2019
3877 Clouds 23 1006 100 10000 1 200 17:40 19.11.2019
3878 Clouds 23 1006 100 10000 1 200 17:20 19.11.2019
3879 Rain 23 1006 100 10000 1 140 16:59 19.11.2019
3880 Rain 23 1006 100 10000 1 140 16:39 19.11.2019
3881 Rain 23 1006 100 10000 1 140 16:19 19.11.2019
3882 Clouds 23 1007 100 10000 1 110 15:47 19.11.2019
3883 Clouds 23 1007 100 10000 1 110 15:26 19.11.2019
3884 Clouds 23 1007 100 10000 1 110 15:26 19.11.2019
3885 Clouds 24 1008 94 10000 1 180 14:58 19.11.2019
3886 Clouds 24 1008 94 10000 1 180 14:39 19.11.2019
3887 Clouds 24 1008 94 10000 1 180 14:20 19.11.2019
3888 Clouds 24 1009 94 10000 1 180 13:42 19.11.2019
3889 Clouds 24 1009 94 10000 1 180 13:21 19.11.2019
3890 Clouds 24 1009 94 10000 1.5 110 12:54 19.11.2019
3891 Clouds 24 1009 94 10000 1.5 110 12:36 19.11.2019
3892 Clouds 24 1009 94 10000 1.5 110 12:18 19.11.2019
3893 Clouds 24 1009 94 10000 2.1 140 11:54 19.11.2019
3894 Clouds 24 1009 94 10000 2.1 140 11:36 19.11.2019
3895 Clouds 24 1009 94 10000 2.1 140 11:18 19.11.2019
3896 Clouds 24 1008 94 10000 1.5 110 10:42 19.11.2019
3897 Clouds 24 1008 94 10000 1.5 110 10:20 19.11.2019
3898 Clouds 24 1008 94 10000 1.5 110 10:20 19.11.2019
3899 Clouds 24 1008 94 10000 2.6 230 09:43 19.11.2019
3900 Clouds 24 1008 94 10000 2.6 230 09:21 19.11.2019
3901 Clouds 24 1007 94 10000 3.6 200 08:57 19.11.2019
3902 Rain 23 1008 90 0 0.69 181 08:38 19.11.2019
3903 Thunderstorm 29 1006 79 10000 4.6 180 08:20 19.11.2019
3904 Thunderstorm 29 1006 79 10000 4.6 180 07:42 19.11.2019
3905 Thunderstorm 29 1006 79 10000 4.6 180 07:23 19.11.2019
3906 Thunderstorm 29 1006 79 10000 1.5 320 06:55 19.11.2019
3907 Clouds 30 1005 70 10000 2.6 320 06:36 19.11.2019
3908 Clouds 30 1005 70 10000 3.1 360 05:51 19.11.2019
3909 Clouds 30 1005 70 10000 2.6 50 04:48 19.11.2019
3910 Clouds 30 1006 70 10000 2.6 360 03:35 19.11.2019
3911 Clouds 31 1007 70 10000 3.1 20 02:59 19.11.2019
3912 Clouds 31 1007 70 10000 3.1 20 02:33 19.11.2019
3913 Clouds 31 1008 66 10000 3.1 20 01:46 19.11.2019
3914 Clouds 30 1009 70 10000 2.6 20 00:37 19.11.2019
3915 Clouds 30 1009 70 10000 2.6 20 00:19 19.11.2019
3916 Clouds 29 1009 74 10000 1.43 15 23:37 18.11.2019
3917 Clouds 29 1009 74 10000 0.21 122 23:19 18.11.2019
3918 Clouds 27 1010 83 10000 2.1 200 22:46 18.11.2019
3919 Clouds 27 1010 83 10000 2.1 200 22:24 18.11.2019
3920 Clouds 24 1009 94 10000 1 180 21:57 18.11.2019
3921 Clouds 26 1009 80 0 0.21 122 21:38 18.11.2019
3922 Clouds 23 1008 94 10000 1.5 200 21:20 18.11.2019
3923 Clouds 23 1008 94 10000 1.5 200 20:57 18.11.2019
3924 Clouds 23 1008 94 10000 1.5 200 20:38 18.11.2019
3925 Clouds 23 1008 94 10000 1.5 200 20:38 18.11.2019
3926 Clouds 23 1008 94 10000 1.5 200 20:18 18.11.2019
3927 Clouds 23 1008 94 10000 2.1 160 19:56 18.11.2019
3928 Clouds 22 1007 89 0 1.5 153 19:37 18.11.2019
3929 Clouds 24 1008 94 10000 1.5 153 19:18 18.11.2019
3930 Clouds 24 1008 94 10000 1.5 153 18:55 18.11.2019
3931 Clouds 24 1008 94 10000 1.5 153 18:37 18.11.2019
3932 Clouds 24 1008 94 10000 1.5 153 18:18 18.11.2019
3933 Clouds 24 1007 94 10000 1.5 180 17:39 18.11.2019
3934 Clouds 24 1007 94 10000 1.5 180 17:20 18.11.2019
3935 Clouds 24 1007 100 10000 0.9 123 16:57 18.11.2019
3936 Rain 23 1007 90 0 0.9 123 16:38 18.11.2019
3937 Clouds 24 1008 100 10000 2.1 140 16:19 18.11.2019
3938 Clouds 24 1008 100 10000 2.1 140 15:56 18.11.2019
3939 Clouds 24 1008 100 10000 2.1 140 15:56 18.11.2019
3940 Clouds 24 1008 100 10000 2.1 140 15:37 18.11.2019
3941 Clouds 24 1008 100 10000 2.1 140 15:37 18.11.2019
3942 Clouds 24 1008 100 10000 2.1 140 15:18 18.11.2019
3943 Clouds 24 1008 100 10000 2.1 180 14:42 18.11.2019
3944 Clouds 24 1008 100 10000 2.1 180 14:23 18.11.2019
3945 Clouds 25 1010 94 10000 1.5 160 13:55 18.11.2019
3946 Clouds 25 1010 94 10000 1.5 160 13:54 18.11.2019
3947 Clouds 25 1010 94 10000 1.5 160 13:36 18.11.2019
3948 Clouds 25 1010 94 10000 1.5 160 13:18 18.11.2019
3949 Clouds 25 1010 100 10000 0.8 187 12:38 18.11.2019
3950 Clouds 25 1010 100 10000 0.8 187 12:19 18.11.2019
3951 Clouds 25 1010 100 10000 0.8 187 11:44 18.11.2019
3952 Clouds 25 1010 100 10000 0.8 187 11:25 18.11.2019
3953 Clouds 26 1009 94 10000 1 324 10:56 18.11.2019
3954 Clouds 26 1009 94 10000 1 324 10:56 18.11.2019
3955 Clouds 26 1009 94 10000 1 324 10:38 18.11.2019
3956 Clouds 26 1009 94 10000 1 324 10:18 18.11.2019
3957 Clouds 26 1009 94 10000 1 324 09:55 18.11.2019
3958 Rain 22 1010 97 0 1 324 09:36 18.11.2019
3959 Clouds 26 1009 94 10000 1 324 09:18 18.11.2019
3960 Clouds 26 1009 94 10000 1 324 08:43 18.11.2019
3961 Clouds 26 1009 94 10000 2.32 354 08:20 18.11.2019
3962 Drizzle 27 1009 88 10000 2.32 354 07:47 18.11.2019
3963 Drizzle 27 1009 88 10000 2.32 354 07:27 18.11.2019
3964 Clouds 27 1009 88 10000 1.5 90 06:53 18.11.2019
3965 Clouds 27 1009 88 10000 1.5 90 06:32 18.11.2019
3966 Drizzle 27 1009 83 10000 2.1 320 05:47 18.11.2019
3967 Drizzle 26 1010 94 10000 3.1 250 04:39 18.11.2019
3968 Clouds 27 1011 94 10000 1.5 290 01:49 18.11.2019
3969 Clouds 27 1011 94 10000 1.5 290 01:31 18.11.2019
3970 Clouds 29 1010 79 10000 1.9 22 00:22 18.11.2019
3971 Clouds 30 1010 74 10000 3.1 90 23:43 17.11.2019
3972 Clouds 30 1010 74 10000 3.1 90 23:24 17.11.2019
3973 Clouds 29 1010 79 10000 1 110 22:58 17.11.2019
3974 Clouds 29 1010 79 10000 1 110 22:39 17.11.2019
3975 Clouds 29 1010 79 10000 1 110 22:21 17.11.2019
3976 Clouds 26 1010 94 10000 1.5 180 21:57 17.11.2019
3977 Clouds 26 1010 94 10000 1.5 180 21:39 17.11.2019
3978 Clouds 26 1010 94 10000 1.5 180 21:39 17.11.2019
3979 Clouds 26 1010 94 10000 1.5 180 21:18 17.11.2019
3980 Clouds 24 1009 100 10000 1 140 20:55 17.11.2019
3981 Clouds 24 1009 100 10000 1 140 20:37 17.11.2019
3982 Clouds 24 1009 100 10000 1 140 20:18 17.11.2019
3983 Clouds 24 1008 100 10000 2.1 160 19:55 17.11.2019
3984 Clouds 24 1008 100 10000 2.1 160 19:36 17.11.2019
3985 Clouds 24 1008 100 10000 2.1 160 19:18 17.11.2019
3986 Clouds 24 1008 100 10000 1.25 156 18:54 17.11.2019
3987 Clouds 24 1008 100 10000 1.25 156 18:36 17.11.2019
3988 Clouds 24 1008 100 10000 1.25 156 18:18 17.11.2019
3989 Clouds 24 1008 100 10000 1.5 160 17:56 17.11.2019
3990 Clouds 24 1008 100 10000 1.5 160 17:38 17.11.2019
3991 Clouds 24 1008 100 10000 1.5 160 17:18 17.11.2019
3992 Clouds 25 1008 94 10000 1 140 16:42 17.11.2019
3993 Clouds 25 1008 94 10000 1 140 16:22 17.11.2019
3994 Clouds 25 1009 94 10000 1 140 15:57 17.11.2019
3995 Clouds 25 1009 94 10000 1 140 15:39 17.11.2019
3996 Clouds 25 1009 94 10000 1 140 15:19 17.11.2019
3997 Clouds 25 1010 100 10000 1 160 14:57 17.11.2019
3998 Clouds 25 1010 100 10000 1 160 14:39 17.11.2019
3999 Clouds 25 1010 100 10000 1 160 14:39 17.11.2019
4000 Clouds 25 1010 100 10000 1 160 14:20 17.11.2019
4001 Clouds 26 1010 88 10000 1 160 13:58 17.11.2019
4002 Clouds 26 1010 88 10000 1 160 13:40 17.11.2019
4003 Clouds 26 1010 88 10000 1 160 13:19 17.11.2019
4004 Clouds 26 1010 100 10000 1 140 12:45 17.11.2019
4005 Clouds 26 1010 100 10000 1 140 12:23 17.11.2019
4006 Clouds 26 1010 100 10000 1 140 12:23 17.11.2019
4007 Clouds 27 1010 94 10000 1.56 155 11:58 17.11.2019
4008 Clouds 27 1010 94 10000 1.56 155 11:39 17.11.2019
4009 Clouds 27 1010 94 10000 1.07 129 11:20 17.11.2019
4010 Thunderstorm 27 1010 94 10000 2.6 70 10:45 17.11.2019
4011 Clouds 28 1009 88 0 4.1 70 10:24 17.11.2019
4012 Thunderstorm 28 1009 88 10000 1 140 09:58 17.11.2019
4013 Thunderstorm 28 1009 88 10000 1 110 09:40 17.11.2019
4014 Thunderstorm 28 1009 88 10000 1 110 09:22 17.11.2019
4015 Rain 29 1008 79 10000 1.5 90 08:41 17.11.2019
4016 Rain 29 1008 79 10000 1.5 90 08:23 17.11.2019
4017 Rain 30 1007 74 10000 4.1 50 07:56 17.11.2019
4018 Rain 30 1007 74 10000 4.1 50 07:37 17.11.2019
4019 Rain 30 1007 74 10000 4.1 50 07:19 17.11.2019
4020 Clouds 31 1007 70 10000 1.5 70 06:44 17.11.2019
4021 Clouds 31 1007 70 10000 1.5 70 06:25 17.11.2019
4022 Clouds 32 1008 66 10000 3.1 50 04:38 17.11.2019
4023 Clouds 32 1008 66 10000 3.1 50 04:38 17.11.2019
4024 Clouds 32 1008 66 10000 4.1 50 03:51 17.11.2019
4025 Clouds 32 1009 66 10000 3.6 50 03:32 17.11.2019
4026 Clouds 32 1009 66 10000 3.6 50 02:31 17.11.2019
4027 Clouds 32 1010 66 10000 3.1 50 01:42 17.11.2019
4028 Clouds 31 1010 70 10000 3.1 70 00:55 17.11.2019
4029 Clouds 31 1010 70 10000 3.1 70 00:22 17.11.2019
4030 Clouds 31 1010 66 10000 5.1 110 23:48 16.11.2019
4031 Clouds 31 1010 66 10000 5.1 110 23:20 16.11.2019
4032 Clouds 29 1010 74 10000 2.1 160 22:59 16.11.2019
4033 Clouds 29 1010 74 10000 2.1 160 22:40 16.11.2019
4034 Clouds 29 1010 74 10000 2.1 160 22:19 16.11.2019
4035 Clouds 26 1010 88 10000 1.5 140 21:56 16.11.2019
4036 Clouds 26 1010 88 10000 1.5 140 21:37 16.11.2019
4037 Clouds 26 1010 88 10000 1.5 140 21:19 16.11.2019
4038 Clouds 24 1009 94 10000 2.1 160 20:41 16.11.2019
4039 Clouds 24 1009 94 10000 2.1 160 20:21 16.11.2019
4040 Clouds 24 1008 94 10000 1.43 129 19:58 16.11.2019
4041 Clouds 24 1008 94 10000 1.43 129 19:39 16.11.2019
4042 Clouds 24 1008 94 10000 1.43 129 19:20 16.11.2019
4043 Clouds 24 1008 94 10000 1.43 129 18:46 16.11.2019
4044 Clouds 24 1008 94 10000 1.43 129 18:28 16.11.2019
4045 Clouds 24 1007 100 10000 1.43 129 17:56 16.11.2019
4046 Clouds 24 1007 100 10000 1.43 129 17:38 16.11.2019
4047 Clouds 24 1007 100 10000 1.72 120 17:19 16.11.2019
4048 Clouds 24 1008 100 10000 1.5 140 16:48 16.11.2019
4049 Clouds 24 1008 100 10000 1.5 140 16:30 16.11.2019
4050 Clouds 24 1009 100 10000 1 160 15:58 16.11.2019
4051 Clouds 24 1009 100 10000 1 160 15:39 16.11.2019
4052 Clouds 24 1009 100 10000 1 160 15:20 16.11.2019
4053 Clouds 24 1009 100 10000 1 160 15:20 16.11.2019
4054 Clouds 25 1009 94 10000 1 160 14:42 16.11.2019
4055 Clouds 25 1009 94 10000 1 160 14:22 16.11.2019
4056 Clouds 25 1009 94 10000 1 160 14:22 16.11.2019
4057 Clouds 25 1010 100 10000 2.1 160 13:58 16.11.2019
4058 Clouds 25 1010 100 10000 2.1 160 13:39 16.11.2019
4059 Clouds 25 1010 100 10000 2.1 160 13:39 16.11.2019
4060 Clouds 25 1010 100 10000 2.1 160 13:19 16.11.2019
4061 Clouds 26 1011 94 10000 1 140 12:59 16.11.2019
4062 Clouds 26 1011 94 10000 1 140 12:41 16.11.2019
4063 Clouds 26 1011 94 10000 1 140 12:20 16.11.2019
4064 Clouds 26 1011 94 10000 1.5 110 11:46 16.11.2019
4065 Clouds 26 1011 94 10000 1.5 110 11:28 16.11.2019
4066 Clouds 27 1011 88 10000 1.68 103 10:58 16.11.2019
4067 Clouds 27 1011 88 10000 1.68 103 10:40 16.11.2019
4068 Clouds 27 1011 88 10000 1.68 103 10:21 16.11.2019
4069 Clouds 28 1010 83 10000 1.5 160 09:45 16.11.2019
4070 Clouds 28 1010 83 10000 1.5 160 09:22 16.11.2019
4071 Clouds 29 1010 79 10000 2.1 110 08:59 16.11.2019
4072 Clouds 29 1010 79 10000 2.1 110 08:40 16.11.2019
4073 Clouds 29 1010 79 10000 2.1 110 08:19 16.11.2019
4074 Clouds 29 1009 79 10000 3.1 70 07:43 16.11.2019
4075 Clouds 29 1009 79 10000 3.1 70 07:43 16.11.2019
4076 Clouds 29 1009 79 10000 3.1 70 07:21 16.11.2019
4077 Clouds 29 1008 79 10000 2.1 140 06:56 16.11.2019
4078 Clouds 29 1008 79 10000 2.1 140 06:34 16.11.2019
4079 Rain 30 1008 74 10000 5.1 90 05:42 16.11.2019
4080 Rain 30 1008 79 10000 4.1 50 04:20 16.11.2019
4081 Rain 30 1008 79 10000 4.1 50 04:20 16.11.2019
4082 Clouds 31 1009 70 10000 4.6 360 03:26 16.11.2019
4083 Clouds 31 1009 66 10000 3.1 360 02:21 16.11.2019
4084 Clouds 31 1010 66 10000 2.6 50 01:27 16.11.2019
4085 Clouds 31 1010 70 10000 2.1 50 00:46 16.11.2019
4086 Clouds 31 1010 70 10000 2.1 50 00:27 16.11.2019
4087 Clouds 29 1011 79 10000 1 160 23:40 15.11.2019
4088 Clouds 29 1011 79 10000 1 160 23:21 15.11.2019
4089 Clouds 27 1010 88 10000 1 180 22:57 15.11.2019
4090 Clouds 27 1010 88 10000 1 180 22:38 15.11.2019
4091 Clouds 27 1010 88 10000 1 180 22:18 15.11.2019
4092 Clouds 26 1010 79 0 0.43 159 21:42 15.11.2019
4093 Clouds 24 1009 100 10000 1 160 21:21 15.11.2019
4094 Clouds 24 1009 100 10000 1 160 20:59 15.11.2019
4095 Clouds 24 1009 100 10000 1 160 20:41 15.11.2019
4096 Clouds 24 1009 100 10000 1 160 20:22 15.11.2019
4097 Clouds 24 1009 100 10000 1 160 20:22 15.11.2019
4098 Clouds 24 1009 94 10000 1.5 140 19:59 15.11.2019
4099 Clouds 24 1009 94 10000 1.5 140 19:59 15.11.2019
4100 Clouds 24 1009 94 10000 1.5 140 19:41 15.11.2019
4101 Clouds 24 1009 94 10000 1.5 140 19:21 15.11.2019
4102 Rain 23 1009 90 0 1.4 197 18:59 15.11.2019
4103 Rain 23 1009 90 0 1.4 197 18:41 15.11.2019
4104 Rain 23 1009 90 0 1.4 197 18:41 15.11.2019
4105 Clouds 25 1009 100 10000 1 180 18:22 15.11.2019
4106 Clouds 25 1009 100 10000 1 180 17:54 15.11.2019
4107 Clouds 25 1009 100 10000 1 180 17:36 15.11.2019
4108 Clouds 25 1009 100 10000 1 180 17:18 15.11.2019
4109 Clouds 25 1008 100 10000 0.68 2 16:39 15.11.2019
4110 Clouds 25 1008 100 10000 0.68 2 16:20 15.11.2019
4111 Clouds 25 1009 100 10000 0.68 2 15:39 15.11.2019
4112 Clouds 25 1009 100 10000 0.68 2 15:21 15.11.2019
4113 Clouds 25 1010 100 10000 0.68 2 14:59 15.11.2019
4114 Clouds 25 1010 100 10000 0.68 2 14:40 15.11.2019
4115 Clouds 25 1010 100 10000 0.87 314 14:21 15.11.2019
4116 Clouds 25 1010 100 10000 1 230 13:59 15.11.2019
4117 Clouds 25 1010 100 10000 1 230 13:40 15.11.2019
4118 Clouds 25 1010 100 10000 1 230 13:21 15.11.2019
4119 Clouds 26 1011 100 10000 1.5 270 12:59 15.11.2019
4120 Clouds 26 1011 100 10000 1.5 270 12:41 15.11.2019
4121 Clouds 26 1011 100 10000 1.5 270 12:41 15.11.2019
4122 Clouds 26 1011 100 10000 1.5 270 12:21 15.11.2019
4123 Clouds 26 1011 100 10000 2.6 90 11:59 15.11.2019
4124 Clouds 26 1011 100 10000 2.6 90 11:39 15.11.2019
4125 Clouds 26 1011 100 10000 2.6 90 11:21 15.11.2019
4126 Clouds 27 1009 83 10000 0.52 188 10:57 15.11.2019
4127 Clouds 27 1009 83 10000 0.52 188 10:39 15.11.2019
4128 Clouds 27 1009 83 10000 0.52 188 10:19 15.11.2019
4129 Clouds 29 1009 79 10000 1 160 09:41 15.11.2019
4130 Clouds 29 1009 79 10000 1 160 09:20 15.11.2019
4131 Clouds 29 1008 74 10000 1.5 50 08:45 15.11.2019
4132 Clouds 29 1008 74 10000 1.5 50 08:23 15.11.2019
4133 Clouds 30 1007 70 10000 2.1 50 07:49 15.11.2019
4134 Clouds 30 1007 70 10000 2.1 50 07:28 15.11.2019
4135 Clouds 31 1007 70 10000 2.1 20 06:52 15.11.2019
4136 Thunderstorm 31 1007 70 10000 2.1 20 06:32 15.11.2019
4137 Thunderstorm 31 1006 70 10000 2.1 340 05:48 15.11.2019
4138 Clouds 31 1006 70 10000 3.6 340 05:26 15.11.2019
4139 Clouds 31 1008 70 10000 4.1 50 03:56 15.11.2019
4140 Clouds 31 1008 70 10000 4.1 50 03:24 15.11.2019
4141 Clouds 30 1008 74 10000 4.6 50 02:20 15.11.2019
4142 Clouds 30 1009 74 10000 3.1 50 01:33 15.11.2019
4143 Clouds 30 1009 79 10000 3.1 50 00:54 15.11.2019
4144 Clouds 30 1009 79 10000 3.1 50 00:33 15.11.2019
4145 Clouds 29 1009 79 10000 3.1 110 23:53 14.11.2019
4146 Clouds 29 1009 79 10000 3.1 110 23:29 14.11.2019
4147 Clouds 28 1009 78 10000 1.5 110 22:59 14.11.2019
4148 Clouds 28 1009 78 10000 1.5 110 22:39 14.11.2019
4149 Clouds 28 1009 78 10000 1.5 110 22:21 14.11.2019
4150 Clouds 25 1008 94 10000 1.17 97 21:55 14.11.2019
4151 Clouds 25 1008 94 10000 1.17 97 21:37 14.11.2019
4152 Clouds 25 1008 94 10000 1.17 97 21:18 14.11.2019
4153 Clouds 26 1010 81 0 1.17 97 20:42 14.11.2019
4154 Clouds 23 1008 90 0 0.76 165 20:23 14.11.2019
4155 Clouds 23 1008 90 0 0.76 165 19:58 14.11.2019
4156 Clouds 23 1008 90 0 0.76 165 19:40 14.11.2019
4157 Clouds 23 1008 90 0 0.76 165 19:18 14.11.2019
4158 Clouds 23 1008 90 0 0.76 165 18:54 14.11.2019
4159 Clouds 23 1008 90 0 0.76 165 18:36 14.11.2019
4160 Clouds 24 1007 100 10000 1 180 18:18 14.11.2019
4161 Clouds 24 1007 100 10000 1 180 17:38 14.11.2019
4162 Clouds 24 1007 100 10000 1 180 17:38 14.11.2019
4163 Clouds 25 1008 94 10000 1 140 17:20 14.11.2019
4164 Clouds 25 1008 94 10000 1 140 16:58 14.11.2019
4165 Clouds 25 1008 94 10000 1 140 16:39 14.11.2019
4166 Clouds 25 1008 94 10000 1 140 16:20 14.11.2019
4167 Clouds 25 1009 100 10000 1 230 15:58 14.11.2019
4168 Clouds 25 1009 100 10000 1 230 15:39 14.11.2019
4169 Clouds 25 1009 100 10000 1 230 15:20 14.11.2019
4170 Clouds 25 1009 100 10000 1 230 15:20 14.11.2019
4171 Clouds 25 1010 100 10000 1 230 14:57 14.11.2019
4172 Clouds 25 1010 100 10000 1 230 14:39 14.11.2019
4173 Clouds 25 1010 100 10000 1 230 14:20 14.11.2019
4174 Clouds 26 1010 94 10000 2.6 270 13:42 14.11.2019
4175 Clouds 26 1010 94 10000 2.6 270 13:23 14.11.2019
4176 Thunderstorm 26 1010 94 10000 3.6 250 12:57 14.11.2019
4177 Thunderstorm 26 1010 94 10000 3.6 250 12:39 14.11.2019
4178 Thunderstorm 26 1010 94 10000 3.6 250 12:21 14.11.2019
4179 Thunderstorm 26 1010 94 10000 2.1 200 11:55 14.11.2019
4180 Thunderstorm 26 1010 94 10000 2.1 200 11:37 14.11.2019
4181 Thunderstorm 26 1010 94 10000 2.1 200 11:18 14.11.2019
4182 Clouds 27 1009 94 0 4.6 180 10:56 14.11.2019
4183 Clouds 27 1009 94 0 4.6 180 10:37 14.11.2019
4184 Clouds 27 1009 94 0 4.6 180 10:19 14.11.2019
4185 Clouds 27 1009 94 0 4.6 180 10:19 14.11.2019
4186 Clouds 27 1009 94 0 4.6 180 10:19 14.11.2019
4187 Clouds 29 1009 79 10000 3.1 70 09:42 14.11.2019
4188 Clouds 29 1009 79 10000 3.1 70 09:23 14.11.2019
4189 Clouds 29 1008 79 10000 2.6 50 08:56 14.11.2019
4190 Clouds 29 1008 79 10000 2.6 50 08:38 14.11.2019
4191 Clouds 29 1008 79 10000 2.6 50 08:19 14.11.2019
4192 Clouds 29 1007 79 10000 4.6 70 07:41 14.11.2019
4193 Clouds 29 1007 79 10000 4.6 70 07:22 14.11.2019
4194 Clouds 30 1007 74 10000 3.1 70 06:46 14.11.2019
4195 Clouds 30 1007 74 10000 3.1 70 06:20 14.11.2019
4196 Clouds 30 1007 74 10000 3.1 70 06:20 14.11.2019
4197 Clouds 30 1007 79 10000 4.6 70 05:20 14.11.2019
4198 Rain 27 1008 78 0 1.72 6 04:35 14.11.2019
4199 Clouds 30 1009 74 10000 2.6 90 02:50 14.11.2019
4200 Clouds 30 1009 74 10000 2.6 90 02:29 14.11.2019
4201 Rain 29 1010 68 0 1.62 346 01:40 14.11.2019
4202 Clouds 28 1011 83 10000 1 90 00:55 14.11.2019
4203 Clouds 28 1011 83 10000 1 90 00:36 14.11.2019
4204 Clouds 28 1011 83 10000 1 90 00:18 14.11.2019
4205 Clouds 27 1011 83 10000 1.45 351 23:37 13.11.2019
4206 Clouds 27 1011 83 10000 0.95 140 23:19 13.11.2019
4207 Clouds 26 1010 94 10000 0.95 140 22:41 13.11.2019
4208 Clouds 26 1010 94 10000 0.95 140 22:23 13.11.2019
4209 Clouds 24 1009 100 10000 1.5 200 21:57 13.11.2019
4210 Clouds 24 1009 100 10000 1.5 200 21:39 13.11.2019
4211 Clouds 24 1009 100 10000 1.5 200 21:20 13.11.2019
4212 Rain 24 1009 100 10000 2.6 110 20:58 13.11.2019
4213 Rain 24 1009 100 10000 2.6 110 20:58 13.11.2019
4214 Rain 24 1009 100 10000 2.6 110 20:38 13.11.2019
4215 Rain 24 1009 100 10000 2.6 110 20:19 13.11.2019
4216 Rain 24 1009 94 10000 1.48 190 19:58 13.11.2019
4217 Rain 24 1009 94 10000 1.48 190 19:40 13.11.2019
4218 Rain 24 1009 94 10000 1.48 190 19:18 13.11.2019
4219 Clouds 24 1009 100 10000 3.1 90 18:55 13.11.2019
4220 Clouds 24 1009 100 10000 3.1 90 18:36 13.11.2019
4221 Clouds 24 1009 100 10000 3.1 90 18:18 13.11.2019
4222 Clouds 24 1009 100 10000 3.1 90 18:18 13.11.2019
4223 Rain 24 1009 100 10000 2.1 180 17:55 13.11.2019
4224 Rain 24 1009 100 10000 2.1 180 17:36 13.11.2019
4225 Rain 24 1009 100 10000 2.1 180 17:18 13.11.2019
4226 Thunderstorm 24 1009 100 0 2.1 290 16:41 13.11.2019
4227 Thunderstorm 24 1009 100 0 2.1 290 16:41 13.11.2019
4228 Thunderstorm 24 1009 100 0 2.1 290 16:22 13.11.2019
4229 Clouds 24 1010 100 0 6.2 340 15:59 13.11.2019
4230 Clouds 24 1010 100 0 6.2 340 15:41 13.11.2019
4231 Clouds 24 1010 100 0 6.2 340 15:23 13.11.2019
4232 Clouds 24 1010 100 10000 1.13 193 14:59 13.11.2019
4233 Clouds 24 1010 100 10000 1.21 253 14:59 13.11.2019
4234 Clouds 24 1010 100 10000 1.13 193 14:37 13.11.2019
4235 Clouds 24 1010 100 10000 0.37 249 14:19 13.11.2019
4236 Clouds 25 1011 94 10000 0.83 178 13:38 13.11.2019
4237 Clouds 25 1011 100 10000 0.83 178 13:19 13.11.2019
4238 Clouds 25 1011 100 10000 0.83 178 12:58 13.11.2019
4239 Clouds 25 1011 100 10000 0.83 178 12:38 13.11.2019
4240 Clouds 25 1011 100 10000 0.83 178 12:20 13.11.2019
4241 Clouds 25 1011 100 10000 0.83 178 12:20 13.11.2019
4242 Clouds 25 1011 100 10000 2.1 180 11:41 13.11.2019
4243 Clouds 25 1011 100 10000 2.1 180 11:22 13.11.2019
4244 Clouds 26 1010 94 10000 0.67 166 10:59 13.11.2019
4245 Clouds 26 1010 94 10000 0.67 166 10:41 13.11.2019
4246 Clouds 26 1010 94 10000 0.67 166 10:21 13.11.2019
4247 Clouds 27 1009 88 10000 1.5 160 09:59 13.11.2019
4248 Clouds 27 1009 88 10000 1.5 160 09:39 13.11.2019
4249 Clouds 27 1009 88 10000 1.5 160 09:20 13.11.2019
4250 Clouds 28 1009 83 10000 1 180 08:40 13.11.2019
4251 Clouds 28 1009 83 10000 1 180 08:21 13.11.2019
4252 Clouds 28 1009 83 10000 1.02 34 07:43 13.11.2019
4253 Clouds 28 1009 83 10000 1.02 34 07:22 13.11.2019
4254 Clouds 28 1008 88 10000 1 20 06:47 13.11.2019
4255 Clouds 28 1008 88 10000 1 20 06:19 13.11.2019
4256 Clouds 28 1008 88 10000 1 20 06:19 13.11.2019
4257 Clouds 28 1008 88 10000 1 20 06:19 13.11.2019
4258 Clouds 28 1008 88 10000 1 20 06:19 13.11.2019
4259 Clouds 27 1008 94 10000 2.1 50 05:57 13.11.2019
4260 Clouds 27 1008 94 10000 2.1 50 05:38 13.11.2019
4261 Clouds 30 1009 70 10000 2.6 20 04:44 13.11.2019
4262 Clouds 31 1010 70 10000 3.6 20 02:28 13.11.2019
4263 Clouds 31 1010 70 10000 2.1 340 01:46 13.11.2019
4264 Clouds 28 1011 88 10000 1.5 180 00:57 13.11.2019
4265 Clouds 28 1011 88 10000 1.5 180 00:36 13.11.2019
4266 Drizzle 25 1011 100 10000 1.5 180 23:42 12.11.2019
4267 Drizzle 25 1011 100 10000 1.5 180 23:22 12.11.2019
4268 Clouds 25 1011 94 10000 3.1 200 22:58 12.11.2019
4269 Clouds 25 1011 94 10000 3.1 200 22:40 12.11.2019
4270 Clouds 25 1011 94 10000 3.1 200 22:18 12.11.2019
4271 Drizzle 24 1011 100 10000 4.1 50 21:44 12.11.2019
4272 Drizzle 24 1011 100 10000 4.1 50 21:44 12.11.2019
4273 Drizzle 24 1011 100 10000 4.1 50 21:25 12.11.2019
4274 Clouds 24 1009 94 10000 1.5 160 20:58 12.11.2019
4275 Clouds 24 1009 94 10000 1.5 160 20:38 12.11.2019
4276 Clouds 24 1009 94 10000 1.5 160 20:19 12.11.2019
4277 Clouds 24 1009 94 10000 1.5 180 19:57 12.11.2019
4278 Clouds 24 1009 94 10000 1.5 180 19:39 12.11.2019
4279 Clouds 24 1009 94 10000 1.5 180 19:19 12.11.2019
4280 Clouds 23 1009 100 10000 2.1 180 18:59 12.11.2019
4281 Clouds 23 1009 100 10000 2.1 180 18:40 12.11.2019
4282 Clouds 23 1009 100 10000 2.1 180 18:21 12.11.2019
4283 Clouds 23 1008 100 10000 1 200 17:57 12.11.2019
4284 Clouds 23 1008 100 10000 1 200 17:39 12.11.2019
4285 Clouds 23 1008 100 10000 1 200 17:21 12.11.2019
4286 Clouds 23 1009 100 10000 1.5 160 16:56 12.11.2019
4287 Clouds 23 1009 100 10000 1.5 160 16:38 12.11.2019
4288 Clouds 23 1009 100 10000 1.5 160 16:20 12.11.2019
4289 Clouds 23 1010 100 10000 1.5 140 15:41 12.11.2019
4290 Clouds 23 1010 100 10000 1.5 140 15:21 12.11.2019
4291 Clouds 24 1010 94 10000 1 140 14:56 12.11.2019
4292 Clouds 24 1010 94 10000 1 140 14:37 12.11.2019
4293 Clouds 24 1010 94 10000 1 140 14:18 12.11.2019
4294 Clouds 25 1011 94 10000 2.1 140 13:55 12.11.2019
4295 Clouds 25 1011 94 10000 2.1 140 13:36 12.11.2019
4296 Clouds 25 1011 94 10000 2.1 140 13:18 12.11.2019
4297 Clouds 25 1011 94 10000 1 140 12:42 12.11.2019
4298 Clouds 25 1011 94 10000 1 140 12:19 12.11.2019
4299 Clouds 25 1010 94 10000 1.5 140 11:57 12.11.2019
4300 Clouds 25 1010 94 10000 1.5 140 11:39 12.11.2019
4301 Clouds 25 1010 94 10000 1.5 140 11:21 12.11.2019
4302 Clouds 26 1010 94 10000 2.1 110 10:55 12.11.2019
4303 Clouds 26 1010 94 10000 2.1 110 10:37 12.11.2019
4304 Clouds 26 1010 94 10000 2.1 110 10:19 12.11.2019
4305 Clouds 27 1010 83 10000 1 180 09:40 12.11.2019
4306 Clouds 27 1010 83 10000 1 180 09:20 12.11.2019
4307 Clouds 28 1009 78 10000 1 180 08:51 12.11.2019
4308 Clouds 30 1008 70 10000 1.5 180 08:30 12.11.2019
4309 Clouds 30 1008 70 10000 1.5 180 07:43 12.11.2019
4310 Clouds 30 1008 70 10000 1.5 180 07:25 12.11.2019
4311 Clouds 31 1008 62 10000 2.6 70 06:54 12.11.2019
4312 Clouds 31 1008 62 10000 2.6 70 06:29 12.11.2019
4313 Clouds 32 1008 55 10000 3.1 90 05:57 12.11.2019
4314 Clouds 32 1008 55 10000 3.1 90 05:57 12.11.2019
4315 Thunderstorm 31 1009 55 10000 5.1 70 04:59 12.11.2019
4316 Clouds 31 1008 70 10000 7.2 70 04:39 12.11.2019
4317 Rain 27 1008 79 0 1.43 39 02:48 12.11.2019
4318 Clouds 30 1011 61 0 2.22 33 01:38 12.11.2019
4319 Clouds 29 1011 62 0 2.3 39 01:18 12.11.2019
4320 Clouds 29 1011 62 0 2.3 39 00:40 12.11.2019
4321 Clouds 29 1011 62 0 2.3 39 00:18 12.11.2019
4322 Clouds 29 1011 62 0 2.3 39 23:41 11.11.2019
4323 Clouds 27 1010 88 10000 0.56 104 23:20 11.11.2019
4324 Clouds 27 1010 88 10000 0.56 104 22:39 11.11.2019
4325 Clouds 27 1010 88 10000 0.56 104 22:20 11.11.2019
4326 Clouds 25 1010 88 10000 1.5 200 21:58 11.11.2019
4327 Clouds 25 1010 88 10000 1.5 200 21:39 11.11.2019
4328 Clouds 25 1010 88 10000 1.5 200 21:21 11.11.2019
4329 Clouds 23 1010 94 10000 1 140 20:56 11.11.2019
4330 Clouds 23 1010 94 10000 1 140 20:38 11.11.2019
4331 Clouds 23 1010 94 10000 1 140 20:19 11.11.2019
4332 Clouds 23 1009 94 10000 1.5 200 19:42 11.11.2019
4333 Clouds 23 1009 94 10000 1.5 200 19:20 11.11.2019
4334 Clouds 23 1009 94 10000 2.6 160 18:59 11.11.2019
4335 Clouds 23 1009 94 10000 2.6 160 18:40 11.11.2019
4336 Clouds 23 1009 94 10000 2.6 160 18:21 11.11.2019
4337 Clouds 23 1009 100 10000 1.5 160 17:45 11.11.2019
4338 Clouds 23 1009 100 10000 1.5 160 17:27 11.11.2019
4339 Clouds 23 1009 100 10000 1.5 160 17:27 11.11.2019
4340 Clouds 24 1010 94 10000 1.5 160 16:58 11.11.2019
4341 Clouds 24 1010 94 10000 1.5 160 16:38 11.11.2019
4342 Clouds 24 1010 94 10000 1.5 160 16:20 11.11.2019
4343 Clouds 24 1010 100 10000 1.5 110 15:41 11.11.2019
4344 Clouds 24 1010 100 10000 1.5 110 15:20 11.11.2019
4345 Clouds 24 1010 100 10000 1.5 110 15:20 11.11.2019
4346 Clouds 24 1011 100 10000 0.86 148 14:55 11.11.2019
4347 Clouds 24 1011 100 10000 0.86 148 14:37 11.11.2019
4348 Clouds 24 1011 100 10000 1.18 168 14:18 11.11.2019
4349 Clouds 25 1011 94 10000 1.5 180 13:40 11.11.2019
4350 Clouds 25 1011 94 10000 1.5 180 13:21 11.11.2019
4351 Clouds 25 1011 94 10000 2.1 110 12:58 11.11.2019
4352 Clouds 25 1011 94 10000 2.1 110 12:58 11.11.2019
4353 Clouds 25 1011 94 10000 2.1 110 12:40 11.11.2019
4354 Clouds 25 1011 94 10000 2.1 110 12:22 11.11.2019
4355 Clouds 26 1011 88 10000 1.14 153 11:58 11.11.2019
4356 Clouds 26 1011 88 10000 1.14 153 11:39 11.11.2019
4357 Clouds 26 1011 88 10000 1.43 183 11:21 11.11.2019
4358 Clouds 27 1010 83 10000 1.43 183 10:43 11.11.2019
4359 Clouds 27 1010 83 10000 1.43 183 10:19 11.11.2019
4360 Clouds 27 1009 78 10000 1.43 183 09:58 11.11.2019
4361 Clouds 27 1009 78 10000 1.43 183 09:39 11.11.2019
4362 Clouds 27 1009 78 10000 1.43 183 09:19 11.11.2019
4363 Clouds 28 1009 74 10000 2.6 90 08:41 11.11.2019
4364 Clouds 28 1009 74 10000 2.6 90 08:21 11.11.2019
4365 Clouds 29 1008 74 10000 3.6 90 07:57 11.11.2019
4366 Clouds 29 1008 74 10000 3.6 90 07:37 11.11.2019
4367 Clouds 29 1008 74 10000 3.6 90 07:18 11.11.2019
4368 Clouds 30 1007 70 10000 2.6 70 06:47 11.11.2019
4369 Clouds 30 1007 70 10000 2.6 70 06:22 11.11.2019
4370 Clouds 30 1007 70 10000 4.1 70 05:51 11.11.2019
4371 Clouds 30 1008 70 10000 6.2 70 04:29 11.11.2019
4372 Clouds 30 1009 70 10000 6.7 70 03:23 11.11.2019
4373 Clouds 31 1010 70 10000 6.2 70 02:22 11.11.2019
4374 Clouds 30 1010 70 10000 3.6 50 01:55 11.11.2019
4375 Clouds 30 1010 70 10000 3.6 50 01:34 11.11.2019
4376 Clouds 30 1010 74 10000 1.8 46 00:47 11.11.2019
4377 Clouds 30 1010 74 10000 1.8 46 00:19 11.11.2019
4378 Clouds 28 1010 78 10000 1.8 46 23:39 10.11.2019
4379 Clouds 28 1010 78 10000 0.85 129 23:20 10.11.2019
4380 Clouds 27 1010 94 10000 0.85 129 22:57 10.11.2019
4381 Clouds 27 1010 94 10000 0.85 129 22:38 10.11.2019
4382 Clouds 27 1010 94 10000 0.85 129 22:20 10.11.2019
4383 Clouds 25 1009 100 10000 1.5 140 21:58 10.11.2019
4384 Clouds 25 1009 100 10000 1.5 140 21:39 10.11.2019
4385 Clouds 25 1009 100 10000 1.5 140 21:21 10.11.2019
4386 Clouds 25 1009 94 10000 1 110 20:43 10.11.2019
4387 Clouds 25 1009 94 10000 1 110 20:23 10.11.2019
4388 Clouds 25 1008 100 10000 2.1 110 19:57 10.11.2019
4389 Clouds 25 1008 100 10000 2.1 110 19:38 10.11.2019
4390 Clouds 25 1008 100 10000 2.1 110 19:19 10.11.2019
4391 Clouds 25 1008 100 10000 2.1 110 19:19 10.11.2019
4392 Clouds 25 1008 100 10000 2.1 110 19:19 10.11.2019
4393 Clouds 25 1008 100 10000 1.16 165 18:58 10.11.2019
4394 Clouds 25 1008 100 10000 1.16 165 18:40 10.11.2019
4395 Clouds 25 1008 100 10000 1.16 165 18:20 10.11.2019
4396 Clouds 25 1007 100 10000 1.16 165 17:57 10.11.2019
4397 Clouds 25 1007 100 10000 1.16 165 17:39 10.11.2019
4398 Clouds 25 1007 100 10000 1.25 167 17:20 10.11.2019
4399 Clouds 25 1008 100 10000 1.25 167 16:58 10.11.2019
4400 Clouds 25 1008 100 10000 1.25 167 16:40 10.11.2019
4401 Clouds 25 1008 100 10000 1.25 167 16:21 10.11.2019
4402 Clouds 25 1009 100 10000 1.5 250 15:56 10.11.2019
4403 Clouds 25 1009 100 10000 1.5 250 15:37 10.11.2019
4404 Clouds 25 1009 100 10000 1.5 250 15:37 10.11.2019
4405 Clouds 25 1009 100 10000 1.5 250 15:18 10.11.2019
4406 Clouds 25 1010 100 10000 1.5 140 14:55 10.11.2019
4407 Clouds 25 1010 100 10000 1.5 140 14:36 10.11.2019
4408 Clouds 25 1010 100 10000 1.5 140 14:18 10.11.2019
4409 Clouds 25 1010 100 10000 1 140 13:42 10.11.2019
4410 Clouds 25 1010 100 10000 1 140 13:21 10.11.2019
4411 Clouds 25 1010 100 10000 1.18 163 12:55 10.11.2019
4412 Clouds 25 1010 100 10000 1.18 163 12:37 10.11.2019
4413 Clouds 25 1010 100 10000 1.18 163 12:18 10.11.2019
4414 Drizzle 25 1010 100 10000 1.5 140 11:54 10.11.2019
4415 Drizzle 25 1010 100 10000 1.5 140 11:54 10.11.2019
4416 Drizzle 25 1010 100 10000 1.5 140 11:36 10.11.2019
4417 Drizzle 25 1010 100 10000 1.5 140 11:18 10.11.2019
4418 Clouds 25 1009 100 10000 1 140 10:41 10.11.2019
4419 Clouds 25 1009 100 10000 1 140 10:20 10.11.2019
4420 Clouds 26 1009 94 10000 1.5 200 09:44 10.11.2019
4421 Clouds 26 1009 94 10000 1.5 200 09:26 10.11.2019
4422 Clouds 26 1008 94 10000 0.89 160 08:59 10.11.2019
4423 Clouds 26 1008 94 10000 0.89 160 08:37 10.11.2019
4424 Clouds 26 1008 94 10000 0.89 8 08:18 10.11.2019
4425 Clouds 25 1007 94 10000 1 230 07:42 10.11.2019
4426 Clouds 25 1007 94 10000 1 230 07:24 10.11.2019
4427 Clouds 25 1007 94 10000 3.1 270 06:33 10.11.2019
4428 Rain 25 1007 94 0 3.6 320 05:33 10.11.2019
4429 Clouds 31 1008 70 10000 4.6 70 03:22 10.11.2019
4430 Clouds 31 1009 70 10000 3.1 20 01:47 10.11.2019
4431 Clouds 31 1009 70 10000 3.1 20 01:19 10.11.2019
4432 Clouds 30 1010 74 10000 3.1 50 00:40 10.11.2019
4433 Clouds 30 1010 74 10000 3.1 20 23:48 09.11.2019
4434 Clouds 30 1010 74 10000 2.6 50 23:21 09.11.2019
4435 Clouds 28 1010 78 10000 0.63 181 22:59 09.11.2019
4436 Clouds 28 1010 78 10000 0.63 181 22:41 09.11.2019
4437 Clouds 28 1010 78 10000 0.63 181 22:20 09.11.2019
4438 Clouds 26 1009 83 10000 1 180 21:56 09.11.2019
4439 Clouds 26 1009 83 10000 1 180 21:37 09.11.2019
4440 Clouds 26 1009 83 10000 1 180 21:19 09.11.2019
4441 Clouds 23 1008 94 10000 1 180 20:41 09.11.2019
4442 Clouds 23 1008 94 10000 1 180 20:22 09.11.2019
4443 Clouds 24 1007 94 10000 1 180 19:57 09.11.2019
4444 Clouds 24 1007 94 10000 1 180 19:38 09.11.2019
4445 Clouds 24 1007 94 10000 1 180 19:20 09.11.2019
4446 Clouds 24 1007 94 10000 1.5 180 18:41 09.11.2019
4447 Clouds 24 1007 94 10000 1.5 180 18:19 09.11.2019
4448 Clouds 24 1007 94 10000 1.5 180 18:19 09.11.2019
4449 Clouds 24 1007 94 10000 1.5 180 17:58 09.11.2019
4450 Clouds 24 1007 94 10000 1.5 180 17:58 09.11.2019
4451 Clouds 24 1007 94 10000 1.5 180 17:40 09.11.2019
4452 Clouds 24 1007 94 10000 1.5 180 17:22 09.11.2019
4453 Clouds 24 1008 94 10000 1.5 180 16:42 09.11.2019
4454 Clouds 24 1008 94 10000 1.5 180 16:21 09.11.2019
4455 Clouds 24 1009 94 10000 1.56 193 15:57 09.11.2019
4456 Clouds 24 1009 94 10000 1.56 193 15:39 09.11.2019
4457 Clouds 24 1009 94 10000 1.56 193 15:20 09.11.2019
4458 Clouds 24 1009 100 10000 1.56 193 14:42 09.11.2019
4459 Clouds 24 1009 100 10000 1.56 193 14:42 09.11.2019
4460 Clouds 24 1009 100 10000 0.93 152 14:22 09.11.2019
4461 Clouds 25 1010 94 10000 1.5 160 13:57 09.11.2019
4462 Clouds 25 1010 94 10000 1.5 160 13:37 09.11.2019
4463 Clouds 25 1010 94 10000 1.5 160 13:19 09.11.2019
4464 Clouds 25 1010 94 10000 2.1 50 12:50 09.11.2019
4465 Clouds 25 1010 94 10000 2.1 50 12:29 09.11.2019
4466 Clouds 26 1010 94 10000 0.65 165 11:57 09.11.2019
4467 Clouds 26 1010 94 10000 0.65 165 11:39 09.11.2019
4468 Clouds 26 1010 94 10000 0.75 173 11:19 09.11.2019
4469 Clouds 26 1009 94 10000 0.75 173 10:42 09.11.2019
4470 Clouds 26 1009 94 10000 0.75 173 10:20 09.11.2019
4471 Clouds 26 1008 94 10000 1.5 140 09:59 09.11.2019
4472 Clouds 26 1008 94 10000 1.5 140 09:41 09.11.2019
4473 Clouds 26 1008 94 10000 1.5 140 09:20 09.11.2019
4474 Clouds 27 1008 88 10000 2.1 140 08:43 09.11.2019
4475 Clouds 27 1008 88 10000 2.1 140 08:24 09.11.2019
4476 Clouds 28 1007 78 10000 2.1 160 07:49 09.11.2019
4477 Clouds 28 1007 78 10000 2.1 160 07:25 09.11.2019
4478 Clouds 27 1007 83 10000 3.6 140 06:57 09.11.2019
4479 Clouds 27 1007 83 10000 3.6 140 06:39 09.11.2019
4480 Clouds 27 1007 83 10000 3.6 140 06:20 09.11.2019
4481 Clouds 30 1007 74 10000 3.1 360 05:38 09.11.2019
4482 Clouds 31 1008 74 10000 3.1 50 03:57 09.11.2019
4483 Clouds 31 1009 70 10000 3.6 20 02:46 09.11.2019
4484 Clouds 31 1009 70 10000 3.6 20 02:22 09.11.2019
4485 Clouds 31 1011 70 10000 2.6 50 00:57 09.11.2019
4486 Clouds 31 1011 70 10000 2.6 50 00:39 09.11.2019
4487 Clouds 31 1011 70 10000 2.6 50 00:20 09.11.2019
4488 Clouds 31 1011 70 10000 2.1 90 23:40 08.11.2019
4489 Clouds 31 1011 70 10000 2.1 90 23:21 08.11.2019
4490 Clouds 28 1010 78 10000 1.5 180 22:49 08.11.2019
4491 Clouds 28 1010 78 10000 1.5 180 22:22 08.11.2019
4492 Clouds 25 1010 88 10000 1.5 160 21:57 08.11.2019
4493 Clouds 25 1010 88 10000 1.5 160 21:39 08.11.2019
4494 Clouds 25 1010 88 10000 1.5 160 21:19 08.11.2019
4495 Clouds 23 1009 94 10000 1.5 160 20:54 08.11.2019
4496 Clouds 23 1009 94 10000 1.5 140 20:36 08.11.2019
4497 Clouds 23 1009 94 10000 1.5 140 20:18 08.11.2019
4498 Clouds 23 1009 100 10000 1 195 19:39 08.11.2019
4499 Clouds 23 1009 100 10000 1 195 19:19 08.11.2019
4500 Clouds 23 1009 100 10000 1 195 19:19 08.11.2019
4501 Clouds 24 1008 94 10000 1.5 180 18:56 08.11.2019
4502 Clouds 24 1008 94 10000 1.5 180 18:38 08.11.2019
4503 Clouds 24 1008 94 10000 1.5 180 18:20 08.11.2019
4504 Clouds 24 1008 94 10000 1 180 17:56 08.11.2019
4505 Clouds 24 1008 94 10000 1 180 17:56 08.11.2019
4506 Clouds 24 1008 94 10000 1 180 17:37 08.11.2019
4507 Clouds 24 1008 94 10000 1 180 17:19 08.11.2019
4508 Clouds 24 1009 94 10000 1.5 180 16:58 08.11.2019
4509 Clouds 24 1009 94 10000 1.5 180 16:39 08.11.2019
4510 Clouds 24 1009 94 10000 1.5 180 16:20 08.11.2019
4511 Clouds 24 1010 100 10000 1.5 180 15:58 08.11.2019
4512 Clouds 24 1010 100 10000 1.5 180 15:40 08.11.2019
4513 Clouds 24 1010 100 10000 1.5 180 15:21 08.11.2019
4514 Clouds 24 1010 100 10000 1.5 200 14:56 08.11.2019
4515 Clouds 24 1010 100 10000 1.5 200 14:36 08.11.2019
4516 Clouds 24 1010 100 10000 1.5 200 14:18 08.11.2019
4517 Clouds 25 1010 94 10000 1 140 13:55 08.11.2019
4518 Clouds 25 1010 94 10000 1 140 13:36 08.11.2019
4519 Clouds 25 1010 94 10000 1 140 13:18 08.11.2019
4520 Clouds 25 1010 100 10000 1 180 12:42 08.11.2019
4521 Clouds 25 1010 100 10000 1 180 12:24 08.11.2019
4522 Clouds 25 1010 100 10000 1 180 11:56 08.11.2019
4523 Clouds 25 1010 100 10000 1 180 11:37 08.11.2019
4524 Clouds 25 1010 100 10000 1 180 11:19 08.11.2019
4525 Clouds 25 1010 100 10000 1 180 11:19 08.11.2019
4526 Clouds 25 1010 100 10000 1 140 10:43 08.11.2019
4527 Clouds 25 1010 100 10000 1 140 10:22 08.11.2019
4528 Clouds 26 1009 94 10000 1 140 09:59 08.11.2019
4529 Clouds 26 1009 94 10000 1 140 09:41 08.11.2019
4530 Clouds 26 1009 94 10000 1 140 09:20 08.11.2019
4531 Clouds 26 1009 100 10000 1 200 08:46 08.11.2019
4532 Clouds 26 1009 100 10000 1 200 08:25 08.11.2019
4533 Drizzle 25 1008 94 10000 2.1 140 07:57 08.11.2019
4534 Drizzle 25 1008 94 10000 2.1 140 07:39 08.11.2019
4535 Drizzle 25 1008 94 10000 2.1 140 07:20 08.11.2019
4536 Thunderstorm 29 1008 70 10000 3.1 140 06:38 08.11.2019
4537 Thunderstorm 29 1008 70 10000 3.1 140 06:20 08.11.2019
4538 Clouds 31 1008 70 10000 2.6 340 05:39 08.11.2019
4539 Clouds 31 1008 70 10000 2.1 360 04:43 08.11.2019
4540 Clouds 31 1008 70 10000 1 90 03:43 08.11.2019
4541 Clouds 31 1008 70 10000 1 90 03:19 08.11.2019
4542 Clouds 30 1009 74 10000 1.5 50 02:24 08.11.2019
4543 Clouds 30 1010 70 10000 2.6 360 01:42 08.11.2019
4544 Clouds 30 1011 74 10000 2.1 20 00:58 08.11.2019
4545 Clouds 30 1011 74 10000 2.1 20 00:23 08.11.2019
4546 Clouds 30 1011 70 10000 1.5 70 23:52 07.11.2019
4547 Clouds 30 1011 70 10000 1.5 70 23:33 07.11.2019
4548 Clouds 27 1010 78 10000 2.1 180 22:58 07.11.2019
4549 Clouds 27 1010 78 10000 2.1 180 22:40 07.11.2019
4550 Clouds 27 1010 78 10000 2.1 180 22:20 07.11.2019
4551 Clouds 25 1010 88 10000 1.5 200 21:40 07.11.2019
4552 Clouds 25 1010 88 10000 1.5 200 21:21 07.11.2019
4553 Clouds 25 1010 88 10000 1.5 200 21:21 07.11.2019
4554 Clouds 24 1009 94 10000 1.5 180 20:59 07.11.2019
4555 Clouds 24 1009 94 10000 1.5 180 20:59 07.11.2019
4556 Clouds 24 1009 94 10000 1.5 180 20:41 07.11.2019
4557 Clouds 24 1009 94 10000 1.5 180 20:41 07.11.2019
4558 Clouds 24 1009 94 10000 1.5 180 20:22 07.11.2019
4559 Clouds 24 1009 94 10000 1 160 19:58 07.11.2019
4560 Clouds 24 1009 94 10000 1 160 19:39 07.11.2019
4561 Clouds 24 1009 94 10000 1 160 19:21 07.11.2019
4562 Clouds 24 1009 100 10000 1 160 18:57 07.11.2019
4563 Clouds 24 1009 100 10000 1 160 18:38 07.11.2019
4564 Clouds 24 1009 100 10000 1 160 18:38 07.11.2019
4565 Clouds 24 1009 100 10000 1 160 18:19 07.11.2019
4566 Clouds 24 1009 100 10000 1 160 18:19 07.11.2019
4567 Clouds 24 1008 100 10000 1 200 17:56 07.11.2019
4568 Clouds 24 1008 100 10000 1 200 17:37 07.11.2019
4569 Clouds 24 1009 94 10000 1 180 17:19 07.11.2019
4570 Clouds 24 1009 94 10000 1 180 16:55 07.11.2019
4571 Clouds 24 1009 94 10000 1 180 16:37 07.11.2019
4572 Clouds 24 1009 94 10000 1 180 16:18 07.11.2019
4573 Clouds 25 1010 94 10000 1 180 15:40 07.11.2019
4574 Clouds 25 1010 94 10000 1 180 15:20 07.11.2019
4575 Clouds 25 1010 94 10000 1 180 14:57 07.11.2019
4576 Clouds 25 1010 94 10000 1 180 14:37 07.11.2019
4577 Clouds 25 1010 94 10000 1 180 14:19 07.11.2019
4578 Clouds 25 1011 88 10000 1 140 13:55 07.11.2019
4579 Clouds 25 1011 88 10000 1 140 13:36 07.11.2019
4580 Clouds 25 1011 88 10000 1 140 13:36 07.11.2019
4581 Clouds 25 1011 94 10000 2.1 200 13:18 07.11.2019
4582 Clouds 25 1011 94 10000 2.1 200 12:55 07.11.2019
4583 Clouds 25 1011 94 10000 2.1 200 12:37 07.11.2019
4584 Clouds 26 1011 94 10000 4.1 270 12:18 07.11.2019
4585 Clouds 26 1011 94 10000 4.1 270 12:18 07.11.2019
4586 Clouds 26 1011 94 10000 4.1 270 11:41 07.11.2019
4587 Clouds 26 1011 94 10000 4.1 270 11:22 07.11.2019
4588 Clouds 26 1010 94 10000 2.1 180 10:42 07.11.2019
4589 Clouds 26 1010 94 10000 2.1 180 10:19 07.11.2019
4590 Clouds 26 1010 94 10000 2.1 180 10:19 07.11.2019
4591 Rain 27 1009 88 10000 3.1 160 09:55 07.11.2019
4592 Rain 27 1009 88 10000 3.1 160 09:36 07.11.2019
4593 Rain 27 1009 88 10000 3.1 160 09:18 07.11.2019
4594 Clouds 30 1009 79 10000 3.1 50 08:41 07.11.2019
4595 Clouds 30 1009 79 10000 3.1 50 08:40 07.11.2019
4596 Clouds 30 1009 79 10000 3.1 50 08:22 07.11.2019
4597 Clouds 30 1008 79 10000 4.1 340 07:56 07.11.2019
4598 Clouds 30 1008 79 10000 4.1 340 07:37 07.11.2019
4599 Clouds 30 1008 79 10000 4.1 340 07:19 07.11.2019
4600 Clouds 31 1007 70 10000 3.6 340 06:42 07.11.2019
4601 Clouds 31 1007 70 10000 3.6 340 06:23 07.11.2019
4602 Clouds 31 1007 70 10000 3.6 340 06:22 07.11.2019
4603 Clouds 31 1007 74 10000 2.6 320 05:48 07.11.2019
4604 Clouds 31 1007 74 10000 2.6 320 05:29 07.11.2019
4605 Clouds 31 1007 74 10000 2.6 320 05:29 07.11.2019
4606 Clouds 31 1007 62 10000 4.1 340 04:42 07.11.2019
4607 Clouds 31 1009 70 10000 3.1 20 03:01 07.11.2019
4608 Clouds 31 1009 74 10000 2.6 20 00:58 07.11.2019
4609 Clouds 31 1009 74 10000 2.6 20 00:22 07.11.2019
4610 Clouds 31 1009 74 10000 2.6 20 00:22 07.11.2019
4611 Clouds 31 1009 74 10000 2.6 20 00:22 07.11.2019
4612 Clouds 31 1010 70 10000 1.91 341 23:48 06.11.2019
4613 Clouds 31 1010 70 10000 0.73 206 23:22 06.11.2019
4614 Clouds 29 1009 74 10000 1.5 180 22:57 06.11.2019
4615 Clouds 29 1009 74 10000 1.5 180 22:38 06.11.2019
4616 Clouds 29 1009 74 10000 1.5 180 22:18 06.11.2019
4617 Clouds 26 1009 88 10000 0.73 206 21:42 06.11.2019
4618 Clouds 26 1009 88 10000 0.73 206 21:21 06.11.2019
4619 Clouds 24 1008 94 10000 1.5 160 20:59 06.11.2019
4620 Clouds 24 1008 94 10000 1.5 160 20:40 06.11.2019
4621 Clouds 24 1008 94 10000 1.5 160 20:22 06.11.2019
4622 Clouds 24 1007 94 10000 1.02 189 19:59 06.11.2019
4623 Clouds 24 1007 94 10000 1.02 189 19:39 06.11.2019
4624 Clouds 24 1007 94 10000 1.02 189 19:21 06.11.2019
4625 Clouds 24 1007 94 10000 1.02 189 18:58 06.11.2019
4626 Clouds 25 1007 88 10000 1 180 18:38 06.11.2019
4627 Clouds 25 1007 88 10000 1 180 18:19 06.11.2019
4628 Clouds 24 1007 94 10000 1.02 189 17:56 06.11.2019
4629 Clouds 24 1007 94 10000 1.02 189 17:37 06.11.2019
4630 Clouds 24 1007 94 10000 1.19 213 17:18 06.11.2019
4631 Clouds 24 1007 94 10000 1.19 213 16:54 06.11.2019
4632 Clouds 24 1007 94 10000 1.19 213 16:36 06.11.2019
4633 Clouds 24 1007 94 10000 1.19 213 16:36 06.11.2019
4634 Clouds 24 1007 94 10000 1.19 213 16:18 06.11.2019
4635 Clouds 25 1008 88 10000 1.19 213 15:54 06.11.2019
4636 Clouds 25 1008 88 10000 1.19 213 15:36 06.11.2019
4637 Clouds 25 1008 88 10000 1.19 213 15:18 06.11.2019
4638 Clouds 25 1008 88 10000 1 200 14:54 06.11.2019
4639 Clouds 25 1008 88 10000 1 200 14:36 06.11.2019
4640 Clouds 25 1008 88 10000 1 200 14:18 06.11.2019
4641 Clouds 27 1009 83 10000 7.2 320 13:38 06.11.2019
4642 Clouds 27 1009 83 10000 7.2 320 13:38 06.11.2019
4643 Clouds 27 1009 83 10000 7.2 320 13:20 06.11.2019
4644 Clouds 26 1009 94 10000 1 200 12:56 06.11.2019
4645 Clouds 26 1009 94 10000 1 200 12:56 06.11.2019
4646 Clouds 26 1009 94 10000 1 200 12:37 06.11.2019
4647 Clouds 26 1009 94 10000 1 200 12:19 06.11.2019
4648 Clouds 26 1009 83 10000 1 180 11:57 06.11.2019
4649 Clouds 26 1009 83 10000 1 180 11:36 06.11.2019
4650 Clouds 26 1009 83 10000 1 180 11:18 06.11.2019
4651 Clouds 27 1008 78 10000 2.1 180 10:55 06.11.2019
4652 Clouds 27 1008 78 10000 2.1 180 10:37 06.11.2019
4653 Clouds 27 1008 78 10000 2.1 180 10:18 06.11.2019
4654 Clouds 28 1007 83 10000 1.5 140 09:41 06.11.2019
4655 Clouds 28 1007 83 10000 1.5 140 09:21 06.11.2019
4656 Clouds 30 1006 70 10000 0.53 156 08:56 06.11.2019
4657 Clouds 30 1006 70 10000 0.53 156 08:38 06.11.2019
4658 Clouds 30 1006 70 10000 1.41 342 08:18 06.11.2019
4659 Clouds 31 1005 62 10000 1.5 340 07:46 06.11.2019
4660 Clouds 31 1005 62 10000 1.5 340 07:28 06.11.2019
4661 Clouds 32 1005 62 10000 1.5 20 06:53 06.11.2019
4662 Clouds 32 1005 62 10000 1.5 20 06:34 06.11.2019
4663 Clouds 32 1005 62 10000 2.1 320 05:51 06.11.2019
4664 Clouds 32 1006 66 10000 2.6 340 03:39 06.11.2019
4665 Clouds 31 1007 66 10000 2.6 50 01:42 06.11.2019
4666 Clouds 31 1008 66 10000 1 160 00:48 06.11.2019
4667 Clouds 31 1008 66 10000 1 160 00:25 06.11.2019
4668 Clouds 29 1008 74 10000 1 160 23:41 05.11.2019
4669 Clouds 29 1008 74 10000 1 160 23:22 05.11.2019
4670 Clouds 27 1008 78 10000 1 160 22:58 05.11.2019
4671 Clouds 27 1008 78 10000 1 160 22:40 05.11.2019
4672 Clouds 27 1008 78 10000 1 160 22:18 05.11.2019
4673 Clouds 25 1007 94 10000 1 160 21:43 05.11.2019
4674 Clouds 25 1007 94 10000 1 160 21:22 05.11.2019
4675 Clouds 23 1006 100 10000 2.1 160 20:59 05.11.2019
4676 Clouds 23 1006 100 10000 2.1 160 20:59 05.11.2019
4677 Clouds 23 1006 100 10000 2.1 160 20:39 05.11.2019
4678 Clouds 23 1006 100 10000 2.1 160 20:21 05.11.2019
4679 Clouds 23 1006 100 10000 1.5 140 19:59 05.11.2019
4680 Clouds 23 1006 100 10000 1.5 140 19:40 05.11.2019
4681 Clouds 23 1006 100 10000 1.5 140 19:22 05.11.2019
4682 Clouds 24 1005 94 10000 2.6 160 18:58 05.11.2019
4683 Clouds 24 1005 94 10000 2.6 160 18:39 05.11.2019
4684 Clouds 24 1005 94 10000 2.6 160 18:39 05.11.2019
4685 Clouds 24 1005 94 10000 2.6 160 18:20 05.11.2019
4686 Clouds 24 1005 100 10000 1 180 17:58 05.11.2019
4687 Clouds 24 1005 100 10000 1 180 17:39 05.11.2019
4688 Clouds 24 1005 100 10000 1 180 17:19 05.11.2019
4689 Clouds 25 1006 94 10000 1.5 180 16:55 05.11.2019
4690 Clouds 25 1006 94 10000 1.5 180 16:37 05.11.2019
4691 Clouds 25 1006 94 10000 1.5 180 16:18 05.11.2019
4692 Clouds 25 1007 94 10000 2.6 180 15:38 05.11.2019
4693 Clouds 25 1007 94 10000 2.6 180 15:19 05.11.2019
4694 Clouds 25 1007 94 10000 0.76 165 14:58 05.11.2019
4695 Clouds 25 1007 94 10000 0.76 165 14:39 05.11.2019
4696 Clouds 25 1007 94 10000 0.94 171 14:21 05.11.2019
4697 Clouds 26 1007 88 10000 0.94 171 13:44 05.11.2019
4698 Clouds 26 1007 88 10000 0.66 161 13:25 05.11.2019
4699 Clouds 25 1007 100 10000 1 180 12:59 05.11.2019
4700 Clouds 25 1007 100 10000 1 180 12:39 05.11.2019
4701 Clouds 25 1007 100 10000 1 180 12:39 05.11.2019
4702 Clouds 25 1007 100 10000 1 180 12:20 05.11.2019
4703 Clouds 26 1007 94 10000 1.5 160 11:55 05.11.2019
4704 Clouds 26 1007 94 10000 1.5 160 11:36 05.11.2019
4705 Clouds 26 1007 94 10000 1.5 160 11:18 05.11.2019
4706 Clouds 26 1006 94 10000 1.5 140 10:42 05.11.2019
4707 Clouds 26 1006 94 10000 1.5 140 10:23 05.11.2019
4708 Clouds 27 1006 88 10000 0.75 165 09:57 05.11.2019
4709 Clouds 27 1006 88 10000 0.75 165 09:38 05.11.2019
4710 Clouds 27 1006 88 10000 0.75 165 09:19 05.11.2019
4711 Clouds 29 1005 83 10000 0.75 165 08:41 05.11.2019
4712 Clouds 29 1005 83 10000 0.5 251 08:21 05.11.2019
4713 Clouds 32 1004 62 10000 2.1 50 07:59 05.11.2019
4714 Clouds 32 1004 62 10000 2.1 50 07:59 05.11.2019
4715 Clouds 32 1004 62 10000 2.1 50 07:40 05.11.2019
4716 Clouds 32 1004 62 10000 2.1 50 07:22 05.11.2019
4717 Clouds 31 1004 70 10000 4.1 50 06:51 05.11.2019
4718 Clouds 31 1004 70 10000 4.6 50 05:51 05.11.2019
4719 Clouds 31 1004 70 10000 4.6 50 05:24 05.11.2019
4720 Clouds 31 1004 70 10000 4.6 50 04:38 05.11.2019
4721 Clouds 31 1005 74 10000 6.2 50 03:56 05.11.2019
4722 Clouds 32 1006 66 10000 4.1 50 02:51 05.11.2019
4723 Clouds 32 1006 66 10000 4.1 50 02:29 05.11.2019
4724 Clouds 32 1006 66 10000 4.1 50 02:29 05.11.2019
4725 Clouds 32 1006 66 10000 4.1 50 01:25 05.11.2019
4726 Clouds 31 1007 70 10000 4.1 70 00:38 05.11.2019
4727 Clouds 31 1007 70 10000 4.1 70 00:38 05.11.2019
4728 Clouds 30 1007 74 10000 3.1 50 23:57 04.11.2019
4729 Clouds 30 1007 74 10000 3.1 50 23:37 04.11.2019
4730 Clouds 30 1007 74 10000 3.1 50 23:18 04.11.2019
4731 Clouds 29 1007 79 10000 1 180 22:42 04.11.2019
4732 Clouds 29 1007 79 10000 1 180 22:23 04.11.2019
4733 Clouds 26 1006 94 10000 0.7 102 21:56 04.11.2019
4734 Clouds 26 1006 94 10000 0.7 102 21:38 04.11.2019
4735 Clouds 26 1006 94 10000 0.7 102 21:19 04.11.2019
4736 Clouds 24 1006 100 10000 0.7 102 20:59 04.11.2019
4737 Clouds 24 1006 100 10000 0.7 102 20:39 04.11.2019
4738 Clouds 24 1006 100 10000 1.26 175 20:21 04.11.2019
4739 Clouds 24 1005 100 10000 1.18 171 19:59 04.11.2019
4740 Clouds 24 1005 100 10000 1.18 171 19:40 04.11.2019
4741 Clouds 24 1005 100 10000 1.18 171 19:21 04.11.2019
4742 Clouds 22 1006 85 0 1.18 171 18:57 04.11.2019
4743 Clouds 22 1006 85 0 1.18 171 18:38 04.11.2019
4744 Clouds 22 1006 85 0 1.18 171 18:19 04.11.2019
4745 Clouds 22 1006 85 0 1.18 171 17:40 04.11.2019
4746 Clouds 25 1006 100 10000 1 180 17:21 04.11.2019
4747 Clouds 25 1006 100 10000 1 180 16:57 04.11.2019
4748 Clouds 25 1006 100 10000 1 180 16:39 04.11.2019
4749 Clouds 25 1006 100 10000 1 180 16:21 04.11.2019
4750 Clouds 25 1006 100 10000 1.59 170 15:55 04.11.2019
4751 Clouds 25 1006 100 10000 1.59 170 15:36 04.11.2019
4752 Clouds 25 1006 100 10000 1.59 170 15:18 04.11.2019
4753 Clouds 25 1007 100 10000 1.59 170 14:41 04.11.2019
4754 Clouds 25 1007 100 10000 1.11 176 14:21 04.11.2019
4755 Drizzle 26 1008 94 10000 1.5 160 13:59 04.11.2019
4756 Drizzle 26 1008 94 10000 1.5 160 13:40 04.11.2019
4757 Drizzle 26 1008 94 10000 1.5 160 13:21 04.11.2019
4758 Drizzle 26 1008 94 10000 1.5 160 13:21 04.11.2019
4759 Clouds 25 1008 100 10000 1.18 174 12:58 04.11.2019
4760 Clouds 25 1008 100 10000 1.18 174 12:39 04.11.2019
4761 Clouds 25 1008 100 10000 1.18 174 12:21 04.11.2019
4762 Clouds 25 1008 100 10000 2.1 250 11:56 04.11.2019
4763 Clouds 25 1008 100 10000 2.1 250 11:37 04.11.2019
4764 Clouds 25 1008 100 10000 2.1 250 11:19 04.11.2019
4765 Clouds 28 1007 88 10000 2.1 200 10:42 04.11.2019
4766 Clouds 28 1007 88 10000 2.1 200 10:24 04.11.2019
4767 Clouds 29 1007 79 10000 0.95 142 09:46 04.11.2019
4768 Clouds 29 1007 79 10000 0.95 142 09:28 04.11.2019
4769 Clouds 29 1006 79 10000 1.5 340 08:59 04.11.2019
4770 Clouds 29 1006 79 10000 1.5 340 08:38 04.11.2019
4771 Clouds 29 1006 79 10000 1.5 340 08:20 04.11.2019
4772 Clouds 30 1005 70 10000 1.5 340 07:44 04.11.2019
4773 Clouds 30 1005 70 10000 1.5 340 07:24 04.11.2019
4774 Clouds 31 1005 70 10000 2.1 320 06:57 04.11.2019
4775 Clouds 31 1005 70 10000 2.1 320 06:33 04.11.2019
4776 Clouds 32 1005 66 10000 2.6 340 05:48 04.11.2019
4777 Clouds 31 1006 79 10000 4.1 290 04:43 04.11.2019
4778 Clouds 31 1006 79 10000 4.1 290 04:21 04.11.2019
4779 Clouds 32 1007 66 10000 3.1 20 02:32 04.11.2019
4780 Clouds 31 1008 74 10000 1 360 01:21 04.11.2019
4781 Clouds 30 1008 79 10000 3.6 110 00:40 04.11.2019
4782 Clouds 30 1008 79 10000 3.6 110 00:20 04.11.2019
4783 Clouds 30 1009 79 10000 3.1 110 23:41 03.11.2019
4784 Clouds 30 1009 79 10000 3.1 110 23:21 03.11.2019
4785 Clouds 30 1009 79 10000 3.1 110 23:21 03.11.2019
4786 Clouds 28 1008 83 10000 1 160 22:57 03.11.2019
4787 Clouds 28 1008 83 10000 1 160 22:39 03.11.2019
4788 Clouds 28 1008 83 10000 1 160 22:19 03.11.2019
4789 Clouds 26 1008 94 10000 0.77 108 21:46 03.11.2019
4790 Clouds 26 1008 94 10000 0.77 108 21:22 03.11.2019
4791 Clouds 23 1007 100 10000 0.77 108 20:59 03.11.2019
4792 Clouds 23 1007 100 10000 0.77 108 20:38 03.11.2019
4793 Clouds 23 1007 100 10000 0.77 108 20:38 03.11.2019
4794 Clouds 23 1007 100 10000 0.98 189 20:20 03.11.2019
4795 Clouds 24 1007 100 10000 0.98 189 19:58 03.11.2019
4796 Clouds 24 1007 100 10000 0.98 189 19:39 03.11.2019
4797 Clouds 24 1007 100 10000 0.98 189 19:21 03.11.2019
4798 Clouds 24 1006 100 10000 1 160 18:59 03.11.2019
4799 Clouds 24 1006 100 10000 1 160 18:38 03.11.2019
4800 Clouds 24 1006 100 10000 1 160 18:18 03.11.2019
4801 Clouds 25 1006 94 10000 1.5 180 17:55 03.11.2019
4802 Clouds 25 1006 94 10000 1.5 180 17:55 03.11.2019
4803 Clouds 25 1006 94 10000 1.5 180 17:37 03.11.2019
4804 Clouds 25 1006 94 10000 1.5 180 17:18 03.11.2019
4805 Clouds 25 1007 94 10000 1.2 186 16:42 03.11.2019
4806 Clouds 25 1007 94 10000 1.2 186 16:42 03.11.2019
4807 Clouds 25 1007 94 10000 1.2 186 16:22 03.11.2019
4808 Clouds 25 1007 100 10000 2.6 160 15:59 03.11.2019
4809 Clouds 25 1007 100 10000 2.6 160 15:41 03.11.2019
4810 Clouds 25 1007 100 10000 2.6 160 15:23 03.11.2019
4811 Clouds 25 1008 100 10000 1.2 186 14:56 03.11.2019
4812 Clouds 25 1008 100 10000 1.2 186 14:37 03.11.2019
4813 Clouds 25 1008 100 10000 1.2 186 14:37 03.11.2019
4814 Clouds 25 1008 100 10000 1.36 156 14:18 03.11.2019
4815 Clouds 26 1009 94 10000 1.36 156 13:42 03.11.2019
4816 Clouds 26 1009 94 10000 1.36 156 13:20 03.11.2019
4817 Drizzle 26 1009 94 10000 2.1 180 12:57 03.11.2019
4818 Drizzle 26 1009 94 10000 2.1 180 12:36 03.11.2019
4819 Drizzle 26 1009 94 10000 2.1 180 12:18 03.11.2019
4820 Clouds 26 1008 94 10000 2.1 180 11:42 03.11.2019
4821 Clouds 26 1008 94 10000 2.1 180 11:22 03.11.2019
4822 Clouds 26 1008 94 10000 1.5 160 10:55 03.11.2019
4823 Clouds 26 1008 94 10000 1.5 160 10:37 03.11.2019
4824 Clouds 26 1008 94 10000 1.5 160 10:19 03.11.2019
4825 Clouds 26 1008 94 10000 1.5 140 09:43 03.11.2019
4826 Clouds 26 1008 94 10000 1.5 140 09:25 03.11.2019
4827 Clouds 26 1007 100 10000 1 180 08:56 03.11.2019
4828 Clouds 26 1007 100 10000 1 180 08:37 03.11.2019
4829 Clouds 26 1007 100 10000 1 180 08:19 03.11.2019
4830 Clouds 26 1007 94 10000 2.1 140 07:45 03.11.2019
4831 Rain 30 1006 74 10000 7.2 90 07:22 03.11.2019
4832 Clouds 32 1005 66 10000 5.1 110 06:39 03.11.2019
4833 -273 0 0 0 0 0 05:54 03.11.2019
4834 Clouds 32 1005 66 10000 6.2 110 05:34 03.11.2019
4835 Clouds 32 1006 66 10000 6.2 70 04:53 03.11.2019
4836 Clouds 32 1006 66 10000 6.2 90 03:59 03.11.2019
4837 Clouds 32 1006 66 10000 6.2 90 03:21 03.11.2019
4838 Clouds 32 1007 70 10000 9.8 70 02:23 03.11.2019
4839 Clouds 32 1008 70 10000 6.7 50 01:49 03.11.2019
4840 Clouds 32 1008 70 10000 6.7 50 01:25 03.11.2019
4841 Clouds 31 1008 74 10000 4.1 50 00:57 03.11.2019
4842 Clouds 32 1008 70 10000 3.6 50 00:38 03.11.2019
4843 Clouds 32 1008 70 10000 3.6 50 00:19 03.11.2019
4844 Clouds 31 1008 70 10000 2.6 90 23:40 02.11.2019
4845 Clouds 31 1008 70 10000 2.6 90 23:20 02.11.2019
4846 Clouds 27 1008 78 10000 2.1 200 22:57 02.11.2019
4847 Clouds 27 1008 78 10000 2.1 200 22:38 02.11.2019
4848 Clouds 27 1008 78 10000 2.1 200 22:20 02.11.2019
4849 Clouds 26 1009 82 0 1.03 140 21:57 02.11.2019
4850 Clouds 26 1009 82 0 1.03 140 21:38 02.11.2019
4851 Clouds 26 1009 82 0 1.03 140 21:19 02.11.2019
4852 Clouds 26 1009 82 0 1.03 140 21:19 02.11.2019
4853 Clouds 26 1009 82 0 1.03 140 21:19 02.11.2019
4854 Clouds 23 1007 100 10000 1.5 140 20:59 02.11.2019
4855 Clouds 23 1007 100 10000 1.5 140 20:40 02.11.2019
4856 Clouds 23 1007 100 10000 1.5 140 20:21 02.11.2019
4857 Clouds 22 1006 100 10000 1.63 165 19:57 02.11.2019
4858 Clouds 22 1006 100 10000 1.63 165 19:36 02.11.2019
4859 Clouds 22 1006 100 10000 1.63 165 19:18 02.11.2019
4860 Clouds 23 1006 94 10000 1.5 110 18:43 02.11.2019
4861 Clouds 23 1006 94 10000 1.5 110 18:24 02.11.2019
4862 Clouds 23 1006 100 10000 1.5 180 17:59 02.11.2019
4863 Clouds 23 1006 100 10000 1.5 180 17:40 02.11.2019
4864 Clouds 23 1006 100 10000 1.5 180 17:22 02.11.2019
4865 Clouds 23 1006 100 10000 1.5 180 17:22 02.11.2019
4866 Clouds 23 1007 100 10000 1.5 160 16:58 02.11.2019
4867 Clouds 23 1007 100 10000 1.5 160 16:38 02.11.2019
4868 Clouds 23 1007 100 10000 1.5 160 16:20 02.11.2019
4869 Clouds 23 1007 100 10000 2.1 160 15:42 02.11.2019
4870 Clouds 23 1007 100 10000 2.1 160 15:20 02.11.2019
4871 Clouds 24 1008 94 10000 1.5 140 14:43 02.11.2019
4872 Clouds 24 1008 94 10000 1.5 140 14:43 02.11.2019
4873 Clouds 24 1008 94 10000 1.5 140 14:24 02.11.2019
4874 Clouds 24 1008 94 10000 1 160 13:59 02.11.2019
4875 Clouds 24 1008 94 10000 1 160 13:39 02.11.2019
4876 Clouds 24 1008 94 10000 1 160 13:20 02.11.2019
4877 Clouds 25 1008 94 10000 1 110 12:56 02.11.2019
4878 Clouds 25 1008 94 10000 1 110 12:37 02.11.2019
4879 Clouds 25 1008 94 10000 1 110 12:18 02.11.2019
4880 Clouds 26 1008 88 10000 2.1 180 11:41 02.11.2019
4881 Clouds 26 1008 88 10000 2.1 180 11:23 02.11.2019
4882 Clouds 26 1008 88 10000 1 180 10:55 02.11.2019
4883 Clouds 26 1008 88 10000 1 180 10:36 02.11.2019
4884 Clouds 26 1008 88 10000 1 180 10:18 02.11.2019
4885 Clouds 27 1007 88 10000 2.1 140 09:40 02.11.2019
4886 Clouds 27 1007 88 10000 2.1 140 09:21 02.11.2019
4887 Clouds 28 1007 83 10000 1 90 08:47 02.11.2019
4888 Clouds 28 1007 83 10000 1 90 08:22 02.11.2019
4889 Clouds 28 1006 78 10000 1 160 07:51 02.11.2019
4890 Clouds 28 1006 78 10000 1 160 07:33 02.11.2019
4891 Clouds 29 1006 74 10000 3.1 160 06:58 02.11.2019
4892 Clouds 29 1006 74 10000 3.1 160 06:39 02.11.2019
4893 Thunderstorm 30 1005 70 10000 5.1 70 05:59 02.11.2019
4894 Thunderstorm 30 1005 70 10000 5.1 70 05:29 02.11.2019
4895 Clouds 32 1006 55 10000 4.1 70 04:23 02.11.2019
4896 Clouds 32 1007 62 10000 6.2 70 03:50 02.11.2019
4897 Clouds 32 1007 59 10000 6.2 70 02:44 02.11.2019
4898 Clouds 33 1008 52 10000 5.1 70 01:55 02.11.2019
4899 Clouds 33 1008 52 10000 5.1 70 01:24 02.11.2019
4900 Clouds 31 1008 66 10000 2.1 140 00:51 02.11.2019
4901 Clouds 31 1008 66 10000 2.1 140 00:27 02.11.2019
4902 Clouds 28 1008 78 10000 4.1 110 23:48 01.11.2019
4903 Clouds 28 1008 78 10000 4.1 110 23:23 01.11.2019
4904 Clouds 26 1009 88 10000 1.5 110 22:58 01.11.2019
4905 Clouds 26 1009 88 10000 1.5 110 22:39 01.11.2019
4906 Clouds 26 1009 88 10000 1.5 110 22:20 01.11.2019
4907 Clouds 26 1008 88 10000 1.63 116 21:41 01.11.2019
4908 Clouds 26 1008 88 10000 1.63 116 21:23 01.11.2019
4909 Clouds 23 1007 100 10000 1.63 116 20:57 01.11.2019
4910 Clouds 23 1007 100 10000 1.63 116 20:57 01.11.2019
4911 Clouds 23 1007 100 10000 1.63 116 20:39 01.11.2019
4912 Clouds 23 1007 100 10000 1.84 134 20:19 01.11.2019
4913 Clouds 23 1006 94 10000 1.5 160 19:56 01.11.2019
4914 Clouds 23 1006 94 10000 1.5 160 19:37 01.11.2019
4915 Clouds 23 1006 94 10000 1.5 160 19:37 01.11.2019
4916 Clouds 23 1006 94 10000 1.5 160 19:19 01.11.2019
4917 Rain 23 1007 91 0 1.58 133 18:39 01.11.2019
4918 Clouds 24 1006 94 10000 1.58 133 18:20 01.11.2019
4919 Clouds 24 1006 94 10000 1.58 133 17:55 01.11.2019
4920 Clouds 24 1006 94 10000 1.58 133 17:37 01.11.2019
4921 Clouds 24 1006 94 10000 1.71 144 17:18 01.11.2019
4922 Clouds 24 1006 94 10000 1.71 144 16:37 01.11.2019
4923 Clouds 24 1006 94 10000 1.71 144 16:18 01.11.2019
4924 Clouds 24 1007 94 10000 1.71 144 15:41 01.11.2019
4925 Clouds 24 1007 94 10000 1.71 144 15:22 01.11.2019
4926 Clouds 24 1007 94 10000 1.5 140 14:58 01.11.2019
4927 Clouds 24 1007 94 10000 1.5 140 14:40 01.11.2019
4928 Clouds 24 1007 94 10000 1.5 140 14:21 01.11.2019
4929 Clouds 24 1008 94 10000 1.5 140 13:56 01.11.2019
4930 Clouds 24 1008 94 10000 1.5 140 13:37 01.11.2019
4931 Clouds 24 1008 94 10000 1.5 140 13:18 01.11.2019
4932 Clouds 25 1008 88 10000 1.5 110 12:43 01.11.2019
4933 Clouds 25 1008 88 10000 1.5 110 12:24 01.11.2019
4934 Clouds 26 1008 83 10000 2.1 140 11:43 01.11.2019
4935 Clouds 26 1008 83 10000 2.1 140 11:25 01.11.2019
4936 Clouds 26 1008 83 10000 1.5 160 10:58 01.11.2019
4937 Clouds 26 1008 83 10000 1.5 160 10:39 01.11.2019
4938 Clouds 26 1008 83 10000 1.5 160 10:20 01.11.2019
4939 Clouds 26 1007 88 10000 2.1 160 09:45 01.11.2019
4940 Clouds 26 1007 88 10000 2.1 160 09:26 01.11.2019
4941 Clouds 27 1006 83 10000 2.1 110 08:58 01.11.2019
4942 Clouds 27 1006 83 10000 2.1 110 08:40 01.11.2019
4943 Clouds 27 1006 83 10000 2.1 110 08:21 01.11.2019
4944 Clouds 27 1006 83 10000 2.6 110 07:52 01.11.2019
4945 Rain 28 1005 74 10000 2.6 90 07:25 01.11.2019
4946 Clouds 27 1005 83 10000 3.1 140 06:56 01.11.2019
4947 Clouds 27 1005 83 10000 3.1 140 06:23 01.11.2019
4948 Rain 27 1005 88 10000 4.1 90 05:59 01.11.2019
4949 Rain 27 1005 88 10000 4.1 90 05:38 01.11.2019
4950 Clouds 28 1006 83 10000 7.7 110 03:33 01.11.2019
4951 Rain 30 1007 70 10000 7.2 70 01:49 01.11.2019
4952 Rain 30 1007 70 10000 7.2 70 01:22 01.11.2019
4953 Clouds 29 1008 79 10000 3.1 90 00:20 01.11.2019
4954 Clouds 27 1007 88 10000 2.1 140 23:45 31.10.2019
4955 Clouds 27 1007 88 10000 2.1 140 23:27 31.10.2019
4956 Clouds 26 1007 94 10000 1.44 135 22:59 31.10.2019
4957 Clouds 26 1007 94 10000 1.44 135 22:59 31.10.2019
4958 Clouds 26 1007 94 10000 1.44 135 22:59 31.10.2019
4959 Clouds 26 1007 94 10000 1.44 135 22:40 31.10.2019
4960 Clouds 26 1007 94 10000 1.44 135 22:22 31.10.2019
4961 Clouds 25 1007 100 10000 2.1 200 21:56 31.10.2019
4962 Clouds 25 1007 100 10000 2.1 200 21:56 31.10.2019
4963 Clouds 25 1007 100 10000 2.1 200 21:37 31.10.2019
4964 Clouds 25 1007 100 10000 2.1 200 21:18 31.10.2019
4965 Clouds 25 1006 94 10000 1 110 20:41 31.10.2019
4966 Clouds 25 1006 94 10000 1 110 20:22 31.10.2019
4967 Clouds 25 1006 94 10000 1 110 20:22 31.10.2019
4968 Rain 22 1006 93 0 1.97 138 19:48 31.10.2019
4969 Rain 22 1006 93 0 1.97 138 19:29 31.10.2019
4970 Rain 22 1006 93 0 1.97 138 18:59 31.10.2019
4971 Rain 22 1006 93 0 1.97 138 18:41 31.10.2019
4972 Clouds 25 1005 100 10000 1 160 18:22 31.10.2019
4973 Clouds 25 1005 100 10000 1 160 17:56 31.10.2019
4974 Clouds 25 1005 100 10000 1 160 17:37 31.10.2019
4975 Clouds 25 1005 100 10000 1 160 17:18 31.10.2019
4976 Clouds 25 1006 100 10000 2.1 110 16:41 31.10.2019
4977 Clouds 25 1006 100 10000 2.1 110 16:20 31.10.2019
4978 Clouds 25 1006 100 10000 2.1 110 16:20 31.10.2019
4979 Clouds 26 1006 94 10000 2.1 110 15:59 31.10.2019
4980 Rain 23 1005 93 0 1.83 134 15:40 31.10.2019
4981 Clouds 26 1006 94 10000 2.1 230 15:20 31.10.2019
4982 Clouds 26 1006 94 10000 2.1 230 14:57 31.10.2019
4983 Clouds 26 1006 94 10000 2.1 230 14:39 31.10.2019
4984 Clouds 26 1006 94 10000 2.1 230 14:20 31.10.2019
4985 Clouds 26 1007 94 10000 3.1 110 13:57 31.10.2019
4986 Clouds 26 1007 94 10000 3.1 110 13:38 31.10.2019
4987 Clouds 26 1007 94 10000 3.1 110 13:19 31.10.2019
4988 Clouds 26 1007 94 10000 1.5 140 12:44 31.10.2019
4989 Clouds 26 1007 94 10000 1.5 140 12:24 31.10.2019
4990 Clouds 26 1006 94 10000 1.5 110 11:59 31.10.2019
4991 Clouds 26 1006 94 10000 1.5 110 11:41 31.10.2019
4992 -273 0 0 0 0 0 11:19 31.10.2019
4993 Clouds 27 1005 88 10000 1.5 180 10:57 31.10.2019
4994 Clouds 27 1005 88 10000 1.5 180 10:57 31.10.2019
4995 Clouds 27 1005 88 10000 1.5 180 10:38 31.10.2019
4996 Clouds 27 1005 88 10000 1.5 180 10:19 31.10.2019
4997 Clouds 27 1005 88 10000 2.6 250 09:43 31.10.2019
4998 Clouds 27 1005 88 10000 2.6 250 09:18 31.10.2019
4999 Clouds 28 1004 83 10000 4.1 290 08:49 31.10.2019
5000 Clouds 28 1004 83 10000 4.1 290 08:31 31.10.2019
5001 Clouds 29 1004 79 10000 3.6 270 07:56 31.10.2019
5002 Clouds 29 1004 79 10000 3.6 270 07:56 31.10.2019
5003 Clouds 29 1004 79 10000 3.6 270 07:38 31.10.2019
5004 Clouds 29 1004 79 10000 3.6 270 07:19 31.10.2019
5005 Drizzle 29 1003 83 10000 4.6 270 06:38 31.10.2019
5006 Drizzle 29 1003 83 10000 4.6 270 06:19 31.10.2019
5007 Clouds 30 1005 74 10000 2.6 320 03:43 31.10.2019
5008 Clouds 29 1006 79 10000 2.6 360 02:41 31.10.2019
5009 Clouds 29 1006 74 10000 2.6 360 01:53 31.10.2019
5010 Clouds 29 1006 74 10000 2.6 360 01:53 31.10.2019
5011 Clouds 28 1007 78 10000 1.84 203 00:37 31.10.2019
5012 Clouds 28 1007 78 10000 1.84 203 00:18 31.10.2019
5013 Clouds 27 1007 83 10000 1 140 23:30 30.10.2019
5014 Clouds 26 1007 88 10000 2.1 200 22:43 30.10.2019
5015 Clouds 26 1007 88 10000 2.1 200 22:23 30.10.2019
5016 Clouds 26 1007 88 10000 2.1 200 22:23 30.10.2019
5017 Clouds 24 1006 100 10000 1 200 21:56 30.10.2019
5018 Clouds 24 1006 100 10000 1 200 21:37 30.10.2019
5019 Clouds 24 1006 100 10000 1 200 21:18 30.10.2019
5020 Clouds 24 1006 100 10000 1 200 20:59 30.10.2019
5021 Clouds 24 1006 100 10000 1 200 20:41 30.10.2019
5022 Clouds 24 1006 100 10000 1 200 20:41 30.10.2019
5023 Clouds 24 1006 100 10000 1 200 20:22 30.10.2019
5024 Clouds 24 1006 94 10000 2.6 90 19:58 30.10.2019
5025 Clouds 24 1006 94 10000 2.6 90 19:38 30.10.2019
5026 Clouds 24 1006 94 10000 2.6 90 19:19 30.10.2019
5027 Clouds 24 1006 100 10000 2.6 180 18:39 30.10.2019
5028 Clouds 24 1006 100 10000 2.6 180 18:21 30.10.2019
5029 Clouds 24 1006 100 10000 1 360 17:59 30.10.2019
5030 Clouds 24 1006 100 10000 1 360 17:41 30.10.2019
5031 Clouds 24 1006 100 10000 1 360 17:19 30.10.2019
5032 Clouds 25 1007 94 10000 1 180 16:55 30.10.2019
5033 Clouds 25 1007 94 10000 1 180 16:37 30.10.2019
5034 Clouds 25 1007 94 10000 1 180 16:19 30.10.2019
5035 Clouds 24 1008 100 10000 1 70 15:56 30.10.2019
5036 Clouds 24 1008 100 10000 1 70 15:37 30.10.2019
5037 Clouds 24 1008 100 10000 1 70 15:19 30.10.2019
5038 Thunderstorm 25 1008 100 10000 1.5 110 14:42 30.10.2019
5039 Thunderstorm 25 1008 100 10000 1.5 110 14:22 30.10.2019
5040 Thunderstorm 25 1008 100 10000 1.5 110 14:22 30.10.2019
5041 Thunderstorm 25 1008 100 10000 2.1 160 13:58 30.10.2019
5042 Thunderstorm 25 1008 100 0 1.36 159 13:40 30.10.2019
5043 Thunderstorm 25 1008 100 0 1.5 155 13:20 30.10.2019
5044 Clouds 25 1009 100 10000 1.5 155 12:57 30.10.2019
5045 Clouds 25 1009 100 10000 1.5 155 12:38 30.10.2019
5046 Clouds 25 1009 100 10000 1.5 155 12:19 30.10.2019
5047 Drizzle 25 1008 100 10000 1.5 155 11:42 30.10.2019
5048 Drizzle 25 1008 100 10000 1.48 148 11:23 30.10.2019
5049 Drizzle 25 1008 100 10000 1.48 148 11:23 30.10.2019
5050 Drizzle 25 1008 94 10000 2.1 180 10:46 30.10.2019
5051 Drizzle 25 1008 94 10000 2.1 180 10:27 30.10.2019
5052 Drizzle 25 1007 100 10000 1.5 140 09:59 30.10.2019
5053 Drizzle 25 1007 100 10000 1.5 140 09:39 30.10.2019
5054 Drizzle 25 1007 100 10000 1.5 140 09:21 30.10.2019
5055 Drizzle 25 1007 100 0 1.5 140 08:42 30.10.2019
5056 Drizzle 25 1007 100 0 1.5 140 08:22 30.10.2019
5057 Clouds 25 1007 94 10000 2.6 140 07:56 30.10.2019
5058 Clouds 25 1006 94 0 1.5 230 07:37 30.10.2019
5059 Clouds 25 1006 94 0 1.5 230 07:37 30.10.2019
5060 Clouds 26 1006 94 10000 1.5 290 06:43 30.10.2019
5061 Clouds 26 1006 94 10000 1.5 290 06:25 30.10.2019
5062 Drizzle 26 1006 94 10000 4.1 160 05:54 30.10.2019
5063 Drizzle 26 1006 94 10000 4.1 160 05:54 30.10.2019
5064 Drizzle 26 1006 94 10000 4.1 160 05:35 30.10.2019
5065 Clouds 30 1007 79 10000 5.1 70 03:48 30.10.2019
5066 Clouds 30 1007 79 10000 5.1 70 03:20 30.10.2019
5067 Thunderstorm 29 1007 83 10000 6.2 70 02:32 30.10.2019
5068 Clouds 31 1008 70 10000 6.2 70 01:34 30.10.2019
5069 Clouds 30 1008 74 10000 3.1 70 00:31 30.10.2019
5070 Clouds 30 1009 70 10000 1.5 110 23:47 29.10.2019
5071 Clouds 30 1009 70 10000 1.5 110 23:28 29.10.2019
5072 Clouds 26 1009 81 0 0.51 173 22:57 29.10.2019
5073 Clouds 26 1009 81 0 0.51 173 22:37 29.10.2019
5074 Clouds 25 1008 94 10000 2.1 110 22:18 29.10.2019
5075 Clouds 25 1008 94 10000 2.1 110 22:18 29.10.2019
5076 Clouds 25 1008 94 10000 2.1 110 21:54 29.10.2019
5077 Clouds 25 1008 94 10000 2.1 110 21:36 29.10.2019
5078 Clouds 25 1008 94 10000 2.1 110 21:18 29.10.2019
5079 Clouds 24 1008 94 10000 1 110 20:41 29.10.2019
5080 Clouds 24 1008 94 10000 1 110 20:21 29.10.2019
5081 Clouds 24 1007 100 10000 1.5 160 19:57 29.10.2019
5082 Clouds 24 1007 100 10000 1.5 160 19:38 29.10.2019
5083 Clouds 24 1007 100 10000 1.5 160 19:20 29.10.2019
5084 Clouds 24 1007 100 10000 1.01 188 18:56 29.10.2019
5085 Clouds 24 1007 100 10000 1.01 188 18:56 29.10.2019
5086 Clouds 24 1007 100 10000 1.01 188 18:37 29.10.2019
5087 Clouds 24 1007 100 10000 1.01 188 18:19 29.10.2019
5088 Clouds 24 1006 100 10000 1.01 188 17:54 29.10.2019
5089 Clouds 24 1006 100 10000 1.01 188 17:54 29.10.2019
5090 Clouds 24 1006 100 10000 1.01 188 17:36 29.10.2019
5091 Clouds 24 1006 100 10000 1 202 17:18 29.10.2019
5092 Clouds 24 1008 100 10000 1 202 16:39 29.10.2019
5093 Clouds 24 1008 100 10000 1 202 16:20 29.10.2019
5094 Clouds 25 1008 94 10000 1 202 15:56 29.10.2019
5095 Clouds 25 1008 94 10000 1 202 15:38 29.10.2019
5096 Clouds 25 1008 94 10000 1 202 15:19 29.10.2019
5097 Clouds 25 1009 100 10000 1.5 200 14:55 29.10.2019
5098 Clouds 25 1009 100 10000 1.5 200 14:37 29.10.2019
5099 Clouds 25 1009 100 10000 1.5 200 14:18 29.10.2019
5100 Clouds 26 1010 94 10000 1 160 13:40 29.10.2019
5101 Clouds 26 1010 94 10000 1 160 13:21 29.10.2019
5102 Clouds 26 1009 94 10000 1.5 160 12:45 29.10.2019
5103 Clouds 26 1009 94 10000 1.5 160 12:25 29.10.2019
5104 Clouds 26 1009 94 10000 1.5 160 12:25 29.10.2019
5105 Clouds 26 1009 94 10000 1.5 180 11:57 29.10.2019
5106 Clouds 26 1009 94 10000 1.5 180 11:38 29.10.2019
5107 Clouds 26 1009 94 10000 1.5 180 11:19 29.10.2019
5108 Clouds 27 1009 83 10000 3.1 110 10:57 29.10.2019
5109 Clouds 27 1009 83 10000 3.1 110 10:38 29.10.2019
5110 Clouds 27 1009 83 10000 3.1 110 10:19 29.10.2019
5111 Clouds 27 1008 88 10000 2.6 110 09:43 29.10.2019
5112 Clouds 27 1008 88 10000 2.6 110 09:23 29.10.2019
5113 Clouds 27 1008 88 10000 2.6 110 09:23 29.10.2019
5114 Clouds 28 1008 83 10000 2.6 110 08:58 29.10.2019
5115 Clouds 28 1008 83 10000 2.6 110 08:39 29.10.2019
5116 Clouds 28 1008 83 10000 2.6 110 08:21 29.10.2019
5117 Clouds 29 1006 74 10000 4.1 110 07:48 29.10.2019
5118 Clouds 29 1006 74 10000 4.1 110 07:21 29.10.2019
5119 Clouds 29 1006 83 10000 4.1 140 06:54 29.10.2019
5120 Clouds 29 1006 83 10000 4.1 140 06:33 29.10.2019
5121 Clouds 29 1006 83 10000 4.1 140 06:33 29.10.2019
5122 Clouds 30 1006 79 10000 3.6 160 05:59 29.10.2019
5123 Thunderstorm 30 1006 74 10000 9.3 70 05:39 29.10.2019
5124 Thunderstorm 31 1006 70 10000 6.2 70 04:52 29.10.2019
5125 Clouds 31 1007 70 10000 6.2 50 03:23 29.10.2019
5126 Clouds 32 1009 62 10000 6.2 90 01:57 29.10.2019
5127 Clouds 32 1009 62 10000 6.2 90 01:36 29.10.2019
5128 Clouds 30 1009 74 10000 3.1 70 00:53 29.10.2019
5129 Clouds 30 1009 74 10000 3.1 70 00:26 29.10.2019
5130 Clouds 29 1009 83 10000 3.6 110 23:38 28.10.2019
5131 Clouds 29 1009 83 10000 3.6 110 23:20 28.10.2019
5132 Clouds 27 1009 88 10000 1 140 22:40 28.10.2019
5133 Clouds 27 1009 88 10000 1 140 22:20 28.10.2019
5134 Drizzle 25 1009 100 10000 1 200 21:59 28.10.2019
5135 Drizzle 25 1009 100 10000 1 200 21:41 28.10.2019
5136 Drizzle 25 1009 100 10000 1 200 21:22 28.10.2019
5137 Clouds 24 1009 100 10000 2.1 160 20:59 28.10.2019
5138 Clouds 24 1009 100 10000 2.1 160 20:40 28.10.2019
5139 Clouds 24 1009 100 10000 2.1 160 20:20 28.10.2019
5140 Clouds 24 1008 100 10000 3.1 140 19:54 28.10.2019
5141 Clouds 24 1008 100 10000 3.1 140 19:36 28.10.2019
5142 Clouds 24 1008 100 10000 3.1 140 19:18 28.10.2019
5143 Clouds 23 1007 100 10000 1.5 110 18:55 28.10.2019
5144 Clouds 23 1007 100 10000 1.5 110 18:37 28.10.2019
5145 Clouds 23 1007 100 10000 1.5 110 18:18 28.10.2019
5146 Clouds 23 1007 100 10000 1.08 203 17:55 28.10.2019
5147 Clouds 23 1007 100 10000 1.08 203 17:36 28.10.2019
5148 Clouds 23 1007 100 10000 1.58 181 17:18 28.10.2019
5149 Clouds 24 1007 94 10000 1 180 16:44 28.10.2019
5150 Clouds 24 1007 94 10000 1 180 16:24 28.10.2019
5151 Clouds 24 1008 100 10000 1 140 15:59 28.10.2019
5152 Clouds 24 1008 100 10000 1 140 15:40 28.10.2019
5153 Clouds 24 1008 100 10000 1 140 15:22 28.10.2019
5154 Clouds 24 1008 100 10000 1.58 181 14:58 28.10.2019
5155 Clouds 24 1008 100 10000 1.58 181 14:40 28.10.2019
5156 Clouds 24 1008 100 10000 1.34 182 14:19 28.10.2019
5157 Clouds 25 1009 94 10000 1.34 182 13:58 28.10.2019
5158 Clouds 25 1009 94 10000 1.34 182 13:40 28.10.2019
5159 Clouds 25 1009 94 10000 1.21 183 13:18 28.10.2019
5160 Clouds 25 1009 100 10000 1.21 183 12:43 28.10.2019
5161 Clouds 25 1009 100 10000 1.21 183 12:21 28.10.2019
5162 Clouds 26 1008 94 10000 1.21 183 11:54 28.10.2019
5163 Clouds 26 1008 94 10000 1.21 183 11:36 28.10.2019
5164 Clouds 26 1008 94 10000 0.68 150 11:18 28.10.2019
5165 Clouds 27 1008 88 10000 0.68 150 10:39 28.10.2019
5166 Clouds 27 1008 88 10000 0.68 150 10:21 28.10.2019
5167 Clouds 27 1007 88 10000 1 110 09:57 28.10.2019
5168 Clouds 27 1007 88 10000 1 110 09:38 28.10.2019
5169 Clouds 27 1007 88 10000 1 110 09:19 28.10.2019
5170 Clouds 28 1006 83 10000 1 140 08:57 28.10.2019
5171 Clouds 28 1006 83 10000 1 140 08:37 28.10.2019
5172 Clouds 28 1006 83 10000 1 140 08:18 28.10.2019
5173 Clouds 29 1006 74 10000 1 140 07:55 28.10.2019
5174 Clouds 29 1006 74 10000 1 140 07:36 28.10.2019
5175 Clouds 29 1006 74 10000 1 140 07:18 28.10.2019
5176 Clouds 29 1006 74 10000 1 90 06:39 28.10.2019
5177 Clouds 29 1006 74 10000 3.1 90 05:33 28.10.2019
5178 Clouds 30 1007 70 10000 4.1 110 03:45 28.10.2019
5179 Clouds 29 1008 79 10000 3.6 110 02:46 28.10.2019
5180 Clouds 29 1009 74 10000 5.1 50 01:52 28.10.2019
5181 Clouds 29 1009 74 10000 5.1 50 01:52 28.10.2019
5182 Clouds 27 1009 83 10000 1.5 70 00:53 28.10.2019
5183 Clouds 27 1009 83 10000 1.5 70 00:31 28.10.2019
5184 Clouds 26 1009 88 10000 1.5 70 23:46 27.10.2019
5185 Clouds 26 1009 88 10000 1.5 70 23:23 27.10.2019
5186 Clouds 25 1010 94 10000 2.1 200 22:57 27.10.2019
5187 Clouds 25 1010 94 10000 2.1 200 22:39 27.10.2019
5188 Clouds 25 1010 94 10000 2.1 200 22:21 27.10.2019
5189 Clouds 25 1009 94 10000 2.1 160 21:57 27.10.2019
5190 Clouds 25 1009 94 10000 2.1 160 21:39 27.10.2019
5191 Clouds 25 1009 94 10000 2.1 160 21:20 27.10.2019
5192 Clouds 24 1008 100 10000 1.5 110 20:55 27.10.2019
5193 Clouds 24 1008 100 10000 1.5 110 20:36 27.10.2019
5194 Clouds 24 1008 100 10000 1.5 110 20:36 27.10.2019
5195 Clouds 24 1008 100 10000 1.5 110 20:18 27.10.2019
5196 Clouds 25 1008 94 10000 1.47 175 19:40 27.10.2019
5197 Clouds 25 1008 94 10000 1.47 175 19:20 27.10.2019
5198 Clouds 25 1007 94 10000 1.5 180 18:57 27.10.2019
5199 Clouds 25 1007 94 10000 1.5 180 18:39 27.10.2019
5200 Clouds 25 1007 94 10000 1.5 180 18:21 27.10.2019
5201 Clouds 25 1007 94 10000 1.47 175 17:56 27.10.2019
5202 Clouds 25 1007 94 10000 1.47 175 17:37 27.10.2019
5203 Clouds 25 1007 94 10000 1.35 170 17:19 27.10.2019
5204 Clouds 25 1007 94 10000 1.35 170 16:55 27.10.2019
5205 Clouds 25 1007 94 10000 1.35 170 16:37 27.10.2019
5206 Clouds 25 1007 94 10000 1.35 170 16:19 27.10.2019
5207 Clouds 24 1008 100 10000 1.35 170 15:55 27.10.2019
5208 Clouds 24 1008 100 10000 1.35 170 15:55 27.10.2019
5209 Clouds 24 1008 100 10000 1.35 170 15:37 27.10.2019
5210 Clouds 24 1008 100 10000 1.35 170 15:18 27.10.2019
5211 Clouds 25 1009 94 10000 1 110 14:41 27.10.2019
5212 Clouds 25 1009 94 10000 1 110 14:20 27.10.2019
5213 Clouds 26 1010 88 10000 2.6 140 13:55 27.10.2019
5214 Clouds 26 1010 88 10000 2.6 140 13:37 27.10.2019
5215 Clouds 26 1010 88 10000 2.6 140 13:18 27.10.2019
5216 Clouds 26 1009 88 10000 1.5 200 12:42 27.10.2019
5217 Clouds 26 1009 88 10000 1.5 200 12:23 27.10.2019
5218 Clouds 26 1009 94 10000 1 160 11:44 27.10.2019
5219 Clouds 26 1009 94 10000 1 160 11:25 27.10.2019
5220 Clouds 26 1009 94 10000 1 160 11:25 27.10.2019
5221 Clouds 26 1008 94 10000 1.33 155 10:59 27.10.2019
5222 Clouds 26 1008 94 10000 1.33 155 10:59 27.10.2019
5223 Clouds 26 1008 94 10000 1.33 155 10:41 27.10.2019
5224 Clouds 26 1008 94 10000 1.33 155 10:22 27.10.2019
5225 Clouds 27 1008 83 10000 1 140 09:43 27.10.2019
5226 Clouds 27 1008 83 10000 1 140 09:19 27.10.2019
5227 Clouds 27 1007 83 10000 1 160 08:57 27.10.2019
5228 Clouds 27 1007 83 10000 1 160 08:38 27.10.2019
5229 Clouds 27 1007 83 10000 1 160 08:19 27.10.2019
5230 Clouds 28 1006 78 10000 2.1 20 07:46 27.10.2019
5231 Clouds 29 1006 74 10000 1 360 07:27 27.10.2019
5232 Clouds 29 1006 79 10000 3.1 50 06:55 27.10.2019
5233 Clouds 29 1006 79 10000 3.1 50 06:29 27.10.2019
5234 Clouds 30 1006 79 10000 4.1 50 05:57 27.10.2019
5235 Clouds 30 1006 79 10000 4.1 50 05:35 27.10.2019
5236 Thunderstorm 31 1007 74 10000 5.1 50 03:35 27.10.2019
5237 Clouds 31 1009 62 10000 3.6 50 02:28 27.10.2019
5238 Clouds 31 1009 66 10000 1 70 01:25 27.10.2019
5239 Clouds 29 1009 74 10000 1 230 00:52 27.10.2019
5240 Clouds 29 1009 74 10000 1 230 00:33 27.10.2019
5241 Clouds 27 1009 78 10000 1.5 200 23:58 26.10.2019
5242 Clouds 27 1009 78 10000 1.5 200 23:39 26.10.2019
5243 Clouds 27 1009 78 10000 1.5 200 23:21 26.10.2019
5244 Clouds 24 1009 94 10000 1.5 180 22:57 26.10.2019
5245 Clouds 24 1009 94 10000 1.5 180 22:38 26.10.2019
5246 Clouds 24 1009 94 10000 1.5 180 22:19 26.10.2019
5247 Clouds 23 1008 94 10000 1.5 200 21:44 26.10.2019
5248 Clouds 23 1008 94 10000 1.5 200 21:23 26.10.2019
5249 Clouds 23 1008 94 10000 1.5 200 20:59 26.10.2019
5250 Clouds 23 1008 94 10000 1.5 200 20:40 26.10.2019
5251 Clouds 23 1008 94 10000 1.5 200 20:19 26.10.2019
5252 Clouds 23 1007 94 10000 2.1 160 19:42 26.10.2019
5253 Clouds 23 1007 94 10000 2.1 160 19:21 26.10.2019
5254 Clouds 23 1007 100 10000 1.5 160 18:57 26.10.2019
5255 Clouds 23 1007 100 10000 1.5 160 18:39 26.10.2019
5256 Clouds 23 1007 100 10000 1.5 160 18:20 26.10.2019
5257 Clouds 23 1008 100 10000 1.5 180 17:57 26.10.2019
5258 Clouds 23 1008 100 10000 1.5 180 17:38 26.10.2019
5259 Clouds 23 1008 100 10000 1.5 180 17:20 26.10.2019
5260 Clouds 23 1009 100 10000 1 200 16:44 26.10.2019
5261 Clouds 23 1009 100 10000 1 200 16:25 26.10.2019
5262 Clouds 24 1009 94 10000 0.76 160 15:59 26.10.2019
5263 Clouds 24 1009 94 10000 0.76 160 15:59 26.10.2019
5264 Clouds 24 1009 94 10000 0.76 160 15:37 26.10.2019
5265 Clouds 24 1009 94 10000 1.17 139 15:18 26.10.2019
5266 Clouds 25 1010 88 10000 1 90 14:38 26.10.2019
5267 Clouds 25 1010 88 10000 1 90 14:19 26.10.2019
5268 Rain 23 1010 92 0 1.33 137 13:42 26.10.2019
5269 Rain 23 1010 92 0 1.33 137 13:23 26.10.2019
5270 Clouds 25 1009 94 10000 1.33 137 12:50 26.10.2019
5271 Clouds 26 1008 88 10000 1 110 12:27 26.10.2019
5272 Clouds 26 1008 88 10000 1 110 11:57 26.10.2019
5273 Clouds 26 1008 88 10000 1 110 11:38 26.10.2019
5274 Clouds 26 1008 88 10000 1 110 11:38 26.10.2019
5275 Clouds 26 1008 88 10000 1 110 11:20 26.10.2019
5276 Clouds 26 1008 88 10000 1 110 10:45 26.10.2019
5277 Clouds 26 1008 88 10000 1 110 10:24 26.10.2019
5278 Clouds 27 1008 83 10000 1 160 09:48 26.10.2019
5279 Clouds 27 1008 83 10000 1 160 09:28 26.10.2019
5280 Clouds 28 1007 74 10000 1.5 230 08:44 26.10.2019
5281 Clouds 28 1007 74 10000 1.5 230 08:26 26.10.2019
5282 Clouds 27 1007 78 10000 3.1 200 07:56 26.10.2019
5283 Clouds 27 1007 78 10000 3.1 200 07:33 26.10.2019
5284 Clouds 28 1007 78 10000 2.6 320 06:48 26.10.2019
5285 Clouds 28 1007 78 10000 2.6 320 06:29 26.10.2019
5286 Thunderstorm 30 1007 70 10000 3.6 70 05:21 26.10.2019
5287 Clouds 32 1007 70 10000 6.2 50 04:44 26.10.2019
5288 Clouds 32 1008 70 10000 5.7 70 03:22 26.10.2019
5289 Clouds 31 1009 66 10000 3.6 70 01:58 26.10.2019
5290 Clouds 31 1009 66 10000 3.6 70 01:37 26.10.2019
5291 Clouds 30 1010 70 10000 3.1 70 00:27 26.10.2019
5292 Clouds 28 1009 78 10000 2.1 180 23:47 25.10.2019
5293 Clouds 28 1009 78 10000 2.1 180 23:21 25.10.2019
5294 Clouds 25 1009 88 10000 0.21 118 22:43 25.10.2019
5295 Clouds 25 1009 88 10000 0.21 118 22:25 25.10.2019
5296 Clouds 23 1008 100 10000 0.21 118 21:58 25.10.2019
5297 Clouds 23 1008 100 10000 0.21 118 21:58 25.10.2019
5298 Clouds 23 1008 100 10000 0.21 118 21:40 25.10.2019
5299 Clouds 23 1008 100 10000 1.2 176 21:21 25.10.2019
5300 Clouds 23 1007 100 10000 1.2 176 20:56 25.10.2019
5301 Clouds 23 1007 100 10000 1.2 176 20:38 25.10.2019
5302 Clouds 23 1007 100 10000 1.2 176 20:19 25.10.2019
5303 Clouds 23 1008 90 0 1.2 176 19:44 25.10.2019
5304 Clouds 24 1007 94 10000 1 180 19:25 25.10.2019
5305 Clouds 24 1007 94 10000 1 180 18:46 25.10.2019
5306 Clouds 24 1007 94 10000 1 180 18:24 25.10.2019
5307 Clouds 24 1008 94 10000 1 180 17:42 25.10.2019
5308 Clouds 24 1008 94 10000 1 180 17:22 25.10.2019
5309 Clouds 24 1008 100 10000 1.54 176 16:58 25.10.2019
5310 Clouds 24 1008 100 10000 1.54 176 16:58 25.10.2019
5311 Clouds 24 1008 100 10000 1.54 176 16:40 25.10.2019
5312 Clouds 24 1008 100 10000 1.54 176 16:19 25.10.2019
5313 Clouds 25 1009 94 10000 1.54 176 15:41 25.10.2019
5314 Clouds 25 1009 94 10000 1.42 170 15:23 25.10.2019
5315 Clouds 25 1009 94 10000 1.5 160 14:59 25.10.2019
5316 Clouds 25 1009 94 10000 1.5 160 14:39 25.10.2019
5317 Clouds 25 1009 94 10000 1.5 160 14:20 25.10.2019
5318 Clouds 25 1010 94 10000 1.5 110 13:44 25.10.2019
5319 Clouds 25 1010 94 10000 1.5 110 13:24 25.10.2019
5320 Clouds 27 1009 78 10000 1.72 188 12:57 25.10.2019
5321 Clouds 27 1009 78 10000 1.72 188 12:39 25.10.2019
5322 Clouds 27 1009 78 10000 1.56 194 12:19 25.10.2019
5323 Clouds 28 1008 69 10000 1.5 140 11:41 25.10.2019
5324 Clouds 28 1008 69 10000 1.5 140 11:22 25.10.2019
5325 Clouds 29 1008 70 10000 4.1 90 10:59 25.10.2019
5326 Clouds 29 1008 70 10000 4.1 90 10:39 25.10.2019
5327 Clouds 29 1008 70 10000 4.1 90 10:19 25.10.2019
5328 Clouds 30 1007 70 10000 3.6 90 09:42 25.10.2019
5329 Clouds 30 1007 70 10000 3.6 90 09:21 25.10.2019
5330 Clouds 31 1006 62 10000 3.1 50 08:59 25.10.2019
5331 Clouds 31 1006 62 10000 3.1 50 08:41 25.10.2019
5332 Clouds 31 1006 62 10000 3.1 50 08:22 25.10.2019
5333 Clouds 33 1006 55 10000 4.6 90 07:47 25.10.2019
5334 Clouds 33 1006 55 10000 4.6 90 07:28 25.10.2019
5335 Clouds 32 1006 59 10000 4.1 70 06:38 25.10.2019
5336 Clouds 32 1008 55 10000 7.7 70 05:49 25.10.2019
5337 Clouds 32 1008 55 10000 7.7 70 05:30 25.10.2019
5338 Clouds 32 1008 62 10000 9.3 70 04:36 25.10.2019
5339 Clouds 32 1009 62 10000 5.1 50 02:42 25.10.2019
5340 Clouds 32 1010 55 10000 5.1 90 01:52 25.10.2019
5341 Clouds 30 1010 66 10000 3.1 110 00:36 25.10.2019
5342 Clouds 27 1010 88 10000 1.5 110 23:44 24.10.2019
5343 Clouds 27 1010 88 10000 1.5 110 23:25 24.10.2019
5344 Clouds 25 1009 94 10000 1 180 22:59 24.10.2019
5345 Clouds 25 1009 94 10000 1 180 22:39 24.10.2019
5346 Clouds 25 1009 94 10000 1 180 22:19 24.10.2019
5347 Clouds 25 1009 94 10000 1 180 22:19 24.10.2019
5348 Clouds 22 1009 100 10000 1.5 200 21:57 24.10.2019
5349 Clouds 22 1009 100 10000 1.5 200 21:38 24.10.2019
5350 Clouds 22 1009 100 10000 1.5 200 21:20 24.10.2019
5351 Clouds 22 1008 100 10000 1.55 175 20:58 24.10.2019
5352 Clouds 22 1008 100 10000 1.55 175 20:38 24.10.2019
5353 Clouds 22 1008 100 10000 1.55 175 20:20 24.10.2019
5354 Clouds 23 1008 94 10000 1.55 175 19:55 24.10.2019
5355 Clouds 23 1008 94 10000 1.55 175 19:37 24.10.2019
5356 Clouds 23 1008 94 10000 1.55 175 19:18 24.10.2019
5357 Clouds 23 1008 94 10000 1.55 175 18:41 24.10.2019
5358 Clouds 23 1008 94 10000 1.45 171 18:23 24.10.2019
5359 Clouds 23 1009 94 10000 1.5 160 17:59 24.10.2019
5360 Clouds 23 1009 94 10000 1.5 160 17:40 24.10.2019
5361 Clouds 23 1009 94 10000 1.5 160 17:20 24.10.2019
5362 Clear 22 1009 91 0 1.45 171 16:56 24.10.2019
5363 Clear 22 1009 91 0 1.45 171 16:37 24.10.2019
5364 Clouds 24 1010 94 10000 1.5 140 16:18 24.10.2019
5365 Clouds 24 1010 94 10000 1.5 140 15:55 24.10.2019
5366 Clouds 24 1010 94 10000 1.5 140 15:37 24.10.2019
5367 Clouds 24 1010 94 10000 1.5 140 15:19 24.10.2019
5368 Clouds 24 1010 94 10000 1.74 184 14:44 24.10.2019
5369 Clouds 24 1010 94 10000 1.74 184 14:26 24.10.2019
5370 Clouds 24 1010 94 10000 1.74 184 14:26 24.10.2019
5371 Clouds 25 1010 88 10000 1.5 160 13:59 24.10.2019
5372 Clouds 25 1010 88 10000 1.5 160 13:38 24.10.2019
5373 Clouds 25 1010 88 10000 1.5 160 13:19 24.10.2019
5374 Clouds 25 1010 88 10000 1.5 160 12:56 24.10.2019
5375 Clouds 25 1010 88 10000 1.5 160 12:37 24.10.2019
5376 Clouds 25 1010 88 10000 1.5 160 12:18 24.10.2019
5377 Clouds 27 1009 83 10000 2.6 140 11:55 24.10.2019
5378 Clouds 27 1009 83 10000 2.6 140 11:36 24.10.2019
5379 Clouds 27 1009 83 10000 2.6 140 11:36 24.10.2019
5380 Clouds 27 1009 83 10000 2.6 140 11:18 24.10.2019
5381 Clouds 29 1009 70 10000 4.1 90 10:42 24.10.2019
5382 Clouds 29 1009 70 10000 4.1 90 10:23 24.10.2019
5383 Clouds 30 1008 66 10000 3.1 90 09:40 24.10.2019
5384 Clouds 30 1008 66 10000 3.1 90 09:19 24.10.2019
5385 Clouds 33 1007 55 10000 6.2 70 08:58 24.10.2019
5386 Clouds 33 1007 55 10000 6.2 70 08:39 24.10.2019
5387 Clouds 33 1007 55 10000 6.2 70 08:20 24.10.2019
5388 Clouds 33 1007 55 10000 6.2 70 08:20 24.10.2019
5389 Clouds 32 1007 62 10000 8.2 70 07:47 24.10.2019
5390 Clouds 32 1007 62 10000 8.2 70 07:23 24.10.2019
5391 Clouds 32 1007 62 10000 8.2 70 06:53 24.10.2019
5392 Clouds 32 1007 62 10000 8.2 70 06:34 24.10.2019
5393 Clouds 33 1007 59 10000 8.7 70 05:54 24.10.2019
5394 Clouds 33 1007 59 10000 8.7 70 05:30 24.10.2019
5395 Clouds 33 1007 59 10000 8.7 70 05:30 24.10.2019
5396 Clouds 33 1008 59 10000 8.2 70 04:22 24.10.2019
5397 Clouds 33 1009 63 10000 7.2 50 03:29 24.10.2019
5398 Clouds 33 1010 52 10000 7.2 90 02:35 24.10.2019
5399 Clouds 32 1011 62 10000 6.2 90 01:59 24.10.2019
5400 Clouds 32 1011 62 10000 6.2 90 01:30 24.10.2019
5401 Clouds 31 1011 66 10000 4.1 110 00:53 24.10.2019
5402 Clouds 31 1011 66 10000 4.1 110 00:23 24.10.2019
5403 Clouds 28 1010 69 10000 2.1 110 23:44 23.10.2019
5404 Clouds 28 1010 69 10000 2.1 110 23:25 23.10.2019
5405 Clouds 24 1010 94 10000 1 160 22:58 23.10.2019
5406 Clouds 24 1010 94 10000 1 160 22:39 23.10.2019
5407 Clouds 24 1010 94 10000 1 160 22:39 23.10.2019
5408 Clouds 24 1010 94 10000 1 160 22:19 23.10.2019
5409 Clouds 23 1009 94 10000 1 110 21:58 23.10.2019
5410 Clouds 23 1009 94 10000 1 110 21:40 23.10.2019
5411 Clouds 23 1009 94 10000 1 110 21:21 23.10.2019
5412 Clouds 23 1009 100 10000 1 140 20:59 23.10.2019
5413 Clouds 23 1009 100 10000 1 140 20:39 23.10.2019
5414 Clouds 23 1009 100 10000 1 140 20:21 23.10.2019
5415 Clouds 23 1009 100 10000 1 180 19:58 23.10.2019
5416 Clouds 23 1009 100 10000 1 180 19:40 23.10.2019
5417 Clouds 23 1009 100 10000 1 180 19:19 23.10.2019
5418 Clouds 23 1009 100 10000 1.5 160 18:55 23.10.2019
5419 Clouds 23 1009 100 10000 1.5 160 18:36 23.10.2019
5420 Clouds 23 1009 100 10000 1.5 160 18:18 23.10.2019
5421 Clouds 24 1009 94 10000 1.42 166 17:44 23.10.2019
5422 Clouds 24 1009 94 10000 1.42 166 17:20 23.10.2019
5423 Clouds 24 1009 94 10000 1 160 16:56 23.10.2019
5424 Clouds 24 1009 94 10000 1 160 16:38 23.10.2019
5425 Clouds 24 1009 94 10000 1 160 16:19 23.10.2019
5426 Clouds 24 1009 94 10000 1 160 16:19 23.10.2019
5427 Clouds 24 1010 94 10000 1.5 160 15:42 23.10.2019
5428 Clouds 24 1010 94 10000 1.5 160 15:22 23.10.2019
5429 Clouds 24 1011 94 10000 2.1 110 14:58 23.10.2019
5430 Clouds 24 1011 94 10000 2.1 110 14:38 23.10.2019
5431 Clouds 24 1011 94 10000 2.1 110 14:19 23.10.2019
5432 Clouds 24 1010 94 10000 1.5 160 13:57 23.10.2019
5433 Clouds 24 1010 94 10000 1.5 160 13:57 23.10.2019
5434 Clouds 24 1010 94 10000 1.5 160 13:38 23.10.2019
5435 Clouds 24 1010 94 10000 1.5 160 13:20 23.10.2019
5436 Clouds 25 1010 88 10000 1.5 160 12:54 23.10.2019
5437 Clouds 25 1010 88 10000 1.5 160 12:54 23.10.2019
5438 Clouds 25 1010 88 10000 1.5 160 12:54 23.10.2019
5439 Clouds 25 1010 88 10000 1.5 160 12:36 23.10.2019
5440 Clouds 25 1010 88 10000 1.5 160 12:18 23.10.2019
5441 Clouds 26 1010 78 10000 2.1 160 11:54 23.10.2019
5442 Clouds 26 1010 78 10000 2.1 160 11:36 23.10.2019
5443 Clouds 26 1010 78 10000 2.1 160 11:36 23.10.2019
5444 Clouds 26 1010 78 10000 2.1 160 11:36 23.10.2019
5445 Clouds 26 1010 78 10000 2.1 160 11:18 23.10.2019
5446 Clouds 28 1009 74 10000 3.1 90 10:42 23.10.2019
5447 Clouds 28 1009 74 10000 3.1 90 10:23 23.10.2019
5448 Clouds 29 1009 66 10000 6.2 110 09:41 23.10.2019
5449 Clouds 29 1009 66 10000 6.2 110 09:23 23.10.2019
5450 Clouds 29 1009 66 10000 6.2 110 09:23 23.10.2019
5451 Clouds 32 1008 55 10000 6.2 110 08:57 23.10.2019
5452 Clouds 32 1008 55 10000 6.2 110 08:39 23.10.2019
5453 Clouds 32 1008 55 10000 6.2 110 08:18 23.10.2019
5454 Clouds 32 1007 59 10000 6.2 110 07:45 23.10.2019
5455 Clouds 32 1007 59 10000 6.2 110 07:21 23.10.2019
5456 Clouds 33 1007 59 10000 6.7 70 06:45 23.10.2019
5457 Clouds 33 1007 59 10000 6.7 70 06:20 23.10.2019
5458 Clouds 32 1007 62 10000 8.2 70 05:20 23.10.2019
5459 Clouds 34 1007 56 10000 6.2 50 04:33 23.10.2019
5460 Clouds 32 1010 62 10000 6.2 110 02:44 23.10.2019
5461 Clouds 31 1010 66 10000 4.1 110 01:56 23.10.2019
5462 Clouds 30 1011 66 10000 3.1 110 01:25 23.10.2019
5463 Clouds 30 1011 66 10000 3.1 110 00:35 23.10.2019
5464 Clouds 29 1010 74 10000 2.1 110 23:57 22.10.2019
5465 Clouds 29 1010 74 10000 2.1 110 23:37 22.10.2019
5466 Clouds 29 1010 74 10000 2.1 110 23:18 22.10.2019
5467 Clouds 25 1010 94 10000 1.5 160 22:41 22.10.2019
5468 Clouds 25 1010 94 10000 1.5 160 22:23 22.10.2019
5469 Clouds 24 1010 94 10000 1.5 140 21:57 22.10.2019
5470 Clouds 24 1010 94 10000 1.5 140 21:39 22.10.2019
5471 Clouds 24 1010 94 10000 1.5 140 21:19 22.10.2019
5472 Clouds 24 1010 88 10000 4.1 110 20:59 22.10.2019
5473 Clouds 24 1010 88 10000 4.1 110 20:41 22.10.2019
5474 Clouds 24 1010 88 10000 4.1 110 20:41 22.10.2019
5475 Clouds 24 1010 88 10000 4.1 110 20:23 22.10.2019
5476 Clouds 24 1009 94 10000 3.1 90 19:59 22.10.2019
5477 Clouds 24 1009 94 10000 3.1 90 19:41 22.10.2019
5478 Clouds 24 1009 94 10000 3.1 90 19:23 22.10.2019
5479 Clouds 24 1009 94 10000 2.1 140 18:56 22.10.2019
5480 Clouds 24 1009 94 10000 2.1 140 18:38 22.10.2019
5481 Clouds 24 1009 94 10000 2.1 140 18:20 22.10.2019
5482 Clouds 24 1010 94 10000 1.5 160 17:55 22.10.2019
5483 Clouds 24 1010 94 10000 1.5 160 17:36 22.10.2019
5484 Clouds 24 1010 94 10000 1.5 160 17:18 22.10.2019
5485 Clouds 24 1010 94 10000 1.32 138 16:39 22.10.2019
5486 Clouds 24 1010 94 10000 1.32 138 16:20 22.10.2019
5487 Clouds 24 1010 94 10000 1.32 138 16:20 22.10.2019
5488 Clouds 24 1011 94 10000 1.32 138 15:59 22.10.2019
5489 Clouds 24 1011 94 10000 1.32 138 15:41 22.10.2019
5490 Clouds 24 1011 94 10000 1.8 141 15:19 22.10.2019
5491 Clouds 24 1011 94 10000 1.5 160 14:47 22.10.2019
5492 Clouds 24 1011 94 10000 1.5 160 14:22 22.10.2019
5493 Clouds 24 1011 94 10000 1.5 140 13:56 22.10.2019
5494 Clouds 24 1011 94 10000 1.5 140 13:37 22.10.2019
5495 Clouds 24 1011 94 10000 1.5 140 13:18 22.10.2019
5496 Drizzle 24 1011 94 10000 1.5 140 12:54 22.10.2019
5497 Drizzle 24 1011 94 10000 1.5 140 12:36 22.10.2019
5498 Drizzle 24 1011 94 10000 1.5 140 12:18 22.10.2019
5499 Clouds 25 1011 88 10000 2.6 140 11:40 22.10.2019
5500 Clouds 25 1011 88 10000 2.6 140 11:22 22.10.2019
5501 Clouds 25 1011 88 10000 5.1 110 10:58 22.10.2019
5502 Clouds 25 1011 88 10000 5.1 110 10:37 22.10.2019
5503 Clouds 25 1011 88 10000 5.1 110 10:19 22.10.2019
5504 Clouds 28 1009 74 10000 10.3 90 09:56 22.10.2019
5505 Clouds 28 1009 74 10000 10.3 90 09:37 22.10.2019
5506 Clouds 28 1009 74 10000 10.3 90 09:37 22.10.2019
5507 Clouds 28 1009 74 10000 10.3 90 09:19 22.10.2019
5508 Clouds 31 1007 58 10000 5.1 90 08:43 22.10.2019
5509 Clouds 31 1007 58 10000 5.1 90 08:22 22.10.2019
5510 Clouds 33 1006 55 10000 6.2 90 07:49 22.10.2019
5511 Clouds 33 1006 55 10000 6.2 90 07:29 22.10.2019
5512 Clouds 32 1006 66 10000 9.3 70 06:52 22.10.2019
5513 Clouds 32 1006 66 10000 9.3 70 06:31 22.10.2019
5514 Clouds 32 1007 66 10000 6.2 50 05:58 22.10.2019
5515 Clouds 32 1007 66 10000 6.2 50 05:24 22.10.2019
5516 Clouds 32 1010 66 10000 6.2 50 02:48 22.10.2019
5517 Clouds 32 1010 66 10000 6.2 50 02:28 22.10.2019
5518 Clouds 32 1010 62 10000 5.7 90 01:29 22.10.2019
5519 Clouds 30 1010 74 10000 3.1 110 00:58 22.10.2019
5520 Clouds 30 1010 74 10000 3.1 110 00:40 22.10.2019
5521 Clouds 30 1010 74 10000 3.1 110 00:21 22.10.2019
5522 Clouds 26 1011 88 10000 0.58 116 23:55 21.10.2019
5523 Clouds 26 1011 88 10000 0.58 116 23:37 21.10.2019
5524 Clouds 26 1011 88 10000 0.58 116 23:18 21.10.2019
5525 Clouds 26 1011 88 10000 0.58 116 23:18 21.10.2019
5526 Clouds 24 1010 94 10000 0.58 116 22:56 21.10.2019
5527 Clouds 24 1010 94 10000 0.58 116 22:37 21.10.2019
5528 Clouds 24 1010 94 10000 0.58 116 22:19 21.10.2019
5529 Clouds 22 1010 100 10000 0.58 116 21:41 21.10.2019
5530 Clouds 22 1010 100 10000 1.16 174 21:23 21.10.2019
5531 Clouds 22 1009 100 10000 1.16 174 20:59 21.10.2019
5532 Clouds 22 1009 100 10000 1.16 174 20:41 21.10.2019
5533 Clouds 22 1009 100 10000 1.16 174 20:21 21.10.2019
5534 Clouds 22 1008 100 10000 2.1 180 19:59 21.10.2019
5535 Clouds 22 1008 100 10000 2.1 180 19:40 21.10.2019
5536 Clouds 22 1008 100 10000 2.1 180 19:22 21.10.2019
5537 Clouds 23 1008 94 10000 1.16 174 18:56 21.10.2019
5538 Clouds 23 1008 94 10000 1.16 174 18:37 21.10.2019
5539 Clouds 23 1008 94 10000 1.48 169 18:19 21.10.2019
5540 Clouds 23 1008 100 10000 1.48 169 17:56 21.10.2019
5541 Clouds 23 1008 100 10000 1.48 169 17:37 21.10.2019
5542 Clouds 23 1008 100 10000 1.48 169 17:18 21.10.2019
5543 Clouds 23 1009 100 10000 1.48 169 16:56 21.10.2019
5544 Clouds 23 1009 100 10000 1.48 169 16:37 21.10.2019
5545 Clouds 23 1009 100 10000 1.48 169 16:19 21.10.2019
5546 Clouds 24 1010 94 10000 1.48 169 15:42 21.10.2019
5547 Clouds 24 1010 94 10000 0.98 137 15:24 21.10.2019
5548 Clouds 24 1011 100 10000 1.5 160 14:57 21.10.2019
5549 Clouds 24 1011 100 10000 1.5 160 14:38 21.10.2019
5550 Clouds 24 1011 100 10000 1.5 160 14:19 21.10.2019
5551 Clouds 24 1011 100 10000 2.1 140 13:55 21.10.2019
5552 Clouds 24 1011 100 10000 2.1 140 13:37 21.10.2019
5553 Clouds 24 1011 100 10000 2.1 140 13:18 21.10.2019
5554 Clouds 24 1011 100 10000 1.5 140 12:41 21.10.2019
5555 Clouds 24 1011 100 10000 1.5 140 12:22 21.10.2019
5556 Clouds 25 1011 94 10000 1 180 11:55 21.10.2019
5557 Clouds 25 1011 94 10000 1 180 11:37 21.10.2019
5558 Clouds 25 1011 94 10000 1 180 11:18 21.10.2019
5559 Clouds 25 1010 94 10000 2.6 260 10:55 21.10.2019
5560 Clouds 25 1010 94 10000 2.6 260 10:36 21.10.2019
5561 Clouds 25 1010 94 10000 2.6 260 10:18 21.10.2019
5562 Clouds 25 1010 94 10000 2.1 90 09:42 21.10.2019
5563 Clouds 25 1010 94 10000 2.1 90 09:23 21.10.2019
5564 Thunderstorm 26 1008 88 10000 3.1 180 08:43 21.10.2019
5565 Thunderstorm 26 1008 88 10000 3.1 180 08:23 21.10.2019
5566 Thunderstorm 26 1008 88 10000 3.6 200 07:58 21.10.2019
5567 Thunderstorm 27 1008 83 10000 1.5 230 07:37 21.10.2019
5568 Thunderstorm 27 1008 83 10000 1.5 230 07:18 21.10.2019
5569 Rain 28 1008 77 0 4.94 138.851 06:50 21.10.2019
5570 Clouds 31 1008 62 10000 3.6 230 06:31 21.10.2019
5571 Clouds 31 1008 62 10000 3.6 230 05:46 21.10.2019
5572 Clouds 32 1008 70 10000 5.7 70 04:42 21.10.2019
5573 Clouds 31 1010 62 10000 4.6 50 02:41 21.10.2019
5574 Clouds 31 1010 62 10000 4.6 50 02:21 21.10.2019
5575 Clouds 31 1010 62 10000 4.6 50 02:21 21.10.2019
5576 Clouds 31 1011 74 10000 6.7 70 01:49 21.10.2019
5577 Clouds 31 1011 74 10000 6.7 70 01:20 21.10.2019
5578 Rain 28 1011 79 0 4.95 150.001 00:41 21.10.2019
5579 Clouds 28 1011 78 10000 1.5 140 00:22 21.10.2019
5580 Clouds 28 1011 78 10000 1.5 140 23:40 20.10.2019
5581 Clouds 28 1011 78 10000 1.5 140 23:21 20.10.2019
5582 Clouds 25 1010 88 10000 1.5 200 22:55 20.10.2019
5583 Clouds 25 1010 88 10000 1.5 200 22:36 20.10.2019
5584 Clouds 25 1010 88 10000 1.5 200 22:18 20.10.2019
5585 Clouds 23 1009 100 10000 5.04 140.295 21:40 20.10.2019
5586 Clouds 23 1009 100 10000 4.72 132.614 21:22 20.10.2019
5587 Clouds 23 1009 94 10000 2.1 140 20:57 20.10.2019
5588 Clouds 23 1009 94 10000 2.1 140 20:39 20.10.2019
5589 Clouds 23 1009 94 10000 2.1 140 20:18 20.10.2019
5590 Clouds 23 1008 100 10000 5.66 137.276 19:56 20.10.2019
5591 Clouds 23 1008 100 10000 5.66 137.276 19:37 20.10.2019
5592 Clouds 23 1008 100 10000 5.66 137.276 19:19 20.10.2019
5593 Clouds 24 1008 94 10000 1.5 180 18:41 20.10.2019
5594 Clouds 24 1008 94 10000 1.5 180 18:22 20.10.2019
5595 Clouds 24 1009 94 10000 1.5 140 17:58 20.10.2019
5596 Clouds 24 1009 94 10000 1.5 140 17:39 20.10.2019
5597 Clouds 24 1009 94 10000 1.5 140 17:39 20.10.2019
5598 Clouds 24 1009 94 10000 1.5 140 17:21 20.10.2019
5599 Clouds 24 1010 100 10000 1 140 16:55 20.10.2019
5600 Clouds 24 1010 100 10000 1 140 16:37 20.10.2019
5601 Clouds 24 1010 100 10000 1 140 16:18 20.10.2019
5602 Clouds 25 1010 94 10000 1.5 160 15:41 20.10.2019
5603 Clouds 25 1010 94 10000 1.5 160 15:23 20.10.2019
5604 Clouds 25 1011 94 10000 1.5 160 14:59 20.10.2019
5605 Clouds 25 1011 94 10000 1.5 160 14:38 20.10.2019
5606 Clouds 25 1011 94 10000 1.5 160 14:19 20.10.2019
5607 Clouds 25 1011 94 10000 1.5 160 13:56 20.10.2019
5608 Clouds 25 1011 94 10000 1.5 160 13:37 20.10.2019
5609 Clouds 25 1011 94 10000 1.5 160 13:18 20.10.2019
5610 Clouds 26 1011 94 10000 1.5 140 12:57 20.10.2019
5611 Clouds 26 1011 94 10000 1.5 140 12:39 20.10.2019
5612 Clouds 26 1011 94 10000 1.5 140 12:21 20.10.2019
5613 Clouds 27 1011 88 10000 1.5 180 11:57 20.10.2019
5614 Clouds 27 1011 88 10000 1.5 180 11:38 20.10.2019
5615 Clouds 27 1011 88 10000 1.5 180 11:20 20.10.2019
5616 Clouds 28 1010 83 10000 1.5 160 10:41 20.10.2019
5617 Clouds 28 1010 83 10000 1.5 160 10:41 20.10.2019
5618 Clouds 28 1010 83 10000 1.5 160 10:22 20.10.2019
5619 Clouds 30 1010 74 10000 3.1 70 09:58 20.10.2019
5620 Clouds 30 1010 74 10000 3.1 70 09:58 20.10.2019
5621 Clouds 30 1010 74 10000 3.1 70 09:40 20.10.2019
5622 Clouds 30 1010 74 10000 3.1 70 09:21 20.10.2019
5623 Clouds 30 1009 74 10000 4.1 70 08:48 20.10.2019
5624 Clouds 30 1009 74 10000 4.1 70 08:48 20.10.2019
5625 Thunderstorm 31 1009 70 10000 5.7 70 08:23 20.10.2019
5626 Clouds 32 1008 70 10000 4.1 50 07:50 20.10.2019
5627 Clouds 32 1008 70 10000 4.1 50 07:30 20.10.2019
5628 Clouds 31 1008 74 10000 6.7 50 06:35 20.10.2019
5629 Clouds 32 1009 70 10000 4.6 50 05:59 20.10.2019
5630 Clouds 32 1009 70 10000 4.6 50 04:27 20.10.2019
5631 Clouds 32 1011 66 10000 3.6 140 03:41 20.10.2019
5632 Clouds 32 1011 66 10000 3.6 140 03:20 20.10.2019
5633 Clouds 31 1011 74 10000 6.2 70 02:36 20.10.2019
5634 Clouds 30 1012 74 10000 2.1 20 01:58 20.10.2019
5635 Clouds 30 1012 74 10000 2.1 20 01:23 20.10.2019
5636 Clouds 30 1012 74 10000 3.1 90 00:54 20.10.2019
5637 Clouds 30 1012 74 10000 3.1 90 00:22 20.10.2019
5638 Clouds 27 1012 83 10000 1 180 23:58 19.10.2019
5639 Clouds 27 1012 83 10000 1 180 23:40 19.10.2019
5640 Clouds 27 1012 83 10000 1 180 23:21 19.10.2019
5641 Clouds 24 1011 100 10000 2.86 80.854 22:55 19.10.2019
5642 Clouds 24 1011 100 10000 2.86 80.854 22:37 19.10.2019
5643 Clouds 24 1011 100 10000 2.86 80.854 22:18 19.10.2019
5644 Clouds 24 1010 94 10000 2.86 80.854 21:43 19.10.2019
5645 Clouds 24 1010 94 10000 4.95 130.021 21:20 19.10.2019
5646 Clouds 24 1010 94 10000 1.5 140 20:43 19.10.2019
5647 Clouds 24 1010 94 10000 1.5 140 20:22 19.10.2019
5648 Clouds 24 1010 100 10000 1 160 19:56 19.10.2019
5649 Clouds 24 1010 100 10000 1 160 19:37 19.10.2019
5650 Clouds 24 1010 100 10000 1 160 19:19 19.10.2019
5651 Clouds 24 1010 100 10000 3.93 124.53 18:41 19.10.2019
5652 Clouds 24 1010 100 10000 3.86 117.56 18:22 19.10.2019
5653 Clouds 24 1010 100 10000 1.5 290 17:42 19.10.2019
5654 Clouds 24 1010 100 10000 1.5 290 17:23 19.10.2019
5655 Clouds 24 1011 100 10000 1 160 16:59 19.10.2019
5656 Clouds 24 1011 100 10000 1 160 16:38 19.10.2019
5657 Clouds 24 1011 100 10000 1 160 16:38 19.10.2019
5658 Clouds 24 1011 100 10000 1 160 16:19 19.10.2019
5659 Clouds 24 1012 100 10000 3.86 117.56 15:43 19.10.2019
5660 Clouds 24 1012 100 10000 3.86 117.56 15:25 19.10.2019
5661 Clouds 24 1012 100 10000 3.86 117.56 15:25 19.10.2019
5662 Clouds 25 1012 94 10000 1.5 200 14:40 19.10.2019
5663 Clouds 25 1012 94 10000 1.5 200 14:40 19.10.2019
5664 Clouds 25 1012 94 10000 1.5 200 14:40 19.10.2019
5665 Clouds 25 1012 94 10000 1.5 200 14:21 19.10.2019
5666 Clouds 24 1012 100 10000 2.1 180 13:59 19.10.2019
5667 Clouds 24 1012 100 10000 2.1 180 13:40 19.10.2019
5668 Clouds 24 1012 100 10000 2.1 180 13:20 19.10.2019
5669 Clouds 25 1012 94 10000 4.98 128.252 12:58 19.10.2019
5670 Clouds 25 1012 94 10000 4.98 128.252 12:38 19.10.2019
5671 Clouds 25 1012 94 10000 5.91 141.289 12:19 19.10.2019
5672 Clouds 25 1011 94 10000 5.91 141.289 11:41 19.10.2019
5673 Clouds 25 1011 94 10000 5.91 141.289 11:23 19.10.2019
5674 Clouds 26 1011 94 10000 5.91 141.289 10:56 19.10.2019
5675 Clouds 26 1011 94 10000 5.91 141.289 10:38 19.10.2019
5676 Clouds 26 1011 94 10000 5.91 141.289 10:20 19.10.2019
5677 Clouds 26 1010 94 10000 5.91 141.289 09:43 19.10.2019
5678 Clouds 26 1010 94 10000 5.91 141.289 09:25 19.10.2019
5679 Clouds 26 1009 94 10000 3.1 200 08:59 19.10.2019
5680 Clouds 26 1009 94 10000 3.1 200 08:40 19.10.2019
5681 Clouds 26 1009 94 10000 3.1 200 08:40 19.10.2019
5682 Clouds 26 1009 94 10000 3.1 200 08:21 19.10.2019
5683 Clouds 28 1009 83 10000 2.1 180 07:44 19.10.2019
5684 Clouds 28 1009 83 10000 2.1 180 07:25 19.10.2019
5685 Clouds 28 1009 83 10000 5.69 165.05 06:47 19.10.2019
5686 Clouds 28 1009 83 10000 5.69 165.05 06:26 19.10.2019
5687 Clouds 32 1009 70 10000 5.1 70 05:33 19.10.2019
5688 Clouds 31 1010 74 10000 5.1 50 04:21 19.10.2019
5689 Clouds 30 1012 74 10000 3.1 50 02:46 19.10.2019
5690 Clouds 30 1012 74 10000 2.1 50 01:53 19.10.2019
5691 Clouds 30 1012 74 10000 2.1 50 01:20 19.10.2019
5692 Clouds 30 1012 74 10000 2.1 50 01:20 19.10.2019
5693 Clouds 29 1012 74 10000 2.1 110 00:48 19.10.2019
5694 Clouds 29 1012 74 10000 2.1 110 00:26 19.10.2019
5695 Clouds 28 1012 78 10000 1 230 23:43 18.10.2019
5696 Clouds 28 1012 78 10000 1 230 23:25 18.10.2019
5697 Clouds 25 1011 94 10000 1.5 180 22:56 18.10.2019
5698 Clouds 25 1011 94 10000 1.5 180 22:38 18.10.2019
5699 Clouds 25 1011 94 10000 1.5 180 22:20 18.10.2019
5700 Clouds 25 1011 94 10000 1.5 180 22:20 18.10.2019
5701 Clouds 28 1012 76 0 1.19 78.33 21:57 18.10.2019
5702 Clouds 28 1012 76 0 1.19 78.33 21:38 18.10.2019
5703 Clouds 23 1010 94 10000 2.1 160 21:20 18.10.2019
5704 Clouds 23 1010 94 10000 2.1 160 20:56 18.10.2019
5705 Clouds 23 1010 94 10000 2.1 160 20:38 18.10.2019
5706 Clouds 23 1010 94 10000 2.1 160 20:19 18.10.2019
5707 Clouds 23 1010 100 10000 1 160 19:55 18.10.2019
5708 Clouds 23 1010 100 10000 1 160 19:37 18.10.2019
5709 Clouds 23 1010 100 10000 1 160 19:19 18.10.2019
5710 Clouds 23 1010 100 10000 1 160 18:42 18.10.2019
5711 Clouds 23 1010 100 10000 1 160 18:24 18.10.2019
5712 Clouds 23 1010 100 10000 1 160 18:24 18.10.2019
5713 Clouds 23 1011 100 10000 1 110 17:57 18.10.2019
5714 Clouds 23 1011 100 10000 1 110 17:38 18.10.2019
5715 Clouds 23 1011 100 10000 1 110 17:20 18.10.2019
5716 Clouds 23 1011 100 10000 1 110 17:20 18.10.2019
5717 Clouds 24 1011 94 10000 1 180 16:44 18.10.2019
5718 Clouds 24 1011 94 10000 1 180 16:44 18.10.2019
5719 Clouds 24 1011 94 10000 1 180 16:22 18.10.2019
5720 Clouds 24 1011 100 10000 6.08 138.736 15:59 18.10.2019
5721 Clouds 24 1011 100 10000 6.08 138.736 15:40 18.10.2019
5722 Clouds 24 1011 100 10000 5.05 137.03 15:21 18.10.2019
5723 Clouds 25 1011 94 10000 5.05 137.03 14:58 18.10.2019
5724 Clouds 25 1011 94 10000 5.05 137.03 14:39 18.10.2019
5725 Clouds 25 1011 94 10000 5.05 137.03 14:21 18.10.2019
5726 Clouds 25 1011 94 10000 5.05 137.03 13:58 18.10.2019
5727 Clouds 25 1011 94 10000 5.05 137.03 13:39 18.10.2019
5728 Clouds 25 1011 94 10000 6.33 141.257 13:21 18.10.2019
5729 Clouds 26 1011 88 10000 6.33 141.257 12:56 18.10.2019
5730 Clouds 26 1011 88 10000 6.33 141.257 12:56 18.10.2019
5731 Clouds 26 1011 88 10000 6.33 141.257 12:37 18.10.2019
5732 Clouds 26 1011 88 10000 6.33 141.257 12:37 18.10.2019
5733 Clouds 26 1011 88 10000 7.71 139.453 12:19 18.10.2019
5734 Clouds 27 1011 78 10000 1.5 140 11:42 18.10.2019
5735 Clouds 27 1011 78 10000 1.5 140 11:22 18.10.2019
5736 Clouds 28 1010 78 10000 3.6 90 10:59 18.10.2019
5737 Clouds 28 1010 78 10000 3.6 90 10:41 18.10.2019
5738 Clouds 28 1010 78 10000 3.6 90 10:22 18.10.2019
5739 Clouds 30 1010 70 10000 4.6 90 09:58 18.10.2019
5740 Clouds 30 1010 70 10000 4.6 90 09:39 18.10.2019
5741 Clouds 30 1010 70 10000 4.6 90 09:20 18.10.2019
5742 Clouds 31 1009 62 10000 6.2 50 08:45 18.10.2019
5743 Clouds 31 1009 62 10000 6.2 50 08:26 18.10.2019
5744 -273 0 0 0 0 0 07:57 18.10.2019
5745 Clouds 31 1009 70 10000 5.1 70 07:38 18.10.2019
5746 Clouds 31 1010 66 10000 4.1 50 06:56 18.10.2019
5747 Clouds 31 1010 66 10000 4.1 50 06:37 18.10.2019
5748 Clouds 31 1010 66 10000 4.1 50 06:19 18.10.2019
5749 Clouds 31 1010 66 10000 4.1 70 05:53 18.10.2019
5750 Clouds 31 1010 66 10000 4.1 70 05:19 18.10.2019
5751 Clouds 30 1012 70 10000 4.1 20 03:38 18.10.2019
5752 Clouds 30 1013 66 10000 4.1 340 02:56 18.10.2019
5753 Clouds 30 1013 66 10000 4.1 340 02:56 18.10.2019
5754 Clouds 30 1013 66 10000 4.1 340 02:32 18.10.2019
5755 Clouds 30 1013 66 10000 3.1 340 01:40 18.10.2019
5756 Clouds 30 1013 66 10000 3.1 340 01:21 18.10.2019
5757 Clouds 29 1013 66 10000 1.5 180 00:43 18.10.2019
5758 Clouds 29 1013 66 10000 1.5 180 00:19 18.10.2019
5759 Clouds 26 1013 78 10000 2.6 160 23:40 17.10.2019
5760 Clouds 26 1013 78 10000 2.6 160 23:21 17.10.2019
5761 Clouds 23 1012 94 10000 1.5 160 22:57 17.10.2019
5762 Clouds 23 1012 94 10000 1.5 160 22:39 17.10.2019
5763 Clouds 23 1012 94 10000 1.5 160 22:19 17.10.2019
5764 Clouds 22 1012 94 10000 6.01 135.728 21:57 17.10.2019
5765 Clouds 22 1012 94 10000 6.01 135.728 21:39 17.10.2019
5766 Clouds 22 1012 94 10000 6.56 139.685 21:20 17.10.2019
5767 Clouds 22 1011 100 10000 6.77 143.409 20:58 17.10.2019
5768 Clouds 22 1011 100 10000 6.77 143.409 20:39 17.10.2019
5769 Clouds 22 1011 100 10000 6.77 143.409 20:19 17.10.2019
5770 Clouds 22 1011 100 10000 6.77 143.409 20:19 17.10.2019
5771 Clouds 22 1010 100 10000 6.77 143.409 19:57 17.10.2019
5772 Clouds 22 1010 100 10000 6.77 143.409 19:38 17.10.2019
5773 Clouds 22 1010 100 10000 6.77 143.409 19:19 17.10.2019
5774 Clouds 22 1010 100 10000 6.77 143.409 19:19 17.10.2019
5775 Clouds 22 1010 100 10000 6.77 143.409 18:43 17.10.2019
5776 Clouds 22 1010 100 10000 5.09 138.154 18:21 17.10.2019
5777 Clouds 23 1010 94 10000 1.5 140 17:58 17.10.2019
5778 Clouds 23 1010 94 10000 1.5 140 17:40 17.10.2019
5779 Clouds 23 1010 94 10000 1.5 140 17:22 17.10.2019
5780 Clouds 23 1011 94 10000 0.873 189 16:55 17.10.2019
5781 Clouds 23 1011 94 10000 0.873 189 16:37 17.10.2019
5782 Clouds 23 1011 94 10000 0.873 189 16:18 17.10.2019
5783 Clouds 23 1012 94 10000 1.5 140 15:41 17.10.2019
5784 Clouds 23 1012 94 10000 1.5 140 15:21 17.10.2019
5785 Clouds 25 1013 88 10000 1 180 14:59 17.10.2019
5786 Clouds 25 1013 88 10000 1 180 14:59 17.10.2019
5787 Clouds 25 1013 88 10000 1 180 14:41 17.10.2019
5788 Clouds 25 1013 88 10000 1 180 14:23 17.10.2019
5789 Rain 23 1013 89 0 1.216 184 13:42 17.10.2019
5790 Clouds 24 1012 94 10000 1.5 180 13:22 17.10.2019
5791 Clouds 24 1012 94 10000 1.5 180 12:59 17.10.2019
5792 Clouds 24 1012 94 10000 1.5 180 12:40 17.10.2019
5793 Clouds 24 1012 94 10000 1.5 180 12:20 17.10.2019
5794 Clouds 25 1012 73 10000 1.5 140 11:57 17.10.2019
5795 Clouds 25 1012 73 10000 1.5 140 11:39 17.10.2019
5796 Clouds 25 1012 73 10000 1.5 140 11:18 17.10.2019
5797 Clouds 26 1011 74 10000 2.1 160 10:42 17.10.2019
5798 Clouds 26 1011 74 10000 2.1 160 10:20 17.10.2019
5799 Clouds 29 1010 62 10000 4.1 90 09:59 17.10.2019
5800 Clouds 29 1010 62 10000 4.1 90 09:41 17.10.2019
5801 Clouds 29 1010 62 10000 4.1 90 09:21 17.10.2019
5802 Clouds 30 1010 51 10000 4.6 90 08:58 17.10.2019
5803 Clouds 30 1010 51 10000 4.6 90 08:38 17.10.2019
5804 Clouds 30 1010 51 10000 4.6 90 08:18 17.10.2019
5805 Clouds 31 1009 62 10000 8.2 70 07:50 17.10.2019
5806 Clouds 31 1009 62 10000 8.2 70 07:21 17.10.2019
5807 Clouds 31 1009 62 10000 8.2 70 07:21 17.10.2019
5808 Clouds 31 1009 58 10000 6.7 70 06:58 17.10.2019
5809 Clouds 31 1009 58 10000 6.7 70 06:39 17.10.2019
5810 Clouds 31 1009 58 10000 6.7 70 06:19 17.10.2019
5811 Clouds 31 1010 58 10000 5.7 70 05:41 17.10.2019
5812 Clouds 31 1010 58 10000 5.7 70 05:20 17.10.2019
5813 Clouds 31 1010 66 10000 7.2 50 04:50 17.10.2019
5814 Clouds 31 1011 66 10000 6.2 50 03:49 17.10.2019
5815 Clouds 30 1012 55 10000 6.7 70 02:35 17.10.2019
5816 Clouds 29 1012 62 10000 1 140 00:43 17.10.2019
5817 Clouds 29 1012 62 10000 1 140 00:21 17.10.2019
5818 Clouds 25 1012 88 10000 1.5 140 23:59 16.10.2019
5819 Clouds 25 1012 88 10000 1.5 140 23:41 16.10.2019
5820 Clouds 25 1012 88 10000 1.5 140 23:41 16.10.2019
5821 Clouds 25 1012 88 10000 1.5 140 23:19 16.10.2019
5822 Clouds 21 1012 94 10000 2.1 140 22:54 16.10.2019
5823 Clouds 21 1012 94 10000 2.1 140 22:36 16.10.2019
5824 Clouds 21 1012 94 10000 2.1 140 22:18 16.10.2019
5825 Clouds 21 1011 94 10000 1 140 21:54 16.10.2019
5826 Clouds 21 1011 94 10000 1 140 21:36 16.10.2019
5827 Clouds 21 1011 94 10000 1 140 21:18 16.10.2019
5828 Clouds 21 1010 100 10000 1 160 20:56 16.10.2019
5829 Clouds 21 1010 100 10000 1 160 20:56 16.10.2019
5830 Clouds 21 1010 100 10000 1 160 20:37 16.10.2019
5831 Clouds 21 1010 100 10000 1 160 20:37 16.10.2019
5832 Clouds 21 1010 100 10000 1 160 20:37 16.10.2019
5833 Clouds 21 1010 100 10000 1 160 20:19 16.10.2019
5834 Clouds 21 1010 94 10000 2.1 160 19:40 16.10.2019
5835 Clouds 21 1010 94 10000 2.1 160 19:21 16.10.2019
5836 Clouds 21 1011 100 10000 2.1 160 18:58 16.10.2019
5837 Clouds 21 1011 100 10000 2.1 160 18:38 16.10.2019
5838 Clouds 21 1011 100 10000 2.1 160 18:18 16.10.2019
5839 Clouds 22 1010 94 10000 1.5 140 17:55 16.10.2019
5840 Clouds 22 1010 94 10000 1.5 140 17:36 16.10.2019
5841 Clouds 22 1010 94 10000 1.5 140 17:18 16.10.2019
5842 Clouds 24 1011 94 10000 1.5 140 16:43 16.10.2019
5843 Clouds 24 1011 94 10000 1.5 140 16:23 16.10.2019
5844 Clouds 24 1011 94 10000 1.5 140 15:59 16.10.2019
5845 Clouds 21 1011 82 0 2.028 178 15:39 16.10.2019
5846 Clouds 21 1011 82 0 2.028 178 15:39 16.10.2019
5847 Clouds 25 1011 94 10000 2.1 140 15:19 16.10.2019
5848 Clouds 25 1011 94 10000 2.1 140 14:58 16.10.2019
5849 Clouds 25 1011 94 10000 2.1 140 14:39 16.10.2019
5850 Clouds 25 1011 94 10000 2.1 140 14:20 16.10.2019
5851 Clouds 25 1011 100 10000 1.5 140 13:57 16.10.2019
5852 Clouds 25 1011 100 10000 1.5 140 13:39 16.10.2019
5853 Clouds 25 1011 100 10000 1.5 140 13:20 16.10.2019
5854 Clouds 27 1011 88 10000 1.836 167 12:42 16.10.2019
5855 Clouds 27 1011 88 10000 1.079 189 12:20 16.10.2019
5856 Clouds 27 1010 88 10000 1.079 189 11:45 16.10.2019
5857 Clouds 27 1010 88 10000 1.079 189 11:19 16.10.2019
5858 Clouds 28 1010 74 10000 1 20 10:56 16.10.2019
5859 Clouds 28 1010 74 10000 1 20 10:36 16.10.2019
5860 Clouds 28 1010 74 10000 1 20 10:18 16.10.2019
5861 Clouds 29 1009 70 10000 1 20 09:40 16.10.2019
5862 Clouds 29 1009 70 10000 1 20 09:21 16.10.2019
5863 Clouds 30 1009 66 10000 3.1 360 08:46 16.10.2019
5864 Clouds 30 1009 66 10000 3.1 360 08:26 16.10.2019
5865 Clouds 30 1008 70 10000 3.6 360 07:58 16.10.2019
5866 Clouds 30 1008 70 10000 3.6 360 07:40 16.10.2019
5867 Clouds 30 1008 70 10000 3.6 360 07:21 16.10.2019
5868 Clouds 31 1009 66 10000 3.6 340 06:46 16.10.2019
5869 Clouds 30 1009 70 10000 3.6 360 06:27 16.10.2019
5870 Clouds 30 1010 70 10000 3.6 50 04:24 16.10.2019
5871 Clouds 30 1011 70 10000 4.6 50 02:50 16.10.2019
5872 Clouds 29 1012 79 10000 1.128 29 01:20 16.10.2019
5873 Clouds 28 1011 78 10000 1.5 110 00:58 16.10.2019
5874 Clouds 28 1011 78 10000 1.5 110 00:39 16.10.2019
5875 Clouds 27 1012 83 10000 0.473 173 23:42 15.10.2019
5876 Clouds 27 1012 83 10000 0.473 173 23:23 15.10.2019
5877 Clouds 24 1011 100 10000 1 230 22:58 15.10.2019
5878 Clouds 24 1011 100 10000 1 230 22:40 15.10.2019
5879 Clouds 24 1011 100 10000 1 230 22:21 15.10.2019
5880 Clouds 24 1010 100 10000 1 180 21:57 15.10.2019
5881 Clouds 24 1010 100 10000 1 180 21:38 15.10.2019
5882 Clouds 24 1010 100 10000 1 180 21:20 15.10.2019
5883 Drizzle 24 1009 100 10000 1 200 20:58 15.10.2019
5884 Drizzle 24 1009 100 10000 1 200 20:39 15.10.2019
5885 Drizzle 24 1009 100 10000 1 200 20:21 15.10.2019
5886 Rain 23 1010 89 0 1.36 179 19:59 15.10.2019
5887 -273 0 0 0 0 0 19:40 15.10.2019
5888 Clouds 24 1009 100 10000 1 200 19:20 15.10.2019
5889 Clouds 24 1009 100 10000 1 200 18:47 15.10.2019
5890 Clouds 24 1009 100 10000 1 200 18:29 15.10.2019
5891 Drizzle 25 1009 94 10000 2.1 160 17:59 15.10.2019
5892 Drizzle 25 1009 94 10000 2.1 160 17:40 15.10.2019
5893 Drizzle 25 1009 94 10000 2.1 160 17:20 15.10.2019
5894 Clouds 25 1009 94 10000 2.1 230 16:57 15.10.2019
5895 Clouds 25 1009 94 10000 2.1 230 16:38 15.10.2019
5896 Clouds 25 1009 94 10000 2.1 230 16:20 15.10.2019
5897 Rain 23 1009 91 0 1.61 189 15:43 15.10.2019
5898 Clouds 25 1010 94 10000 1.181 201 15:21 15.10.2019
5899 Clouds 25 1010 94 10000 1.181 201 14:59 15.10.2019
5900 Clouds 25 1010 94 10000 1.205 188 14:38 15.10.2019
5901 Clouds 25 1010 94 10000 1.205 188 14:20 15.10.2019
5902 Clouds 25 1010 94 10000 1.205 188 13:56 15.10.2019
5903 Clouds 25 1010 94 10000 1.205 188 13:37 15.10.2019
5904 Clouds 25 1010 94 10000 1.205 188 13:19 15.10.2019
5905 Clouds 25 1010 100 10000 1.205 188 12:42 15.10.2019
5906 Clouds 25 1010 100 10000 0.709 202 12:21 15.10.2019
5907 Clouds 26 1009 94 10000 0.709 202 11:56 15.10.2019
5908 Clouds 26 1009 94 10000 0.709 202 11:56 15.10.2019
5909 Clouds 26 1009 94 10000 0.709 202 11:37 15.10.2019
5910 Clouds 26 1009 94 10000 0.709 202 11:18 15.10.2019
5911 Clouds 27 1009 88 10000 1.5 180 10:43 15.10.2019
5912 Clouds 27 1009 88 10000 1.5 180 10:19 15.10.2019
5913 Clouds 29 1008 74 10000 9.83 160.916 09:57 15.10.2019
5914 Clouds 29 1008 74 10000 9.83 160.916 09:37 15.10.2019
5915 Clouds 29 1008 74 10000 9.83 160.916 09:37 15.10.2019
5916 Clouds 29 1008 74 10000 10.79 163.655 09:19 15.10.2019
5917 Clouds 30 1008 70 10000 3.1 70 08:43 15.10.2019
5918 Clouds 30 1008 70 10000 3.1 70 08:22 15.10.2019
5919 Clouds 29 1007 79 10000 2.6 20 07:56 15.10.2019
5920 Clouds 29 1007 79 10000 2.6 20 07:56 15.10.2019
5921 Clouds 29 1007 79 10000 2.6 20 07:38 15.10.2019
5922 Clouds 29 1007 79 10000 2.6 20 07:19 15.10.2019
5923 Clouds 31 1007 70 10000 4.1 360 06:44 15.10.2019
5924 Clouds 31 1007 70 10000 4.1 360 06:26 15.10.2019
5925 Clouds 31 1007 66 10000 2.6 340 05:41 15.10.2019
5926 Clouds 31 1007 66 10000 2.6 340 05:23 15.10.2019
5927 Clouds 31 1008 70 10000 2.1 320 04:25 15.10.2019
5928 Clouds 30 1009 70 10000 3.1 340 03:37 15.10.2019
5929 Clouds 30 1009 70 10000 3.1 340 03:37 15.10.2019
5930 Clouds 30 1010 66 10000 2.1 20 02:24 15.10.2019
5931 Clouds 30 1010 70 10000 3.6 50 01:47 15.10.2019
5932 Clouds 30 1010 70 10000 3.6 50 01:19 15.10.2019
5933 Clouds 29 1011 79 10000 2.6 90 00:48 15.10.2019
5934 Clouds 29 1011 79 10000 2.6 90 00:21 15.10.2019
5935 Clouds 26 1010 88 10000 1.5 110 23:43 14.10.2019
5936 Clouds 26 1010 88 10000 1.5 110 23:20 14.10.2019
5937 Clouds 25 1010 94 10000 1.5 110 22:55 14.10.2019
5938 Clouds 25 1010 94 10000 1.5 110 22:37 14.10.2019
5939 Clouds 25 1010 94 10000 1.5 110 22:18 14.10.2019
5940 Clouds 24 1009 94 10000 6.77 148.124 21:40 14.10.2019
5941 Clouds 24 1009 94 10000 7.22 148.78 21:21 14.10.2019
5942 Clouds 24 1010 94 10000 1.5 180 20:59 14.10.2019
5943 Clouds 24 1010 94 10000 1.5 180 20:39 14.10.2019
5944 Clouds 24 1010 94 10000 1.5 180 20:20 14.10.2019
5945 Clouds 25 1009 88 10000 7.26 148.159 19:58 14.10.2019
5946 Clouds 25 1009 88 10000 1.34 182 19:40 14.10.2019
5947 Clouds 25 1009 88 10000 1.34 182 19:21 14.10.2019
5948 Clouds 25 1009 88 10000 1 180 18:57 14.10.2019
5949 Clouds 25 1009 88 10000 1 180 18:57 14.10.2019
5950 Clouds 25 1009 88 10000 1 180 18:38 14.10.2019
5951 Clouds 25 1009 88 10000 1 180 18:18 14.10.2019
5952 Clouds 25 1010 88 10000 1.5 180 17:44 14.10.2019
5953 Clouds 25 1010 88 10000 1.5 180 17:25 14.10.2019
5954 Clouds 25 1010 94 10000 1.5 230 16:56 14.10.2019
5955 Clouds 25 1010 94 10000 1.5 230 16:38 14.10.2019
5956 Clouds 25 1010 94 10000 1.5 230 16:19 14.10.2019
5957 Clouds 25 1011 94 10000 1.5 200 15:41 14.10.2019
5958 Clouds 25 1011 94 10000 1.5 200 15:21 14.10.2019
5959 Clouds 25 1012 94 10000 1.5 200 14:44 14.10.2019
5960 Clouds 25 1012 94 10000 1.5 200 14:44 14.10.2019
5961 -273 0 0 0 0 0 14:25 14.10.2019
5962 Clouds 25 1012 94 0 7.13 144.546 13:58 14.10.2019
5963 Clouds 25 1012 94 0 7.13 144.546 13:40 14.10.2019
5964 Clouds 25 1012 94 0 7.16 142.943 13:20 14.10.2019
5965 Clouds 25 1012 94 0 7.16 142.943 12:41 14.10.2019
5966 Clouds 25 1012 94 0 8.21 155.649 12:21 14.10.2019
5967 Clouds 26 1011 88 0 8.21 155.649 11:55 14.10.2019
5968 Clouds 26 1011 88 0 8.21 155.649 11:36 14.10.2019
5969 Clouds 26 1011 88 0 8.21 155.649 11:18 14.10.2019
5970 Clouds 28 1011 79 0 8.21 155.649 10:43 14.10.2019
5971 Clouds 29 1009 74 10000 1 20 10:21 14.10.2019
5972 Clouds 29 1009 74 10000 1 20 09:59 14.10.2019
5973 Clouds 29 1009 74 10000 1 20 09:38 14.10.2019
5974 Clouds 29 1009 74 10000 1 20 09:38 14.10.2019
5975 Clouds 29 1009 74 10000 1 20 09:19 14.10.2019
5976 Clouds 29 1009 74 10000 2.1 340 08:47 14.10.2019
5977 Clouds 29 1009 74 10000 2.1 340 08:23 14.10.2019
5978 Clouds 30 1008 70 10000 2.1 360 07:44 14.10.2019
5979 Clouds 30 1008 70 10000 2.1 360 07:21 14.10.2019
5980 Clouds 30 1009 74 10000 3.1 360 06:55 14.10.2019
5981 Clouds 30 1009 74 10000 3.1 360 06:27 14.10.2019
5982 Clouds 31 1009 70 10000 2.6 20 05:51 14.10.2019
5983 Clouds 31 1010 74 10000 4.6 360 04:50 14.10.2019
5984 Clouds 31 1011 74 10000 4.6 20 03:48 14.10.2019
5985 Clouds 31 1011 74 10000 4.6 20 03:21 14.10.2019
5986 Clouds 31 1012 66 10000 2.6 50 01:36 14.10.2019
5987 Clouds 31 1012 66 10000 2.6 50 01:18 14.10.2019
5988 Clouds 30 1012 66 10000 2.1 70 00:21 14.10.2019
5989 Clouds 28 1012 74 10000 4.24 129.899 23:46 13.10.2019
5990 Clouds 28 1012 74 10000 4.24 129.899 23:21 13.10.2019
5991 Clouds 25 1011 88 10000 1 200 22:59 13.10.2019
5992 Clouds 25 1011 88 10000 1 200 22:41 13.10.2019
5993 Clouds 25 1011 88 10000 1 200 22:21 13.10.2019
5994 Clouds 22 1010 100 10000 1.5 230 21:58 13.10.2019
5995 Clouds 22 1010 100 10000 1.5 230 21:38 13.10.2019
5996 Clouds 22 1010 100 10000 1.5 230 21:19 13.10.2019
5997 Clouds 23 1009 94 10000 2.58 140.234 20:58 13.10.2019
5998 Clouds 23 1009 94 10000 4.88 188.841 20:39 13.10.2019
5999 Clouds 23 1009 94 10000 4.88 188.841 20:21 13.10.2019
6000 Clouds 23 1009 94 10000 4.88 188.841 19:59 13.10.2019
6001 Clouds 23 1009 94 10000 4.88 188.841 19:39 13.10.2019
6002 Clouds 23 1009 94 10000 4.88 188.841 19:39 13.10.2019
6003 Clouds 23 1009 94 10000 4.88 188.841 19:21 13.10.2019
6004 Clouds 23 1009 100 10000 4.88 188.841 18:57 13.10.2019
6005 Clouds 23 1009 100 10000 4.88 188.841 18:57 13.10.2019
6006 Clouds 23 1009 100 10000 4.88 188.841 18:37 13.10.2019
6007 Clouds 23 1009 100 10000 1.19 164.107 18:19 13.10.2019
6008 Clouds 23 1009 100 10000 1.19 164.107 18:19 13.10.2019
6009 Clouds 24 1010 94 10000 1.19 164.107 17:57 13.10.2019
6010 Clouds 24 1010 94 10000 1.19 164.107 17:38 13.10.2019
6011 Clouds 24 1010 94 10000 1.19 164.107 17:38 13.10.2019
6012 Clouds 24 1010 94 10000 1.19 164.107 17:20 13.10.2019
6013 Clouds 24 1010 94 10000 3.1 160 16:41 13.10.2019
6014 Clouds 24 1010 94 10000 3.1 160 16:18 13.10.2019
6015 Clouds 25 1011 88 10000 1.19 164.107 15:57 13.10.2019
6016 Clouds 25 1011 88 10000 1.19 164.107 15:38 13.10.2019
6017 Clouds 25 1011 88 10000 2.99 349.971 15:18 13.10.2019
6018 -273 0 0 0 0 0 14:57 13.10.2019
6019 Rain 28 1013 73 0 2.99 349.971 14:38 13.10.2019
6020 Clouds 25 1012 94 10000 1 230 14:19 13.10.2019
6021 Clouds 25 1012 94 10000 1 230 13:41 13.10.2019
6022 Clouds 25 1012 94 10000 1 230 13:22 13.10.2019
6023 Clouds 25 1012 88 10000 1.5 160 12:59 13.10.2019
6024 Clouds 25 1012 88 10000 1.5 160 12:39 13.10.2019
6025 Clouds 25 1012 88 10000 1.5 160 12:20 13.10.2019
6026 Clouds 26 1011 83 10000 1.5 140 11:58 13.10.2019
6027 Clouds 26 1011 83 10000 1.5 140 11:39 13.10.2019
6028 Clouds 26 1011 83 10000 1.5 140 11:20 13.10.2019
6029 Clouds 27 1010 74 10000 1.5 90 10:43 13.10.2019
6030 Clouds 27 1010 74 10000 1.5 90 10:24 13.10.2019
6031 Clouds 27 1010 69 10000 2.6 110 09:59 13.10.2019
6032 Clouds 27 1010 69 10000 2.6 110 09:59 13.10.2019
6033 Clouds 27 1010 69 10000 2.6 110 09:39 13.10.2019
6034 Clouds 27 1010 69 10000 2.6 110 09:20 13.10.2019
6035 Clouds 29 1011 62 10000 4.1 90 08:43 13.10.2019
6036 Clouds 29 1011 62 10000 4.1 90 08:25 13.10.2019
6037 Clouds 29 1011 62 10000 4.1 90 08:25 13.10.2019
6038 Clouds 30 1010 58 10000 3.1 90 07:51 13.10.2019
6039 Clouds 30 1010 58 10000 3.1 90 07:32 13.10.2019
6040 Clouds 30 1010 70 10000 4.1 50 06:49 13.10.2019
6041 Clouds 30 1010 70 10000 2.6 50 05:59 13.10.2019
6042 Clouds 29 1011 79 10000 3.1 50 04:59 13.10.2019
6043 Clouds 29 1011 79 10000 3.1 50 04:33 13.10.2019
6044 Clouds 29 1011 74 10000 1.5 360 02:50 13.10.2019
6045 Clouds 29 1011 74 10000 1.5 360 02:25 13.10.2019
6046 Clouds 27 1012 83 10000 1.78 110.714 01:34 13.10.2019
6047 Clouds 27 1012 83 10000 1.78 110.714 01:34 13.10.2019
6048 Clouds 26 1013 88 10000 1.63 146.037 00:53 13.10.2019
6049 Clouds 26 1013 88 10000 1.78 96.921 00:22 13.10.2019
6050 Clouds 26 1012 88 10000 1.5 160 23:59 12.10.2019
6051 Clouds 26 1012 88 10000 1.5 160 23:40 12.10.2019
6052 Clouds 26 1012 88 10000 1.5 160 23:21 12.10.2019
6053 Clouds 25 1012 94 10000 1.78 96.921 22:58 12.10.2019
6054 Clouds 25 1012 94 10000 1.78 96.921 22:58 12.10.2019
6055 Clouds 25 1012 94 10000 1.78 96.921 22:39 12.10.2019
6056 Clouds 25 1012 94 10000 1.78 96.921 22:20 12.10.2019
6057 Clouds 24 1010 94 10000 1.78 96.921 21:55 12.10.2019
6058 Clouds 24 1010 94 10000 1.78 96.921 21:55 12.10.2019
6059 Clouds 24 1010 94 10000 1.78 96.921 21:37 12.10.2019
6060 Clouds 24 1010 94 10000 3.19 122.645 21:19 12.10.2019
6061 Clouds 24 1009 88 10000 1.5 140 20:43 12.10.2019
6062 Clouds 24 1009 88 10000 1.5 140 20:25 12.10.2019
6063 Clouds 24 1009 94 10000 3.21 123.408 19:40 12.10.2019
6064 Clouds 24 1009 94 10000 3.21 123.408 19:22 12.10.2019
6065 Clouds 24 1009 94 10000 3.21 123.408 19:22 12.10.2019
6066 Clouds 24 1009 94 10000 1.5 180 18:59 12.10.2019
6067 Clouds 24 1009 94 10000 1.5 180 18:40 12.10.2019
6068 Clouds 24 1009 94 10000 1.5 180 18:22 12.10.2019
6069 Clouds 24 1010 94 10000 4.59 136.394 17:44 12.10.2019
6070 Clouds 24 1010 94 10000 4.59 136.394 17:19 12.10.2019
6071 Clouds 24 1010 100 10000 4.59 136.394 16:55 12.10.2019
6072 Clouds 24 1010 100 10000 4.59 136.394 16:36 12.10.2019
6073 Clouds 24 1010 100 10000 4.59 136.394 16:36 12.10.2019
6074 Clouds 24 1010 100 10000 4.59 136.394 16:18 12.10.2019
6075 Clouds 25 1010 94 10000 4.59 136.394 15:44 12.10.2019
6076 Clouds 25 1010 94 10000 4.11 143.024 15:25 12.10.2019
6077 Clouds 26 1011 88 10000 4.11 143.024 14:43 12.10.2019
6078 Clouds 26 1011 88 10000 4.11 143.024 14:22 12.10.2019
6079 Clouds 26 1011 94 10000 1.5 180 13:58 12.10.2019
6080 Clouds 26 1011 94 10000 1.5 180 13:40 12.10.2019
6081 Clouds 26 1011 94 10000 1.5 180 13:40 12.10.2019
6082 Clouds 26 1011 94 10000 1.5 180 13:21 12.10.2019
6083 Clouds 26 1011 94 10000 1.5 230 12:39 12.10.2019
6084 Clouds 26 1011 94 10000 1.5 230 12:21 12.10.2019
6085 Clouds 27 1010 88 10000 2.1 200 11:58 12.10.2019
6086 Clouds 27 1010 88 10000 2.1 200 11:39 12.10.2019
6087 Clouds 27 1010 88 10000 2.1 200 11:19 12.10.2019
6088 Clouds 28 1009 83 10000 2.54 145.765 10:41 12.10.2019
6089 Clouds 28 1009 83 10000 2.54 145.765 10:23 12.10.2019
6090 Clouds 29 1008 79 10000 1.5 20 09:58 12.10.2019
6091 Clouds 29 1008 79 10000 1.5 20 09:39 12.10.2019
6092 Clouds 29 1008 79 10000 1.5 20 09:21 12.10.2019
6093 Clouds 30 1008 70 10000 2.1 20 08:57 12.10.2019
6094 Clouds 30 1008 70 10000 2.1 20 08:57 12.10.2019
6095 Clouds 30 1008 70 10000 2.1 20 08:37 12.10.2019
6096 Clouds 31 1008 70 10000 2.6 50 08:18 12.10.2019
6097 Clouds 31 1007 70 10000 2.6 50 07:33 12.10.2019
6098 Clouds 32 1007 62 10000 4.1 360 06:50 12.10.2019
6099 Clouds 32 1008 62 10000 5.1 360 05:46 12.10.2019
6100 Clouds 31 1008 66 10000 5.1 20 04:52 12.10.2019
6101 Clouds 31 1009 62 10000 4.1 360 03:57 12.10.2019
6102 Clouds 31 1010 55 10000 3.1 50 02:57 12.10.2019
6103 Clouds 31 1010 70 10000 4.1 70 01:36 12.10.2019
6104 Clouds 30 1010 74 10000 4.1 110 00:58 12.10.2019
6105 Clouds 30 1010 74 10000 4.1 110 00:39 12.10.2019
6106 Clouds 28 1010 78 10000 1.44 99.279 23:56 11.10.2019
6107 Clouds 28 1010 78 10000 1.44 99.279 23:37 11.10.2019
6108 Clouds 28 1010 78 10000 1.44 99.279 23:19 11.10.2019
6109 Clouds 25 1010 88 10000 1.44 99.279 22:39 11.10.2019
6110 Clouds 25 1010 88 10000 1.44 99.279 22:20 11.10.2019
6111 Clouds 23 1009 94 10000 1.44 99.279 21:55 11.10.2019
6112 Clouds 23 1009 94 10000 1.44 99.279 21:36 11.10.2019
6113 Clouds 23 1009 94 10000 2.77 69.793 21:18 11.10.2019
6114 Clouds 23 1008 94 10000 1 140 20:42 11.10.2019
6115 Clouds 23 1008 94 10000 1 140 20:24 11.10.2019
6116 Clouds 23 1008 100 10000 1 200 19:56 11.10.2019
6117 Clouds 23 1008 100 10000 1 200 19:38 11.10.2019
6118 Clouds 23 1008 100 10000 1 200 19:18 11.10.2019
6119 Clouds 23 1008 100 10000 1 180 18:56 11.10.2019
6120 Clouds 23 1008 100 10000 1 180 18:56 11.10.2019
6121 Rain 28 1009 76 0 2.63 69.646 18:37 11.10.2019
6122 Clouds 24 1008 94 10000 1.5 140 18:18 11.10.2019
6123 Clouds 24 1008 94 10000 1.5 140 17:57 11.10.2019
6124 Clouds 24 1008 94 10000 1.5 140 17:37 11.10.2019
6125 Clouds 24 1008 94 10000 1.5 140 17:18 11.10.2019
6126 Clouds 24 1008 94 10000 1.5 140 17:18 11.10.2019
6127 Clouds 24 1009 100 10000 1.5 110 16:41 11.10.2019
6128 Clouds 24 1009 100 10000 1.5 110 16:20 11.10.2019
6129 Clouds 24 1009 100 10000 1.5 110 16:20 11.10.2019
6130 Clouds 24 1010 100 10000 2.2 95.874 15:58 11.10.2019
6131 Clouds 24 1010 100 10000 2.2 95.874 15:38 11.10.2019
6132 Clouds 24 1010 100 10000 3.83 139.863 15:19 11.10.2019
6133 Clouds 25 1009 94 10000 3.83 139.863 14:47 11.10.2019
6134 Clouds 25 1009 94 10000 3.83 139.863 14:29 11.10.2019
6135 Clouds 25 1010 94 10000 3.83 139.863 13:56 11.10.2019
6136 Clouds 25 1010 94 10000 3.83 139.863 13:37 11.10.2019
6137 Clouds 25 1010 94 10000 2.97 120.699 13:18 11.10.2019
6138 Clouds 26 1009 88 10000 2.97 120.699 12:42 11.10.2019
6139 Clouds 26 1009 88 10000 4.89 144.912 12:22 11.10.2019
6140 Clouds 27 1010 88 10000 1 180 12:00 11.10.2019
6141 Clouds 27 1010 88 10000 1 180 11:40 11.10.2019
6142 Clouds 27 1010 88 10000 1 180 11:21 11.10.2019
6143 Clouds 28 1008 78 10000 1 50 10:56 11.10.2019
6144 Clouds 28 1008 78 10000 1 50 10:38 11.10.2019
6145 Clouds 28 1008 78 10000 1 50 10:20 11.10.2019
6146 Clouds 28 1008 78 10000 1 50 10:20 11.10.2019
6147 Clouds 29 1007 74 10000 1 110 09:54 11.10.2019
6148 Clouds 29 1007 74 10000 1 110 09:54 11.10.2019
6149 Clouds 29 1007 74 10000 1 110 09:36 11.10.2019
6150 Clouds 29 1007 74 10000 1 110 09:18 11.10.2019
6151 Clouds 30 1006 70 10000 2.1 70 08:39 11.10.2019
6152 Clouds 30 1006 70 10000 2.1 70 08:21 11.10.2019
6153 Rain 31 1006 70 10000 3.1 50 07:58 11.10.2019
6154 Rain 31 1006 70 10000 3.1 50 07:40 11.10.2019
6155 Rain 31 1006 70 10000 3.1 50 07:20 11.10.2019
6156 Clouds 31 1006 70 10000 5.1 70 06:43 11.10.2019
6157 Clouds 31 1006 70 10000 5.1 70 06:20 11.10.2019
6158 Clouds 31 1006 66 10000 5.1 50 05:32 11.10.2019
6159 Clouds 31 1007 70 10000 5.1 50 04:59 11.10.2019
6160 Clouds 30 1008 79 10000 3.1 20 03:46 11.10.2019
6161 Clouds 31 1010 70 10000 2.6 20 01:57 11.10.2019
6162 Clouds 30 1010 70 10000 3.1 90 00:42 11.10.2019
6163 Clouds 30 1010 70 10000 3.1 90 00:22 11.10.2019
6164 Clouds 28 1010 78 10000 2.41 76.465 23:41 10.10.2019
6165 Clouds 28 1010 78 10000 2.41 76.465 23:20 10.10.2019
6166 Clouds 25 1009 94 10000 2.41 76.465 22:57 10.10.2019
6167 Clouds 25 1009 94 10000 2.41 76.465 22:36 10.10.2019
6168 Clouds 25 1009 94 10000 2.41 76.465 22:18 10.10.2019
6169 Clouds 24 1008 94 10000 2.41 76.465 21:42 10.10.2019
6170 Clouds 24 1008 94 10000 2.41 76.465 21:42 10.10.2019
6171 Clouds 24 1008 94 10000 5.15 132.67 21:22 10.10.2019
6172 Clouds 24 1008 94 10000 4.53 131.939 20:59 10.10.2019
6173 Clouds 24 1008 94 10000 4.53 131.939 20:40 10.10.2019
6174 Clouds 24 1008 94 10000 4.53 131.939 20:20 10.10.2019
6175 Clouds 24 1007 100 10000 4.53 131.939 19:57 10.10.2019
6176 Clouds 24 1007 100 10000 4.53 131.939 19:39 10.10.2019
6177 Clouds 24 1007 100 10000 4.53 131.939 19:19 10.10.2019
6178 Clouds 24 1007 100 10000 4.53 131.939 18:42 10.10.2019
6179 Clouds 24 1007 100 10000 5.32 142.318 18:21 10.10.2019
6180 Clouds 24 1008 100 10000 5.32 142.318 17:59 10.10.2019
6181 Clouds 24 1008 100 10000 5.32 142.318 17:40 10.10.2019
6182 Clouds 24 1008 100 10000 5.32 142.318 17:40 10.10.2019
6183 Clouds 24 1008 100 10000 5.32 142.318 17:19 10.10.2019
6184 Clouds 25 1008 94 10000 1.5 160 16:56 10.10.2019
6185 Clouds 25 1008 94 10000 1.5 160 16:56 10.10.2019
6186 Clouds 25 1008 94 10000 1.5 160 16:37 10.10.2019
6187 Clouds 25 1008 94 10000 1.5 160 16:18 10.10.2019
6188 Clouds 25 1009 94 10000 5.32 142.318 15:40 10.10.2019
6189 Clouds 25 1009 94 10000 6.74 139.392 15:22 10.10.2019
6190 Clouds 25 1009 94 10000 6.74 139.392 15:22 10.10.2019
6191 Clouds 25 1010 94 10000 6.74 139.392 14:57 10.10.2019
6192 Clouds 25 1010 94 10000 6.74 139.392 14:37 10.10.2019
6193 Clouds 25 1010 94 10000 6.74 139.392 14:19 10.10.2019
6194 Clouds 25 1009 94 10000 6.74 139.392 13:55 10.10.2019
6195 Clouds 25 1009 94 10000 6.74 139.392 13:37 10.10.2019
6196 Clouds 25 1009 94 10000 5.88 137.516 13:18 10.10.2019
6197 Clouds 26 1009 88 10000 5.88 137.516 12:42 10.10.2019
6198 Clouds 26 1009 88 10000 6.56 142.989 12:20 10.10.2019
6199 Clouds 27 1009 83 10000 6.56 142.989 11:58 10.10.2019
6200 Clouds 27 1009 83 10000 6.56 142.989 11:58 10.10.2019
6201 Clouds 27 1009 83 10000 6.56 142.989 11:39 10.10.2019
6202 Clouds 27 1009 83 10000 6.56 142.989 11:19 10.10.2019
6203 Clouds 28 1008 78 10000 6.56 142.989 10:45 10.10.2019
6204 Clouds 28 1008 78 10000 6.56 142.989 10:27 10.10.2019
6205 Clouds 29 1007 74 10000 6.56 142.989 09:58 10.10.2019
6206 Clouds 29 1007 74 10000 6.56 142.989 09:39 10.10.2019
6207 Clouds 29 1007 74 10000 6.86 160.152 09:21 10.10.2019
6208 Clouds 30 1007 66 10000 4.1 90 08:58 10.10.2019
6209 Clouds 30 1007 66 10000 4.1 90 08:38 10.10.2019
6210 Clouds 30 1007 66 10000 4.1 90 08:19 10.10.2019
6211 Clouds 30 1007 66 10000 4.1 90 08:19 10.10.2019
6212 Clouds 30 1006 70 10000 2.1 50 07:45 10.10.2019
6213 Clouds 30 1006 70 10000 2.1 50 07:22 10.10.2019
6214 Clouds 29 1007 74 10000 1 320 06:48 10.10.2019
6215 Clouds 29 1007 74 10000 1 320 06:29 10.10.2019
6216 Thunderstorm 31 1007 66 10000 4.1 340 05:28 10.10.2019
6217 Thunderstorm 31 1007 66 10000 3.1 360 04:48 10.10.2019
6218 Clouds 31 1008 66 10000 3.6 340 04:26 10.10.2019
6219 Clouds 31 1010 70 10000 4.6 20 01:44 10.10.2019
6220 Clouds 31 1010 70 10000 4.6 20 01:25 10.10.2019
6221 Clouds 30 1011 74 10000 1.5 90 00:54 10.10.2019
6222 Clouds 30 1011 74 10000 1.5 90 00:54 10.10.2019
6223 Clouds 30 1011 74 10000 1.5 90 00:22 10.10.2019
6224 Clouds 27 1011 78 10000 1.5 160 23:40 09.10.2019
6225 Clouds 27 1011 78 10000 1.5 160 23:21 09.10.2019
6226 Clouds 25 1010 83 10000 1.5 200 22:56 09.10.2019
6227 Clouds 25 1010 83 10000 1.5 200 22:38 09.10.2019
6228 Clouds 25 1010 83 10000 1.5 200 22:20 09.10.2019
6229 Clouds 23 1009 94 10000 2.6 200 21:40 09.10.2019
6230 Clouds 23 1009 94 10000 2.6 200 21:21 09.10.2019
6231 Clouds 23 1009 94 10000 1.5 180 20:56 09.10.2019
6232 Clouds 23 1009 94 10000 1.5 180 20:38 09.10.2019
6233 Clouds 23 1009 94 10000 1.5 180 20:38 09.10.2019
6234 Clouds 23 1009 94 10000 1.5 180 20:19 09.10.2019
6235 Clouds 23 1008 94 10000 3.25 155.258 19:57 09.10.2019
6236 Clouds 23 1008 94 10000 3.25 155.258 19:39 09.10.2019
6237 Clouds 23 1008 94 10000 3.25 155.258 19:20 09.10.2019
6238 Clouds 23 1008 94 10000 1.5 200 18:38 09.10.2019
6239 Clouds 23 1008 94 10000 1.5 200 18:19 09.10.2019
6240 Clouds 24 1009 88 10000 2.1 200 17:56 09.10.2019
6241 Clouds 24 1009 88 10000 2.1 200 17:37 09.10.2019
6242 Clouds 24 1009 88 10000 2.1 200 17:18 09.10.2019
6243 Clouds 24 1010 94 10000 1.5 180 16:41 09.10.2019
6244 Clouds 24 1010 94 10000 1.5 180 16:23 09.10.2019
6245 Clouds 24 1010 94 10000 1 180 15:58 09.10.2019
6246 Clouds 24 1010 94 10000 1 180 15:39 09.10.2019
6247 Clouds 24 1010 94 10000 1 180 15:20 09.10.2019
6248 Clouds 25 1011 88 10000 6.36 157.429 14:58 09.10.2019
6249 Clouds 25 1011 88 10000 6.36 157.429 14:58 09.10.2019
6250 Clouds 25 1011 88 10000 6.36 157.429 14:40 09.10.2019
6251 Clouds 25 1011 88 10000 6.36 157.429 14:18 09.10.2019
6252 Clouds 25 1011 94 10000 1 200 13:40 09.10.2019
6253 Clouds 25 1011 94 10000 1 200 13:21 09.10.2019
6254 Clouds 25 1010 94 10000 7.05 149.588 12:59 09.10.2019
6255 Clouds 25 1010 94 10000 7.05 149.588 12:40 09.10.2019
6256 Clouds 25 1010 94 10000 6.62 174.341 12:21 09.10.2019
6257 Clouds 26 1010 88 10000 1 200 11:55 09.10.2019
6258 Clouds 26 1010 88 10000 1 200 11:36 09.10.2019
6259 Clouds 26 1010 88 10000 1 200 11:18 09.10.2019
6260 Clouds 26 1010 88 10000 1 200 11:18 09.10.2019
6261 Clouds 28 1009 83 10000 1 180 10:43 09.10.2019
6262 Clouds 28 1009 83 10000 1 180 10:21 09.10.2019
6263 Clouds 28 1009 83 10000 1 180 09:57 09.10.2019
6264 Clouds 28 1009 83 10000 1 180 09:57 09.10.2019
6265 Clouds 28 1009 83 10000 1 180 09:38 09.10.2019
6266 Clouds 28 1009 83 10000 1 180 09:18 09.10.2019
6267 Clouds 29 1008 79 10000 1 180 08:40 09.10.2019
6268 Clouds 29 1008 79 10000 1 180 08:21 09.10.2019
6269 Clouds 29 1008 79 10000 7.49 208.374 07:54 09.10.2019
6270 Clouds 29 1008 79 10000 7.49 208.374 07:36 09.10.2019
6271 Clouds 29 1008 79 10000 7.49 208.374 07:18 09.10.2019
6272 Thunderstorm 30 1008 74 10000 7.49 208.374 06:47 09.10.2019
6273 Thunderstorm 30 1009 74 10000 1.6 6.332 05:55 09.10.2019
6274 Clouds 30 1009 74 10000 2.6 50 05:19 09.10.2019
6275 Thunderstorm 30 1010 74 10000 4.1 340 03:54 09.10.2019
6276 Clouds 30 1011 74 10000 2.6 20 02:42 09.10.2019
6277 Clouds 31 1011 74 10000 3.1 20 01:39 09.10.2019
6278 Clouds 31 1011 74 10000 3.1 20 01:19 09.10.2019
6279 Clouds 30 1012 74 10000 1.5 180 00:55 09.10.2019
6280 Clouds 30 1012 74 10000 1.5 180 00:37 09.10.2019
6281 Clouds 30 1012 74 10000 1.5 180 00:19 09.10.2019
6282 Clouds 27 1011 83 10000 2.1 200 23:39 08.10.2019
6283 Clouds 27 1011 83 10000 2.1 200 23:39 08.10.2019
6284 Clouds 27 1011 83 10000 2.1 200 23:18 08.10.2019
6285 Clouds 25 1010 94 10000 1.5 160 22:55 08.10.2019
6286 Clouds 25 1010 94 10000 1.5 160 22:37 08.10.2019
6287 Clouds 25 1010 94 10000 1.5 160 22:18 08.10.2019
6288 Clouds 24 1009 94 10000 1 160 21:56 08.10.2019
6289 Clouds 24 1009 94 10000 1 160 21:36 08.10.2019
6290 Clouds 24 1009 94 10000 1 160 21:18 08.10.2019
6291 Clouds 24 1009 94 10000 1 200 20:55 08.10.2019
6292 Clouds 24 1009 94 10000 1 200 20:55 08.10.2019
6293 Clouds 24 1009 94 10000 1 200 20:36 08.10.2019
6294 Clouds 24 1009 94 10000 1 200 20:18 08.10.2019
6295 Clouds 24 1008 94 10000 2.1 180 19:42 08.10.2019
6296 Clouds 24 1008 94 10000 2.1 180 19:24 08.10.2019
6297 Clouds 24 1008 100 10000 2.1 92.781 18:59 08.10.2019
6298 Clouds 24 1008 100 10000 2.1 92.781 18:40 08.10.2019
6299 Clouds 24 1008 100 10000 3.75 131.432 18:22 08.10.2019
6300 Clouds 24 1009 100 10000 1.5 200 17:56 08.10.2019
6301 Clouds 24 1009 100 10000 1.5 200 17:56 08.10.2019
6302 Clouds 24 1009 100 10000 1.5 200 17:38 08.10.2019
6303 Clouds 24 1009 100 10000 1.5 200 17:18 08.10.2019
6304 Clouds 24 1010 100 10000 1 160 16:41 08.10.2019
6305 Clouds 24 1010 100 10000 1 160 16:22 08.10.2019
6306 Clouds 24 1010 100 10000 3.75 131.432 15:57 08.10.2019
6307 Clouds 24 1010 100 10000 3.75 131.432 15:37 08.10.2019
6308 Clouds 24 1010 100 10000 5.34 139.789 15:19 08.10.2019
6309 Clouds 24 1010 100 10000 5.34 139.789 15:19 08.10.2019
6310 Clouds 25 1011 94 10000 5.34 139.789 14:42 08.10.2019
6311 Clouds 25 1011 94 10000 5.34 139.789 14:21 08.10.2019
6312 Clouds 25 1011 100 10000 1.5 110 13:58 08.10.2019
6313 Clouds 25 1011 100 10000 1.5 110 13:39 08.10.2019
6314 Clouds 25 1011 100 10000 1.5 110 13:39 08.10.2019
6315 Clouds 25 1011 100 10000 1.5 110 13:20 08.10.2019
6316 Clouds 26 1010 94 10000 1.5 110 12:59 08.10.2019
6317 Clouds 26 1010 94 10000 1.5 110 12:38 08.10.2019
6318 Clouds 26 1010 94 10000 1.5 110 12:19 08.10.2019
6319 Clouds 26 1010 94 10000 1.5 140 11:43 08.10.2019
6320 Clouds 26 1010 94 10000 1.5 140 11:24 08.10.2019
6321 Clouds 27 1009 88 10000 4.1 70 10:58 08.10.2019
6322 Clouds 27 1009 88 10000 4.1 70 10:38 08.10.2019
6323 Clouds 27 1009 88 10000 4.1 70 10:20 08.10.2019
6324 Clouds 28 1009 83 10000 4.1 70 09:56 08.10.2019
6325 Clouds 28 1009 83 10000 4.1 70 09:56 08.10.2019
6326 Clouds 28 1009 83 10000 4.1 70 09:37 08.10.2019
6327 Clouds 28 1009 83 10000 4.1 70 09:19 08.10.2019
6328 Clouds 28 1008 83 10000 1.5 140 08:42 08.10.2019
6329 Clouds 28 1008 83 10000 1.5 140 08:23 08.10.2019
6330 Clouds 28 1008 83 10000 1.5 140 08:23 08.10.2019
6331 Clouds 28 1008 83 10000 1.5 140 08:23 08.10.2019
6332 Clouds 30 1007 70 10000 5.1 90 07:45 08.10.2019
6333 Clouds 30 1007 70 10000 5.1 90 07:21 08.10.2019
6334 Clouds 29 1007 79 10000 1.5 110 06:51 08.10.2019
6335 Clouds 29 1007 79 10000 1.5 110 06:28 08.10.2019
6336 Clouds 28 1008 83 10000 3.1 140 05:46 08.10.2019
6337 Clouds 28 1008 83 10000 3.1 140 05:26 08.10.2019
6338 Drizzle 28 1009 83 10000 5.1 140 04:31 08.10.2019
6339 Thunderstorm 30 1009 79 10000 6.2 70 03:27 08.10.2019
6340 Rain 31 1010 70 10000 6.2 70 02:36 08.10.2019
6341 Clouds 31 1010 70 10000 4.1 70 01:47 08.10.2019
6342 Clouds 31 1010 70 10000 4.1 70 01:27 08.10.2019
6343 Clouds 29 1011 79 10000 3.6 50 00:46 08.10.2019
6344 Clouds 29 1011 79 10000 3.6 50 00:20 08.10.2019
6345 Clouds 27 1010 88 10000 7.19 140.471 23:39 07.10.2019
6346 Clouds 27 1010 88 10000 7.19 140.471 23:20 07.10.2019
6347 Clouds 24 1010 100 10000 7.19 140.471 22:56 07.10.2019
6348 Clouds 24 1010 100 10000 7.19 140.471 22:38 07.10.2019
6349 Clouds 24 1010 100 10000 7.19 140.471 22:19 07.10.2019
6350 Clouds 24 1009 100 10000 1.5 140 21:55 07.10.2019
6351 Clouds 24 1009 100 10000 1.5 140 21:37 07.10.2019
6352 Clouds 24 1009 100 10000 1.5 140 21:18 07.10.2019
6353 Clouds 24 1008 100 10000 6.97 137.22 20:57 07.10.2019
6354 Clouds 24 1008 100 10000 6.97 137.22 20:38 07.10.2019
6355 Clouds 24 1008 100 10000 6.97 137.22 20:19 07.10.2019
6356 Clouds 24 1008 100 10000 6.97 137.22 19:55 07.10.2019
6357 Clouds 24 1008 100 10000 6.97 137.22 19:54 07.10.2019
6358 Clouds 24 1008 100 10000 6.97 137.22 19:54 07.10.2019
6359 Clouds 24 1008 100 10000 6.97 137.22 19:36 07.10.2019
6360 Clouds 24 1008 100 10000 6.97 137.22 19:18 07.10.2019
6361 Clouds 24 1008 100 10000 6.97 137.22 18:41 07.10.2019
6362 Clouds 24 1008 100 10000 6.7 134.425 18:19 07.10.2019
6363 Clouds 25 1008 94 10000 6.7 134.425 17:58 07.10.2019
6364 Clouds 25 1008 94 10000 6.7 134.425 17:40 07.10.2019
6365 Clouds 25 1008 94 10000 6.7 134.425 17:18 07.10.2019
6366 Clouds 25 1009 100 10000 6.7 134.425 16:44 07.10.2019
6367 Clouds 25 1009 100 10000 6.7 134.425 16:26 07.10.2019
6368 Clouds 26 1010 94 10000 6.7 134.425 15:57 07.10.2019
6369 Clouds 26 1010 94 10000 6.7 134.425 15:57 07.10.2019
6370 Clouds 26 1010 94 10000 6.7 134.425 15:38 07.10.2019
6371 Clouds 26 1010 94 10000 6.93 135.392 15:20 07.10.2019
6372 Clouds 25 1010 94 10000 2.1 230 14:41 07.10.2019
6373 Clouds 25 1010 94 10000 2.1 230 14:23 07.10.2019
6374 Clouds 26 1010 94 10000 1.5 200 13:45 07.10.2019
6375 Clouds 26 1010 94 10000 1.5 200 13:21 07.10.2019
6376 Clouds 26 1009 100 10000 3.1 70 12:57 07.10.2019
6377 Clouds 26 1009 100 10000 3.1 70 12:57 07.10.2019
6378 Clouds 26 1009 100 10000 3.1 70 12:39 07.10.2019
6379 Clouds 26 1009 100 10000 3.1 70 12:20 07.10.2019
6380 Clouds 26 1009 100 10000 3.1 70 12:20 07.10.2019
6381 Clouds 27 1009 94 10000 3.6 140 11:59 07.10.2019
6382 Clouds 27 1009 94 10000 3.6 140 11:39 07.10.2019
6383 Clouds 27 1009 94 10000 3.6 140 11:20 07.10.2019
6384 Clouds 29 1008 83 10000 3.6 110 10:42 07.10.2019
6385 Clouds 29 1008 83 10000 3.6 110 10:21 07.10.2019
6386 Clouds 29 1007 83 10000 5.1 90 09:56 07.10.2019
6387 Clouds 29 1007 83 10000 5.1 90 09:38 07.10.2019
6388 Clouds 29 1007 83 10000 5.1 90 09:19 07.10.2019
6389 Clouds 30 1006 74 10000 4.6 70 08:42 07.10.2019
6390 Clouds 30 1006 74 10000 4.6 70 08:20 07.10.2019
6391 Clouds 31 1006 74 10000 2.6 230 07:46 07.10.2019
6392 Clouds 31 1006 74 10000 2.6 230 07:27 07.10.2019
6393 Rain 32 1006 70 10000 4.1 50 06:57 07.10.2019
6394 Rain 32 1006 70 10000 4.1 50 06:38 07.10.2019
6395 Rain 32 1007 70 10000 4.6 70 05:56 07.10.2019
6396 Rain 32 1007 70 10000 4.6 70 05:25 07.10.2019
6397 Rain 31 1008 79 10000 5.7 50 04:47 07.10.2019
6398 Clouds 30 1010 79 10000 3.6 340 03:45 07.10.2019
6399 Clouds 30 1010 79 10000 3.6 340 03:45 07.10.2019
6400 Clouds 30 1010 79 10000 3.6 340 03:23 07.10.2019
6401 Rain 30 1010 74 10000 2.6 340 02:23 07.10.2019
6402 Rain 30 1010 74 10000 2.6 340 02:23 07.10.2019
6403 Rain 31 1011 70 10000 3.6 20 01:58 07.10.2019
6404 Rain 31 1011 70 10000 3.6 20 01:23 07.10.2019
6405 Rain 31 1011 70 10000 1.5 140 00:45 07.10.2019
6406 Rain 31 1011 70 10000 1.5 140 00:23 07.10.2019
6407 Clouds 27 1011 88 10000 1 160 23:56 06.10.2019
6408 Clouds 27 1011 88 10000 1 160 23:38 06.10.2019
6409 Clouds 27 1011 88 10000 1 160 23:18 06.10.2019
6410 Clouds 25 1010 94 10000 1.5 180 22:42 06.10.2019
6411 Clouds 25 1010 94 10000 1.5 180 22:22 06.10.2019
6412 Clouds 24 1010 94 10000 6.37 142.59 21:58 06.10.2019
6413 Clouds 24 1010 94 10000 6.37 142.59 21:58 06.10.2019
6414 Clouds 24 1010 94 10000 6.37 142.59 21:38 06.10.2019
6415 Clouds 24 1010 94 10000 8.21 141.307 21:19 06.10.2019
6416 Clouds 24 1009 94 10000 8.21 141.307 20:59 06.10.2019
6417 Clouds 24 1009 94 10000 8.21 141.307 20:59 06.10.2019
6418 Clouds 24 1009 94 10000 7.71 143.621 20:40 06.10.2019
6419 Clouds 24 1009 94 10000 7.71 143.621 20:21 06.10.2019
6420 Clouds 24 1008 100 10000 1 90 19:58 06.10.2019
6421 Clouds 24 1008 100 10000 1 90 19:38 06.10.2019
6422 Clouds 24 1008 100 10000 1 90 19:20 06.10.2019
6423 Rain 27 1010 81 0 7.71 143.621 18:57 06.10.2019
6424 Rain 27 1010 81 0 7.71 143.621 18:39 06.10.2019
6425 Clouds 25 1009 94 10000 6.87 137.904 18:20 06.10.2019
6426 Clouds 25 1009 94 10000 6.87 137.904 17:59 06.10.2019
6427 Clouds 25 1009 94 10000 6.87 137.904 17:39 06.10.2019
6428 Clouds 25 1009 94 10000 6.87 137.904 17:19 06.10.2019
6429 Clouds 26 1010 94 10000 6.87 137.904 16:43 06.10.2019
6430 Clouds 26 1010 94 10000 6.87 137.904 16:24 06.10.2019
6431 Clouds 26 1010 94 10000 6.87 137.904 16:24 06.10.2019
6432 Clouds 26 1010 88 10000 6.87 137.904 15:59 06.10.2019
6433 Clouds 26 1010 88 10000 6.87 137.904 15:41 06.10.2019
6434 Clouds 26 1010 88 10000 6.03 137.044 15:19 06.10.2019
6435 Clouds 26 1011 94 10000 2.1 180 14:43 06.10.2019
6436 Clouds 26 1011 94 10000 2.1 180 14:24 06.10.2019
6437 Clouds 26 1011 94 10000 1.5 140 13:58 06.10.2019
6438 Clouds 26 1011 94 10000 1.5 140 13:39 06.10.2019
6439 Clouds 26 1011 94 10000 1.5 140 13:20 06.10.2019
6440 Clouds 26 1011 94 10000 1.5 140 13:20 06.10.2019
6441 Clouds 26 1011 94 10000 1 160 12:57 06.10.2019
6442 Clouds 26 1011 94 10000 1 160 12:57 06.10.2019
6443 Clouds 26 1011 94 10000 1 160 12:57 06.10.2019
6444 Clouds 26 1011 94 10000 1 160 12:39 06.10.2019
6445 Clouds 26 1011 94 10000 1 160 12:20 06.10.2019
6446 Clouds 27 1010 88 10000 1.5 160 11:56 06.10.2019
6447 Clouds 27 1010 88 10000 1.5 160 11:37 06.10.2019
6448 Clouds 27 1010 88 10000 1.5 160 11:18 06.10.2019
6449 Clouds 27 1009 94 10000 1 230 10:43 06.10.2019
6450 Clouds 27 1009 94 10000 1 230 10:25 06.10.2019
6451 Clouds 29 1009 79 10000 1 340 09:58 06.10.2019
6452 Clouds 29 1009 79 10000 1 340 09:39 06.10.2019
6453 Clouds 29 1009 79 10000 1 340 09:18 06.10.2019
6454 Clouds 31 1008 66 10000 2.6 70 08:43 06.10.2019
6455 Clouds 31 1008 66 10000 2.6 70 08:20 06.10.2019
6456 Clouds 31 1008 70 10000 5.1 70 07:44 06.10.2019
6457 Clouds 31 1008 70 10000 5.1 70 07:19 06.10.2019
6458 Clouds 30 1008 74 10000 4.1 50 06:20 06.10.2019
6459 Clouds 31 1008 70 10000 5.1 70 05:33 06.10.2019
6460 Clouds 30 1010 74 10000 4.1 50 03:41 06.10.2019
6461 Clouds 30 1010 70 10000 3.1 20 02:42 06.10.2019
6462 Clouds 30 1010 70 10000 3.1 20 02:20 06.10.2019
6463 Clouds 30 1011 70 10000 1.5 20 01:40 06.10.2019
6464 Clouds 30 1011 70 10000 1.5 20 01:21 06.10.2019
6465 Clouds 30 1011 74 10000 2.44 160.672 00:46 06.10.2019
6466 Clouds 30 1011 74 10000 2.44 160.672 00:25 06.10.2019
6467 Clouds 27 1011 78 10000 1 180 23:44 05.10.2019
6468 Clouds 27 1011 78 10000 1 180 23:22 05.10.2019
6469 Clouds 24 1011 94 10000 1.52 135.905 22:58 05.10.2019
6470 Clouds 24 1011 94 10000 1.52 135.905 22:39 05.10.2019
6471 Clouds 24 1011 94 10000 1.52 135.905 22:20 05.10.2019
6472 Clouds 23 1011 94 10000 1.52 135.905 21:43 05.10.2019
6473 Clouds 23 1011 94 10000 1.52 135.905 21:24 05.10.2019
6474 Clouds 23 1010 100 10000 1.31 78.501 20:59 05.10.2019
6475 Clouds 23 1010 100 10000 1.4 68.312 20:40 05.10.2019
6476 Clouds 23 1010 100 10000 1.4 68.312 20:20 05.10.2019
6477 Clouds 23 1009 100 10000 1.5 230 19:58 05.10.2019
6478 Clouds 23 1009 100 10000 1.5 230 19:37 05.10.2019
6479 Clouds 23 1009 100 10000 1.5 230 19:18 05.10.2019
6480 Clouds 23 1010 100 10000 1.5 200 18:55 05.10.2019
6481 Clouds 23 1010 100 10000 1.5 200 18:36 05.10.2019
6482 Clouds 23 1010 100 10000 1.5 200 18:18 05.10.2019
6483 Clouds 23 1010 100 10000 2.1 140 17:42 05.10.2019
6484 Clouds 23 1010 100 10000 2.1 140 17:22 05.10.2019
6485 Clouds 24 1012 100 10000 1.41 89.43 16:56 05.10.2019
6486 Clouds 24 1012 100 10000 1.41 89.43 16:37 05.10.2019
6487 Clouds 24 1012 100 10000 1.41 89.43 16:18 05.10.2019
6488 Clouds 24 1012 100 10000 1.41 89.43 15:56 05.10.2019
6489 Clouds 24 1012 100 10000 1.41 89.43 15:37 05.10.2019
6490 Clouds 24 1012 100 10000 1.37 77.748 15:19 05.10.2019
6491 Clouds 25 1012 94 10000 1.37 77.748 14:42 05.10.2019
6492 Clouds 25 1012 94 10000 1.37 77.748 14:23 05.10.2019
6493 Clouds 25 1012 94 10000 2.1 180 13:44 05.10.2019
6494 Clouds 25 1012 94 10000 2.1 180 13:26 05.10.2019
6495 Clouds 26 1012 94 10000 2.1 160 12:59 05.10.2019
6496 Clouds 26 1012 94 10000 2.1 160 12:41 05.10.2019
6497 Clouds 26 1012 94 10000 2.1 160 12:19 05.10.2019
6498 Clouds 27 1011 78 10000 1.5 140 11:41 05.10.2019
6499 Clouds 27 1011 78 10000 1.5 140 11:20 05.10.2019
6500 Clouds 27 1010 83 10000 2.1 200 10:57 05.10.2019
6501 Clouds 27 1010 83 10000 2.1 200 10:38 05.10.2019
6502 Clouds 27 1010 83 10000 2.1 200 10:38 05.10.2019
6503 Clouds 27 1010 83 10000 2.1 200 10:19 05.10.2019
6504 Clouds 29 1009 79 10000 1.5 360 09:40 05.10.2019
6505 Clouds 29 1009 79 10000 1.5 360 09:22 05.10.2019
6506 Clouds 30 1009 70 10000 3.1 340 08:42 05.10.2019
6507 Clouds 30 1009 70 10000 3.1 340 08:22 05.10.2019
6508 Clouds 31 1008 66 10000 3.1 340 07:59 05.10.2019
6509 Clouds 31 1008 66 10000 3.1 340 07:38 05.10.2019
6510 Clouds 31 1008 66 10000 3.1 340 07:19 05.10.2019
6511 Clouds 31 1008 66 10000 3.6 360 06:29 05.10.2019
6512 Clouds 31 1008 66 10000 3.6 360 06:29 05.10.2019
6513 Clouds 31 1008 66 10000 3.6 340 05:59 05.10.2019
6514 Clouds 31 1009 70 10000 4.6 360 04:42 05.10.2019
6515 Clouds 31 1010 66 10000 3.6 360 03:29 05.10.2019
6516 Clouds 31 1011 70 10000 3.6 20 01:55 05.10.2019
6517 Clouds 31 1011 70 10000 3.6 20 01:23 05.10.2019
6518 Clouds 30 1011 70 10000 3.1 70 00:46 05.10.2019
6519 Clouds 30 1011 70 10000 3.1 70 00:27 05.10.2019
6520 Clouds 28 1011 78 10000 1.5 160 23:45 04.10.2019
6521 Clouds 28 1011 78 10000 1.5 160 23:26 04.10.2019
6522 Clouds 24 1010 100 10000 2.27 78.571 22:59 04.10.2019
6523 Clouds 24 1010 100 10000 2.27 78.571 22:41 04.10.2019
6524 Clouds 24 1010 100 10000 2.27 78.571 22:22 04.10.2019
6525 Clouds 22 1010 100 10000 1.5 180 21:58 04.10.2019
6526 Clouds 22 1010 100 10000 1.5 180 21:39 04.10.2019
6527 Clouds 22 1010 100 10000 1.5 180 21:21 04.10.2019
6528 Clouds 23 1010 94 10000 1 200 20:57 04.10.2019
6529 Clouds 23 1010 94 10000 1 200 20:57 04.10.2019
6530 Clouds 23 1010 94 10000 1 200 20:38 04.10.2019
6531 Clouds 23 1010 94 10000 1 200 20:38 04.10.2019
6532 -273 0 0 0 0 0 20:20 04.10.2019
6533 Clouds 23 1009 100 10000 2.22 53.089 19:48 04.10.2019
6534 Clouds 23 1009 100 10000 2.22 53.089 19:29 04.10.2019
6535 Clouds 23 1009 100 10000 1 160 18:59 04.10.2019
6536 Clouds 23 1009 100 10000 1 160 18:38 04.10.2019
6537 Clouds 23 1009 100 10000 1 160 18:19 04.10.2019
6538 Clouds 24 1010 94 10000 1.5 110 17:55 04.10.2019
6539 Clouds 24 1010 94 10000 1.5 110 17:36 04.10.2019
6540 Clouds 24 1010 94 10000 1.5 110 17:18 04.10.2019
6541 Clouds 24 1010 100 10000 1.5 160 16:41 04.10.2019
6542 Clouds 24 1010 100 10000 1.5 160 16:19 04.10.2019
6543 Clouds 24 1011 100 10000 1.5 160 15:58 04.10.2019
6544 Clouds 24 1011 100 10000 1.5 160 15:40 04.10.2019
6545 Clouds 24 1011 100 10000 1.5 160 15:21 04.10.2019
6546 Clouds 25 1011 94 10000 1.5 160 14:58 04.10.2019
6547 Clouds 25 1011 94 10000 1.5 160 14:58 04.10.2019
6548 Clouds 25 1011 94 10000 1.5 160 14:39 04.10.2019
6549 Clouds 25 1011 94 10000 1.5 160 14:21 04.10.2019
6550 Clouds 26 1011 94 10000 1 110 13:46 04.10.2019
6551 Clouds 26 1011 94 10000 1 110 13:24 04.10.2019
6552 Clouds 26 1011 94 10000 1 160 12:58 04.10.2019
6553 Clouds 26 1011 94 10000 1 160 12:40 04.10.2019
6554 Clouds 26 1011 94 10000 1 160 12:21 04.10.2019
6555 Clouds 27 1010 88 10000 1.5 110 11:43 04.10.2019
6556 Clouds 27 1010 88 10000 1.5 110 11:43 04.10.2019
6557 Clouds 27 1010 88 10000 1.5 110 11:42 04.10.2019
6558 Clouds 27 1010 88 10000 1.5 110 11:22 04.10.2019
6559 Clouds 28 1009 78 10000 2.79 167.291 10:55 04.10.2019
6560 Clouds 28 1009 78 10000 2.79 167.291 10:37 04.10.2019
6561 Clouds 28 1009 78 10000 2.79 167.291 10:18 04.10.2019
6562 Clouds 29 1009 74 10000 3.1 70 09:41 04.10.2019
6563 Clouds 29 1009 74 10000 3.1 70 09:23 04.10.2019
6564 Clouds 30 1008 70 10000 3.6 70 08:45 04.10.2019
6565 Clouds 30 1008 70 10000 3.6 70 08:26 04.10.2019
6566 Clouds 31 1007 70 10000 3.1 50 07:47 04.10.2019
6567 Clouds 31 1007 70 10000 3.1 50 07:26 04.10.2019
6568 Clouds 31 1007 70 10000 5.1 110 06:58 04.10.2019
6569 Clouds 31 1007 70 10000 5.1 110 06:39 04.10.2019
6570 Clouds 31 1007 70 10000 5.1 110 06:20 04.10.2019
6571 Clouds 31 1007 70 10000 5.1 110 06:20 04.10.2019
6572 Clouds 31 1007 66 10000 3.1 110 05:20 04.10.2019
6573 Clouds 29 1008 83 10000 2.1 160 04:37 04.10.2019
6574 Clouds 31 1011 70 10000 3.1 70 02:56 04.10.2019
6575 Clouds 31 1011 70 10000 3.1 70 02:56 04.10.2019
6576 Clouds 31 1011 70 10000 3.1 70 02:37 04.10.2019
6577 Clouds 31 1011 70 10000 3.1 70 02:37 04.10.2019
6578 Clouds 30 1011 74 10000 4.6 110 01:43 04.10.2019
6579 Clouds 30 1011 74 10000 4.6 110 01:25 04.10.2019
6580 Clouds 29 1011 74 10000 2.6 110 00:29 04.10.2019
6581 Clouds 26 1010 83 10000 1.5 140 23:38 03.10.2019
6582 Clouds 26 1010 83 10000 1.5 140 23:20 03.10.2019
6583 Clouds 24 1010 94 10000 1 140 22:57 03.10.2019
6584 Clouds 24 1010 94 10000 1 140 22:39 03.10.2019
6585 Clouds 24 1010 94 10000 1 140 22:39 03.10.2019
6586 Clouds 24 1010 94 10000 1 140 22:21 03.10.2019
6587 Clouds 23 1009 94 10000 1.5 140 21:56 03.10.2019
6588 Clouds 23 1009 94 10000 1.5 140 21:38 03.10.2019
6589 Clouds 23 1009 94 10000 1.5 140 21:19 03.10.2019
6590 Clouds 23 1009 94 10000 1.5 140 20:57 03.10.2019
6591 Clouds 23 1009 94 10000 1.5 140 20:37 03.10.2019
6592 Clouds 23 1009 94 10000 1.5 140 20:19 03.10.2019
6593 Clouds 23 1009 100 10000 1 140 19:55 03.10.2019
6594 Clouds 23 1009 100 10000 1 140 19:36 03.10.2019
6595 Clouds 23 1009 100 10000 1 140 19:18 03.10.2019
6596 Clouds 23 1009 100 10000 1 160 18:40 03.10.2019
6597 Clouds 23 1009 100 10000 1 160 18:19 03.10.2019
6598 Clouds 24 1009 94 10000 1 160 17:59 03.10.2019
6599 Clouds 24 1009 94 10000 1 160 17:41 03.10.2019
6600 Clouds 24 1009 94 10000 1 160 17:20 03.10.2019
6601 Clouds 27 1009 73 0 2.61 149.462 16:44 03.10.2019
6602 Clouds 25 1010 94 10000 1.5 160 16:26 03.10.2019
6603 Clouds 25 1010 94 10000 1.5 160 15:57 03.10.2019
6604 Clouds 25 1010 94 10000 1.5 160 15:39 03.10.2019
6605 Clouds 25 1010 94 10000 1.5 160 15:21 03.10.2019
6606 Clouds 25 1010 94 10000 1 160 14:47 03.10.2019
6607 Clouds 25 1010 94 10000 1 160 14:27 03.10.2019
6608 Clouds 25 1010 94 10000 1.5 160 13:59 03.10.2019
6609 Clouds 25 1010 94 10000 1.5 160 13:41 03.10.2019
6610 Clouds 25 1010 94 10000 1.5 160 13:19 03.10.2019
6611 Rain 27 1011 74 0 1.94 67.814 12:56 03.10.2019
6612 Rain 27 1011 74 0 1.94 67.814 12:38 03.10.2019
6613 Clouds 26 1009 88 10000 4.75 137.323 12:19 03.10.2019
6614 Clouds 26 1009 88 10000 4.75 137.323 11:41 03.10.2019
6615 Clouds 26 1009 88 10000 4.75 137.323 11:41 03.10.2019
6616 Clouds 26 1009 88 10000 4.75 137.323 11:23 03.10.2019
6617 Rain 27 1010 77 0 4.75 137.323 10:59 03.10.2019
6618 Rain 27 1010 77 0 4.75 137.323 10:40 03.10.2019
6619 Rain 28 1008 78 10000 3.1 110 10:19 03.10.2019
6620 Rain 28 1008 78 10000 3.1 110 09:58 03.10.2019
6621 Rain 28 1008 78 10000 3.1 110 09:40 03.10.2019
6622 Rain 28 1008 78 10000 3.1 110 09:20 03.10.2019
6623 Clouds 28 1008 88 10000 5.1 90 08:45 03.10.2019
6624 Clouds 28 1008 88 10000 5.1 90 08:27 03.10.2019
6625 Rain 31 1007 66 10000 5.1 110 07:57 03.10.2019
6626 Rain 31 1007 66 10000 5.1 110 07:39 03.10.2019
6627 Rain 31 1007 66 10000 5.1 110 07:19 03.10.2019
6628 Rain 31 1007 66 10000 5.1 110 07:19 03.10.2019
6629 Rain 30 1007 66 10000 6.2 110 06:47 03.10.2019
6630 Rain 30 1007 66 10000 6.2 110 06:24 03.10.2019
6631 Clouds 32 1008 59 10000 6.2 90 05:44 03.10.2019
6632 Clouds 31 1009 62 10000 2.6 90 04:56 03.10.2019
6633 Clouds 31 1009 62 10000 2.6 90 04:25 03.10.2019
6634 Clouds 31 1010 66 10000 4.6 110 03:23 03.10.2019
6635 Clouds 31 1011 66 10000 5.1 110 02:38 03.10.2019
6636 Clouds 30 1011 70 10000 6.2 140 01:51 03.10.2019
6637 Clouds 30 1011 70 10000 6.2 140 01:32 03.10.2019
6638 Rain 29 1011 74 10000 49.4 140 00:47 03.10.2019
6639 Rain 29 1011 74 10000 49.4 140 00:18 03.10.2019
6640 Clouds 26 1011 78 10000 3.6 140 23:43 02.10.2019
6641 Clouds 26 1011 78 10000 3.6 140 23:21 02.10.2019
6642